Ship Status Report: callsign 000000

sailwx.info

Track history (hours):
 
Tides and Currents Weather Stations Pressure Air Temp Water Temp Dewpoint Dewpoint Depression Visibility Wind Speed Wind Dir Waves Ship Positions

Callsign 000000 (name unknown)

Last reported at 2015-Jan-25 09:33 UTC. Time now 2015-Jan-25 10:15 UTC.
Position N 23°04' E 113°29'.

Type: Fishing. MMSI: 200007452.

Date/timePositionNaut miles runAvg speedWind from/ knotsBaromVisibWave heightAir tempDewpointWater temp
2015-Jan-25 09:33N 23°04' E 113°29'31944103.2
2015-Jan-25 09:33N 24°44' E 118°60'11853.2
2015-Jan-25 09:32N 24°54' E 119°03'39450710.5
2015-Jan-25 09:32N 31°07' E 121°28'68112843.2
2015-Jan-25 09:29N 22°11' E 113°37'19118.8
2015-Jan-25 09:19N 22°27' E 113°48'41803.3
2015-Jan-25 09:16N 23°04' E 113°30'636898.6
2015-Jan-25 08:34N 30°59' E 121°24'63684831.4
2015-Jan-25 08:33N 23°04' E 113°29'53717.8
2015-Jan-25 08:29N 22°11' E 113°37'536589.8
2015-Jan-25 08:28N 23°04' E 113°30'41144.3
2015-Jan-25 08:11N 22°27' E 113°48'33410918.3
2015-Jan-25 08:09N 25°01' E 119°11'385647.0
2015-Jan-25 07:34N 31°07' E 121°28'84287.5
2015-Jan-25 07:33N 30°59' E 121°24'6362290430.3
2015-Jan-25 07:33N 23°04' E 113°29'525341.0
2015-Jan-25 07:33N 22°14' E 113°40'52396.4
2015-Jan-25 07:25N 23°04' E 113°30'3236461.9
2015-Jan-25 07:22N 24°54' E 119°02'42217682.1
2015-Jan-25 07:21N 31°41' E 121°11'4062256.9
2015-Jan-25 07:10N 25°07' E 119°17'370611.0
2015-Jan-25 06:33N 30°59' E 121°24'6361145215.2
2015-Jan-25 06:33N 23°04' E 113°29'31988385.7
2015-Jan-25 06:33N 24°47' E 118°59'4422461.7
2015-Jan-25 06:22N 31°58' E 120°50'69367435.7
2015-Jan-25 06:22N 22°18' E 113°44'48510.8
2015-Jan-25 06:16N 23°04' E 113°30'635892.7
2015-Jan-25 05:33N 30°59' E 121°23'359431114.6
2015-Jan-25 05:33N 25°15' E 119°26'35174333.1
2015-Jan-25 05:33N 23°04' E 113°29'64323621.2
2015-Jan-25 05:32N 31°57' E 120°15'64310968.7
2015-Jan-25 05:28N 23°04' E 113°30'4405.3
2015-Jan-25 05:27N 23°04' E 113°25'6658027.9
2015-Jan-25 05:22N 31°58' E 120°50'6882530.3
2015-Jan-25 05:06N 22°24' E 113°45'31815278.9
2015-Jan-25 05:05N 24°38' E 118°59'3230.8
2015-Jan-25 05:04N 24°37' E 118°55'313615.9
2015-Jan-25 04:33N 23°04' E 113°29'630324075.2
2015-Jan-25 04:33N 30°58' E 121°16'7813350.4
2015-Jan-25 04:33N 31°59' E 120°20'26340.1
2015-Jan-25 04:28N 31°58' E 120°50'662297770.2
2015-Jan-25 04:28N 23°04' E 113°30'3169483.1
2015-Jan-25 04:26N 24°39' E 118°59'235.1
2015-Jan-25 04:23N 24°39' E 118°57'448547.2
2015-Jan-25 03:33N 32°00' E 120°24'7412603.1
2015-Jan-25 03:33N 30°58' E 121°09'624157.6
2015-Jan-25 03:32N 31°58' E 120°50'66282167.0
2015-Jan-25 03:32N 23°04' E 113°29'66017855.5
2015-Jan-25 03:30N 31°25' E 121°32'42433908.4
2015-Jan-25 03:29N 24°47' E 118°47'30910798.5
2015-Jan-25 03:27N 23°05' E 113°28'6601977.2
2015-Jan-25 03:07N 31°45' E 121°05'4219062.1
2015-Jan-25 03:07N 31°07' E 121°28'382942.0
2015-Jan-25 03:06N 31°41' E 121°10'4073.1
2015-Jan-25 02:33N 31°02' E 121°05'218269.3
2015-Jan-25 02:33N 31°07' E 121°28'7311412.2
2015-Jan-25 02:33N 32°01' E 120°31'39030.2
2015-Jan-25 02:33N 32°02' E 120°28'654336271.7
2015-Jan-25 02:33N 23°04' E 113°29'31138663.4
2015-Jan-25 02:32N 24°49' E 118°50'31115112.2
2015-Jan-25 02:31N 22°27' E 113°48'317285593.4
2015-Jan-25 02:31N 24°52' E 118°56'32315517.7
2015-Jan-25 02:30N 23°02' E 113°24'66358206.4
2015-Jan-25 02:29N 31°46' E 121°00'6589362.6
2015-Jan-25 02:25N 23°04' E 113°30'313987.2
2015-Jan-25 02:06N 24°38' E 118°57'45117104.4
2015-Jan-25 02:04N 31°58' E 120°50'6621290.8
2015-Jan-25 01:33N 23°04' E 113°29'656590240.8
2015-Jan-25 01:33N 32°01' E 120°33'6420902.9
2015-Jan-25 01:33N 31°01' E 120°58'6679095.2
2015-Jan-25 01:33N 32°01' E 120°25'221331.6
2015-Jan-25 01:32N 31°58' E 120°50'96775.9
2015-Jan-25 01:32N 31°49' E 120°54'1231539.0
2015-Jan-25 01:27N 30°00' E 122°01'38415011.8
2015-Jan-25 01:26N 24°21' E 118°39'2944464.7
2015-Jan-25 01:22N 23°04' E 113°30'31112582.4
2015-Jan-25 01:20N 24°37' E 118°54'3123816.4
2015-Jan-25 01:15N 23°04' E 113°29'63941845.2
2015-Jan-25 01:14N 31°01' E 121°28'4269640.5
2015-Jan-25 01:12N 24°21' E 118°40'295461.2
2015-Jan-25 00:33N 23°04' E 113°29'315103074.3
2015-Jan-25 00:33N 24°42' E 118°56'44221493.8
2015-Jan-25 00:32N 31°58' E 120°19'63114147.8
2015-Jan-25 00:32N 31°01' E 120°52'321164918.5
2015-Jan-25 00:32N 25°47' E 119°40'6710439.9
2015-Jan-25 00:31N 24°53' E 118°57'43552148.8
2015-Jan-25 00:31N 31°55' E 120°52'66166070.9
2015-Jan-25 00:30N 23°04' E 113°29'64423191.0
2015-Jan-25 00:29N 31°07' E 121°28'6173.1
2015-Jan-25 00:26N 31°01' E 121°28'6611852.3
2015-Jan-25 00:26N 31°58' E 120°50'66229053.2
2015-Jan-25 00:25N 23°04' E 113°30'658789894.3
2015-Jan-25 00:25N 31°24' E 121°31'561083.4
2015-Jan-25 00:22N 32°00' E 120°40'4764894.7
2015-Jan-25 00:16N 24°18' E 118°33'288407.8
2015-Jan-24 23:33N 23°04' E 113°29'643231530.2
2015-Jan-24 23:33N 31°57' E 120°16'441198411.4
2015-Jan-24 23:33N 24°41' E 119°01'4501620040.1
2015-Jan-24 23:33N 32°01' E 120°46'5276.3
2015-Jan-24 23:32N 31°58' E 120°50'3066398.3
2015-Jan-24 23:29N 36°53' E 122°28'3562413.1
2015-Jan-24 23:20N 31°01' E 121°28'42745210.3
2015-Jan-24 23:20N 24°21' E 118°39'365631.0
2015-Jan-24 23:19N 24°53' E 118°57'3194683.7
2015-Jan-24 23:15N 23°04' E 113°29'6598912.3
2015-Jan-24 23:11N 31°24' E 121°31'885760.9
2015-Jan-24 23:10N 32°02' E 119°57'638143652.6
2015-Jan-24 23:10N 23°04' E 113°30'6411056.3
2015-Jan-24 22:33N 31°56' E 120°13'641256384.1
2015-Jan-24 22:33N 23°04' E 113°29'414149.2
2015-Jan-24 22:33N 22°27' E 113°48'661297529.2
2015-Jan-24 22:32N 31°59' E 120°00'4410534.0
2015-Jan-24 22:32N 31°57' E 120°52'30734496.9
2015-Jan-24 22:32N 36°54' E 122°26'743191047.3
2015-Jan-24 22:31N 24°53' E 118°57'43711238.9
2015-Jan-24 22:29N 31°58' E 120°50'4814463.2
2015-Jan-24 22:29N 31°24' E 121°31'65925491.2
2015-Jan-24 22:27N 23°04' E 113°29'122.7
2015-Jan-24 22:25N 23°04' E 113°30'639738.4
2015-Jan-24 21:33N 31°56' E 120°09'639164341.3
2015-Jan-24 21:33N 23°04' E 113°29'639135370.0
2015-Jan-24 21:33N 31°57' E 120°07'417837.2
2015-Jan-24 21:33N 31°50' E 120°55'9161.2
2015-Jan-24 21:29N 31°58' E 120°50'66223135.7
2015-Jan-24 21:27N 23°04' E 113°29'3199807.6
2015-Jan-24 21:25N 24°53' E 118°57'74325218.4
2015-Jan-24 21:24N 36°53' E 122°26'97611226.5
2015-Jan-24 21:18N 22°27' E 113°48'4155.0
2015-Jan-24 20:33N 23°04' E 113°29'638191521.1
2015-Jan-24 20:33N 31°55' E 120°08'3195679.7
2015-Jan-24 20:30N 36°53' E 122°26'332298689.4
2015-Jan-24 20:30N 31°24' E 121°31'65818095.8
2015-Jan-24 20:27N 23°04' E 113°29'3199725.6
2015-Jan-24 20:25N 24°53' E 118°57'43711237.8
2015-Jan-24 20:23N 31°58' E 120°50'4694242.4
2015-Jan-24 20:16N 24°24' E 118°39'1142351.9
2015-Jan-24 20:14N 26°07' E 119°33'6 8.6
2015-Jan-24 19:33N 26°02' E 119°30'37935878.7
2015-Jan-24 19:33N 22°27' E 113°48'419248.3
2015-Jan-24 19:33N 23°04' E 113°29'66282159.5
2015-Jan-24 19:32N 31°58' E 120°50'351996.4
2015-Jan-24 19:31N 31°55' E 120°08'763160.7
2015-Jan-24 19:30N 31°24' E 121°31'33230634.8
2015-Jan-24 19:29N 36°53' E 122°26'97733175.7
2015-Jan-24 19:27N 22°24' E 113°54'371412.6
2015-Jan-24 18:33N 25°58' E 119°25'359215497.0
2015-Jan-24 18:33N 31°55' E 120°08'638143640.6
2015-Jan-24 18:33N 23°04' E 113°29'658107736.9
2015-Jan-24 18:33N 31°24' E 121°31'33216828.2
2015-Jan-24 18:31N 36°53' E 122°26'976152784.7
2015-Jan-24 18:31N 22°27' E 113°48'7148.2
2015-Jan-24 18:28N 22°21' E 113°43'454261.6
2015-Jan-24 18:27N 23°04' E 113°29'6627332.4
2015-Jan-24 18:22N 31°58' E 120°50'437534.2
2015-Jan-24 17:33N 24°53' E 118°55'428219887.2
2015-Jan-24 17:33N 31°55' E 120°08'67541915.8
2015-Jan-24 17:32N 22°16' E 113°39'69118167.6
2015-Jan-24 17:29N 31°24' E 121°31'65818964.1
2015-Jan-24 17:27N 23°04' E 113°29'66229061.2
2015-Jan-24 17:26N 31°58' E 120°50'52223509.2
2015-Jan-24 17:25N 23°44' E 117°39'1634653.8
2015-Jan-24 17:23N 25°56' E 119°23'2001325.9
2015-Jan-24 17:14N 22°38' E 119°50'3464787.8
2015-Jan-24 17:09N 22°56' E 113°36'314519.6
2015-Jan-24 16:33N 24°53' E 118°55'317571045.0
2015-Jan-24 16:33N 23°04' E 113°29'533506.6
2015-Jan-24 16:32N 22°12' E 113°34'30923165.0
2015-Jan-24 16:31N 24°23' E 118°39'45928499.8
2015-Jan-24 16:30N 31°55' E 120°08'76766.9
2015-Jan-24 16:24N 31°24' E 121°31'482405.0
2015-Jan-24 16:23N 31°58' E 120°50'661195.3
2015-Jan-24 16:20N 31°01' E 121°28'63940359.4
2015-Jan-24 16:19N 23°04' E 113°30'41422.3
2015-Jan-24 16:13N 22°27' E 113°48'654994.9
2015-Jan-24 15:34N 30°59' E 121°23'389701094.1
2015-Jan-24 15:33N 24°52' E 118°55'31733570.9
2015-Jan-24 15:33N 23°04' E 113°29'638328321.4
2015-Jan-24 15:33N 31°55' E 120°08'68161283.8
2015-Jan-24 15:32N 22°12' E 113°34'703230105.7
2015-Jan-24 15:32N 31°58' E 120°50'481822.7
2015-Jan-24 15:30N 31°25' E 121°31'6594577.2
2015-Jan-24 15:22N 23°04' E 113°30'658107709.4
2015-Jan-24 15:21N 31°24' E 121°31'6774829.1
2015-Jan-24 15:13N 22°27' E 113°48'11398.3
2015-Jan-24 15:11N 22°19' E 113°40'320507.8
2015-Jan-24 14:33N 24°43' E 118°52'31193420.6
2015-Jan-24 14:33N 23°04' E 113°29'370190281.8
2015-Jan-24 14:33N 22°38' E 120°09'557200610.2
2015-Jan-24 14:33N 31°55' E 120°08'66115875.0
2015-Jan-24 14:30N 22°27' E 113°48'15396.0
2015-Jan-24 14:28N 22°16' E 113°37'49312.5
2015-Jan-24 14:19N 23°04' E 113°30'376499.0
2015-Jan-24 13:33N 22°37' E 120°17'514168316.2
2015-Jan-24 13:33N 31°07' E 121°28'644386457.1
2015-Jan-24 13:33N 23°04' E 113°29'65819112.2
2015-Jan-24 13:31N 31°24' E 121°31'661272.2
2015-Jan-24 13:28N 32°04' E 120°30'211762.0
2015-Jan-24 13:27N 31°55' E 120°08'67845225.7
2015-Jan-24 13:26N 22°14' E 113°35'367.7
2015-Jan-24 13:24N 22°12' E 113°34'70319032.8
2015-Jan-24 13:22N 31°58' E 120°50'67011885.0
2015-Jan-24 13:18N 22°51' E 113°34'27192.3
2015-Jan-24 13:10N 22°27' E 113°48'4267.2
2015-Jan-24 12:33N 23°04' E 113°29'749454.0
2015-Jan-24 12:32N 21°52' E 113°16'723433696.2
2015-Jan-24 12:32N 31°24' E 121°31'7718485.9
2015-Jan-24 12:32N 31°55' E 120°08'3514198.3
2015-Jan-24 12:32N 31°58' E 120°50'66654507.6
2015-Jan-24 12:31N 22°57' E 113°33'42529.1
2015-Jan-24 12:26N 22°14' E 113°35'69510004.4
2015-Jan-24 12:22N 31°24' E 121°31'6979961.1
2015-Jan-24 12:18N 22°12' E 113°34'29317034.2
2015-Jan-24 12:17N 24°15' E 118°24'4847956.4
2015-Jan-24 12:13N 32°13' E 119°54'2132.1
2015-Jan-24 11:33N 31°55' E 120°08'46343826.9
2015-Jan-24 11:33N 24°20' E 118°36'291116552.8
2015-Jan-24 11:33N 23°04' E 113°29'502228.3
2015-Jan-24 11:31N 22°14' E 113°35'68828819.9
2015-Jan-24 11:30N 31°20' E 121°25'6912329.4
2015-Jan-24 11:12N 22°12' E 113°34'30511790.2
2015-Jan-24 11:10N 24°22' E 118°34'46941167.7
2015-Jan-24 11:10N 32°06' E 119°56'6411152955.2
2015-Jan-24 11:10N 23°04' E 113°30'1 1.0
2015-Jan-24 10:34N 23°04' E 113°29'638127681.7
2015-Jan-24 10:33N 31°55' E 120°08'46011822.3
2015-Jan-24 10:31N 24°22' E 118°40'31315652.8
2015-Jan-24 10:30N 22°03' E 113°35'6127520.9
2015-Jan-24 10:30N 23°04' E 113°29'16175.2
2015-Jan-24 10:24N 22°53' E 113°17'6537540.1
2015-Jan-24 10:19N 32°01' E 119°58'638120917.4
2015-Jan-24 10:19N 23°04' E 113°30'66221081.6
2015-Jan-24 10:17N 31°58' E 120°50'7014310.9
2015-Jan-24 10:07N 22°14' E 113°35'3126.2
2015-Jan-24 10:06N 22°12' E 113°34'5398.3
2015-Jan-24 09:34N 23°04' E 113°29'638176799.6
2015-Jan-24 09:33N 31°55' E 120°08'886433.4
2015-Jan-24 09:33N 31°01' E 121°29'666262.3
2015-Jan-24 09:32N 31°58' E 120°50'66234524.6
2015-Jan-24 09:31N 23°04' E 113°30'65842312.7
2015-Jan-24 09:30N 31°24' E 121°31'492325.3
2015-Jan-24 09:29N 31°59' E 120°49'431908.9
2015-Jan-24 09:27N 32°01' E 119°59'63867566.6
2015-Jan-24 09:27N 23°04' E 113°29'531688.2
2015-Jan-24 09:25N 22°12' E 113°41'32344738.1
2015-Jan-24 09:24N 24°38' E 118°55'32835835.4
2015-Jan-24 09:24N 22°12' E 113°34'68516113.8
2015-Jan-24 09:21N 31°57' E 120°15'1 6.3
2015-Jan-24 09:12N 31°57' E 120°13'81127.9
2015-Jan-24 08:33N 31°06' E 121°28'7856495.9
2015-Jan-24 08:33N 31°60' E 120°20'7821563.2
2015-Jan-24 08:33N 31°07' E 121°28'7894149.0
2015-Jan-24 08:33N 31°58' E 120°18'138063.2
2015-Jan-24 08:33N 31°58' E 120°03'63811041.3
2015-Jan-24 08:30N 23°04' E 113°29'531566.6
2015-Jan-24 08:28N 22°12' E 113°34'1211121.3
2015-Jan-24 08:27N 22°20' E 113°44'69123252.7
2015-Jan-24 08:26N 31°58' E 120°50'4527784.1
2015-Jan-24 08:22N 24°38' E 118°54'2988861.6
2015-Jan-24 08:20N 22°18' E 114°08'30297.1
2015-Jan-24 08:14N 22°14' E 113°35'17777.4
2015-Jan-24 08:13N 22°27' E 113°48'6775933.6
2015-Jan-24 08:06N 31°24' E 121°31'44815502.6
2015-Jan-24 08:04N 24°23' E 118°40'431835.1
2015-Jan-24 07:33N 31°07' E 121°28'8333273.2
2015-Jan-24 07:33N 31°55' E 120°08'146482.5
2015-Jan-24 07:33N 32°01' E 120°24'7310993.7
2015-Jan-24 07:33N 31°11' E 121°28'68387771.7
2015-Jan-24 07:32N 22°14' E 113°35'29123842.8
2015-Jan-24 07:31N 24°14' E 118°24'27526052.0
2015-Jan-24 07:31N 22°27' E 113°48'412255.0
2015-Jan-24 07:30N 23°04' E 113°29'531480.8
2015-Jan-24 07:27N 22°12' E 113°34'68228219.6
2015-Jan-24 07:26N 31°57' E 120°08'44210962.9
2015-Jan-24 07:24N 24°40' E 118°54'211233.9
2015-Jan-24 07:23N 24°23' E 118°41'447107366.8
2015-Jan-24 07:22N 31°24' E 121°31'481082.3
2015-Jan-24 07:20N 31°58' E 120°50'66242538.3
2015-Jan-24 07:19N 23°04' E 113°30'6622737.7
2015-Jan-24 07:04N 31°59' E 120°49'1833.8
2015-Jan-24 06:33N 32°02' E 120°29'7544881.7
2015-Jan-24 06:33N 31°07' E 121°28'837486.5
2015-Jan-24 06:32N 31°55' E 120°08'2439.7
2015-Jan-24 06:32N 31°56' E 120°11'7913466.8
2015-Jan-24 06:32N 31°15' E 121°29'68763385.2
2015-Jan-24 06:31N 22°14' E 113°35'5022462.8
2015-Jan-24 06:31N 23°04' E 113°30'6614161.0
2015-Jan-24 06:21N 32°00' E 120°46'6615996.7
2015-Jan-24 06:15N 23°04' E 113°29'65857781.6
2015-Jan-24 06:14N 31°24' E 121°30'76112.4
2015-Jan-24 05:33N 31°55' E 120°08'83299420.4
2015-Jan-24 05:33N 31°07' E 121°28'67241465.5
2015-Jan-24 05:33N 31°60' E 120°39'213095.5
2015-Jan-24 05:33N 31°57' E 120°15'163119.7
2015-Jan-24 05:32N 32°01' E 120°33'69589384.3
2015-Jan-24 05:32N 22°14' E 113°35'69110545.9
2015-Jan-24 05:28N 31°18' E 121°34'65526214.4
2015-Jan-24 05:27N 23°04' E 113°29'533645.8
2015-Jan-24 05:26N 22°12' E 113°34'53197.2
2015-Jan-24 05:10N 23°04' E 113°30'66279404.2
2015-Jan-24 05:09N 31°58' E 120°50'1 2.1
2015-Jan-24 04:33N 31°59' E 120°50'153612.5
2015-Jan-24 04:33N 32°01' E 120°32'54761.4
2015-Jan-24 04:33N 32°00' E 120°38'161047.1
2015-Jan-24 04:32N 31°58' E 120°19'7712114.3
2015-Jan-24 04:32N 31°07' E 121°28'151176.7
2015-Jan-24 04:31N 31°22' E 121°30'65628116.4
2015-Jan-24 04:30N 23°04' E 113°29'0 4.2
2015-Jan-24 04:27N 23°04' E 113°29'531841.3
2015-Jan-24 04:26N 22°12' E 113°34'52858.1
2015-Jan-24 04:22N 23°04' E 113°29'6119.8
2015-Jan-24 04:19N 23°02' E 113°22'43426.0
2015-Jan-24 04:13N 22°27' E 113°48'17217.1
2015-Jan-24 04:08N 22°14' E 113°35'504304.1
2015-Jan-24 04:07N 23°04' E 113°29'6601175.1
2015-Jan-24 03:33N 32°00' E 120°43'660169629.4
2015-Jan-24 03:33N 23°04' E 113°29'648388956.5
2015-Jan-24 03:33N 31°58' E 120°23'132466.3
2015-Jan-24 03:33N 31°55' E 120°08'834679.2
2015-Jan-24 03:32N 31°07' E 121°28'645773447.3
2015-Jan-24 03:32N 23°05' E 113°28'31411204.0
2015-Jan-24 03:30N 24°41' E 118°55'31346993.5
2015-Jan-24 03:30N 23°04' E 113°29'30821765.2
2015-Jan-24 03:29N 24°46' E 118°47'30811813.1
2015-Jan-24 03:27N 23°04' E 113°29'661198354.6
2015-Jan-24 03:27N 32°01' E 120°44'661742.3
2015-Jan-24 02:34N 23°04' E 113°29'646116191.3
2015-Jan-24 02:33N 31°58' E 120°19'434781496.6
2015-Jan-24 02:33N 24°50' E 118°55'430309866.7
2015-Jan-24 02:33N 31°55' E 120°08'132001.3
2015-Jan-24 02:33N 31°58' E 120°24'648259342.7
2015-Jan-24 02:33N 23°04' E 113°29'3147444.8
2015-Jan-24 02:30N 24°41' E 118°56'42673058.7
2015-Jan-24 02:30N 31°25' E 121°32'42419833.3
2015-Jan-24 02:28N 24°46' E 118°47'30810352.9
2015-Jan-24 02:27N 23°04' E 113°29'503748.2
2015-Jan-24 02:26N 22°14' E 113°35'70310816.0
2015-Jan-24 02:22N 32°02' E 120°50'646189.1
2015-Jan-24 02:21N 31°07' E 121°28'6829787.5
2015-Jan-24 02:17N 22°12' E 113°34'5372.2
2015-Jan-24 01:33N 23°04' E 113°29'31440390.4
2015-Jan-24 01:33N 24°50' E 118°53'43170513.1
2015-Jan-24 01:32N 31°55' E 120°10'42881024.9
2015-Jan-24 01:32N 24°53' E 118°57'42829642.9
2015-Jan-24 01:31N 31°56' E 120°12'64125070.1
2015-Jan-24 01:30N 23°04' E 113°29'50924.8
2015-Jan-24 01:26N 22°14' E 113°35'68019424.6
2015-Jan-24 01:24N 31°07' E 121°28'751242.0
2015-Jan-24 01:21N 31°58' E 120°24'64812480.9
2015-Jan-24 01:18N 23°04' E 113°29'41619.3
2015-Jan-24 01:14N 22°27' E 113°48'2767631.1
2015-Jan-24 01:11N 24°13' E 118°25'48720623.5
2015-Jan-24 01:10N 32°02' E 120°52'6661085.7
2015-Jan-24 00:33N 23°04' E 113°29'1383.2
2015-Jan-24 00:33N 23°04' E 113°29'648116704.3
2015-Jan-24 00:33N 31°58' E 120°24'43235371.3
2015-Jan-24 00:32N 24°53' E 118°57'428307894.7
2015-Jan-24 00:32N 31°55' E 120°10'67924943.9
2015-Jan-24 00:30N 22°14' E 113°35'504284.6
2015-Jan-24 00:30N 23°04' E 113°29'2801950.2
2015-Jan-24 00:21N 24°14' E 118°25'17805.7
2015-Jan-24 00:20N 24°23' E 118°41'23174.8
2015-Jan-24 00:12N 24°41' E 118°56'33124792.9
2015-Jan-24 00:11N 22°12' E 113°34'3314222.8
2015-Jan-24 00:06N 24°41' E 118°56'314572.9
2015-Jan-23 23:34N 23°04' E 113°29'642100546.0
2015-Jan-23 23:33N 31°57' E 120°14'642144501.1
2015-Jan-23 23:33N 23°04' E 113°30'31545292.1
2015-Jan-23 23:32N 24°41' E 118°57'44410183.8
2015-Jan-23 23:30N 31°58' E 120°24'47735749.8
2015-Jan-23 23:29N 24°13' E 118°25'2806755.6
2015-Jan-23 23:27N 23°04' E 113°29'531254.5
2015-Jan-23 23:24N 22°12' E 113°34'6829866.2
2015-Jan-23 23:20N 31°07' E 121°28'80351.2
2015-Jan-23 23:06N 31°57' E 120°15'682223264.0
2015-Jan-23 23:06N 22°14' E 113°36'511021.9
2015-Jan-23 23:03N 23°04' E 113°29'6491309.8
2015-Jan-23 22:33N 31°60' E 120°22'1671.2
2015-Jan-23 22:33N 31°59' E 120°21'2309.5
2015-Jan-23 22:33N 31°58' E 120°24'6482333740.6
2015-Jan-23 22:33N 23°04' E 113°29'1330.4
2015-Jan-23 22:33N 23°04' E 113°30'64433113.7
2015-Jan-23 22:32N 31°07' E 121°28'64419005.7
2015-Jan-23 22:30N 23°04' E 113°29'64718064.7
2015-Jan-23 22:27N 31°59' E 120°20'43319477.3
2015-Jan-23 22:26N 24°53' E 118°57'3341718.7
2015-Jan-23 22:14N 22°14' E 113°36'366.4
2015-Jan-23 22:12N 22°12' E 113°34'70421856.2
2015-Jan-23 22:10N 32°00' E 120°49'6631091.7
2015-Jan-23 21:34N 23°04' E 113°29'645165864.3
2015-Jan-23 21:33N 31°57' E 120°18'112678.5
2015-Jan-23 21:33N 32°02' E 120°30'74984.2
2015-Jan-23 21:33N 31°58' E 120°24'5648.2
2015-Jan-23 21:32N 32°02' E 120°27'693498843.3
2015-Jan-23 21:32N 22°14' E 113°36'501140.8
2015-Jan-23 21:30N 23°04' E 113°30'0 7.4
2015-Jan-23 21:27N 23°04' E 113°29'0 4.2
2015-Jan-23 21:24N 23°04' E 113°29'6448108.5
2015-Jan-23 21:19N 31°07' E 121°28'68215164.7
2015-Jan-23 21:17N 22°12' E 113°34'699970.3
2015-Jan-23 20:33N 31°60' E 120°38'657157721.4
2015-Jan-23 20:33N 23°04' E 113°29'642577707.0
2015-Jan-23 20:33N 31°56' E 120°15'83206.7
2015-Jan-23 20:33N 31°58' E 120°24'68359952.6
2015-Jan-23 20:32N 22°18' E 113°39'33069839.8
2015-Jan-23 20:32N 24°53' E 118°57'43752411.4
2015-Jan-23 20:32N 32°00' E 120°37'65719869.3
2015-Jan-23 20:30N 23°04' E 113°29'64417049.2
2015-Jan-23 20:27N 31°07' E 121°28'644289880.8
2015-Jan-23 20:27N 23°04' E 113°29'1 5.2
2015-Jan-23 20:21N 23°04' E 113°30'662836.1
2015-Jan-23 19:33N 32°00' E 120°47'662595652.8
2015-Jan-23 19:33N 23°04' E 113°29'648291721.9
2015-Jan-23 19:33N 31°58' E 120°24'132262.4
2015-Jan-23 19:33N 31°56' E 120°08'428513710.5
2015-Jan-23 19:33N 24°53' E 118°57'44012177.7
2015-Jan-23 19:30N 32°02' E 120°44'66210098.6
2015-Jan-23 19:27N 23°04' E 113°29'64466251.2
2015-Jan-23 19:26N 31°07' E 121°28'644178305.7
2015-Jan-23 19:26N 23°04' E 113°30'123.1
2015-Jan-23 19:24N 23°04' E 113°29'53627.9
2015-Jan-23 19:19N 22°12' E 113°34'33517713.4
2015-Jan-23 19:18N 24°46' E 118°58'318428.6
2015-Jan-23 18:34N 23°04' E 113°29'644463741.7
2015-Jan-23 18:33N 31°07' E 121°28'7512839.4
2015-Jan-23 18:33N 31°58' E 120°24'43253666.7
2015-Jan-23 18:33N 24°53' E 118°57'4388262.8
2015-Jan-23 18:29N 32°00' E 120°48'66210782.0
2015-Jan-23 18:26N 23°04' E 113°30'534973.9
2015-Jan-23 18:25N 22°12' E 113°34'6808805.3
2015-Jan-23 18:20N 31°58' E 120°01'66117356.9
2015-Jan-23 18:18N 22°27' E 113°48'41837.4
2015-Jan-23 18:15N 23°04' E 113°29'018.2
2015-Jan-23 18:15N 23°04' E 113°29'0 0.3
2015-Jan-23 17:33N 23°04' E 113°29'6622383387.6
2015-Jan-23 17:33N 32°00' E 120°48'43833580.1
2015-Jan-23 17:33N 24°53' E 118°57'397357723.7
2015-Jan-23 17:33N 31°07' E 121°28'68228565.2
2015-Jan-23 17:31N 22°12' E 113°34'207154.5
2015-Jan-23 17:31N 22°27' E 113°48'41648.0
2015-Jan-23 17:27N 23°04' E 113°29'017.1
2015-Jan-23 17:27N 23°04' E 113°29'6392517.8
2015-Jan-23 17:11N 32°03' E 119°56'43448779.6
2015-Jan-23 17:11N 24°53' E 118°55'317379822.0
2015-Jan-23 17:11N 23°04' E 113°30'6488515.7
2015-Jan-23 17:06N 31°58' E 120°24'6481188.3
2015-Jan-23 16:33N 23°04' E 113°29'644257634.2
2015-Jan-23 16:33N 31°07' E 121°28'7553895.4
2015-Jan-23 16:33N 31°58' E 120°24'202441.5
2015-Jan-23 16:33N 32°00' E 120°48'438315640.5
2015-Jan-23 16:33N 24°53' E 118°57'2284.3
2015-Jan-23 16:32N 24°53' E 118°55'428102684.8
2015-Jan-23 16:32N 31°46' E 120°59'69839878.2
2015-Jan-23 16:31N 22°12' E 113°34'234285.9
2015-Jan-23 16:31N 22°27' E 113°53'43628.9
2015-Jan-23 16:27N 23°04' E 113°29'033.8
2015-Jan-23 16:26N 23°04' E 113°30'411055.0
2015-Jan-23 16:23N 22°27' E 113°48'41301.0
2015-Jan-23 16:15N 23°04' E 113°29'662952.3
2015-Jan-23 15:33N 32°00' E 120°48'66258129.7
2015-Jan-23 15:33N 23°04' E 113°29'31736835.9
2015-Jan-23 15:32N 24°53' E 118°55'43313196.1
2015-Jan-23 15:30N 31°58' E 120°24'758420.7
2015-Jan-23 15:30N 31°07' E 121°28'644193228.5
2015-Jan-23 15:30N 23°04' E 113°29'6585953.1
2015-Jan-23 15:23N 31°51' E 120°53'65834342.5
2015-Jan-23 15:22N 23°04' E 113°29'40147.1
2015-Jan-23 15:05N 22°27' E 113°46'401049.4
2015-Jan-23 15:03N 23°04' E 113°29'6481305.5
2015-Jan-23 14:33N 31°58' E 120°24'438526045.3
2015-Jan-23 14:33N 24°47' E 118°53'445123101.0
2015-Jan-23 14:33N 32°00' E 120°48'662148959.5
2015-Jan-23 14:33N 23°04' E 113°29'5314761.1
2015-Jan-23 14:33N 22°11' E 113°35'690828547.6
2015-Jan-23 14:33N 32°15' E 119°52'64719904.5
2015-Jan-23 14:31N 23°04' E 113°29'0 1.9
2015-Jan-23 14:27N 23°04' E 113°29'64411257.6
2015-Jan-23 14:24N 31°07' E 121°28'64419991.3
2015-Jan-23 14:22N 23°04' E 113°29'6624787.7
2015-Jan-23 14:13N 31°58' E 120°51'662987.6
2015-Jan-23 13:33N 23°04' E 113°29'662264821.0
2015-Jan-23 13:33N 32°00' E 120°48'70390338.7
2015-Jan-23 13:33N 22°11' E 113°37'531709.8
2015-Jan-23 13:31N 23°04' E 113°29'644165641.5
2015-Jan-23 13:31N 31°07' E 121°28'6444350.6
2015-Jan-23 13:22N 23°04' E 113°29'412369.2
2015-Jan-23 13:21N 22°27' E 113°48'31145.2
2015-Jan-23 13:08N 22°57' E 113°36'6651167.2
2015-Jan-23 12:34N 32°00' E 120°48'663125576.9
2015-Jan-23 12:33N 23°05' E 113°27'21554.3
2015-Jan-23 12:33N 23°04' E 113°29'0 8.5
2015-Jan-23 12:31N 23°04' E 113°29'401094.5
2015-Jan-23 12:29N 22°27' E 113°48'19277.6
2015-Jan-23 12:24N 22°11' E 113°37'5362.6
2015-Jan-23 11:33N 23°04' E 113°29'4114931.2
2015-Jan-23 11:33N 22°27' E 113°48'67897636.0
2015-Jan-23 11:33N 31°60' E 120°36'65639359.3
2015-Jan-23 11:32N 23°04' E 113°29'64416330.8
2015-Jan-23 11:29N 31°07' E 121°28'6603273.4
2015-Jan-23 11:17N 22°31' E 113°46'22266.8
2015-Jan-23 11:12N 22°11' E 113°37'5382.9
2015-Jan-23 10:33N 23°04' E 113°29'66229769.3
2015-Jan-23 10:32N 31°60' E 120°47'764069.9
2015-Jan-23 10:31N 31°09' E 121°53'660158454.3
2015-Jan-23 10:31N 23°04' E 113°29'65563727.7
2015-Jan-23 10:30N 32°01' E 120°32'722810.4
2015-Jan-23 10:29N 31°07' E 121°28'6819222.6
2015-Jan-23 10:24N 22°11' E 113°37'6924409.0
2015-Jan-23 10:15N 31°59' E 120°27'768.6
2015-Jan-23 10:09N 31°57' E 120°19'84142.9
2015-Jan-23 09:34N 31°16' E 121°45'661793224.5
2015-Jan-23 09:33N 23°04' E 113°29'662183265.8
2015-Jan-23 09:33N 32°00' E 120°47'172398.7
2015-Jan-23 09:33N 31°59' E 120°27'4265.3
2015-Jan-23 09:32N 32°01' E 120°31'65435165.6
2015-Jan-23 09:31N 23°04' E 113°29'64449294.3
2015-Jan-23 09:30N 31°57' E 120°17'68522422.2
2015-Jan-23 09:28N 22°11' E 113°37'192837.9
2015-Jan-23 09:28N 22°27' E 113°48'5104.9
2015-Jan-23 09:25N 22°26' E 113°53'66115966.3
2015-Jan-23 09:23N 31°07' E 121°28'6445199.4
2015-Jan-23 09:15N 23°04' E 113°29'0 0.2
2015-Jan-23 08:33N 23°04' E 113°29'634456166.1
2015-Jan-23 08:33N 30°59' E 121°20'7620967.0
2015-Jan-23 08:33N 31°59' E 120°27'798332.8
2015-Jan-23 08:32N 31°21' E 121°48'5614406.4
2015-Jan-23 08:32N 31°53' E 120°54'354864.7
2015-Jan-23 08:32N 31°56' E 120°12'64144355.3
2015-Jan-23 08:31N 23°04' E 113°29'4114849.0
2015-Jan-23 08:31N 22°27' E 113°48'67723654.2
2015-Jan-23 08:29N 32°01' E 120°31'69630918.3
2015-Jan-23 08:28N 22°11' E 113°37'53948.3
2015-Jan-23 08:24N 23°04' E 113°29'647765.7
2015-Jan-23 07:33N 31°11' E 121°28'215349.5
2015-Jan-23 07:33N 31°27' E 121°44'668801372.5
2015-Jan-23 07:33N 23°04' E 113°29'651167309.9
2015-Jan-23 07:33N 31°59' E 120°27'69222437.9
2015-Jan-23 07:31N 22°11' E 113°37'192102.9
2015-Jan-23 07:31N 22°27' E 113°48'4114845.1
2015-Jan-23 07:30N 23°04' E 113°29'65431002.5
2015-Jan-23 07:29N 32°01' E 120°31'772286.1
2015-Jan-23 07:27N 31°01' E 121°27'6393249.9
2015-Jan-23 07:15N 23°04' E 113°29'66010422.1
2015-Jan-23 07:11N 31°45' E 121°05'6601043.0
2015-Jan-23 06:34N 23°04' E 113°29'65173202.6
2015-Jan-23 06:33N 31°59' E 120°27'421950.6
2015-Jan-23 06:32N 31°41' E 121°12'694104171.9
2015-Jan-23 06:31N 22°14' E 113°41'67533774.8
2015-Jan-23 06:30N 31°06' E 121°28'64314202.6
2015-Jan-23 06:27N 23°04' E 113°29'415493.9
2015-Jan-23 06:27N 22°27' E 113°48'65919278.1
2015-Jan-23 06:25N 31°01' E 121°29'3246048.3
2015-Jan-23 06:22N 25°56' E 119°23'3702095.4
2015-Jan-23 06:11N 32°01' E 120°31'5079.2
2015-Jan-23 05:33N 31°34' E 121°20'50178744.2
2015-Jan-23 05:33N 32°01' E 120°31'654471155.1
2015-Jan-23 05:33N 23°04' E 113°29'6481166098.4
2015-Jan-23 05:33N 31°12' E 121°29'7142654.4
2015-Jan-23 05:33N 31°59' E 120°27'68319049.6
2015-Jan-23 05:31N 22°18' E 113°44'664341279.1
2015-Jan-23 05:31N 30°59' E 121°24'63699561.4
2015-Jan-23 05:31N 23°04' E 113°29'36616256.1
2015-Jan-23 05:29N 25°57' E 119°23'3714033.6
2015-Jan-23 05:24N 22°27' E 113°48'32144.1
2015-Jan-23 05:10N 22°57' E 113°36'99024419.3
2015-Jan-23 05:08N 37°35' E 122°25'370642.4
2015-Jan-23 04:33N 31°28' E 121°28'662238320.2
2015-Jan-23 04:33N 23°04' E 113°25'452482.0
2015-Jan-23 04:32N 22°23' E 113°45'68024496.8
2015-Jan-23 04:31N 31°21' E 121°32'67548605.2
2015-Jan-23 04:30N 22°27' E 113°48'37135135.2
2015-Jan-23 04:29N 25°57' E 119°23'36812614.5
2015-Jan-23 04:27N 22°26' E 113°53'672219904.1
2015-Jan-23 04:27N 31°59' E 120°27'486.4
2015-Jan-23 04:24N 32°01' E 120°31'67232238.4
2015-Jan-23 04:23N 22°34' E 113°47'10106447.3
2015-Jan-23 04:14N 37°39' E 122°25'4063540.1
2015-Jan-23 04:07N 30°57' E 121°13'6431100.5
2015-Jan-23 03:32N 22°29' E 113°52'672302212.6
2015-Jan-23 03:32N 31°22' E 121°30'3438018.6
2015-Jan-23 03:29N 25°57' E 119°23'34537675.7
2015-Jan-23 03:28N 31°24' E 121°31'65815193.8
2015-Jan-23 03:26N 23°04' E 113°29'411977.5
2015-Jan-23 03:25N 22°27' E 113°48'67311650.6
2015-Jan-23 03:21N 31°59' E 120°27'49461295.4
2015-Jan-23 03:21N 23°60' E 118°13'2614296.1
2015-Jan-23 03:17N 22°28' E 113°47'101359786.6
2015-Jan-23 03:16N 37°33' E 122°32'3754183.9
2015-Jan-23 03:11N 31°21' E 121°32'6721083.1
2015-Jan-23 02:33N 22°27' E 113°53'671219452.5
2015-Jan-23 02:33N 31°59' E 120°27'656171.2
2015-Jan-23 02:33N 31°22' E 121°30'6711207126.5
2015-Jan-23 02:33N 22°28' E 113°55'7632.3
2015-Jan-23 02:32N 22°27' E 113°48'675243004.4
2015-Jan-23 02:32N 31°22' E 121°30'3437350.8
2015-Jan-23 02:29N 25°57' E 119°23'3696708.0
2015-Jan-23 02:26N 32°01' E 120°31'12375.8
2015-Jan-23 02:24N 31°58' E 120°17'4362020.0
2015-Jan-23 02:11N 24°49' E 118°49'306493.2
2015-Jan-23 01:33N 22°28' E 113°52'672345756.2
2015-Jan-23 01:33N 32°01' E 120°26'5677.9
2015-Jan-23 01:33N 31°59' E 120°20'7136354.3
2015-Jan-23 01:33N 31°22' E 121°30'414496416.3
2015-Jan-23 01:33N 24°52' E 118°54'31513189.5
2015-Jan-23 01:31N 22°27' E 113°48'67313539.0
2015-Jan-23 01:28N 31°59' E 120°27'6682296.2
2015-Jan-23 01:11N 22°29' E 113°56'67210617.5
2015-Jan-23 01:07N 31°33' E 121°20'6761209.0
2015-Jan-23 00:34N 22°28' E 113°52'671241578.9
2015-Jan-23 00:33N 32°01' E 120°25'6810677.5
2015-Jan-23 00:33N 31°22' E 121°30'67550628.4
2015-Jan-23 00:32N 22°27' E 113°48'317162874.5
2015-Jan-23 00:32N 24°53' E 118°55'30992819.0
2015-Jan-23 00:32N 22°29' E 113°56'66880131.8
2015-Jan-23 00:31N 31°59' E 120°27'22233.4
2015-Jan-23 00:26N 31°59' E 120°00'6416011.5
2015-Jan-23 00:19N 22°57' E 113°36'39242.7
2015-Jan-23 00:10N 22°19' E 113°47'321515.9
2015-Jan-22 23:32N 24°53' E 118°55'32226343.4
2015-Jan-22 23:32N 22°16' E 113°48'683223454.3
2015-Jan-22 23:31N 31°59' E 120°27'181224.4
2015-Jan-22 23:31N 31°58' E 120°06'217483.3
2015-Jan-22 23:30N 32°02' E 120°30'6753282.8
2015-Jan-22 23:18N 22°28' E 113°52'662883.8
2015-Jan-22 22:33N 31°57' E 120°13'665119650.3
2015-Jan-22 22:33N 22°27' E 113°48'31643822.6
2015-Jan-22 22:32N 24°53' E 118°55'43431257.6
2015-Jan-22 22:31N 31°59' E 120°27'6833181.1
2015-Jan-22 22:19N 22°12' E 113°55'17147.0
2015-Jan-22 22:11N 22°29' E 113°51'6681003.6
2015-Jan-22 21:32N 31°59' E 120°21'517598.0
2015-Jan-22 21:32N 31°59' E 120°27'67018998.2
2015-Jan-22 21:29N 22°29' E 113°51'313376192.6
2015-Jan-22 21:29N 24°53' E 118°55'4399400.8
2015-Jan-22 21:27N 32°01' E 120°44'68338394.4
2015-Jan-22 21:25N 22°27' E 113°48'666.9
2015-Jan-22 21:21N 22°24' E 113°54'314390.7
2015-Jan-22 20:32N 24°53' E 118°55'31435269.5
2015-Jan-22 20:32N 22°28' E 113°52'68217534.4
2015-Jan-22 20:29N 31°59' E 120°51'21892.0
2015-Jan-22 20:28N 31°59' E 120°27'434466.7
2015-Jan-22 19:32N 24°53' E 118°55'43211785.3
2015-Jan-22 19:30N 31°52' E 120°54'24750.4
2015-Jan-22 19:28N 31°59' E 120°27'6737172.6
2015-Jan-22 19:23N 22°12' E 114°16'28100.8
2015-Jan-22 19:06N 22°28' E 113°52'314557.3
2015-Jan-22 18:32N 24°53' E 118°55'31426871.5
2015-Jan-22 18:32N 22°28' E 113°52'671105000.2
2015-Jan-22 18:31N 31°59' E 120°27'6796463.2
2015-Jan-22 18:25N 22°23' E 113°45'574.6
2015-Jan-22 18:20N 22°27' E 113°48'417.1
2015-Jan-22 18:05N 22°24' E 113°44'813.4
2015-Jan-22 17:31N 22°28' E 113°52'143090.4
2015-Jan-22 17:31N 22°18' E 113°41'11375.0
2015-Jan-22 17:29N 22°27' E 113°48'67338470.2
2015-Jan-22 17:28N 31°59' E 120°27'3541513.8
2015-Jan-22 17:14N 26°08' E 119°34'83858.5
2015-Jan-22 17:08N 24°53' E 118°55'332566.8
2015-Jan-22 16:33N 22°13' E 113°37'32915360.6
2015-Jan-22 16:32N 24°48' E 118°53'32452996.6
2015-Jan-22 16:32N 22°18' E 113°40'68452427.0
2015-Jan-22 16:31N 31°59' E 120°27'16745.1
2015-Jan-22 16:30N 32°01' E 120°45'68335149.6
2015-Jan-22 16:28N 22°27' E 113°48'6754394.5
2015-Jan-22 16:19N 31°22' E 121°30'67239687.4
2015-Jan-22 16:18N 22°28' E 113°52'1926.2
2015-Jan-22 15:33N 22°14' E 113°36'69123049.6
2015-Jan-22 15:32N 31°21' E 121°31'665091.0
2015-Jan-22 15:31N 31°59' E 120°27'69211928.1
2015-Jan-22 15:27N 22°12' E 113°34'20132.0
2015-Jan-22 15:18N 22°27' E 113°48'66125592.4
2015-Jan-22 15:17N 31°59' E 120°01'85115.5
2015-Jan-22 14:33N 31°21' E 121°31'69257947.8
2015-Jan-22 14:32N 22°14' E 113°35'69034506.2
2015-Jan-22 14:31N 31°59' E 120°27'211811.8
2015-Jan-22 14:30N 31°57' E 120°52'70343627.8
2015-Jan-22 14:29N 22°12' E 113°34'20294.2
2015-Jan-22 14:25N 22°27' E 113°48'6417514.3
2015-Jan-22 14:20N 29°46' E 122°28'161196.4
2015-Jan-22 13:31N 32°00' E 120°45'1511027.5
2015-Jan-22 13:31N 31°59' E 120°27'6679742.3
2015-Jan-22 13:31N 31°21' E 121°31'773854.7
2015-Jan-22 13:30N 31°56' E 120°10'68345503.1
2015-Jan-22 13:29N 22°12' E 113°34'3266.2
2015-Jan-22 13:28N 22°14' E 113°35'65815900.8
2015-Jan-22 13:26N 29°52' E 122°22'6385206.5
2015-Jan-22 13:18N 22°28' E 113°52'426.7
2015-Jan-22 13:09N 22°28' E 113°56'6681048.6
2015-Jan-22 12:31N 31°59' E 120°27'69349879.2
2015-Jan-22 12:30N 22°12' E 113°35'385.1
2015-Jan-22 12:28N 22°14' E 113°35'20509.0
2015-Jan-22 12:26N 22°28' E 113°52'97421128.8
2015-Jan-22 12:23N 36°52' E 122°29'97631108.2
2015-Jan-22 12:21N 22°27' E 113°48'67813051.6
2015-Jan-22 12:18N 31°60' E 120°35'15167.4
2015-Jan-22 12:13N 31°58' E 120°18'66312054.8
2015-Jan-22 12:09N 22°28' E 113°56'0 0.0
2015-Jan-22 11:33N 22°28' E 113°56'672142303.2
2015-Jan-22 11:33N 32°02' E 120°31'69714664.7
2015-Jan-22 11:30N 22°12' E 113°35'99653512.9
2015-Jan-22 11:29N 36°54' E 122°25'3114779.5
2015-Jan-22 11:25N 31°59' E 120°27'67165264.5
2015-Jan-22 11:24N 22°28' E 113°52'3447.0
2015-Jan-22 11:24N 22°27' E 113°48'67511201.2
2015-Jan-22 11:20N 32°02' E 120°27'24205.2
2015-Jan-22 11:13N 32°01' E 119°58'660992.0
2015-Jan-22 10:33N 22°28' E 113°52'672172676.7
2015-Jan-22 10:33N 31°60' E 120°27'069.5
2015-Jan-22 10:33N 32°00' E 120°27'67048206.4
2015-Jan-22 10:32N 22°33' E 113°46'10751.8
2015-Jan-22 10:31N 22°27' E 113°55'66885914.6
2015-Jan-22 10:31N 31°60' E 120°23'67275598.6
2015-Jan-22 10:30N 22°27' E 113°48'67832995.9
2015-Jan-22 10:29N 32°04' E 120°28'22471.9
2015-Jan-22 10:26N 31°58' E 120°04'6783951.7
2015-Jan-22 10:16N 22°14' E 113°35'385.1
2015-Jan-22 10:14N 22°12' E 113°35'6834988.9
2015-Jan-22 10:06N 31°57' E 120°11'6611221.5
2015-Jan-22 09:33N 22°27' E 113°53'6751214999.7
2015-Jan-22 09:33N 32°02' E 120°32'5273.3
2015-Jan-22 09:32N 31°59' E 120°27'693146738.6
2015-Jan-22 09:32N 22°12' E 113°35'32113.8
2015-Jan-22 09:32N 22°14' E 113°35'172413.3
2015-Jan-22 09:31N 22°27' E 113°48'6642390312.4
2015-Jan-22 09:31N 31°57' E 120°11'5202.7
2015-Jan-22 09:30N 31°58' E 120°18'162194.5
2015-Jan-22 09:29N 32°01' E 120°36'62224.5
2015-Jan-22 09:13N 31°21' E 121°31'6721025.2
2015-Jan-22 08:33N 22°27' E 113°53'6742425046.0
2015-Jan-22 08:33N 32°03' E 120°26'676202819.5
2015-Jan-22 08:33N 22°27' E 113°48'670803693.8
2015-Jan-22 08:33N 31°59' E 120°20'199640.4
2015-Jan-22 08:33N 32°00' E 120°42'574580.7
2015-Jan-22 08:32N 31°21' E 121°31'6714090.3
2015-Jan-22 08:32N 31°59' E 120°27'69395945.9
2015-Jan-22 08:32N 22°12' E 113°35'68613578.0
2015-Jan-22 08:29N 31°57' E 120°17'62661.2
2015-Jan-22 08:23N 31°13' E 121°09'63270.3
2015-Jan-22 08:09N 31°59' E 120°20'2744.8
2015-Jan-22 07:33N 31°58' E 120°51'681408515.2
2015-Jan-22 07:33N 22°28' E 113°54'6712415982.3
2015-Jan-22 07:33N 32°01' E 120°25'674269716.2
2015-Jan-22 07:33N 22°27' E 113°48'676811729.3
2015-Jan-22 07:33N 32°02' E 120°28'3174.8
2015-Jan-22 07:32N 31°59' E 120°27'82137.1
2015-Jan-22 07:32N 32°01' E 120°36'67942877.7
2015-Jan-22 07:31N 22°27' E 113°48'675270175.0
2015-Jan-22 07:31N 31°21' E 121°32'69314252.0
2015-Jan-22 07:28N 22°14' E 113°35'68119763.7
2015-Jan-22 07:26N 31°56' E 120°13'335212.9
2015-Jan-22 07:25N 31°56' E 120°52'70312520.3
2015-Jan-22 07:22N 22°12' E 113°35'2429.6
2015-Jan-22 06:33N 22°28' E 113°54'51080.9
2015-Jan-22 06:33N 22°27' E 113°48'679610973.7
2015-Jan-22 06:33N 32°01' E 120°36'6112978.2
2015-Jan-22 06:33N 31°21' E 121°31'69230766.5
2015-Jan-22 06:31N 22°14' E 113°35'6966938.5
2015-Jan-22 06:25N 31°49' E 120°56'39525.8
2015-Jan-22 06:21N 31°23' E 121°30'511155.9
2015-Jan-22 06:18N 32°00' E 120°49'70416681.4
2015-Jan-22 06:16N 22°12' E 113°35'69710675.9
2015-Jan-22 06:12N 31°47' E 120°56'3656.4
2015-Jan-22 05:33N 31°21' E 121°27'5450.9
2015-Jan-22 05:33N 31°25' E 121°30'6731210859.9
2015-Jan-22 05:33N 22°29' E 113°54'67825431.5
2015-Jan-22 05:31N 31°56' E 120°53'68361442.3
2015-Jan-22 05:30N 22°27' E 113°48'68029159.4
2015-Jan-22 05:29N 31°46' E 121°04'7003601.0
2015-Jan-22 05:17N 22°12' E 113°35'323.1
2015-Jan-22 05:10N 22°14' E 113°35'70115569.3
2015-Jan-22 05:07N 32°01' E 120°46'6801214.2
2015-Jan-22 04:33N 22°28' E 113°54'68198081.4
2015-Jan-22 04:33N 32°01' E 120°47'484184.1
2015-Jan-22 04:32N 31°27' E 121°27'193131.8
2015-Jan-22 04:32N 31°41' E 121°11'69786543.8
2015-Jan-22 04:31N 22°14' E 113°35'350.6
2015-Jan-22 04:28N 22°12' E 113°35'207979.8
2015-Jan-22 04:28N 22°27' E 113°48'68410426.4
2015-Jan-22 04:24N 32°01' E 120°45'680810.5
2015-Jan-22 03:33N 22°28' E 113°54'67465584.2
2015-Jan-22 03:33N 31°29' E 121°24'692138484.1
2015-Jan-22 03:32N 22°16' E 113°37'69911335.2
2015-Jan-22 03:29N 32°01' E 120°47'6842463873.7
2015-Jan-22 03:29N 22°27' E 113°48'29020077.5
2015-Jan-22 03:28N 24°28' E 118°36'308100866.1
2015-Jan-22 03:28N 22°12' E 113°35'69917856.4
2015-Jan-22 03:25N 31°40' E 121°11'66519964.5
2015-Jan-22 03:23N 23°03' E 113°20'662792.4
2015-Jan-22 02:33N 31°46' E 120°57'251338.6
2015-Jan-22 02:32N 32°01' E 120°33'1242700.2
2015-Jan-22 02:32N 32°01' E 120°47'684117328.2
2015-Jan-22 02:32N 22°27' E 113°48'4317040.0
2015-Jan-22 02:32N 23°02' E 113°22'31180.5
2015-Jan-22 02:31N 23°03' E 113°25'66268110.4
2015-Jan-22 02:31N 31°40' E 121°11'6907480.4
2015-Jan-22 02:25N 22°19' E 113°40'32315092.6
2015-Jan-22 02:24N 24°51' E 118°51'30911705.6
2015-Jan-22 02:22N 22°29' E 113°52'243881.7
2015-Jan-22 02:22N 22°12' E 113°35'3321370.0
2015-Jan-22 02:08N 24°49' E 118°53'440775.9
2015-Jan-22 01:34N 32°02' E 120°26'4479293.3
2015-Jan-22 01:33N 31°40' E 121°11'2910528.0
2015-Jan-22 01:33N 32°01' E 120°47'684102660.6
2015-Jan-22 01:33N 22°27' E 113°48'31713734.4
2015-Jan-22 01:32N 24°53' E 118°55'33521552.6
2015-Jan-22 01:31N 22°12' E 113°35'69756994.0
2015-Jan-22 01:30N 31°46' E 120°57'65974116.5
2015-Jan-22 01:29N 23°03' E 113°25'6546942.2
2015-Jan-22 01:24N 31°59' E 120°27'6519635.6
2015-Jan-22 01:23N 31°24' E 121°31'6582369668.0
2015-Jan-22 01:23N 23°04' E 113°29'66226497.9
2015-Jan-22 01:22N 31°59' E 120°50'3 4.0
2015-Jan-22 00:33N 32°01' E 120°47'2952704.3
2015-Jan-22 00:33N 31°40' E 121°11'4784935.6
2015-Jan-22 00:33N 31°58' E 120°20'331662.8
2015-Jan-22 00:32N 31°46' E 120°57'67764117.6
2015-Jan-22 00:32N 22°27' E 113°48'4140.9
2015-Jan-22 00:30N 22°25' E 113°44'676221390.9
2015-Jan-22 00:30N 31°59' E 120°27'701630.3
2015-Jan-22 00:27N 31°19' E 121°34'65910224.8
2015-Jan-22 00:23N 23°04' E 113°25'5413772.1
2015-Jan-22 00:23N 22°11' E 113°37'33446204.3
2015-Jan-22 00:23N 24°53' E 118°55'403857.8
2015-Jan-22 00:22N 24°18' E 118°33'33744.8
2015-Jan-22 00:19N 24°46' E 118°53'3132127.7
2015-Jan-22 00:11N 23°04' E 113°29'651976.2
2015-Jan-21 23:31N 31°15' E 121°29'406104286.9
2015-Jan-21 23:30N 24°53' E 118°55'44065932.2
2015-Jan-21 23:30N 32°01' E 120°47'184852.5
2015-Jan-21 23:30N 31°59' E 120°27'67337874.7
2015-Jan-21 23:29N 22°27' E 113°48'28378496.0
2015-Jan-21 23:28N 24°18' E 118°32'1259337.7
2015-Jan-21 23:28N 23°05' E 116°43'568511245.0
2015-Jan-21 23:28N 31°40' E 121°11'141357.2
2015-Jan-21 23:27N 31°46' E 120°57'6568843.0
2015-Jan-21 23:22N 23°04' E 113°29'4108.0
2015-Jan-21 23:20N 23°04' E 113°25'6307268.0
2015-Jan-21 23:15N 30°57' E 121°11'63619406.6
2015-Jan-21 23:13N 22°45' E 113°39'34808.2
2015-Jan-21 23:11N 22°11' E 113°37'7032072.2
2015-Jan-21 22:50N 32°01' E 120°47'478101244.9
2015-Jan-21 22:50N 24°18' E 118°32'11926871.3
2015-Jan-21 22:50N 23°08' E 116°46'54489063.9
2015-Jan-21 22:49N 31°11' E 121°28'66682692.0
2015-Jan-21 22:49N 22°27' E 113°48'680203868.9
2015-Jan-21 22:49N 31°40' E 121°11'42584947.9
2015-Jan-21 22:48N 24°53' E 118°55'42721350.0
2015-Jan-21 22:47N 31°46' E 120°57'443756.2
2015-Jan-21 22:46N 31°11' E 121°28'608346.5
2015-Jan-21 22:46N 32°01' E 120°48'294744.6
2015-Jan-21 22:46N 31°40' E 121°11'66230167.6
2015-Jan-21 22:44N 23°04' E 113°25'18617615.9
2015-Jan-21 22:44N 23°09' E 116°47'1566947.3
2015-Jan-21 22:42N 24°53' E 118°55'43444670.7
2015-Jan-21 22:42N 31°59' E 120°27'651334749.3
2015-Jan-21 22:42N 23°04' E 113°29'4174058.8
2015-Jan-21 22:42N 22°27' E 113°48'28326130.7
2015-Jan-21 22:41N 24°18' E 118°32'46634245.0
2015-Jan-21 22:40N 31°46' E 120°57'66450897.8
2015-Jan-21 22:39N 22°49' E 113°36'6546725.4
2015-Jan-21 22:33N 31°10' E 121°28'6015550.7
2015-Jan-21 22:33N 32°00' E 120°49'192115.5
2015-Jan-21 22:33N 31°59' E 120°27'564507212.5
2015-Jan-21 22:33N 23°10' E 116°48'17277186.4
2015-Jan-21 22:32N 22°27' E 113°48'261349.1
2015-Jan-21 22:31N 22°50' E 113°35'31718421.7
2015-Jan-21 22:30N 24°53' E 118°55'31727165.8
2015-Jan-21 22:30N 23°04' E 113°29'532820.4
2015-Jan-21 22:28N 22°11' E 113°37'696100191.4
2015-Jan-21 22:28N 31°46' E 120°57'141859.5
2015-Jan-21 22:28N 31°40' E 121°11'42424.2
2015-Jan-21 22:22N 30°58' E 121°14'4252613.3
2015-Jan-21 22:12N 24°18' E 118°31'2904849.0
2015-Jan-21 22:08N 23°04' E 113°25'915.5
2015-Jan-21 21:33N 22°57' E 113°32'635142820.7
2015-Jan-21 21:33N 30°58' E 121°18'7567727.7
2015-Jan-21 21:33N 31°59' E 120°27'556500581.0
2015-Jan-21 21:33N 23°16' E 116°55'19446441.0
2015-Jan-21 21:32N 23°04' E 113°25'66423895.3
2015-Jan-21 21:31N 31°55' E 120°53'43565300.6
2015-Jan-21 21:30N 24°53' E 118°55'39683906.1
2015-Jan-21 21:30N 31°05' E 121°28'64385694.1
2015-Jan-21 21:30N 23°04' E 113°29'412389.3
2015-Jan-21 21:29N 22°27' E 113°48'28923087.0
2015-Jan-21 21:28N 24°25' E 118°35'457182617.3
2015-Jan-21 21:28N 31°40' E 121°11'46483507.9
2015-Jan-21 21:27N 24°18' E 118°30'46629944.7
2015-Jan-21 21:26N 31°46' E 120°57'67410025.9
2015-Jan-21 21:22N 22°28' E 113°53'670823.5
2015-Jan-21 20:34N 31°60' E 120°23'7855852.8
2015-Jan-21 20:33N 31°05' E 121°28'643771465.8
2015-Jan-21 20:33N 23°04' E 113°29'636326945.4
2015-Jan-21 20:33N 30°59' E 121°23'778637.0
2015-Jan-21 20:33N 31°59' E 120°27'65375869.9
2015-Jan-21 20:32N 23°04' E 113°25'661237813.9
2015-Jan-21 20:32N 31°50' E 120°55'4314.2
2015-Jan-21 20:31N 31°46' E 120°57'67787020.0
2015-Jan-21 20:31N 22°27' E 113°48'68012943.7
2015-Jan-21 20:28N 31°40' E 121°11'6782440284.7
2015-Jan-21 20:28N 22°26' E 113°53'442411.6
2015-Jan-21 20:27N 23°04' E 113°29'53303.4
2015-Jan-21 20:16N 22°11' E 113°37'3345313.8
2015-Jan-21 20:12N 24°53' E 118°55'323500.4
2015-Jan-21 19:33N 23°02' E 113°23'648212132.1
2015-Jan-21 19:33N 31°05' E 121°28'66076701.6
2015-Jan-21 19:33N 22°24' E 113°54'673346309.2
2015-Jan-21 19:33N 31°59' E 120°27'65394079.4
2015-Jan-21 19:32N 23°04' E 113°25'65840870.3
2015-Jan-21 19:31N 31°46' E 120°57'42724793.9
2015-Jan-21 19:30N 24°53' E 118°55'317162807.4
2015-Jan-21 19:30N 22°27' E 113°48'19504.8
2015-Jan-21 19:28N 22°11' E 113°37'305109768.9
2015-Jan-21 19:28N 24°25' E 118°35'29130858.0
2015-Jan-21 19:27N 23°04' E 113°29'65916483.6
2015-Jan-21 19:25N 31°40' E 121°11'40187.6
2015-Jan-21 19:12N 31°02' E 121°29'80124.4
2015-Jan-21 18:33N 32°00' E 120°23'7855866.2
2015-Jan-21 18:33N 31°05' E 121°28'651780932.1
2015-Jan-21 18:33N 23°03' E 113°16'32627925.1
2015-Jan-21 18:32N 24°50' E 118°53'31492.3
2015-Jan-21 18:32N 24°53' E 118°55'39725079.9
2015-Jan-21 18:31N 31°06' E 121°27'66250685.2
2015-Jan-21 18:31N 22°27' E 113°48'67347529.2
2015-Jan-21 18:30N 31°59' E 120°27'46514073.0
2015-Jan-21 18:28N 24°25' E 118°35'29128361.1
2015-Jan-21 18:27N 23°04' E 113°29'53812.4
2015-Jan-21 18:23N 22°11' E 113°37'69929585.6
2015-Jan-21 18:22N 31°40' E 121°11'1465.9
2015-Jan-21 18:09N 31°46' E 120°57'4473.6
2015-Jan-21 17:33N 31°11' E 121°28'444041.6
2015-Jan-21 17:33N 31°46' E 120°57'2914755.2
2015-Jan-21 17:33N 31°59' E 120°27'43471063.8
2015-Jan-21 17:32N 24°53' E 118°55'39659425.7
2015-Jan-21 17:32N 31°05' E 121°28'40761002.6
2015-Jan-21 17:31N 24°44' E 118°48'3073071.0
2015-Jan-21 17:25N 22°27' E 113°48'68062730.7
2015-Jan-21 17:25N 31°40' E 121°11'424285.6
2015-Jan-21 17:24N 32°02' E 120°30'65919448.0
2015-Jan-21 17:22N 23°02' E 113°24'52628.5
2015-Jan-21 17:17N 22°11' E 113°37'531509.8
2015-Jan-21 17:15N 23°04' E 113°29'6586595.3
2015-Jan-21 17:09N 31°30' E 121°22'0 0.0
2015-Jan-21 16:34N 31°30' E 121°22'42024386.8
2015-Jan-21 16:32N 24°50' E 118°55'31510608.7
2015-Jan-21 16:31N 22°27' E 113°48'67338478.2
2015-Jan-21 16:30N 31°59' E 120°27'692103835.3
2015-Jan-21 16:29N 22°11' E 113°37'69636836.4
2015-Jan-21 16:28N 32°01' E 120°32'65539942.8
2015-Jan-21 16:27N 23°04' E 113°29'95161135.5
2015-Jan-21 16:26N 36°54' E 122°25'32014577.0
2015-Jan-21 16:25N 31°40' E 121°11'384663.4
2015-Jan-21 16:24N 31°05' E 121°28'7587.1
2015-Jan-21 15:33N 31°59' E 120°27'4239.4
2015-Jan-21 15:32N 32°01' E 120°32'30722571.5
2015-Jan-21 15:31N 36°53' E 122°28'97746873.6
2015-Jan-21 15:30N 22°27' E 113°48'454802.0
2015-Jan-21 15:29N 21°58' E 113°11'70531738.2
2015-Jan-21 15:28N 31°05' E 121°28'64382639.8
2015-Jan-21 15:27N 23°04' E 113°29'53425.5
2015-Jan-21 15:20N 22°11' E 113°37'69811326.5
2015-Jan-21 15:16N 31°40' E 121°11'6646947.8
2015-Jan-21 15:10N 23°02' E 113°24'6618882.7
2015-Jan-21 15:06N 31°20' E 121°33'66122.1
2015-Jan-21 14:33N 32°01' E 120°32'720185085.1
2015-Jan-21 14:33N 21°58' E 113°11'720432131.3
2015-Jan-21 14:33N 31°46' E 120°57'69629465.1
2015-Jan-21 14:32N 22°11' E 113°37'69221298.0
2015-Jan-21 14:30N 31°59' E 120°27'664815.4
2015-Jan-21 14:29N 31°22' E 121°30'241665.6
2015-Jan-21 14:28N 31°40' E 121°11'68017349.2
2015-Jan-21 14:26N 22°27' E 113°48'427134.8
2015-Jan-21 14:25N 23°02' E 113°24'5276.4
2015-Jan-21 14:24N 23°04' E 113°29'6568942.7
2015-Jan-21 14:20N 31°22' E 121°29'719925.5
2015-Jan-21 13:33N 21°58' E 113°11'71685939.0
2015-Jan-21 13:33N 31°59' E 120°27'67323307.0
2015-Jan-21 13:31N 22°27' E 113°48'67717040.3
2015-Jan-21 13:29N 32°01' E 120°32'40368.2
2015-Jan-21 13:22N 31°40' E 121°11'6987023.7
2015-Jan-21 13:16N 22°11' E 113°37'536380.8
2015-Jan-21 13:16N 23°04' E 113°30'65621074.4
2015-Jan-21 13:14N 31°46' E 120°57'4972.7
2015-Jan-21 12:33N 31°05' E 121°28'705149363.3
2015-Jan-21 12:33N 21°58' E 113°11'72037017.0
2015-Jan-21 12:32N 32°01' E 120°32'4110.5
2015-Jan-21 12:30N 31°59' E 120°27'65118739.7
2015-Jan-21 12:28N 23°04' E 113°30'6597190.5
2015-Jan-21 12:22N 31°40' E 121°11'69811973.9
2015-Jan-21 12:19N 22°11' E 113°37'696925.6
2015-Jan-21 11:33N 32°01' E 120°32'720172744.9
2015-Jan-21 11:33N 21°58' E 113°11'71675825.9
2015-Jan-21 11:33N 31°59' E 120°27'751591.9
2015-Jan-21 11:30N 31°05' E 121°28'66137776.4
2015-Jan-21 11:29N 22°27' E 113°48'68062726.6
2015-Jan-21 11:28N 31°40' E 121°11'14583.7
2015-Jan-21 11:27N 31°46' E 120°57'69611231.2
2015-Jan-21 11:23N 22°11' E 113°37'680822.6
2015-Jan-21 10:33N 31°05' E 121°28'7051269588.4
2015-Jan-21 10:33N 21°58' E 113°11'71662879.1
2015-Jan-21 10:33N 31°59' E 120°27'69265575.2
2015-Jan-21 10:32N 22°11' E 113°37'69618554.3
2015-Jan-21 10:30N 32°01' E 120°32'67728009.2
2015-Jan-21 10:28N 22°27' E 113°48'680271820.7
2015-Jan-21 10:28N 31°40' E 121°11'232859.8
2015-Jan-21 10:28N 31°21' E 121°27'654147203.7
2015-Jan-21 10:27N 23°04' E 113°30'54192.2
2015-Jan-21 10:11N 22°10' E 113°32'6951098.4
2015-Jan-21 09:33N 31°59' E 120°27'642135.1
2015-Jan-21 09:31N 31°21' E 121°27'16485.3
2015-Jan-21 09:29N 31°05' E 121°28'684205079.3
2015-Jan-21 09:29N 22°10' E 113°32'702101073.4
2015-Jan-21 09:28N 31°40' E 121°11'680305798.7
2015-Jan-21 09:28N 22°27' E 113°48'413695.3
2015-Jan-21 09:27N 23°04' E 113°30'693426.4
2015-Jan-21 09:26N 21°58' E 113°11'72027582.7
2015-Jan-21 09:25N 31°46' E 120°57'45814218.0
2015-Jan-21 09:23N 24°25' E 118°38'4683909.8
2015-Jan-21 09:16N 31°58' E 120°50'7024006.9
2015-Jan-21 09:05N 22°11' E 113°37'6801282.5
2015-Jan-21 08:33N 31°05' E 121°28'429772265.5
2015-Jan-21 08:33N 24°24' E 118°35'41678845.4
2015-Jan-21 08:33N 30°58' E 121°06'7020877.2
2015-Jan-21 08:33N 31°59' E 120°27'71699154.9
2015-Jan-21 08:32N 21°58' E 113°11'452331.8
2015-Jan-21 08:31N 22°27' E 113°48'26323666.4
2015-Jan-21 08:30N 24°15' E 118°09'46130712.0
2015-Jan-21 08:29N 31°21' E 121°27'231129.1
2015-Jan-21 08:28N 31°40' E 121°11'65910316.5
2015-Jan-21 08:24N 23°04' E 113°30'65619506.8
2015-Jan-21 08:22N 31°46' E 120°57'45910519.4
2015-Jan-21 08:20N 24°24' E 118°37'2984356.4
2015-Jan-21 08:16N 23°02' E 113°24'66619174.8
2015-Jan-21 08:14N 31°58' E 120°50'662595473.5
2015-Jan-21 08:14N 23°04' E 113°30'531219.9
2015-Jan-21 08:11N 22°11' E 113°37'6931097.8
2015-Jan-21 07:33N 32°01' E 120°25'2239487.2
2015-Jan-21 07:33N 31°58' E 120°50'6325318.9
2015-Jan-21 07:33N 30°58' E 121°13'279670.1
2015-Jan-21 07:33N 31°21' E 121°27'6457651.7
2015-Jan-21 07:33N 31°59' E 120°27'65183702.7
2015-Jan-21 07:32N 23°05' E 113°28'65654928.0
2015-Jan-21 07:31N 31°46' E 120°57'67759422.6
2015-Jan-21 07:31N 22°27' E 113°48'19593.7
2015-Jan-21 07:29N 22°11' E 113°37'28132632.2
2015-Jan-21 07:28N 24°23' E 118°07'44039570.0
2015-Jan-21 07:28N 31°05' E 121°28'643136061.8
2015-Jan-21 07:27N 23°04' E 113°30'53746.8
2015-Jan-21 07:23N 22°11' E 113°25'7056202.5
2015-Jan-21 07:16N 31°40' E 121°11'6748820.3
2015-Jan-21 07:12N 22°14' E 114°22'6741058.1
2015-Jan-21 06:34N 32°02' E 120°30'7739445.9
2015-Jan-21 06:33N 30°59' E 121°21'434520203.0
2015-Jan-21 06:33N 24°24' E 117°58'45717867.4
2015-Jan-21 06:32N 31°21' E 121°27'232881.3
2015-Jan-21 06:31N 31°40' E 121°11'141834.9
2015-Jan-21 06:31N 31°46' E 120°57'69665908.3
2015-Jan-21 06:30N 22°11' E 113°37'69267343.7
2015-Jan-21 06:30N 31°59' E 120°27'71640921.1
2015-Jan-21 06:29N 21°58' E 113°11'4163398.2
2015-Jan-21 06:21N 25°57' E 119°23'10213628.6
2015-Jan-21 06:21N 24°24' E 118°37'2908615.2
2015-Jan-21 06:19N 22°27' E 113°48'68331537.1
2015-Jan-21 06:17N 31°58' E 120°50'6626386.6
2015-Jan-21 06:11N 23°04' E 113°29'6491030.9
2015-Jan-21 05:34N 31°58' E 120°25'46353725.5
2015-Jan-21 05:33N 24°26' E 118°32'29933629.9
2015-Jan-21 05:32N 22°14' E 113°40'38781875.5
2015-Jan-21 05:32N 25°58' E 119°25'3736677.4
2015-Jan-21 05:29N 22°27' E 113°48'457420.0
2015-Jan-21 05:28N 21°58' E 113°11'723867862.7
2015-Jan-21 05:28N 31°40' E 121°11'141651.1
2015-Jan-21 05:28N 31°46' E 120°57'363008.4
2015-Jan-21 05:27N 31°21' E 121°27'69637377.6
2015-Jan-21 05:26N 22°19' E 113°19'691165790.3
2015-Jan-21 05:26N 30°25' E 122°27'65230877.3
2015-Jan-21 05:25N 23°04' E 113°30'137.3
2015-Jan-21 05:23N 23°04' E 113°29'64318811.1
2015-Jan-21 05:21N 31°05' E 121°28'44213268.2
2015-Jan-21 05:19N 24°24' E 117°58'46917241.1
2015-Jan-21 05:18N 31°33' E 121°32'311802.6
2015-Jan-21 05:17N 31°03' E 121°29'64639.5
2015-Jan-21 05:11N 31°58' E 120°50'47913375.8
2015-Jan-21 05:09N 24°16' E 118°24'47411620.2
2015-Jan-21 05:06N 31°48' E 121°10'24867.6
2015-Jan-21 05:04N 32°01' E 120°46'53103.4
2015-Jan-21 04:34N 31°22' E 121°28'144418.5
2015-Jan-21 04:33N 31°08' E 121°27'775568.0
2015-Jan-21 04:33N 31°57' E 120°17'36159118.9
2015-Jan-21 04:32N 25°58' E 119°25'37320337.8
2015-Jan-21 04:31N 22°27' E 113°48'6859406.9
2015-Jan-21 04:27N 32°00' E 120°49'66399435.9
2015-Jan-21 04:26N 23°04' E 113°29'0 5.6
2015-Jan-21 04:25N 23°04' E 113°29'662264700.1
2015-Jan-21 04:25N 31°58' E 120°50'72721093.1
2015-Jan-21 04:22N 21°58' E 113°11'37805.6
2015-Jan-21 04:20N 22°18' E 113°44'26543301.4
2015-Jan-21 04:19N 24°24' E 117°58'4424398.2
2015-Jan-21 04:13N 31°05' E 121°28'38427.3
2015-Jan-21 04:08N 31°40' E 121°11'611056.4
2015-Jan-21 04:05N 31°58' E 120°02'6611263.4
2015-Jan-21 03:33N 22°27' E 113°48'375674865.7
2015-Jan-21 03:33N 25°59' E 119°27'38097823.5
2015-Jan-21 03:33N 22°22' E 113°45'691226308.2
2015-Jan-21 03:33N 31°24' E 121°47'174474.8
2015-Jan-21 03:32N 31°14' E 121°29'45124612.9
2015-Jan-21 03:31N 24°24' E 117°58'442199005.1
2015-Jan-21 03:31N 31°05' E 121°28'70532142.7
2015-Jan-21 03:30N 21°58' E 113°11'72751285.1
2015-Jan-21 03:29N 31°58' E 120°50'163.1
2015-Jan-21 03:28N 31°58' E 120°51'1346681.0
2015-Jan-21 03:28N 31°46' E 120°57'60219702.0
2015-Jan-21 03:26N 23°04' E 115°18'60411259.9
2015-Jan-21 03:23N 31°40' E 121°11'65927597.8
2015-Jan-21 03:22N 23°04' E 113°29'63930268.2
2015-Jan-21 03:20N 31°58' E 120°06'381514.1
2015-Jan-21 03:19N 31°51' E 120°50'1048.0
2015-Jan-21 03:06N 32°01' E 120°48'3259.3
2015-Jan-21 02:33N 31°57' E 120°10'663477590.7
2015-Jan-21 02:33N 22°27' E 113°48'681350354.0
2015-Jan-21 02:33N 31°19' E 121°46'333133152.2
2015-Jan-21 02:33N 26°07' E 119°33'34410873.0
2015-Jan-21 02:31N 31°40' E 121°11'72333379.3
2015-Jan-21 02:30N 21°58' E 113°11'724289462.8
2015-Jan-21 02:30N 31°56' E 120°48'393831.7
2015-Jan-21 02:29N 31°30' E 121°22'272722.9
2015-Jan-21 02:28N 31°46' E 120°57'131934.2
2015-Jan-21 02:28N 31°58' E 120°50'66211564.6
2015-Jan-21 02:25N 23°04' E 113°29'118.4
2015-Jan-21 02:22N 23°04' E 113°30'10226.5
2015-Jan-21 02:20N 23°03' E 113°19'996.1
2015-Jan-21 02:14N 23°04' E 113°29'6628820.7
2015-Jan-21 02:10N 31°46' E 121°07'4726515.3
2015-Jan-21 02:05N 24°16' E 118°24'45619086.0
2015-Jan-21 02:04N 31°21' E 121°32'57112.7
2015-Jan-21 01:33N 32°00' E 120°43'682245370.1
2015-Jan-21 01:33N 22°27' E 113°48'679610744.7
2015-Jan-21 01:33N 31°12' E 121°50'30107435.4
2015-Jan-21 01:33N 31°30' E 121°22'3912751.8
2015-Jan-21 01:33N 31°58' E 120°50'302146.8
2015-Jan-21 01:32N 31°57' E 120°15'313634.2
2015-Jan-21 01:32N 31°58' E 120°51'72716785.9
2015-Jan-21 01:29N 21°58' E 113°11'691444.5
2015-Jan-21 01:26N 23°04' E 113°29'0 1.7
2015-Jan-21 01:22N 23°04' E 113°29'65916368.0
2015-Jan-21 01:19N 31°40' E 121°11'45718483.4
2015-Jan-21 01:18N 24°25' E 118°35'2875518.6
2015-Jan-21 01:15N 22°31' E 113°48'3856.0
2015-Jan-21 00:33N 23°02' E 113°24'649779163.8
2015-Jan-21 00:33N 31°58' E 120°17'10021122.6
2015-Jan-21 00:33N 31°07' E 121°58'893143.8
2015-Jan-21 00:31N 32°00' E 120°34'721518855.4
2015-Jan-21 00:31N 21°58' E 113°11'723216965.7
2015-Jan-21 00:31N 31°40' E 121°11'67665820.9
2015-Jan-21 00:31N 22°30' E 113°48'681350259.2
2015-Jan-21 00:30N 31°58' E 120°51'66312894.0
2015-Jan-21 00:27N 23°04' E 113°29'122.6
2015-Jan-21 00:25N 23°04' E 113°30'141.3
2015-Jan-21 00:25N 23°04' E 113°29'2791112.7
2015-Jan-21 00:09N 24°16' E 118°24'284474.1
2015-Jan-20 23:33N 23°02' E 113°24'4112435.9
2015-Jan-20 23:33N 22°27' E 113°48'672151113.0
2015-Jan-20 23:33N 31°60' E 120°23'51057.5
2015-Jan-20 23:33N 32°02' E 120°28'4376692.8
2015-Jan-20 23:33N 31°40' E 121°11'72330275.6
2015-Jan-20 23:31N 21°58' E 113°11'68619458.0
2015-Jan-20 23:29N 29°52' E 122°22'714121.7
2015-Jan-20 23:28N 31°02' E 122°06'66450824.3
2015-Jan-20 23:27N 23°04' E 113°29'1 8.9
2015-Jan-20 23:22N 23°04' E 113°30'66245863.9
2015-Jan-20 23:22N 31°58' E 120°51'4804620.4
2015-Jan-20 23:15N 24°16' E 118°24'285408.4
2015-Jan-20 22:34N 23°02' E 113°24'660593937.2
2015-Jan-20 22:33N 31°46' E 120°56'299429.6
2015-Jan-20 22:33N 32°02' E 120°28'61644.1
2015-Jan-20 22:33N 31°59' E 120°22'4610938.8
2015-Jan-20 22:33N 31°40' E 121°11'92972.4
2015-Jan-20 22:33N 31°47' E 121°03'72433866.1
2015-Jan-20 22:31N 21°58' E 113°11'727523721.5
2015-Jan-20 22:31N 31°58' E 120°51'684123046.4
2015-Jan-20 22:31N 22°25' E 113°54'2725243.5
2015-Jan-20 22:28N 24°16' E 118°24'141.4
2015-Jan-20 22:26N 24°17' E 118°25'27790550.7
2015-Jan-20 22:26N 22°27' E 113°48'65416579.5
2015-Jan-20 22:23N 31°09' E 121°10'4272452.2
2015-Jan-20 22:13N 24°24' E 118°37'29343933.9
2015-Jan-20 22:12N 23°04' E 113°29'5 7.8
2015-Jan-20 21:34N 23°02' E 113°24'6611189057.4
2015-Jan-20 21:33N 32°01' E 120°35'373499.7
2015-Jan-20 21:33N 31°40' E 121°11'141038.1
2015-Jan-20 21:32N 31°46' E 120°56'131120.7
2015-Jan-20 21:31N 31°58' E 120°51'256545.8
2015-Jan-20 21:31N 31°59' E 120°21'71312836.7
2015-Jan-20 21:28N 21°58' E 113°11'72370353.4
2015-Jan-20 21:27N 31°52' E 120°53'65814815.5
2015-Jan-20 21:25N 23°04' E 113°29'3174922.1
2015-Jan-20 21:21N 24°53' E 118°55'438557.7
2015-Jan-20 20:34N 32°01' E 120°42'44455124.9
2015-Jan-20 20:33N 24°47' E 118°54'319104452.9
2015-Jan-20 20:33N 23°02' E 113°24'66780056.9
2015-Jan-20 20:32N 31°58' E 120°51'290.4
2015-Jan-20 20:31N 31°57' E 120°52'265131.3
2015-Jan-20 20:31N 31°59' E 120°21'462655.3
2015-Jan-20 20:30N 31°40' E 121°11'72354243.3
2015-Jan-20 20:29N 21°58' E 113°11'68616365.3
2015-Jan-20 20:27N 29°52' E 122°22'1366698.3
2015-Jan-20 20:25N 31°46' E 120°56'65539322.0
2015-Jan-20 20:24N 23°04' E 113°29'41237.4
2015-Jan-20 20:14N 22°27' E 113°48'2764384.3
2015-Jan-20 20:10N 24°17' E 118°25'47115422.4
2015-Jan-20 20:08N 31°47' E 121°03'6651147.0
2015-Jan-20 19:34N 23°02' E 113°24'6671201140.5
2015-Jan-20 19:33N 31°59' E 120°50'142117.3
2015-Jan-20 19:33N 31°46' E 120°56'6492.4
2015-Jan-20 19:32N 31°47' E 121°03'374475.9
2015-Jan-20 19:32N 31°59' E 120°21'251796.9
2015-Jan-20 19:31N 31°58' E 120°51'68126658.2
2015-Jan-20 19:29N 22°29' E 113°51'485439.4
2015-Jan-20 19:29N 21°58' E 113°11'692684.9
2015-Jan-20 19:27N 23°04' E 113°29'122.8
2015-Jan-20 19:25N 23°04' E 113°30'6595273.1
2015-Jan-20 19:18N 31°40' E 121°11'67913514.3
2015-Jan-20 19:15N 22°27' E 113°48'2774292.1
2015-Jan-20 19:11N 24°17' E 118°25'285455.8
2015-Jan-20 18:33N 23°02' E 113°24'6672400373.2
2015-Jan-20 18:33N 31°59' E 120°49'84838.1
2015-Jan-20 18:33N 31°52' E 120°54'2825421.7
2015-Jan-20 18:33N 31°59' E 120°21'673242308.7
2015-Jan-20 18:33N 22°26' E 113°45'67955563.8
2015-Jan-20 18:32N 31°46' E 120°56'72011995.7
2015-Jan-20 18:29N 21°58' E 113°11'692872.5
2015-Jan-20 18:27N 23°04' E 113°29'1 7.9
2015-Jan-20 18:22N 23°04' E 113°30'6593151.5
2015-Jan-20 18:09N 31°40' E 121°11'67711174.4
2015-Jan-20 18:05N 22°29' E 113°51'4177.9
2015-Jan-20 17:33N 23°02' E 113°24'663198845.9
2015-Jan-20 17:33N 31°47' E 120°60'2513103.8
2015-Jan-20 17:33N 31°30' E 121°22'145768.3
2015-Jan-20 17:33N 31°40' E 121°11'67952019.7
2015-Jan-20 17:32N 22°27' E 113°48'66830049.7
2015-Jan-20 17:31N 31°58' E 120°19'281246.3
2015-Jan-20 17:30N 31°58' E 120°51'156739.0
2015-Jan-20 17:29N 31°47' E 121°03'68172065.8
2015-Jan-20 17:29N 22°27' E 113°48'4523373.1
2015-Jan-20 17:29N 21°58' E 113°11'72011464.8
2015-Jan-20 17:25N 31°46' E 120°56'65562080.3
2015-Jan-20 17:24N 23°04' E 113°29'2891600.0
2015-Jan-20 17:14N 24°25' E 118°32'294441.3
2015-Jan-20 16:33N 23°02' E 113°24'4116579.1
2015-Jan-20 16:33N 22°27' E 113°48'679152866.2
2015-Jan-20 16:33N 31°40' E 121°11'262190.7
2015-Jan-20 16:32N 31°59' E 120°49'7278257.2
2015-Jan-20 16:27N 21°58' E 113°11'720107961.9
2015-Jan-20 16:27N 31°46' E 120°56'4384974.0
2015-Jan-20 16:21N 24°41' E 118°53'44910359.3
2015-Jan-20 16:19N 31°58' E 120°51'68843438.1
2015-Jan-20 16:18N 22°24' E 113°46'431041.1
2015-Jan-20 16:15N 23°04' E 113°29'5 7.2
2015-Jan-20 15:34N 23°02' E 113°24'324388628.0
2015-Jan-20 15:33N 24°47' E 118°59'443532007.9
2015-Jan-20 15:33N 32°00' E 120°46'726118873.3
2015-Jan-20 15:33N 21°58' E 113°11'72493044.1
2015-Jan-20 15:33N 31°38' E 121°15'191589.9
2015-Jan-20 15:32N 31°46' E 120°56'68546553.7
2015-Jan-20 15:31N 22°20' E 113°42'69389118.4
2015-Jan-20 15:31N 31°58' E 120°51'663265039.7
2015-Jan-20 15:30N 23°04' E 113°29'659158229.6
2015-Jan-20 15:30N 31°40' E 121°11'1247110.0
2015-Jan-20 15:29N 29°52' E 122°22'65514385.2
2015-Jan-20 15:26N 22°17' E 113°38'48208.0
2015-Jan-20 15:12N 23°04' E 113°29'41430.9
2015-Jan-20 15:07N 22°27' E 113°48'326590.2
2015-Jan-20 14:33N 24°54' E 119°06'34081712.2
2015-Jan-20 14:33N 22°14' E 113°38'5089723.1
2015-Jan-20 14:33N 23°02' E 113°24'4943734.9
2015-Jan-20 14:33N 22°14' E 113°35'2850458.7
2015-Jan-20 14:33N 21°58' E 113°11'7232601158.4
2015-Jan-20 14:33N 31°33' E 121°20'66459774.8
2015-Jan-20 14:32N 23°02' E 113°23'6642810.7
2015-Jan-20 14:18N 31°40' E 121°11'37250.0
2015-Jan-20 14:09N 32°00' E 120°34'6601102.5
2015-Jan-20 13:34N 23°02' E 113°24'659395394.2
2015-Jan-20 13:33N 32°02' E 120°30'696156632.0
2015-Jan-20 13:33N 22°13' E 113°34'2618638.9
2015-Jan-20 13:33N 21°58' E 113°11'72360534.3
2015-Jan-20 13:32N 31°30' E 121°25'363.6
2015-Jan-20 13:30N 31°30' E 121°22'14150.5
2015-Jan-20 13:24N 31°40' E 121°11'14215.5
2015-Jan-20 13:20N 31°46' E 120°56'13162.6
2015-Jan-20 13:16N 31°58' E 120°51'2433.7
2015-Jan-20 12:33N 31°60' E 120°24'31134978.7
2015-Jan-20 12:33N 36°54' E 122°26'336604590.3
2015-Jan-20 12:33N 31°21' E 121°31'661158604.6
2015-Jan-20 12:33N 23°02' E 113°24'655734.5
2015-Jan-20 12:32N 21°58' E 113°11'458178.5
2015-Jan-20 12:32N 22°27' E 113°48'679271425.4
2015-Jan-20 12:31N 31°28' E 121°28'6993059.2
2015-Jan-20 12:18N 22°12' E 113°34'53545.6
2015-Jan-20 12:12N 23°04' E 113°29'1767622.9
2015-Jan-20 12:11N 23°02' E 116°40'57227816.8
2015-Jan-20 12:09N 31°40' E 121°11'14160.1
2015-Jan-20 12:04N 31°46' E 120°56'5681113.7
2015-Jan-20 11:34N 23°04' E 116°43'566185081.8
2015-Jan-20 11:33N 31°57' E 120°17'649233549.8
2015-Jan-20 11:33N 23°02' E 113°24'662340622.1
2015-Jan-20 11:33N 31°30' E 121°22'8542.0
2015-Jan-20 11:32N 31°26' E 121°30'722173347.6
2015-Jan-20 11:32N 21°58' E 113°11'69911.6
2015-Jan-20 11:27N 23°04' E 113°29'64137800.6
2015-Jan-20 11:26N 32°05' E 119°56'3144138.3
2015-Jan-20 11:22N 36°54' E 122°25'31713108.2
2015-Jan-20 11:20N 31°46' E 120°56'69624096.3
2015-Jan-20 11:19N 22°12' E 113°34'69815050.4
2015-Jan-20 11:16N 31°49' E 120°54'678128513.6
2015-Jan-20 11:16N 22°27' E 113°48'68313512.5
2015-Jan-20 11:13N 31°58' E 120°50'1179.7
2015-Jan-20 11:12N 31°58' E 120°51'70112749.4
2015-Jan-20 11:09N 22°14' E 113°35'6941177.5
2015-Jan-20 10:34N 31°30' E 121°22'6621192185.3
2015-Jan-20 10:33N 23°02' E 113°24'643257150.1
2015-Jan-20 10:33N 32°03' E 119°55'914605.7
2015-Jan-20 10:32N 31°25' E 121°32'723200108.9
2015-Jan-20 10:32N 21°58' E 113°11'40446906.2
2015-Jan-20 10:31N 25°18' E 119°34'359107731.7
2015-Jan-20 10:31N 22°27' E 113°48'31834704.2
2015-Jan-20 10:31N 24°41' E 119°03'337121163.9
2015-Jan-20 10:31N 22°12' E 113°34'68322753.9
2015-Jan-20 10:29N 31°56' E 120°11'64018888.2
2015-Jan-20 10:27N 23°04' E 113°29'1852208.0
2015-Jan-20 10:22N 23°10' E 116°50'5696669.3
2015-Jan-20 10:17N 31°58' E 120°50'451.6
2015-Jan-20 10:12N 31°55' E 120°53'471.7
2015-Jan-20 10:09N 31°58' E 120°51'495088.1
2015-Jan-20 10:09N 31°11' E 121°09'372318.3
2015-Jan-20 10:08N 31°46' E 120°56'66316030.1
2015-Jan-20 10:05N 23°03' E 113°16'814.9
2015-Jan-20 09:34N 23°02' E 113°24'643462877.4
2015-Jan-20 09:33N 32°03' E 119°55'826528.8
2015-Jan-20 09:33N 31°30' E 121°22'66434164.3
2015-Jan-20 09:32N 23°03' E 113°19'531290.3
2015-Jan-20 09:29N 22°12' E 113°34'262454.4
2015-Jan-20 09:28N 21°58' E 113°11'723236481.7
2015-Jan-20 09:28N 31°25' E 121°32'67861055.7
2015-Jan-20 09:28N 22°27' E 113°48'662125469.9
2015-Jan-20 09:27N 31°56' E 120°10'54851951.0
2015-Jan-20 09:27N 23°15' E 116°55'1906825.0
2015-Jan-20 09:25N 23°04' E 113°30'6597461.7
2015-Jan-20 09:20N 31°40' E 121°11'14311.3
2015-Jan-20 09:17N 31°46' E 120°56'13319.9
2015-Jan-20 09:15N 31°58' E 120°50'113.2
2015-Jan-20 09:11N 31°59' E 120°50'130.4
2015-Jan-20 09:08N 31°58' E 120°51'6631139.0
2015-Jan-20 08:34N 23°05' E 113°28'4408.4
2015-Jan-20 08:33N 23°02' E 113°24'64342058.3
2015-Jan-20 08:32N 32°03' E 119°55'70511964.8
2015-Jan-20 08:28N 21°58' E 113°11'72779351.5
2015-Jan-20 08:28N 31°58' E 120°51'2352.3
2015-Jan-20 08:28N 31°59' E 120°49'26828.2
2015-Jan-20 08:26N 31°40' E 121°11'67976439.9
2015-Jan-20 08:25N 22°27' E 113°48'67810176.7
2015-Jan-20 08:21N 31°25' E 121°32'4623317.7
2015-Jan-20 08:13N 24°24' E 117°57'4555752.5
2015-Jan-20 08:08N 31°10' E 121°52'331837.6
2015-Jan-20 08:07N 31°13' E 121°13'64012652.1
2015-Jan-20 08:04N 23°04' E 113°30'5013811.7
2015-Jan-20 08:04N 22°14' E 113°35'6961382.3
2015-Jan-20 07:34N 31°14' E 121°47'661158748.7
2015-Jan-20 07:33N 23°06' E 113°25'6910406.1
2015-Jan-20 07:33N 21°58' E 113°11'451159.8
2015-Jan-20 07:31N 22°27' E 113°48'66237249.9
2015-Jan-20 07:29N 32°03' E 119°55'482928.7
2015-Jan-20 07:28N 31°59' E 120°51'66374560.9
2015-Jan-20 07:28N 23°04' E 113°30'502301.9
2015-Jan-20 07:27N 22°14' E 113°35'346.2
2015-Jan-20 07:23N 22°12' E 113°34'70345197.8
2015-Jan-20 07:22N 31°58' E 120°50'2 9.7
2015-Jan-20 07:13N 31°59' E 120°49'6621015.8
2015-Jan-20 06:33N 23°04' E 113°29'665341775.3
2015-Jan-20 06:33N 31°19' E 121°48'666599009.2
2015-Jan-20 06:33N 23°06' E 113°25'63933827.2
2015-Jan-20 06:32N 32°03' E 119°55'638255364.2
2015-Jan-20 06:32N 23°04' E 113°30'63822509.0
2015-Jan-20 06:30N 31°60' E 120°00'70412299.3
2015-Jan-20 06:27N 21°58' E 113°11'2811203.7
2015-Jan-20 06:27N 22°14' E 113°35'18493.8
2015-Jan-20 06:25N 22°27' E 113°48'65657622.0
2015-Jan-20 06:24N 31°09' E 121°14'4402345.0
2015-Jan-20 06:13N 24°16' E 118°24'78616260.1
2015-Jan-20 06:10N 36°52' E 122°34'329541.5
2015-Jan-20 05:33N 31°25' E 121°46'6692407469.9
2015-Jan-20 05:33N 23°06' E 113°25'4331.8
2015-Jan-20 05:32N 23°04' E 113°29'639255747.4
2015-Jan-20 05:32N 31°57' E 120°07'318163470.7
2015-Jan-20 05:32N 36°53' E 122°28'9771758423.1
2015-Jan-20 05:32N 22°27' E 113°48'25710628.9
2015-Jan-20 05:31N 24°24' E 117°57'2585493.5
2015-Jan-20 05:28N 23°04' E 113°30'697712.7
2015-Jan-20 05:27N 21°58' E 113°11'26351.3
2015-Jan-20 05:23N 22°12' E 113°34'69673701.4
2015-Jan-20 05:22N 31°46' E 120°56'14456.5
2015-Jan-20 05:21N 31°59' E 120°50'54690.1
2015-Jan-20 05:16N 31°08' E 121°11'635899.2
2015-Jan-20 04:33N 23°04' E 113°29'414580.7
2015-Jan-20 04:33N 23°06' E 113°25'636208218.5
2015-Jan-20 04:33N 31°10' E 121°09'682454.8
2015-Jan-20 04:32N 31°57' E 120°13'31731673.2
2015-Jan-20 04:31N 36°54' E 122°26'3052645.8
2015-Jan-20 04:24N 31°59' E 120°51'7045762.2
2015-Jan-20 04:17N 22°11' E 113°35'533660.0
2015-Jan-20 04:16N 23°04' E 113°30'643100567.7
2015-Jan-20 04:16N 31°05' E 121°28'70565109.3
2015-Jan-20 04:15N 21°58' E 113°11'28147.8
2015-Jan-20 04:04N 22°14' E 113°35'7011392.4
2015-Jan-20 03:33N 32°00' E 120°48'2646906.8
2015-Jan-20 03:33N 31°58' E 120°18'668480670.2
2015-Jan-20 03:33N 22°27' E 113°48'4149244.6
2015-Jan-20 03:33N 23°04' E 113°29'316284045.8
2015-Jan-20 03:33N 24°50' E 118°54'3181146402.6
2015-Jan-20 03:33N 23°06' E 113°25'693243.4
2015-Jan-20 03:32N 21°58' E 113°11'72835403.8
2015-Jan-20 03:31N 31°59' E 120°51'48597.9
2015-Jan-20 03:26N 31°14' E 121°09'1822008.6
2015-Jan-20 03:26N 31°05' E 121°28'64312923.6
2015-Jan-20 03:23N 23°04' E 113°29'50356.3
2015-Jan-20 03:14N 22°14' E 113°35'69312543.0
2015-Jan-20 03:11N 31°46' E 120°55'696119322.7
2015-Jan-20 03:11N 22°11' E 113°35'6961121.7
2015-Jan-20 02:33N 31°46' E 120°55'312552.6
2015-Jan-20 02:33N 31°60' E 120°22'594733.5
2015-Jan-20 02:32N 31°30' E 121°22'658473719.5
2015-Jan-20 02:32N 23°04' E 113°29'658394963.9
2015-Jan-20 02:32N 31°60' E 120°40'6596176.9
2015-Jan-20 02:25N 23°06' E 113°25'4417711.6
2015-Jan-20 02:25N 22°27' E 113°48'2747705.6
2015-Jan-20 02:25N 22°14' E 113°23'68411392.1
2015-Jan-20 02:22N 31°17' E 121°09'68061157.0
2015-Jan-20 02:21N 22°11' E 113°35'68112077.7
2015-Jan-20 02:18N 31°05' E 121°28'624987.7
2015-Jan-20 02:17N 31°59' E 120°51'7286787.2
2015-Jan-20 02:10N 21°58' E 113°11'69617.9
2015-Jan-20 02:04N 23°04' E 113°29'6551270.3
2015-Jan-20 01:33N 31°46' E 120°55'6962506038.0
2015-Jan-20 01:33N 22°11' E 113°35'5599219.1
2015-Jan-20 01:33N 23°06' E 113°25'6582367286.1
2015-Jan-20 01:33N 32°02' E 120°34'5448839.0
2015-Jan-20 01:33N 31°17' E 121°09'5852098.6
2015-Jan-20 01:33N 32°02' E 120°26'5751502.2
2015-Jan-20 01:32N 31°30' E 121°22'65831581.0
2015-Jan-20 01:31N 23°04' E 113°29'29212996.6
2015-Jan-20 01:30N 24°24' E 118°37'29314045.0
2015-Jan-20 01:29N 23°04' E 113°29'69641.8
2015-Jan-20 01:22N 21°58' E 113°11'28209.6
2015-Jan-20 01:14N 22°14' E 113°35'6976816.1
2015-Jan-20 01:08N 31°40' E 121°11'67940764.3
2015-Jan-20 01:07N 22°27' E 113°48'4479.3
2015-Jan-20 00:34N 23°06' E 113°25'65960817.6
2015-Jan-20 00:33N 31°30' E 121°22'6582368544.1
2015-Jan-20 00:33N 23°04' E 113°29'655786444.2
2015-Jan-20 00:33N 32°02' E 120°32'3955.1
2015-Jan-20 00:33N 32°04' E 120°28'698418676.8
2015-Jan-20 00:32N 22°11' E 113°35'69617164.4
2015-Jan-20 00:30N 31°46' E 120°55'437314701.0
2015-Jan-20 00:30N 24°42' E 118°56'35710997.0
2015-Jan-20 00:28N 21°58' E 113°11'6910741.9
2015-Jan-20 00:28N 23°04' E 113°29'50398.8
2015-Jan-20 00:20N 22°14' E 113°35'693891.5
2015-Jan-19 23:33N 31°46' E 120°55'433155941.8
2015-Jan-19 23:33N 24°47' E 118°52'315378052.7
2015-Jan-19 23:33N 23°06' E 113°25'658789126.4
2015-Jan-19 23:33N 32°01' E 120°37'124664.6
2015-Jan-19 23:33N 32°01' E 120°23'689496123.5
2015-Jan-19 23:33N 22°15' E 113°36'5044696.7
2015-Jan-19 23:33N 23°04' E 113°29'32120665.9
2015-Jan-19 23:32N 24°44' E 119°04'22102.0
2015-Jan-19 23:32N 24°45' E 119°02'1092238.7
2015-Jan-19 23:29N 23°39' E 117°28'25714255.9
2015-Jan-19 23:28N 21°58' E 113°11'232964.6
2015-Jan-19 23:27N 22°10' E 113°32'70045821.8
2015-Jan-19 23:26N 31°31' E 121°21'69644766.4
2015-Jan-19 23:26N 22°11' E 113°37'69532077.1
2015-Jan-19 23:24N 31°46' E 120°55'54186.3
2015-Jan-19 23:07N 32°03' E 119°55'63912226.6
2015-Jan-19 23:04N 23°04' E 113°29'0 0.9
2015-Jan-19 22:34N 23°04' E 113°29'645387224.2
2015-Jan-19 22:33N 31°58' E 120°19'3359782.3
2015-Jan-19 22:33N 31°46' E 120°55'0107.5
2015-Jan-19 22:33N 31°46' E 120°55'6561180716.7
2015-Jan-19 22:33N 23°06' E 113°25'661198214.3
2015-Jan-19 22:33N 32°01' E 120°43'444133233.6
2015-Jan-19 22:33N 24°46' E 119°01'0401.7
2015-Jan-19 22:33N 24°46' E 119°00'44022968.3
2015-Jan-19 22:32N 32°03' E 119°55'52237571.5
2015-Jan-19 22:31N 23°38' E 117°28'1103852.1
2015-Jan-19 22:29N 24°53' E 118°57'1697.7
2015-Jan-19 22:29N 24°52' E 118°57'11537.6
2015-Jan-19 22:28N 24°42' E 118°54'355212965.6
2015-Jan-19 22:28N 21°58' E 113°11'6930885.5
2015-Jan-19 22:28N 23°04' E 113°29'472774.4
2015-Jan-19 22:27N 22°18' E 113°40'11241.8
2015-Jan-19 22:24N 22°10' E 113°32'68341679.5
2015-Jan-19 22:23N 31°59' E 120°01'67946149.3
2015-Jan-19 22:22N 22°11' E 113°37'3321706.7
2015-Jan-19 22:10N 24°40' E 119°02'3163359.4
2015-Jan-19 22:05N 22°27' E 113°48'4484.6
2015-Jan-19 21:33N 23°06' E 113°25'4529.1
2015-Jan-19 21:33N 23°04' E 113°29'318381398.2
2015-Jan-19 21:33N 24°51' E 118°57'12853.0
2015-Jan-19 21:33N 24°50' E 118°57'41010.8
2015-Jan-19 21:33N 24°46' E 118°56'40276140.8
2015-Jan-19 21:32N 31°05' E 121°28'50179097.9
2015-Jan-19 21:32N 31°46' E 120°55'031.8
2015-Jan-19 21:32N 31°46' E 120°55'1323504.7
2015-Jan-19 21:32N 31°59' E 120°51'442159034.6
2015-Jan-19 21:32N 24°49' E 118°56'27116.9
2015-Jan-19 21:32N 24°51' E 118°57'362260320.7
2015-Jan-19 21:32N 21°57' E 113°11'70570526.8
2015-Jan-19 21:31N 31°57' E 120°06'121604.1
2015-Jan-19 21:31N 32°03' E 119°55'68449264.1
2015-Jan-19 21:30N 22°10' E 113°32'6861234675.8
2015-Jan-19 21:30N 31°56' E 120°13'515394.5
2015-Jan-19 21:29N 31°41' E 121°10'8877.5
2015-Jan-19 21:29N 31°45' E 121°03'69850252.1
2015-Jan-19 21:28N 22°11' E 113°37'53262.8
2015-Jan-19 21:16N 23°04' E 113°29'0 0.6
2015-Jan-19 20:34N 23°04' E 113°29'655589691.1
2015-Jan-19 20:33N 31°46' E 120°55'815012.0
2015-Jan-19 20:33N 31°45' E 121°05'6601188110.1
2015-Jan-19 20:33N 23°06' E 113°25'323290340.6
2015-Jan-19 20:33N 24°51' E 118°59'431310193.1
2015-Jan-19 20:33N 31°57' E 120°13'708149944.4
2015-Jan-19 20:33N 21°59' E 113°07'721162142.8
2015-Jan-19 20:33N 31°46' E 120°55'427307100.7
2015-Jan-19 20:33N 24°53' E 118°57'43526996.4
2015-Jan-19 20:32N 31°55' E 120°53'4513.4
2015-Jan-19 20:31N 31°59' E 120°51'6244889.5
2015-Jan-19 20:31N 31°05' E 121°28'39614996.9
2015-Jan-19 20:30N 24°52' E 118°57'43432548.6
2015-Jan-19 20:29N 32°03' E 119°55'68116669.7
2015-Jan-19 20:26N 22°11' E 113°37'1280.4
2015-Jan-19 20:17N 22°12' E 113°24'521873.8
2015-Jan-19 20:16N 23°04' E 113°29'64260788.6
2015-Jan-19 20:15N 32°07' E 119°55'68713094.5
2015-Jan-19 20:12N 22°10' E 113°32'23568.6
2015-Jan-19 20:09N 22°27' E 113°48'4473.8
2015-Jan-19 19:33N 23°06' E 113°25'6561180726.3
2015-Jan-19 19:33N 31°46' E 120°55'338402.7
2015-Jan-19 19:33N 31°59' E 120°20'6471164501.3
2015-Jan-19 19:33N 23°04' E 113°29'639176834.5
2015-Jan-19 19:33N 32°03' E 119°55'68149009.4
2015-Jan-19 19:32N 22°11' E 113°37'68076445.9
2015-Jan-19 19:32N 31°05' E 121°28'972587.0
2015-Jan-19 19:29N 32°03' E 119°57'6398125.6
2015-Jan-19 19:25N 23°04' E 113°29'544324.1
2015-Jan-19 19:24N 22°10' E 113°32'234303.0
2015-Jan-19 19:24N 22°27' E 113°48'641135774.2
2015-Jan-19 19:23N 29°52' E 122°22'1364458.3
2015-Jan-19 19:21N 31°46' E 120°55'13829.0
2015-Jan-19 19:20N 31°59' E 120°51'115040.0
2015-Jan-19 19:20N 31°48' E 120°56'7844.0
2015-Jan-19 19:20N 31°45' E 121°03'0858.8
2015-Jan-19 19:20N 31°45' E 121°03'659853.3
2015-Jan-19 18:34N 23°04' E 113°29'653130527.1
2015-Jan-19 18:33N 32°02' E 120°26'6532351374.2
2015-Jan-19 18:33N 23°06' E 113°25'63838277.4
2015-Jan-19 18:32N 31°59' E 120°01'679203788.5
2015-Jan-19 18:32N 22°11' E 113°38'67920906.7
2015-Jan-19 18:30N 31°05' E 121°28'4532744.7
2015-Jan-19 18:30N 31°45' E 121°03'13210778.4
2015-Jan-19 18:29N 29°52' E 122°22'62823306.3
2015-Jan-19 18:28N 23°04' E 113°29'41650.1
2015-Jan-19 18:24N 22°27' E 113°48'23796.1
2015-Jan-19 18:22N 22°10' E 113°32'26315.7
2015-Jan-19 18:17N 22°27' E 113°53'6604704.0
2015-Jan-19 18:09N 32°03' E 119°55'99168.0
2015-Jan-19 17:34N 31°05' E 121°28'5089901.1
2015-Jan-19 17:33N 31°46' E 120°55'656214663.7
2015-Jan-19 17:33N 23°06' E 113°25'656590755.6
2015-Jan-19 17:33N 32°01' E 120°34'656590248.5
2015-Jan-19 17:33N 23°04' E 113°29'6391149448.4
2015-Jan-19 17:33N 31°57' E 120°05'661198273.1
2015-Jan-19 17:33N 22°25' E 113°53'66245798.7
2015-Jan-19 17:32N 32°03' E 119°55'681408415.8
2015-Jan-19 17:32N 22°11' E 113°37'6134.1
2015-Jan-19 17:29N 22°10' E 113°32'702133081.9
2015-Jan-19 17:29N 31°42' E 121°10'70413774.7
2015-Jan-19 17:26N 22°21' E 113°12'70325065.2
2015-Jan-19 17:24N 31°45' E 121°03'6594491.1
2015-Jan-19 17:16N 23°04' E 113°29'66391787.1
2015-Jan-19 17:15N 31°59' E 120°51'13284.7
2015-Jan-19 17:12N 31°46' E 120°55'788.4
2015-Jan-19 17:08N 31°45' E 121°03'6999983.8
2015-Jan-19 17:04N 22°13' E 113°34'7001387.9
2015-Jan-19 16:34N 32°00' E 120°41'660237434.0
2015-Jan-19 16:33N 23°06' E 113°25'4471.9
2015-Jan-19 16:33N 23°04' E 113°29'65948404.4
2015-Jan-19 16:32N 31°45' E 121°03'711822.4
2015-Jan-19 16:32N 31°46' E 120°55'415607.9
2015-Jan-19 16:32N 31°56' E 120°09'3625880.7
2015-Jan-19 16:31N 31°59' E 120°51'6256158.5
2015-Jan-19 16:31N 31°05' E 121°28'50179466.6
2015-Jan-19 16:31N 31°46' E 120°55'76172.8
2015-Jan-19 16:31N 31°45' E 121°03'69841184.4
2015-Jan-19 16:30N 22°11' E 113°37'1124.8
2015-Jan-19 16:30N 22°11' E 113°38'6102.6
2015-Jan-19 16:26N 22°10' E 113°32'541818.9
2015-Jan-19 16:25N 23°04' E 113°29'66016838.9
2015-Jan-19 16:22N 31°35' E 121°18'76895.5
2015-Jan-19 16:17N 32°03' E 119°55'6815561.6
2015-Jan-19 16:10N 22°13' E 113°34'5285.4
2015-Jan-19 15:34N 23°04' E 113°29'42428.5
2015-Jan-19 15:33N 23°06' E 113°25'656787100.3
2015-Jan-19 15:33N 31°46' E 120°55'5019978.0
2015-Jan-19 15:33N 31°05' E 121°28'261406.9
2015-Jan-19 15:32N 31°31' E 121°24'694488.3
2015-Jan-19 15:31N 31°56' E 120°09'68112137.2
2015-Jan-19 15:28N 22°13' E 113°34'69514389.5
2015-Jan-19 15:25N 31°46' E 120°55'139467.1
2015-Jan-19 15:25N 31°59' E 120°51'1761487.4
2015-Jan-19 15:25N 31°45' E 121°03'2012002.2
2015-Jan-19 15:25N 31°59' E 120°46'4311161.6
2015-Jan-19 15:24N 32°03' E 119°55'602618.5
2015-Jan-19 15:23N 31°46' E 121°03'6595293.6
2015-Jan-19 15:16N 23°04' E 113°29'54449.7
2015-Jan-19 15:08N 22°10' E 113°32'6991195.3
2015-Jan-19 14:33N 31°46' E 120°55'656337352.4
2015-Jan-19 14:33N 23°06' E 113°25'154471.2
2015-Jan-19 14:33N 22°54' E 113°35'66545160.3
2015-Jan-19 14:32N 31°56' E 120°48'4817410.8
2015-Jan-19 14:32N 31°25' E 121°31'341257.3
2015-Jan-19 14:30N 31°47' E 120°60'441266.2
2015-Jan-19 14:28N 31°56' E 120°09'8450664.8
2015-Jan-19 14:28N 31°05' E 121°28'681136132.5
2015-Jan-19 14:28N 22°13' E 113°34'5213358.9
2015-Jan-19 14:28N 23°04' E 113°29'659395212.1
2015-Jan-19 14:28N 31°46' E 121°02'60509.5
2015-Jan-19 14:20N 32°03' E 119°55'68116783.8
2015-Jan-19 14:18N 22°11' E 113°37'69524760.4
2015-Jan-19 14:16N 31°46' E 120°55'132157.0
2015-Jan-19 14:16N 31°59' E 120°51'4968.5
2015-Jan-19 13:33N 31°22' E 121°28'656393542.0
2015-Jan-19 13:33N 23°06' E 113°25'6582367947.3
2015-Jan-19 13:33N 31°49' E 120°55'3865.6
2015-Jan-19 13:33N 31°46' E 120°55'655337017.6
2015-Jan-19 13:33N 23°04' E 113°29'64330447.7
2015-Jan-19 13:32N 31°05' E 121°28'8414475.0
2015-Jan-19 13:31N 31°56' E 120°09'68031001.1
2015-Jan-19 13:30N 22°11' E 113°37'69520497.4
2015-Jan-19 13:28N 31°46' E 120°55'6762317.9
2015-Jan-19 13:10N 22°27' E 113°48'6741093.0
2015-Jan-19 12:33N 31°22' E 121°28'3733467.7
2015-Jan-19 12:33N 31°46' E 120°55'656118012.6
2015-Jan-19 12:33N 23°05' E 113°27'64353861.0
2015-Jan-19 12:32N 31°05' E 121°28'643144625.7
2015-Jan-19 12:32N 23°04' E 113°29'63953493.9
2015-Jan-19 12:31N 31°56' E 120°09'3710181.7
2015-Jan-19 12:31N 31°56' E 120°52'66111720.0
2015-Jan-19 12:28N 23°04' E 113°29'63824983.8
2015-Jan-19 12:26N 32°03' E 119°55'1824071.9
2015-Jan-19 12:24N 29°52' E 122°22'14948680.1
2015-Jan-19 12:23N 31°59' E 120°51'663795.8
2015-Jan-19 11:33N 23°06' E 113°27'655102563.0
2015-Jan-19 11:33N 31°46' E 120°55'35350769.1
2015-Jan-19 11:33N 37°32' E 122°21'35318419.5
2015-Jan-19 11:31N 31°56' E 120°09'331484.7
2015-Jan-19 11:30N 32°00' E 120°48'65757.5
2015-Jan-19 11:25N 31°05' E 121°28'1398.0
2015-Jan-19 11:17N 31°17' E 121°34'6927059.0
2015-Jan-19 11:11N 22°11' E 113°37'6881105.0
2015-Jan-19 10:34N 31°15' E 121°30'6173118.1
2015-Jan-19 10:33N 32°00' E 120°42'6592372694.0
2015-Jan-19 10:33N 23°06' E 113°27'39732.2
2015-Jan-19 10:33N 23°04' E 113°29'655235889.2
2015-Jan-19 10:33N 31°46' E 120°55'35332618.4
2015-Jan-19 10:33N 37°34' E 122°11'35630514.3
2015-Jan-19 10:32N 31°42' E 121°09'537634.0
2015-Jan-19 10:32N 31°56' E 120°09'68015500.4
2015-Jan-19 10:29N 22°11' E 113°37'532529.7
2015-Jan-19 10:28N 23°04' E 113°29'6435549.0
2015-Jan-19 10:21N 31°05' E 121°28'5184898.3
2015-Jan-19 10:14N 23°27' E 116°56'54341567.9
2015-Jan-19 10:14N 31°46' E 120°55'1315825.0
2015-Jan-19 10:13N 31°59' E 120°51'489599.1
2015-Jan-19 10:13N 32°03' E 119°55'1635743.3
2015-Jan-19 10:11N 30°26' E 122°27'66722019.2
2015-Jan-19 10:10N 22°27' E 113°48'6641103.5
2015-Jan-19 09:34N 31°10' E 121°28'6462325714.7
2015-Jan-19 09:34N 23°06' E 113°27'656295383.9
2015-Jan-19 09:33N 32°00' E 120°36'678271093.4
2015-Jan-19 09:33N 22°30' E 113°45'3713457.1
2015-Jan-19 09:33N 23°04' E 113°29'976146368.4
2015-Jan-19 09:33N 37°34' E 122°01'893357129.9
2015-Jan-19 09:33N 23°22' E 116°51'55432695.6
2015-Jan-19 09:32N 31°55' E 120°48'1012526.9
2015-Jan-19 09:31N 31°46' E 120°55'41844.2
2015-Jan-19 09:29N 31°56' E 120°09'365887.2
2015-Jan-19 09:28N 31°59' E 120°51'66722667.5
2015-Jan-19 09:26N 23°02' E 113°24'647110995.9
2015-Jan-19 09:26N 31°05' E 121°28'68012740.9
2015-Jan-19 09:23N 22°11' E 113°37'19178.2
2015-Jan-19 09:17N 22°27' E 113°48'6764218.2
2015-Jan-19 09:07N 31°46' E 120°55'6551168.3
2015-Jan-19 08:33N 23°04' E 113°29'657473080.4
2015-Jan-19 08:33N 32°03' E 120°33'6571182515.8
2015-Jan-19 08:33N 23°06' E 113°27'18511275.3
2015-Jan-19 08:32N 23°17' E 116°48'55082541.4
2015-Jan-19 08:32N 32°01' E 119°58'102305.6
2015-Jan-19 08:32N 31°56' E 120°09'6626563.1
2015-Jan-19 08:26N 22°27' E 113°48'194767.4
2015-Jan-19 08:25N 22°11' E 113°37'70336673.5
2015-Jan-19 08:24N 31°59' E 120°51'134720.5
2015-Jan-19 08:24N 31°46' E 120°55'66055240.4
2015-Jan-19 08:23N 23°02' E 113°24'6478414.4
2015-Jan-19 08:19N 31°05' E 121°28'58916.8
2015-Jan-19 08:15N 31°54' E 120°53'814726.0
2015-Jan-19 08:15N 31°46' E 120°55'5072.0
2015-Jan-19 07:33N 31°05' E 121°28'6432313795.4
2015-Jan-19 07:33N 23°04' E 113°29'39621.6
2015-Jan-19 07:33N 23°06' E 113°27'179214235.3
2015-Jan-19 07:33N 23°21' E 116°40'548281799.0
2015-Jan-19 07:33N 31°57' E 120°07'661396500.2
2015-Jan-19 07:33N 22°18' E 114°09'67389778.1
2015-Jan-19 07:33N 31°46' E 120°55'543983.3
2015-Jan-19 07:32N 32°03' E 119°55'993013.5
2015-Jan-19 07:30N 31°05' E 121°28'636853.4
2015-Jan-19 07:29N 31°59' E 120°50'13880.2
2015-Jan-19 07:28N 31°46' E 120°55'41424.8
2015-Jan-19 07:23N 31°56' E 120°09'36723.6
2015-Jan-19 07:20N 31°59' E 120°51'684164244.9
2015-Jan-19 07:19N 22°27' E 113°48'41483.0
2015-Jan-19 07:14N 23°02' E 113°24'5 7.7
2015-Jan-19 06:33N 23°04' E 113°29'643771412.4
2015-Jan-19 06:33N 31°05' E 121°28'7918871.1
2015-Jan-19 06:33N 32°04' E 120°27'654588684.4
2015-Jan-19 06:33N 23°06' E 113°27'173621243.4
2015-Jan-19 06:33N 23°22' E 116°34'14859210.2
2015-Jan-19 06:33N 22°18' E 114°09'66545168.5
2015-Jan-19 06:32N 31°57' E 120°17'342434.3
2015-Jan-19 06:31N 31°46' E 120°55'6955401.4
2015-Jan-19 06:23N 22°11' E 113°37'68058316.8
2015-Jan-19 06:23N 31°56' E 120°09'841912.9
2015-Jan-19 06:20N 31°05' E 121°28'62111120.8
2015-Jan-19 06:20N 31°58' E 120°51'68349190.8
2015-Jan-19 06:19N 22°27' E 113°48'2572809.9
2015-Jan-19 06:14N 24°24' E 117°57'4687650.1
2015-Jan-19 06:10N 31°58' E 120°02'42794.6
2015-Jan-19 06:07N 31°59' E 120°51'6631189.7
2015-Jan-19 05:33N 23°06' E 113°27'643105196.6
2015-Jan-19 05:33N 31°05' E 121°28'643771233.4
2015-Jan-19 05:33N 23°04' E 113°29'6511172598.2
2015-Jan-19 05:33N 32°02' E 120°24'672172812.0
2015-Jan-19 05:33N 22°18' E 114°09'67393226.7
2015-Jan-19 05:32N 31°46' E 120°55'55349735.5
2015-Jan-19 05:32N 23°26' E 116°29'56240496.1
2015-Jan-19 05:31N 31°59' E 120°51'36427.5
2015-Jan-19 05:26N 31°56' E 120°09'68016220.6
2015-Jan-19 05:23N 22°11' E 113°37'19982.1
2015-Jan-19 05:22N 22°27' E 113°48'66161023.9
2015-Jan-19 05:22N 31°05' E 121°28'6483821.7
2015-Jan-19 05:11N 23°02' E 113°24'6521032.6
2015-Jan-19 04:33N 31°59' E 120°21'7970913.0
2015-Jan-19 04:33N 31°05' E 121°28'43847.2
2015-Jan-19 04:33N 31°09' E 121°28'4623706.2
2015-Jan-19 04:33N 31°46' E 120°55'655124150.9
2015-Jan-19 04:33N 23°06' E 113°27'5539664.6
2015-Jan-19 04:33N 22°12' E 113°38'69143672.4
2015-Jan-19 04:32N 31°22' E 121°28'67415155.6
2015-Jan-19 04:29N 22°27' E 113°48'421788.0
2015-Jan-19 04:28N 23°02' E 113°23'64419978.2
2015-Jan-19 04:26N 31°56' E 120°09'466209842.9
2015-Jan-19 04:26N 24°24' E 117°57'9923827.6
2015-Jan-19 04:25N 23°29' E 116°27'1451810.7
2015-Jan-19 04:21N 22°18' E 114°09'67123449.3
2015-Jan-19 04:19N 31°26' E 121°23'2128.3
2015-Jan-19 03:34N 31°05' E 121°28'643771612.3
2015-Jan-19 03:33N 23°04' E 113°29'643330483.4
2015-Jan-19 03:33N 31°56' E 120°15'643771243.4
2015-Jan-19 03:33N 23°05' E 113°27'3180.7
2015-Jan-19 03:32N 23°04' E 113°29'5921101.4
2015-Jan-19 03:32N 22°18' E 114°09'24978.6
2015-Jan-19 03:31N 22°15' E 113°43'68143010.5
2015-Jan-19 03:30N 31°13' E 121°30'664104006.5
2015-Jan-19 03:29N 22°19' E 114°08'66040978.4
2015-Jan-19 03:28N 31°56' E 120°09'31814314.6
2015-Jan-19 03:27N 36°53' E 122°25'78433998.6
2015-Jan-19 03:26N 24°24' E 117°57'25730814.0
2015-Jan-19 03:25N 22°27' E 113°48'67489810.4
2015-Jan-19 03:25N 31°22' E 121°28'37927.3
2015-Jan-19 03:22N 31°46' E 120°55'31545.3
2015-Jan-19 03:19N 31°26' E 121°23'6608802.0
2015-Jan-19 03:14N 23°02' E 113°24'6677462.0
2015-Jan-19 03:09N 31°59' E 120°51'66815134.8
2015-Jan-19 03:06N 23°02' E 113°22'130.0
2015-Jan-19 03:05N 23°02' E 113°21'814.3
2015-Jan-19 02:33N 23°04' E 113°29'28813.2
2015-Jan-19 02:33N 23°06' E 113°27'6552358182.5
2015-Jan-19 02:33N 31°46' E 120°55'177482.5
2015-Jan-19 02:33N 32°03' E 120°58'172863.7
2015-Jan-19 02:33N 31°46' E 120°55'658215336.2
2015-Jan-19 02:33N 23°03' E 113°25'1188.3
2015-Jan-19 02:32N 23°04' E 113°26'486840.3
2015-Jan-19 02:32N 22°20' E 113°44'26355797.1
2015-Jan-19 02:32N 24°24' E 117°57'466167876.4
2015-Jan-19 02:31N 31°56' E 120°09'3611774.2
2015-Jan-19 02:31N 31°59' E 120°51'3766596.0
2015-Jan-19 02:31N 31°56' E 120°08'6402305608.1
2015-Jan-19 02:31N 23°04' E 113°26'5265.1
2015-Jan-19 02:30N 23°02' E 113°30'273.3
2015-Jan-19 02:28N 23°04' E 113°29'3827616.7
2015-Jan-19 02:28N 22°30' E 113°47'67231405.4
2015-Jan-19 02:27N 31°22' E 121°28'481675.7
2015-Jan-19 02:25N 31°58' E 120°51'4221669.8
2015-Jan-19 02:25N 31°26' E 121°23'6718782.7
2015-Jan-19 02:20N 22°18' E 114°09'21308.7
2015-Jan-19 02:16N 22°27' E 113°48'6745613.3
2015-Jan-19 02:09N 31°17' E 121°34'6551104.4
2015-Jan-19 01:33N 23°06' E 113°27'6431157431.1
2015-Jan-19 01:33N 31°05' E 121°28'6431157158.0
2015-Jan-19 01:33N 23°04' E 113°29'66858622.4
2015-Jan-19 01:33N 31°25' E 121°46'668104493.9
2015-Jan-19 01:32N 23°04' E 113°29'637327628.3
2015-Jan-19 01:32N 31°58' E 120°01'8313560.5
2015-Jan-19 01:32N 31°22' E 121°28'7516945.3
2015-Jan-19 01:32N 31°56' E 120°09'14353.1
2015-Jan-19 01:29N 32°03' E 119°55'66211743.3
2015-Jan-19 01:26N 22°27' E 113°48'6768393.9
2015-Jan-19 01:21N 31°46' E 120°55'67952029.0
2015-Jan-19 01:20N 22°25' E 113°45'244726.0
2015-Jan-19 01:20N 22°18' E 114°09'58859.3
2015-Jan-19 01:16N 23°04' E 113°29'65646327.6
2015-Jan-19 01:15N 31°21' E 121°31'65623390.4
2015-Jan-19 01:13N 23°04' E 113°29'2 3.4
2015-Jan-19 00:34N 23°06' E 113°27'643330701.7
2015-Jan-19 00:33N 31°05' E 121°28'191905.9
2015-Jan-19 00:33N 31°23' E 121°30'3867699.1
2015-Jan-19 00:33N 31°46' E 120°55'546949.1
2015-Jan-19 00:32N 32°03' E 119°55'639143691.7
2015-Jan-19 00:32N 23°04' E 113°29'5910037.5
2015-Jan-19 00:32N 22°18' E 114°09'660475350.9
2015-Jan-19 00:32N 31°56' E 120°09'63910849.8
2015-Jan-19 00:28N 23°04' E 113°29'195.2
2015-Jan-19 00:28N 23°04' E 113°29'663795677.2
2015-Jan-19 00:28N 31°59' E 120°51'32217.2
2015-Jan-19 00:28N 32°02' E 120°49'68621099.1
2015-Jan-19 00:26N 22°27' E 113°48'255183338.8
2015-Jan-19 00:26N 24°24' E 117°55'250899735.6
2015-Jan-19 00:26N 22°31' E 113°52'63573770.6
2015-Jan-19 00:25N 31°01' E 120°56'45352.6
2015-Jan-19 00:17N 31°46' E 120°55'67519907.6
2015-Jan-19 00:15N 22°30' E 113°46'6629571.0
2015-Jan-19 00:11N 32°05' E 119°55'64013017.0
2015-Jan-19 00:08N 23°04' E 113°29'0 0.6
2015-Jan-18 23:33N 23°04' E 113°29'31113.0
2015-Jan-18 23:33N 23°05' E 113°27'64342104.7
2015-Jan-18 23:32N 31°05' E 121°28'5011217.7
2015-Jan-18 23:32N 31°46' E 120°55'416349.0
2015-Jan-18 23:32N 31°56' E 120°09'704922.4
2015-Jan-18 23:31N 31°01' E 121°00'6244968.2
2015-Jan-18 23:23N 23°04' E 113°29'41678.3
2015-Jan-18 23:20N 22°27' E 113°48'20567.1
2015-Jan-18 23:18N 22°18' E 114°07'582371.0
2015-Jan-18 23:16N 23°04' E 113°29'628452152.5
2015-Jan-18 23:16N 29°52' E 122°22'628161483.7
2015-Jan-18 23:16N 23°04' E 113°29'6449344.2
2015-Jan-18 23:12N 32°10' E 119°53'45805.1
2015-Jan-18 23:08N 32°00' E 120°45'171462.9
2015-Jan-18 23:08N 31°46' E 120°55'13199.9
2015-Jan-18 23:04N 31°59' E 120°51'1325.8
2015-Jan-18 22:33N 31°46' E 120°55'5016316.7
2015-Jan-18 22:33N 31°05' E 121°28'10716721.2
2015-Jan-18 22:33N 32°15' E 119°53'6471164796.2
2015-Jan-18 22:33N 23°05' E 113°27'2396.4
2015-Jan-18 22:32N 23°04' E 113°29'038.7
2015-Jan-18 22:32N 23°04' E 113°29'0 8.2
2015-Jan-18 22:31N 23°04' E 113°29'63952258.9
2015-Jan-18 22:30N 32°03' E 119°55'14513.8
2015-Jan-18 22:28N 31°56' E 120°09'639230007.7
2015-Jan-18 22:28N 23°04' E 113°29'411581.0
2015-Jan-18 22:27N 22°27' E 113°48'20131.4
2015-Jan-18 22:18N 22°18' E 114°07'67010096.5
2015-Jan-18 22:14N 32°14' E 119°52'40269.5
2015-Jan-18 22:05N 31°60' E 120°36'218387.0
2015-Jan-18 22:04N 31°46' E 120°55'5096.4
2015-Jan-18 21:33N 31°05' E 121°28'643463147.9
2015-Jan-18 21:33N 23°05' E 113°27'3501.4
2015-Jan-18 21:33N 23°04' E 113°29'65565525.3
2015-Jan-18 21:32N 31°46' E 120°55'655262074.5
2015-Jan-18 21:32N 23°04' E 113°29'65531439.1
2015-Jan-18 21:31N 32°01' E 120°33'323519.4
2015-Jan-18 21:30N 32°03' E 119°55'14149.9
2015-Jan-18 21:25N 31°56' E 120°09'6396724.0
2015-Jan-18 21:19N 23°04' E 113°30'40246.5
2015-Jan-18 21:09N 22°29' E 113°50'6731126.5
2015-Jan-18 20:34N 31°46' E 120°55'656786623.1
2015-Jan-18 20:33N 23°05' E 113°27'643210521.8
2015-Jan-18 20:33N 31°05' E 121°28'643128570.6
2015-Jan-18 20:33N 23°04' E 113°29'639109478.2
2015-Jan-18 20:33N 32°03' E 119°55'14479.4
2015-Jan-18 20:31N 31°56' E 120°09'63913855.9
2015-Jan-18 20:28N 23°04' E 113°29'64021731.3
2015-Jan-18 20:26N 32°04' E 119°56'64012656.0
2015-Jan-18 20:23N 23°04' E 113°29'130.5
2015-Jan-18 20:22N 23°04' E 113°30'121095.7
2015-Jan-18 20:21N 22°52' E 113°34'46643.1
2015-Jan-18 20:17N 22°18' E 114°07'19145.3
2015-Jan-18 20:09N 22°29' E 113°50'4371.3
2015-Jan-18 19:34N 23°05' E 113°27'643330819.9
2015-Jan-18 19:33N 31°05' E 121°28'643462854.3
2015-Jan-18 19:33N 23°04' E 113°29'6292264179.6
2015-Jan-18 19:33N 30°58' E 121°14'51183225.4
2015-Jan-18 19:33N 31°46' E 120°55'658102990.9
2015-Jan-18 19:33N 22°59' E 113°32'652167594.4
2015-Jan-18 19:33N 31°59' E 120°23'242092.9
2015-Jan-18 19:32N 32°03' E 119°55'14791.1
2015-Jan-18 19:31N 31°56' E 120°09'65910497.9
2015-Jan-18 19:27N 22°29' E 113°50'401173.4
2015-Jan-18 19:25N 23°04' E 113°29'0 1.8
2015-Jan-18 19:23N 23°04' E 113°29'6434676.0
2015-Jan-18 19:15N 31°57' E 120°15'644928.6
2015-Jan-18 18:33N 23°05' E 113°27'6331140067.5
2015-Jan-18 18:33N 30°58' E 121°19'633227761.1
2015-Jan-18 18:33N 23°05' E 113°27'438208.3
2015-Jan-18 18:33N 22°27' E 113°48'419831.5
2015-Jan-18 18:33N 23°04' E 113°29'643128570.6
2015-Jan-18 18:32N 31°05' E 121°28'502492.8
2015-Jan-18 18:31N 31°46' E 120°55'4710466.6
2015-Jan-18 18:31N 31°58' E 120°02'161228.5
2015-Jan-18 18:30N 31°60' E 120°21'6705368.9
2015-Jan-18 18:23N 22°18' E 114°07'576263.7
2015-Jan-18 18:22N 23°04' E 113°30'119.8
2015-Jan-18 18:20N 23°04' E 113°29'63921295.4
2015-Jan-18 18:18N 31°56' E 120°09'14122.3
2015-Jan-18 18:12N 32°03' E 119°55'2844.2
2015-Jan-18 17:33N 32°02' E 120°28'7746141.0
2015-Jan-18 17:33N 31°05' E 121°28'643463151.2
2015-Jan-18 17:33N 23°05' E 113°27'3455.3
2015-Jan-18 17:33N 23°04' E 113°29'0149.9
2015-Jan-18 17:33N 23°04' E 113°30'9856.4
2015-Jan-18 17:32N 23°03' E 113°20'64517209.8
2015-Jan-18 17:30N 31°57' E 120°08'64026478.9
2015-Jan-18 17:28N 23°04' E 113°29'11210.0
2015-Jan-18 17:25N 22°55' E 113°36'65920636.3
2015-Jan-18 17:23N 31°46' E 120°55'65530234.4
2015-Jan-18 17:22N 23°04' E 113°30'57295.7
2015-Jan-18 17:10N 22°18' E 114°07'6097.4
2015-Jan-18 16:33N 23°05' E 113°27'32003.3
2015-Jan-18 16:33N 23°04' E 113°29'6472329961.4
2015-Jan-18 16:33N 31°59' E 120°21'137997.4
2015-Jan-18 16:33N 32°01' E 120°36'657107455.6
2015-Jan-18 16:33N 23°04' E 113°30'640384294.6
2015-Jan-18 16:33N 31°02' E 121°29'538325.0
2015-Jan-18 16:32N 31°46' E 120°55'37577.3
2015-Jan-18 16:28N 31°57' E 120°13'6426032.1
2015-Jan-18 16:22N 23°04' E 113°30'578612.6
2015-Jan-18 16:22N 22°18' E 114°07'63512360.3
2015-Jan-18 16:19N 29°52' E 122°22'165218.9
2015-Jan-18 15:34N 31°57' E 120°17'644580016.9
2015-Jan-18 15:33N 23°05' E 113°27'656138816.0
2015-Jan-18 15:33N 31°46' E 120°55'5089890.4
2015-Jan-18 15:33N 31°05' E 121°28'643210396.9
2015-Jan-18 15:33N 23°04' E 113°29'0174.2
2015-Jan-18 15:33N 23°04' E 113°30'643330888.6
2015-Jan-18 15:33N 31°07' E 121°28'64333569.6
2015-Jan-18 15:32N 23°04' E 113°30'6404958.0
2015-Jan-18 15:24N 31°56' E 120°12'66223607.8
2015-Jan-18 15:22N 22°18' E 114°07'66195168.0
2015-Jan-18 15:22N 31°56' E 120°09'91504.3
2015-Jan-18 15:11N 31°20' E 121°48'1930.0
2015-Jan-18 14:34N 31°11' E 121°28'6482331599.4
2015-Jan-18 14:33N 23°05' E 113°27'648777316.1
2015-Jan-18 14:33N 31°59' E 120°20'7940863.2
2015-Jan-18 14:33N 31°05' E 121°28'1969217.5
2015-Jan-18 14:33N 31°18' E 121°45'66276889.6
2015-Jan-18 14:33N 23°04' E 113°29'65538671.7
2015-Jan-18 14:32N 31°46' E 120°55'0280.8
2015-Jan-18 14:32N 31°46' E 120°55'13574.1
2015-Jan-18 14:30N 31°59' E 120°51'68412075.4
2015-Jan-18 14:27N 22°27' E 113°48'41766.7
2015-Jan-18 14:24N 23°04' E 113°30'0 1.3
2015-Jan-18 14:22N 23°04' E 113°30'12246.2
2015-Jan-18 14:19N 23°03' E 113°17'64670443.9
2015-Jan-18 14:19N 31°56' E 120°09'1681639.2
2015-Jan-18 14:13N 29°53' E 122°22'63513452.7
2015-Jan-18 14:10N 22°18' E 114°07'6661098.7
2015-Jan-18 13:33N 31°15' E 121°30'199612.9
2015-Jan-18 13:33N 31°11' E 121°51'6612378579.2
2015-Jan-18 13:33N 23°04' E 113°29'650292544.9
2015-Jan-18 13:33N 32°00' E 120°24'65066890.5
2015-Jan-18 13:33N 23°05' E 113°27'601868.2
2015-Jan-18 13:31N 22°18' E 114°07'67417585.8
2015-Jan-18 13:28N 31°46' E 120°55'13435.9
2015-Jan-18 13:27N 31°59' E 120°51'6927804.1
2015-Jan-18 13:21N 22°21' E 113°44'458943.2
2015-Jan-18 13:21N 23°04' E 113°30'0 7.5
2015-Jan-18 13:20N 23°04' E 113°30'6557103.5
2015-Jan-18 13:14N 31°46' E 120°55'655958.1
2015-Jan-18 12:33N 23°04' E 113°29'14360.9
2015-Jan-18 12:33N 23°05' E 113°29'4935630.0
2015-Jan-18 12:33N 22°17' E 113°40'692830509.0
2015-Jan-18 12:33N 31°06' E 121°59'9686839.5
2015-Jan-18 12:33N 32°02' E 120°27'77139087.9
2015-Jan-18 12:33N 31°05' E 121°28'643154226.0
2015-Jan-18 12:33N 23°04' E 113°30'655262036.5
2015-Jan-18 12:33N 31°46' E 120°55'441788.1
2015-Jan-18 12:31N 31°16' E 121°33'812747.2
2015-Jan-18 12:30N 31°56' E 120°11'6624978.5
2015-Jan-18 12:22N 22°18' E 114°07'581632.7
2015-Jan-18 12:19N 23°04' E 113°29'6632801.2
2015-Jan-18 12:05N 31°59' E 120°51'1347371.0
2015-Jan-18 12:05N 31°46' E 120°55'6551231.2
2015-Jan-18 11:33N 23°04' E 113°29'1257.7
2015-Jan-18 11:33N 23°05' E 113°29'654196239.2
2015-Jan-18 11:33N 32°02' E 120°30'175147.3
2015-Jan-18 11:33N 31°56' E 120°11'3917556.2
2015-Jan-18 11:32N 31°46' E 120°55'508546.8
2015-Jan-18 11:32N 31°05' E 121°28'64389015.4
2015-Jan-18 11:32N 23°04' E 113°29'531509.0
2015-Jan-18 11:30N 22°11' E 113°35'69026707.9
2015-Jan-18 11:28N 31°15' E 121°30'954376.7
2015-Jan-18 11:27N 29°51' E 122°22'701578.6
2015-Jan-18 11:24N 31°00' E 122°09'35414.3
2015-Jan-18 11:19N 31°18' E 121°33'95463.1
2015-Jan-18 11:07N 29°53' E 122°22'6271131.2
2015-Jan-18 10:33N 23°05' E 113°29'1884.3
2015-Jan-18 10:33N 23°04' E 113°29'5212533.4
2015-Jan-18 10:33N 22°12' E 113°34'698251116.5
2015-Jan-18 10:33N 32°01' E 120°33'244306.6
2015-Jan-18 10:33N 31°46' E 120°55'65536295.7
2015-Jan-18 10:31N 23°04' E 113°29'0 4.1
2015-Jan-18 10:31N 23°04' E 113°29'6419771.4
2015-Jan-18 10:27N 31°56' E 120°11'6417464.3
2015-Jan-18 10:22N 23°04' E 113°29'64310020.0
2015-Jan-18 10:18N 31°05' E 121°28'15445.1
2015-Jan-18 10:16N 31°20' E 121°33'711795.2
2015-Jan-18 10:13N 32°02' E 120°26'652981.0
2015-Jan-18 09:33N 23°05' E 113°29'1116.9
2015-Jan-18 09:33N 23°04' E 113°29'641209651.9
2015-Jan-18 09:33N 31°56' E 120°11'349339.8
2015-Jan-18 09:33N 31°58' E 120°51'1243954.7
2015-Jan-18 09:33N 31°46' E 120°55'134737.1
2015-Jan-18 09:32N 31°59' E 120°51'5327306.5
2015-Jan-18 09:32N 31°20' E 121°33'156082.7
2015-Jan-18 09:32N 31°05' E 121°28'7814830.1
2015-Jan-18 09:32N 31°59' E 120°22'69112556.2
2015-Jan-18 09:28N 22°12' E 113°34'689225400.2
2015-Jan-18 09:28N 31°58' E 120°21'6476650.5
2015-Jan-18 09:22N 23°04' E 113°29'1 5.3
2015-Jan-18 09:16N 23°04' E 113°30'1 3.8
2015-Jan-18 09:07N 23°04' E 113°29'2 3.9
2015-Jan-18 08:33N 23°03' E 113°31'2193.3
2015-Jan-18 08:33N 23°04' E 113°29'641288273.6
2015-Jan-18 08:33N 31°56' E 120°11'399364.1
2015-Jan-18 08:33N 31°46' E 120°55'426281.1
2015-Jan-18 08:32N 31°20' E 121°33'65654961.0
2015-Jan-18 08:31N 23°04' E 113°29'6475733.2
2015-Jan-18 08:25N 31°58' E 120°21'68917967.4
2015-Jan-18 08:22N 22°12' E 113°34'34415.1
2015-Jan-18 08:18N 22°19' E 114°10'582084.6
2015-Jan-18 08:16N 23°04' E 113°30'9519924.9
2015-Jan-18 08:10N 36°53' E 122°28'35163235.0
2015-Jan-18 08:10N 31°05' E 121°28'6431057.7
2015-Jan-18 07:33N 23°04' E 113°29'21275.8
2015-Jan-18 07:33N 23°03' E 113°31'554720.9
2015-Jan-18 07:33N 22°19' E 114°07'66716567.6
2015-Jan-18 07:30N 31°58' E 120°21'313858.2
2015-Jan-18 07:30N 31°46' E 120°55'126258.8
2015-Jan-18 07:29N 31°58' E 120°51'70334203.7
2015-Jan-18 07:28N 22°12' E 113°34'527530.5
2015-Jan-18 07:28N 23°04' E 113°30'64040446.3
2015-Jan-18 07:27N 31°56' E 120°11'6418636.5
2015-Jan-18 07:22N 23°04' E 113°29'65660598.0
2015-Jan-18 07:22N 31°20' E 121°33'656214847.4
2015-Jan-18 07:22N 23°04' E 113°29'594933.4
2015-Jan-18 07:21N 22°18' E 114°09'6827220.0
2015-Jan-18 07:15N 31°59' E 120°51'663948.8
2015-Jan-18 06:33N 23°03' E 113°31'5110148.0
2015-Jan-18 06:33N 22°12' E 113°34'5294084.9
2015-Jan-18 06:33N 23°04' E 113°29'647105810.8
2015-Jan-18 06:33N 31°58' E 120°21'64845747.1
2015-Jan-18 06:32N 23°04' E 113°26'65874050.6
2015-Jan-18 06:31N 31°20' E 121°33'67224683.5
2015-Jan-18 06:30N 22°19' E 114°06'67486676.3
2015-Jan-18 06:29N 31°46' E 120°55'503519.3
2015-Jan-18 06:28N 31°05' E 121°28'643105158.4
2015-Jan-18 06:28N 23°04' E 113°30'1 7.0
2015-Jan-18 06:22N 23°04' E 113°29'645145161.4
2015-Jan-18 06:22N 31°58' E 120°18'646793.3
2015-Jan-18 05:33N 23°03' E 113°31'65776261.3
2015-Jan-18 05:33N 31°20' E 121°33'151891.3
2015-Jan-18 05:32N 31°05' E 121°28'64343667.7
2015-Jan-18 05:31N 23°04' E 113°29'0131.6
2015-Jan-18 05:31N 23°04' E 113°29'521775.2
2015-Jan-18 05:30N 22°12' E 113°34'68970842.4
2015-Jan-18 05:29N 31°58' E 120°21'364.6
2015-Jan-18 05:26N 31°60' E 120°23'302276.5
2015-Jan-18 05:25N 31°46' E 120°55'131569.3
2015-Jan-18 05:25N 31°59' E 120°51'681102166.1
2015-Jan-18 05:24N 22°28' E 113°54'6803204.1
2015-Jan-18 05:12N 31°58' E 120°51'34801.7
2015-Jan-18 05:09N 31°56' E 120°11'6411074.2
2015-Jan-18 04:33N 23°04' E 113°29'21445.5
2015-Jan-18 04:33N 23°03' E 113°31'641230799.0
2015-Jan-18 04:33N 31°56' E 120°11'16904.9
2015-Jan-18 04:32N 32°02' E 120°29'69617052.3
2015-Jan-18 04:30N 22°12' E 113°34'68934438.8
2015-Jan-18 04:28N 31°58' E 120°21'4311552821.7
2015-Jan-18 04:28N 24°53' E 118°57'3193153.5
2015-Jan-18 04:22N 23°04' E 113°29'65512035.9
2015-Jan-18 04:19N 31°46' E 120°55'4211610.0
2015-Jan-18 04:19N 31°20' E 121°33'15859.4
2015-Jan-18 04:18N 31°05' E 121°28'643872.2
2015-Jan-18 03:33N 23°03' E 113°31'2798.3
2015-Jan-18 03:33N 23°04' E 113°29'655262100.6
2015-Jan-18 03:33N 31°46' E 120°55'65578647.2
2015-Jan-18 03:33N 23°04' E 113°28'64215717.5
2015-Jan-18 03:30N 31°03' E 121°29'8550977.2
2015-Jan-18 03:30N 31°56' E 120°11'42914290.9
2015-Jan-18 03:28N 24°53' E 118°57'411211275.3
2015-Jan-18 03:28N 31°20' E 121°33'656107385.8
2015-Jan-18 03:28N 23°04' E 113°30'64324351.5
2015-Jan-18 03:26N 31°05' E 121°28'783123.1
2015-Jan-18 03:25N 31°58' E 120°21'69035466.6
2015-Jan-18 03:24N 22°12' E 113°34'7042327.8
2015-Jan-18 03:05N 31°59' E 120°51'1324.2
2015-Jan-18 02:33N 31°46' E 120°55'656262218.7
2015-Jan-18 02:33N 23°03' E 113°31'6635866.6
2015-Jan-18 02:26N 31°59' E 120°51'43846354.7
2015-Jan-18 02:26N 24°53' E 118°57'32747052.5
2015-Jan-18 02:25N 23°03' E 113°21'102598.6
2015-Jan-18 02:25N 22°59' E 113°31'66031697.2
2015-Jan-18 02:24N 31°59' E 120°40'16395.2
2015-Jan-18 02:21N 31°58' E 120°21'94537.4
2015-Jan-18 02:21N 31°57' E 120°11'802301.3
2015-Jan-18 02:19N 31°10' E 121°28'635542.9
2015-Jan-18 02:18N 32°00' E 120°43'252028.3
2015-Jan-18 02:18N 31°56' E 120°13'772322.3
2015-Jan-18 02:16N 31°20' E 121°33'25604.8
2015-Jan-18 02:13N 31°39' E 121°14'660118824.3
2015-Jan-18 02:13N 23°04' E 113°30'2 2.5
2015-Jan-18 01:33N 23°03' E 113°31'656112381.0
2015-Jan-18 01:33N 31°46' E 120°55'186011.5
2015-Jan-18 01:33N 31°59' E 120°40'51313.7
2015-Jan-18 01:32N 32°01' E 120°46'670268155.9
2015-Jan-18 01:32N 22°54' E 113°30'67149322.3
2015-Jan-18 01:31N 31°59' E 120°51'342502.7
2015-Jan-18 01:31N 31°35' E 121°19'699209727.9
2015-Jan-18 01:30N 22°12' E 113°34'683204999.4
2015-Jan-18 01:30N 31°57' E 120°11'91095.4
2015-Jan-18 01:30N 31°58' E 120°21'43223941.7
2015-Jan-18 01:29N 24°53' E 118°57'3195656.9
2015-Jan-18 01:25N 23°04' E 113°29'3195215.8
2015-Jan-18 01:22N 24°53' E 118°57'0 1.1
2015-Jan-18 01:19N 24°53' E 118°57'3151407.2
2015-Jan-18 01:05N 22°57' E 113°37'658112743.1
2015-Jan-18 01:05N 31°20' E 121°33'67234052.2
2015-Jan-18 01:04N 22°19' E 114°07'203711.9
2015-Jan-18 01:03N 22°27' E 113°48'3978.1
2015-Jan-18 00:33N 23°03' E 113°31'6481166120.2
2015-Jan-18 00:33N 31°59' E 120°21'2545350.9
2015-Jan-18 00:33N 31°59' E 120°51'33577.1
2015-Jan-18 00:33N 32°01' E 120°48'2219574.5
2015-Jan-18 00:33N 31°58' E 120°23'430387406.0
2015-Jan-18 00:33N 24°54' E 119°01'425191089.6
2015-Jan-18 00:33N 31°46' E 120°55'424127100.6
2015-Jan-18 00:33N 24°54' E 119°02'39217660.7
2015-Jan-18 00:31N 31°05' E 121°28'7501.8
2015-Jan-18 00:31N 30°60' E 121°23'8427440.4
2015-Jan-18 00:30N 31°57' E 120°11'242188.7
2015-Jan-18 00:30N 31°59' E 120°40'601810.4
2015-Jan-18 00:28N 31°20' E 121°33'65616643.4
2015-Jan-18 00:25N 23°04' E 113°29'58526.2
2015-Jan-18 00:19N 22°19' E 114°07'67511629.9
2015-Jan-18 00:15N 31°27' E 121°28'2840.7
2015-Jan-17 23:33N 30°60' E 121°23'6849020.7
2015-Jan-17 23:33N 32°01' E 120°48'6529346.2
2015-Jan-17 23:33N 31°05' E 121°28'64564517.4
2015-Jan-17 23:33N 22°59' E 113°31'66032981.9
2015-Jan-17 23:31N 31°23' E 121°30'7125667.3
2015-Jan-17 23:31N 31°57' E 120°16'685154122.2
2015-Jan-17 23:31N 22°11' E 113°37'68361441.1
2015-Jan-17 23:30N 31°57' E 120°11'342345.3
2015-Jan-17 23:30N 31°59' E 120°51'155412.5
2015-Jan-17 23:29N 32°00' E 120°33'6218718.3
2015-Jan-17 23:29N 31°21' E 121°31'65647240.8
2015-Jan-17 23:28N 23°04' E 113°29'65725143.2
2015-Jan-17 23:27N 31°20' E 121°33'69522957.3
2015-Jan-17 23:25N 22°12' E 113°34'27144427.2
2015-Jan-17 23:25N 24°25' E 117°52'47731832.6
2015-Jan-17 23:24N 31°59' E 120°40'4256435.5
2015-Jan-17 23:20N 25°01' E 119°11'3221479.7
2015-Jan-17 23:07N 22°19' E 114°07'6741222.2
2015-Jan-17 22:34N 31°46' E 120°55'5294472.0
2015-Jan-17 22:34N 30°60' E 121°23'68122551.7
2015-Jan-17 22:33N 32°01' E 120°48'3257305.9
2015-Jan-17 22:33N 31°57' E 120°11'8360057.3
2015-Jan-17 22:33N 31°05' E 121°28'6220412.8
2015-Jan-17 22:33N 31°59' E 120°51'669301010.7
2015-Jan-17 22:33N 22°54' E 113°34'663103834.1
2015-Jan-17 22:33N 31°59' E 120°40'634027.1
2015-Jan-17 22:32N 31°17' E 121°34'45616252.1
2015-Jan-17 22:30N 24°25' E 117°52'2549420.6
2015-Jan-17 22:28N 23°04' E 113°29'33418480.0
2015-Jan-17 22:27N 25°01' E 119°11'39913949.0
2015-Jan-17 22:26N 31°20' E 121°33'769.2
2015-Jan-17 22:20N 31°26' E 121°29'6986170.4
2015-Jan-17 22:13N 22°12' E 113°34'317520.7
2015-Jan-17 22:13N 22°19' E 114°07'6821047.5
2015-Jan-17 21:34N 31°59' E 120°51'34121951.4
2015-Jan-17 21:33N 31°57' E 120°11'39139694.2
2015-Jan-17 21:33N 31°46' E 120°55'5035893.2
2015-Jan-17 21:33N 31°05' E 121°28'6533535.9
2015-Jan-17 21:33N 32°01' E 120°48'8755.8
2015-Jan-17 21:33N 31°59' E 120°40'7025285.1
2015-Jan-17 21:33N 30°60' E 121°23'13224.6
2015-Jan-17 21:29N 31°11' E 121°28'64745696.6
2015-Jan-17 21:28N 23°04' E 113°29'65654960.9
2015-Jan-17 21:28N 31°20' E 121°33'6952472.7
2015-Jan-17 21:11N 22°12' E 113°34'36702.4
2015-Jan-17 21:08N 22°48' E 113°37'6511139.7
2015-Jan-17 20:33N 31°05' E 121°28'506902.5
2015-Jan-17 20:33N 31°46' E 120°55'42150943.9
2015-Jan-17 20:33N 31°20' E 121°33'223149.9
2015-Jan-17 20:32N 30°60' E 121°23'9971246.8
2015-Jan-17 20:32N 32°03' E 119°55'97116829.0
2015-Jan-17 20:32N 31°07' E 121°28'68334606.6
2015-Jan-17 20:31N 22°12' E 113°34'68366489.7
2015-Jan-17 20:31N 31°57' E 120°11'241654.9
2015-Jan-17 20:30N 31°59' E 120°40'6571554.6
2015-Jan-17 20:04N 23°04' E 113°29'66333620.2
2015-Jan-17 20:03N 32°01' E 120°48'63127.1
2015-Jan-17 19:33N 31°07' E 121°28'2829.6
2015-Jan-17 19:33N 31°05' E 121°28'5044866.4
2015-Jan-17 19:33N 31°46' E 120°55'526298.1
2015-Jan-17 19:33N 30°60' E 121°23'842673.8
2015-Jan-17 19:31N 31°57' E 120°11'793473.8
2015-Jan-17 19:29N 31°20' E 121°33'65643765.1
2015-Jan-17 19:28N 23°04' E 113°29'63821457.1
2015-Jan-17 19:27N 31°58' E 120°02'68124505.0
2015-Jan-17 19:25N 22°12' E 113°34'2711269.3
2015-Jan-17 19:12N 24°25' E 117°52'443689.8
2015-Jan-17 18:34N 31°05' E 121°28'5019946.6
2015-Jan-17 18:33N 31°46' E 120°55'135219.6
2015-Jan-17 18:33N 31°59' E 120°51'31489.0
2015-Jan-17 18:33N 31°59' E 120°48'70245969.4
2015-Jan-17 18:32N 22°11' E 113°37'68270116.8
2015-Jan-17 18:32N 31°07' E 121°28'96178.5
2015-Jan-17 18:32N 30°60' E 121°23'846042.3
2015-Jan-17 18:31N 31°57' E 120°11'64116243.7
2015-Jan-17 18:28N 23°04' E 113°29'65641461.7
2015-Jan-17 18:27N 31°20' E 121°33'695834115.8
2015-Jan-17 18:27N 22°12' E 113°34'68312296.1
2015-Jan-17 18:24N 31°57' E 120°10'66213027.5
2015-Jan-17 18:21N 22°19' E 114°07'6774401.7
2015-Jan-17 18:12N 31°59' E 120°40'67311373.1
2015-Jan-17 18:08N 22°38' E 113°41'6701159.4
2015-Jan-17 17:33N 31°46' E 120°55'4843279.3
2015-Jan-17 17:33N 31°07' E 121°28'6274906.1
2015-Jan-17 17:33N 31°59' E 120°48'6457863.1
2015-Jan-17 17:33N 31°05' E 121°28'627742.8
2015-Jan-17 17:33N 31°59' E 120°51'6516802.6
2015-Jan-17 17:33N 30°60' E 121°23'6365250.6
2015-Jan-17 17:25N 23°04' E 113°29'65632374.4
2015-Jan-17 17:24N 31°20' E 121°33'601075.1
2015-Jan-17 17:21N 31°59' E 120°40'38909.4
2015-Jan-17 17:18N 32°03' E 119°55'681116765.3
2015-Jan-17 17:18N 22°11' E 113°37'29105627.9
2015-Jan-17 17:18N 22°19' E 114°07'315371.4
2015-Jan-17 17:17N 22°12' E 113°34'68324116.7
2015-Jan-17 17:16N 31°57' E 120°11'65767579.9
2015-Jan-17 17:15N 22°38' E 113°41'667952.6
2015-Jan-17 16:33N 32°01' E 120°24'7831130.5
2015-Jan-17 16:33N 31°05' E 121°28'657169053.0
2015-Jan-17 16:33N 22°19' E 114°07'677406427.2
2015-Jan-17 16:33N 31°59' E 120°40'7021070.9
2015-Jan-17 16:33N 30°60' E 121°23'5363056.6
2015-Jan-17 16:32N 31°46' E 120°55'4811541.1
2015-Jan-17 16:32N 31°07' E 121°28'64861402.2
2015-Jan-17 16:32N 23°03' E 113°24'64449361.1
2015-Jan-17 16:31N 31°57' E 120°11'79284681.7
2015-Jan-17 16:31N 31°20' E 121°33'67063468.2
2015-Jan-17 16:30N 22°38' E 113°41'67721193.0
2015-Jan-17 16:28N 31°59' E 120°48'7009994.9
2015-Jan-17 16:24N 22°13' E 113°40'531.6
2015-Jan-17 16:15N 22°12' E 113°34'2740.0
2015-Jan-17 15:34N 22°38' E 113°41'670150735.8
2015-Jan-17 15:33N 31°20' E 121°33'6949496.0
2015-Jan-17 15:33N 32°02' E 120°30'7690872.1
2015-Jan-17 15:33N 31°05' E 121°28'657107579.2
2015-Jan-17 15:33N 22°19' E 114°07'3122560.0
2015-Jan-17 15:33N 22°12' E 113°34'683307129.4
2015-Jan-17 15:33N 31°07' E 121°28'7615247.8
2015-Jan-17 15:32N 32°00' E 120°24'796628.4
2015-Jan-17 15:32N 30°60' E 121°23'536102.3
2015-Jan-17 15:31N 31°46' E 120°55'68922753.3
2015-Jan-17 15:29N 22°15' E 113°43'67730442.7
2015-Jan-17 15:28N 31°57' E 120°11'241268.8
2015-Jan-17 15:27N 31°59' E 120°40'1034.1
2015-Jan-17 15:10N 31°59' E 120°51'68411354.6
2015-Jan-17 15:06N 22°29' E 113°46'68321959.6
2015-Jan-17 15:04N 31°59' E 120°48'67130.7
2015-Jan-17 14:34N 30°60' E 121°23'7893335.1
2015-Jan-17 14:33N 32°02' E 120°30'7654753.0
2015-Jan-17 14:33N 31°05' E 121°28'23733.1
2015-Jan-17 14:33N 31°07' E 121°28'657338103.9
2015-Jan-17 14:33N 22°38' E 113°41'670219343.2
2015-Jan-17 14:33N 31°46' E 120°55'223716.4
2015-Jan-17 14:33N 32°01' E 120°36'6772437202.0
2015-Jan-17 14:33N 22°19' E 114°07'3128200.0
2015-Jan-17 14:33N 22°12' E 113°34'6997108.0
2015-Jan-17 14:27N 31°59' E 120°40'60879.3
2015-Jan-17 14:23N 31°20' E 121°33'794064.1
2015-Jan-17 14:21N 31°57' E 120°11'33216.3
2015-Jan-17 14:12N 31°58' E 120°51'1218.6
2015-Jan-17 13:33N 31°46' E 120°55'5089881.4
2015-Jan-17 13:33N 31°05' E 121°28'2256.7
2015-Jan-17 13:33N 31°07' E 121°28'68384724.7
2015-Jan-17 13:32N 22°12' E 113°34'67445790.0
2015-Jan-17 13:32N 30°60' E 121°23'7411534.8
2015-Jan-17 13:31N 32°01' E 120°35'455.3
2015-Jan-17 13:27N 31°59' E 120°40'60410.6
2015-Jan-17 13:18N 31°20' E 121°33'6726296.2
2015-Jan-17 13:11N 22°19' E 114°07'68120094.6
2015-Jan-17 13:09N 32°01' E 120°44'67112.4
2015-Jan-17 12:34N 31°05' E 121°28'2266.7
2015-Jan-17 12:33N 31°07' E 121°28'48172780.1
2015-Jan-17 12:33N 31°46' E 120°55'183324.0
2015-Jan-17 12:33N 31°59' E 120°40'703892.1
2015-Jan-17 12:32N 30°59' E 121°23'67414360.8
2015-Jan-17 12:29N 22°12' E 113°34'68332800.5
2015-Jan-17 12:28N 31°57' E 120°11'796321.8
2015-Jan-17 12:27N 31°20' E 121°33'1517.1
2015-Jan-17 11:33N 31°05' E 121°28'504271.3
2015-Jan-17 11:33N 31°46' E 120°55'5215749.1
2015-Jan-17 11:33N 30°59' E 121°23'67421864.5
2015-Jan-17 11:31N 22°12' E 113°34'683819992.9
2015-Jan-17 11:31N 31°57' E 120°11'8236867.1
2015-Jan-17 11:30N 31°07' E 121°28'13322.5
2015-Jan-17 11:28N 31°20' E 121°33'349.0
2015-Jan-17 11:24N 31°17' E 121°34'55185.5
2015-Jan-17 11:07N 31°58' E 120°51'56148075.4
2015-Jan-17 11:06N 23°29' E 116°25'530959.2
2015-Jan-17 10:33N 31°05' E 121°28'5019932.7
2015-Jan-17 10:33N 31°46' E 120°55'482335.1
2015-Jan-17 10:31N 31°07' E 121°28'662459.4
2015-Jan-17 10:30N 31°59' E 120°40'703666.4
2015-Jan-17 10:29N 30°59' E 121°23'14296.6
2015-Jan-17 10:26N 31°13' E 121°30'80694.7
2015-Jan-17 10:19N 31°56' E 120°11'5454830.4
2015-Jan-17 10:12N 23°29' E 116°29'5438322.1
2015-Jan-17 10:08N 31°20' E 121°33'70025470.1
2015-Jan-17 10:06N 22°20' E 113°13'223271.0
2015-Jan-17 10:06N 22°12' E 113°34'6811256.1
2015-Jan-17 09:33N 31°05' E 121°28'28861.2
2015-Jan-17 09:33N 31°08' E 121°28'4828606.1
2015-Jan-17 09:33N 31°46' E 120°55'553663092.6
2015-Jan-17 09:33N 23°26' E 116°29'53246682.7
2015-Jan-17 09:33N 31°07' E 121°28'97697.1
2015-Jan-17 09:33N 30°59' E 121°23'22983.9
2015-Jan-17 09:31N 31°19' E 121°34'69532917.2
2015-Jan-17 09:30N 22°12' E 113°34'6835009.8
2015-Jan-17 09:22N 31°56' E 120°11'6628082.9
2015-Jan-17 09:17N 22°19' E 114°07'68110709.1
2015-Jan-17 09:13N 31°58' E 120°51'1136.7
2015-Jan-17 09:12N 31°59' E 120°51'3600.8
2015-Jan-17 09:12N 31°59' E 120°48'3578.9
2015-Jan-17 09:12N 32°00' E 120°44'41045.9
2015-Jan-17 09:12N 31°59' E 120°40'68107.0
2015-Jan-17 08:33N 31°05' E 121°28'7446.4
2015-Jan-17 08:33N 30°59' E 121°23'1720082.7
2015-Jan-17 08:33N 31°15' E 121°31'448740.8
2015-Jan-17 08:32N 31°46' E 120°55'4810799.9
2015-Jan-17 08:32N 31°07' E 121°28'5331919490.6
2015-Jan-17 08:32N 23°22' E 116°34'1803514.4
2015-Jan-17 08:29N 22°11' E 113°35'70350621.6
2015-Jan-17 08:28N 31°58' E 120°51'349296.4
2015-Jan-17 08:28N 31°56' E 120°11'251279.7
2015-Jan-17 08:27N 31°59' E 120°40'715578.2
2015-Jan-17 08:26N 31°01' E 121°28'6542581.2
2015-Jan-17 08:11N 22°19' E 114°07'67714168.2
2015-Jan-17 08:08N 31°60' E 120°38'3077513.0
2015-Jan-17 08:05N 36°53' E 122°26'357673.0
2015-Jan-17 07:34N 30°59' E 121°23'75021.5
2015-Jan-17 07:33N 31°05' E 121°28'530636446.1
2015-Jan-17 07:33N 23°21' E 116°40'554142410.4
2015-Jan-17 07:33N 31°46' E 120°55'427768334.8
2015-Jan-17 07:33N 24°53' E 118°55'437393287.4
2015-Jan-17 07:33N 31°58' E 120°51'91392.2
2015-Jan-17 07:33N 31°59' E 120°40'63114045.8
2015-Jan-17 07:33N 31°12' E 121°29'675459.1
2015-Jan-17 07:32N 31°60' E 120°35'6931255.5
2015-Jan-17 07:32N 31°07' E 121°28'623033.4
2015-Jan-17 07:31N 31°59' E 120°48'70324333.2
2015-Jan-17 07:29N 22°11' E 113°35'317962.7
2015-Jan-17 07:29N 22°19' E 114°07'66210838.9
2015-Jan-17 07:25N 31°57' E 120°11'31712261.9
2015-Jan-17 07:23N 36°53' E 122°26'30511187.9
2015-Jan-17 07:22N 31°59' E 120°51'64113.7
2015-Jan-17 07:22N 32°01' E 120°45'7086.9
2015-Jan-17 06:34N 30°59' E 121°23'64196.5
2015-Jan-17 06:33N 30°57' E 121°17'1527373.7
2015-Jan-17 06:33N 31°09' E 121°28'345310830.3
2015-Jan-17 06:33N 36°51' E 122°29'865183161.6
2015-Jan-17 06:33N 23°19' E 116°46'531212494.0
2015-Jan-17 06:33N 31°07' E 121°28'39825588.8
2015-Jan-17 06:32N 24°53' E 118°55'43787388.8
2015-Jan-17 06:32N 32°01' E 120°31'756109.6
2015-Jan-17 06:31N 31°05' E 121°28'689069.2
2015-Jan-17 06:30N 31°59' E 120°40'186640.0
2015-Jan-17 06:30N 31°46' E 120°55'69624093.1
2015-Jan-17 06:29N 22°11' E 113°35'7039271.6
2015-Jan-17 06:24N 31°58' E 120°51'6815056.6
2015-Jan-17 06:16N 22°19' E 114°07'6623316.5
2015-Jan-17 06:04N 31°57' E 120°11'82161.1
2015-Jan-17 05:34N 31°08' E 121°28'28904.1
2015-Jan-17 05:33N 31°05' E 121°28'504723.1
2015-Jan-17 05:33N 31°46' E 120°55'484803.0
2015-Jan-17 05:32N 31°07' E 121°28'64451553.8
2015-Jan-17 05:32N 23°04' E 113°29'63639492.1
2015-Jan-17 05:31N 30°59' E 121°24'39228231.5
2015-Jan-17 05:30N 24°49' E 118°60'33716610.5
2015-Jan-17 05:28N 22°11' E 113°35'68384828.8
2015-Jan-17 05:28N 31°57' E 120°11'7114122.8
2015-Jan-17 05:28N 31°20' E 121°22'5313689.7
2015-Jan-17 05:27N 31°59' E 120°40'7353.0
2015-Jan-17 05:26N 31°59' E 120°48'793.0
2015-Jan-17 05:22N 32°03' E 120°55'5258.9
2015-Jan-17 05:21N 31°59' E 120°51'5592798.4
2015-Jan-17 05:09N 23°22' E 116°51'54915801.0
2015-Jan-17 05:07N 32°06' E 119°56'3868.9
2015-Jan-17 04:33N 31°59' E 120°40'366790.9
2015-Jan-17 04:33N 32°01' E 119°58'641121525.0
2015-Jan-17 04:33N 23°03' E 113°25'646332425.1
2015-Jan-17 04:33N 31°05' E 121°28'625165.1
2015-Jan-17 04:32N 31°58' E 120°51'121908.4
2015-Jan-17 04:32N 31°46' E 120°55'535332.9
2015-Jan-17 04:31N 31°01' E 121°28'39617826.4
2015-Jan-17 04:30N 24°45' E 119°06'402103356.7
2015-Jan-17 04:29N 31°07' E 121°28'68220821.9
2015-Jan-17 04:27N 22°11' E 113°35'19489.1
2015-Jan-17 04:25N 22°27' E 113°48'1833764.3
2015-Jan-17 04:22N 23°27' E 116°56'538276889.0
2015-Jan-17 04:22N 31°57' E 120°11'311726.6
2015-Jan-17 04:21N 31°59' E 120°48'3267.0
2015-Jan-17 04:20N 31°59' E 120°51'25175.8
2015-Jan-17 04:12N 31°58' E 120°21'1624.7
2015-Jan-17 03:33N 31°59' E 120°40'134159.7
2015-Jan-17 03:33N 32°01' E 120°25'303942.1
2015-Jan-17 03:33N 31°46' E 120°55'4317105.3
2015-Jan-17 03:33N 31°57' E 120°07'682163675.4
2015-Jan-17 03:32N 22°11' E 113°35'68179094.4
2015-Jan-17 03:32N 31°05' E 121°28'140.7
2015-Jan-17 03:31N 31°06' E 121°28'1917.4
2015-Jan-17 03:30N 31°07' E 121°28'4028659.5
2015-Jan-17 03:28N 24°45' E 119°07'4353069.9
2015-Jan-17 03:19N 31°56' E 120°11'6648632.3
2015-Jan-17 03:15N 22°27' E 113°48'2545850.1
2015-Jan-17 03:12N 24°25' E 117°52'254396.9
2015-Jan-17 02:34N 23°05' E 113°28'657788275.0
2015-Jan-17 02:33N 31°59' E 120°40'66119215.4
2015-Jan-17 02:33N 31°07' E 121°28'21230.1
2015-Jan-17 02:33N 31°05' E 121°28'5059867.5
2015-Jan-17 02:33N 31°46' E 120°55'1526127.1
2015-Jan-17 02:33N 31°59' E 120°48'35203.9
2015-Jan-17 02:33N 31°59' E 120°51'703230195.3
2015-Jan-17 02:33N 22°11' E 113°37'70284267.0
2015-Jan-17 02:33N 31°58' E 120°51'33462.0
2015-Jan-17 02:28N 31°56' E 120°11'4686526.8
2015-Jan-17 02:24N 24°25' E 117°52'2631279.0
2015-Jan-17 02:12N 23°03' E 113°19'631702.2
2015-Jan-17 02:09N 22°19' E 114°08'31210995.3
2015-Jan-17 02:08N 24°46' E 119°07'431757.2
2015-Jan-17 01:33N 31°46' E 120°55'5059843.8
2015-Jan-17 01:33N 31°05' E 121°28'6834924.8
2015-Jan-17 01:33N 32°01' E 120°42'696357993.4
2015-Jan-17 01:33N 22°14' E 113°41'5394586.4
2015-Jan-17 01:33N 23°05' E 113°28'650234128.4
2015-Jan-17 01:33N 31°15' E 121°30'5740961.7
2015-Jan-17 01:33N 31°59' E 120°48'35104.7
2015-Jan-17 01:33N 31°59' E 120°51'602221.8
2015-Jan-17 01:31N 31°07' E 121°28'664967.7
2015-Jan-17 01:30N 31°59' E 120°40'24666.2
2015-Jan-17 01:28N 31°56' E 120°11'7210427.5
2015-Jan-17 01:28N 31°20' E 121°25'4133998.4
2015-Jan-17 01:22N 24°45' E 119°08'31244908.8
2015-Jan-17 01:21N 22°19' E 114°08'59331.4
2015-Jan-17 01:11N 23°02' E 113°24'4776.5
2015-Jan-17 00:33N 22°18' E 113°44'6861234149.8
2015-Jan-17 00:33N 31°46' E 120°55'5025634.6
2015-Jan-17 00:33N 31°05' E 121°28'13662.9
2015-Jan-17 00:32N 31°17' E 121°34'1119766.0
2015-Jan-17 00:32N 31°07' E 121°28'142853.6
2015-Jan-17 00:32N 31°21' E 121°27'552512.3
2015-Jan-17 00:30N 31°59' E 120°40'24181.0
2015-Jan-17 00:22N 31°56' E 120°11'6622061.0
2015-Jan-17 00:03N 22°19' E 114°08'6771372.4
2015-Jan-16 23:33N 31°59' E 120°40'185533.4
2015-Jan-16 23:33N 31°46' E 120°55'6812452606.4
2015-Jan-16 23:33N 22°23' E 113°45'668300462.1
2015-Jan-16 23:33N 31°07' E 121°28'22467.3
2015-Jan-16 23:33N 31°05' E 121°28'6411559.5
2015-Jan-16 23:33N 31°59' E 120°48'518782.6
2015-Jan-16 23:32N 31°23' E 121°30'495687.0
2015-Jan-16 23:32N 31°59' E 120°51'667133484.5
2015-Jan-16 23:32N 23°02' E 113°24'59717.7
2015-Jan-16 23:27N 22°19' E 114°08'6622453.2
2015-Jan-16 23:10N 31°56' E 120°11'3150.7
2015-Jan-16 22:34N 31°59' E 120°48'6457797.5
2015-Jan-16 22:33N 31°05' E 121°28'6881600.2
2015-Jan-16 22:33N 31°59' E 120°40'6623839.7
2015-Jan-16 22:33N 31°07' E 121°28'66235934.3
2015-Jan-16 22:33N 32°02' E 120°45'1815894.0
2015-Jan-16 22:33N 31°46' E 120°55'515370710.2
2015-Jan-16 22:33N 23°42' E 117°36'52538605.1
2015-Jan-16 22:32N 31°59' E 120°51'34530.3
2015-Jan-16 22:28N 31°56' E 120°11'6644930.5
2015-Jan-16 22:20N 22°27' E 113°48'393.8
2015-Jan-16 22:18N 22°29' E 113°47'22137.1
2015-Jan-16 22:09N 22°19' E 114°08'6811158.9
2015-Jan-16 21:34N 32°00' E 120°46'21349.3
2015-Jan-16 21:33N 31°59' E 120°48'6428898.7
2015-Jan-16 21:33N 31°05' E 121°28'5022410.9
2015-Jan-16 21:33N 31°46' E 120°55'4810796.6
2015-Jan-16 21:33N 31°07' E 121°28'48528143.4
2015-Jan-16 21:32N 23°47' E 117°39'52011854.0
2015-Jan-16 21:29N 31°59' E 120°51'342836.5
2015-Jan-16 21:29N 31°56' E 120°11'3942.3
2015-Jan-16 20:33N 31°46' E 120°55'1866354.7
2015-Jan-16 20:33N 31°59' E 120°40'5121844088.0
2015-Jan-16 20:33N 23°51' E 117°43'478286570.4
2015-Jan-16 20:33N 31°05' E 121°28'6419265.8
2015-Jan-16 20:33N 31°59' E 120°48'3443.9
2015-Jan-16 20:33N 31°59' E 120°51'601601.0
2015-Jan-16 20:30N 31°07' E 121°28'682182.4
2015-Jan-16 20:29N 31°60' E 120°37'2240243.4
2015-Jan-16 20:29N 31°56' E 120°11'6454293.1
2015-Jan-16 20:20N 23°02' E 113°24'666867.2
2015-Jan-16 19:33N 31°59' E 120°48'712092.8
2015-Jan-16 19:33N 31°59' E 120°40'6848960.1
2015-Jan-16 19:33N 31°05' E 121°28'74267016.3
2015-Jan-16 19:33N 32°01' E 120°31'7213043.4
2015-Jan-16 19:33N 31°07' E 121°28'4828787.9
2015-Jan-16 19:33N 31°46' E 120°55'50028102.1
2015-Jan-16 19:32N 23°55' E 117°48'51021611.6
2015-Jan-16 19:30N 31°59' E 120°51'34731.5
2015-Jan-16 19:28N 31°56' E 120°11'6454788.5
2015-Jan-16 19:20N 23°02' E 113°24'6432768.1
2015-Jan-16 19:06N 32°03' E 119°55'2648.5
2015-Jan-16 18:34N 32°01' E 120°25'136459.0
2015-Jan-16 18:33N 31°59' E 120°40'6848967.0
2015-Jan-16 18:33N 31°05' E 121°28'27423.4
2015-Jan-16 18:33N 31°07' E 121°28'821878.9
2015-Jan-16 18:31N 31°56' E 120°11'162244.7
2015-Jan-16 18:30N 32°03' E 119°55'6434987.5
2015-Jan-16 18:23N 23°02' E 113°24'42312.4
2015-Jan-16 18:15N 22°26' E 113°48'6226.8
2015-Jan-16 18:13N 22°24' E 113°54'6764455.4
2015-Jan-16 18:04N 31°46' E 120°55'151541.0
2015-Jan-16 18:03N 31°59' E 120°48'713.5
2015-Jan-16 17:33N 31°59' E 120°40'6818830.8
2015-Jan-16 17:33N 31°05' E 121°28'7994396.5
2015-Jan-16 17:33N 31°58' E 120°21'777709.4
2015-Jan-16 17:33N 31°07' E 121°28'822154.7
2015-Jan-16 17:30N 31°56' E 120°11'66826133.4
2015-Jan-16 17:29N 22°24' E 113°45'68019754.8
2015-Jan-16 17:27N 31°46' E 120°55'6609654.9
2015-Jan-16 17:23N 23°02' E 113°24'648792.7
2015-Jan-16 16:34N 31°05' E 121°28'454136146.7
2015-Jan-16 16:33N 24°10' E 118°02'45674548.2
2015-Jan-16 16:33N 31°07' E 121°28'489637.2
2015-Jan-16 16:33N 31°46' E 120°55'3531685.3
2015-Jan-16 16:33N 31°56' E 120°15'21569.1
2015-Jan-16 16:30N 31°59' E 120°40'24410.8
2015-Jan-16 16:27N 31°57' E 120°11'319335.7
2015-Jan-16 16:27N 31°59' E 120°48'3200.2
2015-Jan-16 16:26N 31°59' E 120°51'6943258.7
2015-Jan-16 16:13N 22°19' E 113°42'6721010.2
2015-Jan-16 15:33N 31°07' E 121°28'8224553.0
2015-Jan-16 15:33N 31°57' E 120°11'315188893.0
2015-Jan-16 15:33N 36°50' E 122°30'313225679.1
2015-Jan-16 15:33N 31°46' E 120°55'68940034.1
2015-Jan-16 15:32N 22°16' E 113°40'69332803.1
2015-Jan-16 15:30N 31°59' E 120°40'662709.4
2015-Jan-16 15:29N 31°07' E 121°28'44913129.8
2015-Jan-16 15:27N 24°14' E 118°09'2602568.2
2015-Jan-16 15:21N 22°29' E 113°51'6803796.4
2015-Jan-16 15:10N 31°59' E 120°48'5996.6
2015-Jan-16 14:33N 31°11' E 121°28'447160762.5
2015-Jan-16 14:33N 24°18' E 118°16'470564159.4
2015-Jan-16 14:33N 31°56' E 120°11'681408881.5
2015-Jan-16 14:33N 22°12' E 113°37'694108637.6
2015-Jan-16 14:32N 31°46' E 120°55'66043986.8
2015-Jan-16 14:32N 23°02' E 113°24'66234037.7
2015-Jan-16 14:30N 31°59' E 120°40'7636.5
2015-Jan-16 14:30N 31°59' E 120°48'310209.4
2015-Jan-16 14:30N 31°59' E 120°51'30750275.8
2015-Jan-16 14:29N 36°55' E 122°29'35270364.7
2015-Jan-16 14:29N 31°07' E 121°28'39813267.1
2015-Jan-16 14:27N 24°53' E 118°55'3057183.2
2015-Jan-16 14:25N 22°19' E 114°08'25180.6
2015-Jan-16 14:16N 22°34' E 113°46'658912.1
2015-Jan-16 13:33N 31°56' E 120°11'8242112.9
2015-Jan-16 13:33N 31°07' E 121°28'71281.8
2015-Jan-16 13:33N 31°14' E 121°30'404132334.4
2015-Jan-16 13:32N 24°52' E 118°57'427219430.4
2015-Jan-16 13:32N 31°46' E 120°55'42773131.7
2015-Jan-16 13:32N 24°53' E 118°57'30778845.5
2015-Jan-16 13:32N 22°19' E 114°08'30824141.1
2015-Jan-16 13:31N 24°52' E 118°60'43649063.6
2015-Jan-16 13:30N 31°59' E 120°40'712092.9
2015-Jan-16 13:30N 31°59' E 120°48'30816773.8
2015-Jan-16 13:29N 36°55' E 122°29'745670735.9
2015-Jan-16 13:29N 24°53' E 118°57'3361725.5
2015-Jan-16 13:17N 22°13' E 113°34'699950.0
2015-Jan-16 12:33N 31°59' E 120°40'66238430.8
2015-Jan-16 12:33N 31°07' E 121°28'8217346.9
2015-Jan-16 12:33N 31°56' E 120°11'42936766.6
2015-Jan-16 12:32N 24°53' E 118°57'43878786.2
2015-Jan-16 12:32N 31°59' E 120°48'146509.9
2015-Jan-16 12:32N 31°46' E 120°55'42513087.1
2015-Jan-16 12:30N 24°53' E 119°03'9354.5
2015-Jan-16 12:28N 24°48' E 118°55'3036304.9
2015-Jan-16 12:26N 22°19' E 114°08'9796978.7
2015-Jan-16 12:17N 36°55' E 122°29'9997814.4
2015-Jan-16 12:10N 22°12' E 113°34'33722451.7
2015-Jan-16 12:09N 24°53' E 118°57'40958862.4
2015-Jan-16 12:08N 31°17' E 121°34'1119.5
2015-Jan-16 11:34N 31°07' E 121°28'3521266564.2
2015-Jan-16 11:33N 36°55' E 122°29'309123777.0
2015-Jan-16 11:33N 31°59' E 120°40'246764.4
2015-Jan-16 11:33N 31°56' E 120°11'431776045.9
2015-Jan-16 11:33N 24°51' E 118°55'3182.7
2015-Jan-16 11:32N 24°53' E 118°57'3376309.7
2015-Jan-16 11:29N 22°11' E 113°35'69586314.6
2015-Jan-16 11:29N 31°20' E 121°33'427516.3
2015-Jan-16 11:28N 31°46' E 120°55'10322.0
2015-Jan-16 11:26N 31°56' E 120°52'6673605.3
2015-Jan-16 11:15N 22°53' E 113°34'461452.0
2015-Jan-16 11:13N 22°19' E 114°08'9791469.6
2015-Jan-16 10:33N 36°55' E 122°29'32071906.9
2015-Jan-16 10:33N 31°56' E 120°11'561252470.0
2015-Jan-16 10:33N 22°35' E 120°17'552283806.9
2015-Jan-16 10:33N 31°46' E 120°55'15210.6
2015-Jan-16 10:29N 32°00' E 120°48'35974.1
2015-Jan-16 10:29N 31°59' E 120°51'14215.9
2015-Jan-16 10:28N 31°58' E 120°51'496739.3
2015-Jan-16 10:28N 31°22' E 121°30'5110897.1
2015-Jan-16 10:28N 31°59' E 120°48'43654171.0
2015-Jan-16 10:27N 24°52' E 119°04'3302549.5
2015-Jan-16 10:20N 23°02' E 113°24'51706.3
2015-Jan-16 10:15N 22°11' E 113°35'6993544.7
2015-Jan-16 10:03N 31°59' E 120°40'309622.7
2015-Jan-16 09:34N 36°55' E 122°29'9733504567.0
2015-Jan-16 09:33N 22°32' E 113°51'658169231.6
2015-Jan-16 09:33N 31°56' E 120°11'55787192.6
2015-Jan-16 09:33N 22°39' E 120°11'166119534.6
2015-Jan-16 09:33N 24°25' E 117°52'27114995.7
2015-Jan-16 09:32N 22°11' E 113°36'6822455735.5
2015-Jan-16 09:32N 31°07' E 121°28'18668.0
2015-Jan-16 09:30N 31°25' E 121°30'3610025.1
2015-Jan-16 09:30N 31°46' E 120°55'66592057.7
2015-Jan-16 09:29N 22°55' E 113°26'67153693.2
2015-Jan-16 09:29N 31°59' E 120°48'6626354.4
2015-Jan-16 09:22N 23°03' E 113°30'6589586.6
2015-Jan-16 09:18N 31°59' E 120°40'10157.3
2015-Jan-16 09:15N 31°59' E 120°51'1110008.6
2015-Jan-16 09:15N 31°60' E 120°38'6576192.1
2015-Jan-16 09:08N 23°03' E 113°30'5103.2
2015-Jan-16 09:05N 23°03' E 113°25'6591232.1
2015-Jan-16 08:33N 31°46' E 120°55'4371571771.6
2015-Jan-16 08:33N 24°43' E 118°53'439526469.2
2015-Jan-16 08:33N 31°56' E 120°11'6421155163.2
2015-Jan-16 08:33N 23°05' E 113°26'2387.3
2015-Jan-16 08:33N 23°04' E 113°28'64425215.4
2015-Jan-16 08:31N 31°07' E 121°28'644231931.3
2015-Jan-16 08:31N 23°04' E 113°29'537693.5
2015-Jan-16 08:31N 22°11' E 113°33'271632.8
2015-Jan-16 08:30N 22°32' E 113°51'97424855.7
2015-Jan-16 08:28N 36°55' E 122°29'3073676.7
2015-Jan-16 08:23N 32°03' E 120°33'6916621.4
2015-Jan-16 08:22N 31°15' E 121°32'583868.2
2015-Jan-16 08:21N 31°59' E 120°48'73455.3
2015-Jan-16 08:21N 31°59' E 120°40'46154.0
2015-Jan-16 08:04N 31°31' E 121°22'46437139.8
2015-Jan-16 08:03N 24°25' E 117°52'478971.8
2015-Jan-16 07:33N 31°59' E 120°40'440198061.7
2015-Jan-16 07:33N 24°48' E 118°58'3127540.5
2015-Jan-16 07:31N 22°32' E 113°51'393394.9
2015-Jan-16 07:30N 23°04' E 113°29'65829262.6
2015-Jan-16 07:29N 31°33' E 121°19'231478.6
2015-Jan-16 07:28N 31°11' E 121°28'348208765.5
2015-Jan-16 07:28N 36°55' E 122°29'3529668.4
2015-Jan-16 07:25N 31°07' E 121°28'821228.7
2015-Jan-16 07:21N 31°56' E 120°11'39551.0
2015-Jan-16 07:17N 31°46' E 120°55'142168.3
2015-Jan-16 07:17N 31°59' E 120°48'48014045.2
2015-Jan-16 07:15N 24°25' E 117°52'2638223.6
2015-Jan-16 07:13N 23°03' E 113°19'9218.6
2015-Jan-16 07:10N 23°04' E 113°29'6411042.9
2015-Jan-16 06:33N 31°56' E 120°11'39139408.5
2015-Jan-16 06:33N 31°46' E 120°55'509537.2
2015-Jan-16 06:33N 31°04' E 121°28'393282872.9
2015-Jan-16 06:33N 24°53' E 119°03'39594870.2
2015-Jan-16 06:33N 31°07' E 121°28'64413803.2
2015-Jan-16 06:30N 23°04' E 113°29'65183644.6
2015-Jan-16 06:30N 32°01' E 120°23'31218704.6
2015-Jan-16 06:29N 36°55' E 122°29'7873417.9
2015-Jan-16 06:15N 24°25' E 117°52'27410274.6
2015-Jan-16 06:13N 22°11' E 113°32'271044.0
2015-Jan-16 06:12N 22°31' E 113°51'67417973.6
2015-Jan-16 06:09N 31°59' E 120°40'65720056.7
2015-Jan-16 06:07N 23°04' E 113°29'6411137.6
2015-Jan-16 05:34N 31°57' E 120°11'31745611.7
2015-Jan-16 05:33N 36°52' E 122°29'34996585.8
2015-Jan-16 05:33N 31°07' E 121°28'658473821.2
2015-Jan-16 05:33N 22°33' E 113°48'65550193.8
2015-Jan-16 05:32N 31°03' E 121°28'524224.6
2015-Jan-16 05:31N 31°46' E 120°55'65530243.4
2015-Jan-16 05:30N 23°04' E 113°29'54683.5
2015-Jan-16 05:25N 22°11' E 113°35'70043438.7
2015-Jan-16 05:24N 31°59' E 120°40'83536.7
2015-Jan-16 05:24N 32°00' E 120°49'310.8
2015-Jan-16 05:08N 31°58' E 120°51'31001.1
2015-Jan-16 05:08N 31°59' E 120°48'62107.8
2015-Jan-16 04:33N 31°07' E 121°28'68258442.8
2015-Jan-16 04:32N 22°11' E 113°36'353181789.3
2015-Jan-16 04:32N 25°03' E 119°13'3368645.3
2015-Jan-16 04:30N 23°04' E 113°29'6397193.4
2015-Jan-16 04:25N 31°56' E 120°09'862378.5
2015-Jan-16 04:22N 31°03' E 121°28'851315.4
2015-Jan-16 04:19N 31°56' E 120°11'3969627.2
2015-Jan-16 04:19N 31°46' E 120°55'144333.5
2015-Jan-16 04:18N 31°59' E 120°48'74000.4
2015-Jan-16 04:18N 31°59' E 120°40'10789.7
2015-Jan-16 04:18N 31°58' E 120°51'31462.8
2015-Jan-16 04:14N 31°56' E 120°15'4682573.0
2015-Jan-16 04:03N 24°25' E 117°52'471937.2
2015-Jan-16 03:32N 32°03' E 119°55'5410796.2
2015-Jan-16 03:32N 31°46' E 120°55'5213299.4
2015-Jan-16 03:32N 31°03' E 121°28'6325384.5
2015-Jan-16 03:32N 31°58' E 120°51'66388352.5
2015-Jan-16 03:31N 23°04' E 113°29'64157672.5
2015-Jan-16 03:31N 31°57' E 120°11'8222688.4
2015-Jan-16 03:30N 31°07' E 121°28'64485884.5
2015-Jan-16 03:30N 23°04' E 113°29'5347910.4
2015-Jan-16 03:30N 22°11' E 113°35'31112250.1
2015-Jan-16 03:30N 22°19' E 114°08'67715241.8
2015-Jan-16 03:27N 31°59' E 120°40'4784319.5
2015-Jan-16 03:21N 24°25' E 117°52'48030847.2
2015-Jan-16 03:20N 31°59' E 120°48'32373.0
2015-Jan-16 03:15N 31°56' E 120°10'4368168.7
2015-Jan-16 03:11N 24°43' E 119°08'3904700.4
2015-Jan-16 03:06N 30°58' E 121°14'392713.5
2015-Jan-16 02:33N 24°42' E 119°06'44635662.0
2015-Jan-16 02:33N 31°58' E 120°51'31746.0
2015-Jan-16 02:32N 31°59' E 120°48'141855.8
2015-Jan-16 02:32N 31°46' E 120°55'5215522.9
2015-Jan-16 02:32N 31°03' E 121°28'64276995.7
2015-Jan-16 02:31N 23°04' E 113°29'64164082.5
2015-Jan-16 02:31N 31°57' E 120°11'64152425.3
2015-Jan-16 02:30N 23°04' E 113°29'6576819.6
2015-Jan-16 02:24N 31°59' E 120°40'66848.4
2015-Jan-16 02:20N 31°07' E 121°28'643760.4
2015-Jan-16 02:18N 32°01' E 120°48'6703851.3
2015-Jan-16 02:08N 23°03' E 113°18'362108715.8
2015-Jan-16 02:08N 25°16' E 119°27'398691.8
2015-Jan-16 01:33N 31°46' E 120°55'481204.5
2015-Jan-16 01:31N 31°07' E 121°28'8226814.8
2015-Jan-16 01:31N 31°57' E 120°11'43954439.9
2015-Jan-16 01:30N 24°42' E 119°06'432800.0
2015-Jan-16 01:29N 25°18' E 119°32'40791494.2
2015-Jan-16 01:29N 31°58' E 120°51'312229.2
2015-Jan-16 01:29N 31°59' E 120°48'66421.5
2015-Jan-16 01:20N 31°03' E 121°28'70925.3
2015-Jan-16 01:15N 31°59' E 120°40'678221924.2
2015-Jan-16 01:15N 22°26' E 113°53'45297.2
2015-Jan-16 01:06N 23°04' E 113°29'6551209.1
2015-Jan-16 00:33N 31°46' E 120°55'124414.5
2015-Jan-16 00:33N 31°58' E 120°51'33954.0
2015-Jan-16 00:33N 31°59' E 120°48'76046.8
2015-Jan-16 00:33N 31°59' E 120°40'477245439.8
2015-Jan-16 00:33N 24°26' E 117°51'44524641.2
2015-Jan-16 00:32N 31°07' E 121°28'4375.7
2015-Jan-16 00:31N 31°03' E 121°28'6421154873.2
2015-Jan-16 00:31N 23°04' E 113°29'323581648.4
2015-Jan-16 00:31N 24°41' E 119°06'32314914.7
2015-Jan-16 00:30N 23°04' E 113°29'64118163.5
2015-Jan-16 00:28N 31°57' E 120°11'16112.7
2015-Jan-16 00:20N 32°04' E 119°55'4558.3
2015-Jan-15 23:33N 31°59' E 120°48'141680.5
2015-Jan-15 23:33N 31°46' E 120°55'121777.7
2015-Jan-15 23:33N 31°58' E 120°51'66332239.3
2015-Jan-15 23:31N 23°04' E 113°29'641100309.4
2015-Jan-15 23:31N 31°57' E 120°11'241911.5
2015-Jan-15 23:30N 31°59' E 120°40'6659603.4
2015-Jan-15 23:30N 31°07' E 121°28'644331293.8
2015-Jan-15 23:30N 23°04' E 113°29'64221788.8
2015-Jan-15 23:28N 31°03' E 121°28'40426902.6
2015-Jan-15 23:27N 24°40' E 119°06'6824545.2
2015-Jan-15 23:27N 24°24' E 117°53'4712755.0
2015-Jan-15 23:17N 31°45' E 121°03'468640.7
2015-Jan-15 22:33N 24°25' E 118°01'442795099.4
2015-Jan-15 22:33N 31°07' E 121°28'4828858.4
2015-Jan-15 22:33N 31°46' E 120°55'1222171.8
2015-Jan-15 22:33N 31°58' E 120°51'3791.3
2015-Jan-15 22:33N 31°59' E 120°48'663715.9
2015-Jan-15 22:32N 31°03' E 121°28'642177669.3
2015-Jan-15 22:31N 23°04' E 113°29'641115349.5
2015-Jan-15 22:31N 31°57' E 120°11'241758.5
2015-Jan-15 22:30N 31°59' E 120°40'67737518.3
2015-Jan-15 22:29N 22°19' E 114°08'581668.2
2015-Jan-15 22:27N 23°04' E 113°29'43665.7
2015-Jan-15 22:23N 22°27' E 113°53'68222516.5
2015-Jan-15 22:21N 31°58' E 120°52'4491926.8
2015-Jan-15 22:07N 24°39' E 119°07'438776.2
2015-Jan-15 21:33N 31°46' E 120°55'122463.5
2015-Jan-15 21:33N 31°58' E 120°51'6053816.2
2015-Jan-15 21:33N 31°07' E 121°28'6224959.5
2015-Jan-15 21:33N 31°59' E 120°48'1311369.2
2015-Jan-15 21:33N 31°48' E 120°55'65713511.5
2015-Jan-15 21:30N 23°04' E 113°29'64220996.6
2015-Jan-15 21:28N 31°03' E 121°28'6426675.6
2015-Jan-15 21:22N 23°04' E 113°29'641121423.4
2015-Jan-15 21:22N 31°57' E 120°11'241570.1
2015-Jan-15 21:21N 31°59' E 120°40'3796012.6
2015-Jan-15 21:17N 25°44' E 119°39'36647015.1
2015-Jan-15 21:17N 22°19' E 114°08'2522816.1
2015-Jan-15 21:11N 24°24' E 118°06'56469.4
2015-Jan-15 21:04N 24°38' E 119°06'439855.0
2015-Jan-15 20:33N 31°46' E 120°55'148673.4
2015-Jan-15 20:33N 31°59' E 120°48'71863.4
2015-Jan-15 20:33N 31°53' E 120°53'5244.1
2015-Jan-15 20:32N 31°58' E 120°51'647621.5
2015-Jan-15 20:31N 31°03' E 121°28'6422309734.5
2015-Jan-15 20:31N 23°04' E 113°29'641115352.2
2015-Jan-15 20:31N 31°57' E 120°11'64133924.4
2015-Jan-15 20:30N 23°04' E 113°29'6442319042.0
2015-Jan-15 20:30N 31°07' E 121°28'44156731.6
2015-Jan-15 20:29N 24°24' E 118°06'1481694.6
2015-Jan-15 20:24N 22°44' E 120°05'1268279.4
2015-Jan-15 20:23N 24°39' E 119°06'44812042.0
2015-Jan-15 20:21N 31°59' E 120°40'560699.6
2015-Jan-15 19:33N 22°40' E 120°11'54754747.4
2015-Jan-15 19:32N 31°46' E 120°55'391743.0
2015-Jan-15 19:31N 31°57' E 120°11'8561065.7
2015-Jan-15 19:31N 31°03' E 121°28'704115.2
2015-Jan-15 19:30N 31°59' E 120°40'65712722.5
2015-Jan-15 19:27N 23°04' E 113°29'64437402.1
2015-Jan-15 19:26N 31°07' E 121°28'40714947.4
2015-Jan-15 19:24N 24°40' E 119°08'594212.2
2015-Jan-15 19:23N 24°24' E 118°06'162193.7
2015-Jan-15 18:33N 22°36' E 120°17'342102589.3
2015-Jan-15 18:33N 22°19' E 114°08'528943.4
2015-Jan-15 18:33N 22°58' E 113°30'64626424.4
2015-Jan-15 18:31N 31°03' E 121°28'8533925.4
2015-Jan-15 18:31N 31°57' E 120°11'64130756.7
2015-Jan-15 18:30N 23°04' E 113°29'65526807.4
2015-Jan-15 18:28N 31°46' E 120°55'4675568.3
2015-Jan-15 18:23N 24°24' E 118°06'47511717.6
2015-Jan-15 18:21N 31°59' E 120°40'65724149.7
2015-Jan-15 18:19N 23°04' E 113°29'3 3.6
2015-Jan-15 17:33N 23°05' E 113°26'269484737.5
2015-Jan-15 17:33N 24°23' E 118°08'442105963.4
2015-Jan-15 17:33N 31°07' E 121°28'64474809.9
2015-Jan-15 17:33N 23°04' E 113°29'65747309.9
2015-Jan-15 17:32N 31°60' E 120°39'718487.3
2015-Jan-15 17:31N 31°03' E 121°28'8576332.1
2015-Jan-15 17:31N 31°57' E 120°11'39733.8
2015-Jan-15 17:28N 31°46' E 120°55'659719.2
2015-Jan-15 16:33N 23°03' E 113°25'648466336.0
2015-Jan-15 16:33N 31°07' E 121°28'71127740.4
2015-Jan-15 16:33N 32°01' E 120°33'676135122.1
2015-Jan-15 16:33N 22°19' E 114°08'25318570.5
2015-Jan-15 16:32N 24°18' E 118°10'26825373.7
2015-Jan-15 16:31N 23°04' E 113°29'6422309734.5
2015-Jan-15 16:31N 31°03' E 121°28'529799.0
2015-Jan-15 16:31N 31°46' E 120°55'3919917.0
2015-Jan-15 16:31N 31°57' E 120°11'6468310.3
2015-Jan-15 16:26N 23°03' E 113°21'6637675.5
2015-Jan-15 16:21N 31°59' E 120°40'763.7
2015-Jan-15 16:15N 31°59' E 120°48'1419.9
2015-Jan-15 15:33N 32°01' E 120°32'48551313.8
2015-Jan-15 15:33N 24°13' E 118°07'269161265.8
2015-Jan-15 15:33N 23°02' E 113°24'64625017.2
2015-Jan-15 15:31N 31°03' E 121°28'521959.6
2015-Jan-15 15:30N 31°46' E 120°55'391315.4
2015-Jan-15 15:28N 31°57' E 120°11'241542.4
2015-Jan-15 15:27N 31°59' E 120°40'741.6
2015-Jan-15 15:17N 31°59' E 120°48'622005.5
2015-Jan-15 15:15N 31°07' E 121°28'66623980.9
2015-Jan-15 15:14N 22°24' E 113°46'4363.5
2015-Jan-15 14:33N 23°02' E 113°24'659197742.6
2015-Jan-15 14:33N 32°01' E 120°32'7210366.6
2015-Jan-15 14:33N 31°07' E 121°28'455409608.1
2015-Jan-15 14:32N 24°10' E 118°02'25912955.8
2015-Jan-15 14:31N 23°04' E 113°29'64288842.6
2015-Jan-15 14:31N 31°03' E 121°28'65612764.3
2015-Jan-15 14:28N 22°19' E 114°08'67749769.2
2015-Jan-15 14:27N 31°59' E 120°40'24745.0
2015-Jan-15 14:25N 31°57' E 120°11'395794.1
2015-Jan-15 14:25N 31°46' E 120°55'660774.8
2015-Jan-15 13:33N 23°02' E 113°24'65994915.7
2015-Jan-15 13:33N 32°01' E 120°32'2529503.3
2015-Jan-15 13:33N 31°46' E 120°55'1813125.8
2015-Jan-15 13:33N 31°59' E 120°40'24778.1
2015-Jan-15 13:31N 31°57' E 120°11'67613753.8
2015-Jan-15 13:28N 22°15' E 113°43'672109967.2
2015-Jan-15 13:28N 31°03' E 121°28'45710539.8
2015-Jan-15 13:25N 24°06' E 117°59'2555399.9
2015-Jan-15 13:22N 23°04' E 113°29'584430.5
2015-Jan-15 13:22N 22°19' E 114°08'6603742.7
2015-Jan-15 13:11N 31°58' E 120°03'1219.4
2015-Jan-15 12:34N 31°57' E 120°17'6482334460.8
2015-Jan-15 12:33N 23°02' E 113°24'659237284.2
2015-Jan-15 12:33N 32°01' E 120°32'6951250449.8
2015-Jan-15 12:33N 22°12' E 113°37'69462462.0
2015-Jan-15 12:33N 31°46' E 120°55'48951786.3
2015-Jan-15 12:32N 24°03' E 117°57'235105908.0
2015-Jan-15 12:32N 22°19' E 114°08'65632347.4
2015-Jan-15 12:31N 31°03' E 121°28'671212.0
2015-Jan-15 12:27N 31°60' E 120°48'31819.6
2015-Jan-15 12:25N 31°57' E 120°11'344728.2
2015-Jan-15 12:25N 31°58' E 120°51'6637362.9
2015-Jan-15 12:19N 23°04' E 113°29'6579033.1
2015-Jan-15 12:15N 31°59' E 120°40'710.1
2015-Jan-15 11:33N 32°01' E 120°32'675127946.8
2015-Jan-15 11:33N 22°19' E 114°08'593795.4
2015-Jan-15 11:32N 23°02' E 113°24'66217391.7
2015-Jan-15 11:30N 31°59' E 120°40'181060.7
2015-Jan-15 11:29N 31°46' E 120°55'393477.5
2015-Jan-15 11:28N 31°57' E 120°11'294376.7
2015-Jan-15 11:28N 32°01' E 120°45'296593.0
2015-Jan-15 11:28N 31°57' E 120°11'68319509.8
2015-Jan-15 11:25N 22°13' E 113°34'52507.4
2015-Jan-15 11:19N 23°04' E 113°29'6382678.0
2015-Jan-15 11:05N 31°58' E 120°03'1120.3
2015-Jan-15 10:34N 31°57' E 120°15'1510784.1
2015-Jan-15 10:33N 32°01' E 120°32'659148309.5
2015-Jan-15 10:33N 23°02' E 113°24'662158844.0
2015-Jan-15 10:33N 31°59' E 120°40'69920131.3
2015-Jan-15 10:31N 22°12' E 113°34'68315973.1
2015-Jan-15 10:28N 31°57' E 120°11'3912674.0
2015-Jan-15 10:28N 31°46' E 120°55'1561358.2
2015-Jan-15 10:21N 29°39' E 122°41'1112615.7
2015-Jan-15 10:19N 31°11' E 121°28'64719563.1
2015-Jan-15 10:17N 23°04' E 113°29'581766.2
2015-Jan-15 10:15N 22°19' E 114°09'6585895.3
2015-Jan-15 10:08N 31°07' E 121°28'78136.2
2015-Jan-15 09:34N 31°59' E 120°19'  
Track history (hours):
 
Tides and Currents Weather Stations Pressure Air Temp Water Temp Dewpoint Dewpoint Depression Visibility Wind Speed Wind Dir Waves Ship Positions

Callsign 000000 (name unknown)

Last reported at 2015-Jan-25 09:33 UTC. Time now 2015-Jan-25 10:15 UTC.
Position N 23°04' E 113°29'.

Type: Fishing. MMSI: 200007452.

Date/timePositionNaut miles runAvg speedWind from/ knotsBaromVisibWave heightAir tempDewpointWater temp
2015-Jan-25 09:33N 23°04' E 113°29'31944103.2
2015-Jan-25 09:33N 24°44' E 118°60'11853.2
2015-Jan-25 09:32N 24°54' E 119°03'39450710.5
2015-Jan-25 09:32N 31°07' E 121°28'68112843.2
2015-Jan-25 09:29N 22°11' E 113°37'19118.8
2015-Jan-25 09:19N 22°27' E 113°48'41803.3
2015-Jan-25 09:16N 23°04' E 113°30'636898.6
2015-Jan-25 08:34N 30°59' E 121°24'63684831.4
2015-Jan-25 08:33N 23°04' E 113°29'53717.8
2015-Jan-25 08:29N 22°11' E 113°37'536589.8
2015-Jan-25 08:28N 23°04' E 113°30'41144.3
2015-Jan-25 08:11N 22°27' E 113°48'33410918.3
2015-Jan-25 08:09N 25°01' E 119°11'385647.0
2015-Jan-25 07:34N 31°07' E 121°28'84287.5
2015-Jan-25 07:33N 30°59' E 121°24'6362290430.3
2015-Jan-25 07:33N 23°04' E 113°29'525341.0
2015-Jan-25 07:33N 22°14' E 113°40'52396.4
2015-Jan-25 07:25N 23°04' E 113°30'3236461.9
2015-Jan-25 07:22N 24°54' E 119°02'42217682.1
2015-Jan-25 07:21N 31°41' E 121°11'4062256.9
2015-Jan-25 07:10N 25°07' E 119°17'370611.0
2015-Jan-25 06:33N 30°59' E 121°24'6361145215.2
2015-Jan-25 06:33N 23°04' E 113°29'31988385.7
2015-Jan-25 06:33N 24°47' E 118°59'4422461.7
2015-Jan-25 06:22N 31°58' E 120°50'69367435.7
2015-Jan-25 06:22N 22°18' E 113°44'48510.8
2015-Jan-25 06:16N 23°04' E 113°30'635892.7
2015-Jan-25 05:33N 30°59' E 121°23'359431114.6
2015-Jan-25 05:33N 25°15' E 119°26'35174333.1
2015-Jan-25 05:33N 23°04' E 113°29'64323621.2
2015-Jan-25 05:32N 31°57' E 120°15'64310968.7
2015-Jan-25 05:28N 23°04' E 113°30'4405.3
2015-Jan-25 05:27N 23°04' E 113°25'6658027.9
2015-Jan-25 05:22N 31°58' E 120°50'6882530.3
2015-Jan-25 05:06N 22°24' E 113°45'31815278.9
2015-Jan-25 05:05N 24°38' E 118°59'3230.8
2015-Jan-25 05:04N 24°37' E 118°55'313615.9
2015-Jan-25 04:33N 23°04' E 113°29'630324075.2
2015-Jan-25 04:33N 30°58' E 121°16'7813350.4
2015-Jan-25 04:33N 31°59' E 120°20'26340.1
2015-Jan-25 04:28N 31°58' E 120°50'662297770.2
2015-Jan-25 04:28N 23°04' E 113°30'3169483.1
2015-Jan-25 04:26N 24°39' E 118°59'235.1
2015-Jan-25 04:23N 24°39' E 118°57'448547.2
2015-Jan-25 03:33N 32°00' E 120°24'7412603.1
2015-Jan-25 03:33N 30°58' E 121°09'624157.6
2015-Jan-25 03:32N 31°58' E 120°50'66282167.0
2015-Jan-25 03:32N 23°04' E 113°29'66017855.5
2015-Jan-25 03:30N 31°25' E 121°32'42433908.4
2015-Jan-25 03:29N 24°47' E 118°47'30910798.5
2015-Jan-25 03:27N 23°05' E 113°28'6601977.2
2015-Jan-25 03:07N 31°45' E 121°05'4219062.1
2015-Jan-25 03:07N 31°07' E 121°28'382942.0
2015-Jan-25 03:06N 31°41' E 121°10'4073.1
2015-Jan-25 02:33N 31°02' E 121°05'218269.3
2015-Jan-25 02:33N 31°07' E 121°28'7311412.2
2015-Jan-25 02:33N 32°01' E 120°31'39030.2
2015-Jan-25 02:33N 32°02' E 120°28'654336271.7
2015-Jan-25 02:33N 23°04' E 113°29'31138663.4
2015-Jan-25 02:32N 24°49' E 118°50'31115112.2
2015-Jan-25 02:31N 22°27' E 113°48'317285593.4
2015-Jan-25 02:31N 24°52' E 118°56'32315517.7
2015-Jan-25 02:30N 23°02' E 113°24'66358206.4
2015-Jan-25 02:29N 31°46' E 121°00'6589362.6
2015-Jan-25 02:25N 23°04' E 113°30'313987.2
2015-Jan-25 02:06N 24°38' E 118°57'45117104.4
2015-Jan-25 02:04N 31°58' E 120°50'6621290.8
2015-Jan-25 01:33N 23°04' E 113°29'656590240.8
2015-Jan-25 01:33N 32°01' E 120°33'6420902.9
2015-Jan-25 01:33N 31°01' E 120°58'6679095.2
2015-Jan-25 01:33N 32°01' E 120°25'221331.6
2015-Jan-25 01:32N 31°58' E 120°50'96775.9
2015-Jan-25 01:32N 31°49' E 120°54'1231539.0
2015-Jan-25 01:27N 30°00' E 122°01'38415011.8
2015-Jan-25 01:26N 24°21' E 118°39'2944464.7
2015-Jan-25 01:22N 23°04' E 113°30'31112582.4
2015-Jan-25 01:20N 24°37' E 118°54'3123816.4
2015-Jan-25 01:15N 23°04' E 113°29'63941845.2
2015-Jan-25 01:14N 31°01' E 121°28'4269640.5
2015-Jan-25 01:12N 24°21' E 118°40'295461.2
2015-Jan-25 00:33N 23°04' E 113°29'315103074.3
2015-Jan-25 00:33N 24°42' E 118°56'44221493.8
2015-Jan-25 00:32N 31°58' E 120°19'63114147.8
2015-Jan-25 00:32N 31°01' E 120°52'321164918.5
2015-Jan-25 00:32N 25°47' E 119°40'6710439.9
2015-Jan-25 00:31N 24°53' E 118°57'43552148.8
2015-Jan-25 00:31N 31°55' E 120°52'66166070.9
2015-Jan-25 00:30N 23°04' E 113°29'64423191.0
2015-Jan-25 00:29N 31°07' E 121°28'6173.1
2015-Jan-25 00:26N 31°01' E 121°28'6611852.3
2015-Jan-25 00:26N 31°58' E 120°50'66229053.2
2015-Jan-25 00:25N 23°04' E 113°30'658789894.3
2015-Jan-25 00:25N 31°24' E 121°31'561083.4
2015-Jan-25 00:22N 32°00' E 120°40'4764894.7
2015-Jan-25 00:16N 24°18' E 118°33'288407.8
2015-Jan-24 23:33N 23°04' E 113°29'643231530.2
2015-Jan-24 23:33N 31°57' E 120°16'441198411.4
2015-Jan-24 23:33N 24°41' E 119°01'4501620040.1
2015-Jan-24 23:33N 32°01' E 120°46'5276.3
2015-Jan-24 23:32N 31°58' E 120°50'3066398.3
2015-Jan-24 23:29N 36°53' E 122°28'3562413.1
2015-Jan-24 23:20N 31°01' E 121°28'42745210.3
2015-Jan-24 23:20N 24°21' E 118°39'365631.0
2015-Jan-24 23:19N 24°53' E 118°57'3194683.7
2015-Jan-24 23:15N 23°04' E 113°29'6598912.3
2015-Jan-24 23:11N 31°24' E 121°31'885760.9
2015-Jan-24 23:10N 32°02' E 119°57'638143652.6
2015-Jan-24 23:10N 23°04' E 113°30'6411056.3
2015-Jan-24 22:33N 31°56' E 120°13'641256384.1
2015-Jan-24 22:33N 23°04' E 113°29'414149.2
2015-Jan-24 22:33N 22°27' E 113°48'661297529.2
2015-Jan-24 22:32N 31°59' E 120°00'4410534.0
2015-Jan-24 22:32N 31°57' E 120°52'30734496.9
2015-Jan-24 22:32N 36°54' E 122°26'743191047.3
2015-Jan-24 22:31N 24°53' E 118°57'43711238.9
2015-Jan-24 22:29N 31°58' E 120°50'4814463.2
2015-Jan-24 22:29N 31°24' E 121°31'65925491.2
2015-Jan-24 22:27N 23°04' E 113°29'122.7
2015-Jan-24 22:25N 23°04' E 113°30'639738.4
2015-Jan-24 21:33N 31°56' E 120°09'639164341.3
2015-Jan-24 21:33N 23°04' E 113°29'639135370.0
2015-Jan-24 21:33N 31°57' E 120°07'417837.2
2015-Jan-24 21:33N 31°50' E 120°55'9161.2
2015-Jan-24 21:29N 31°58' E 120°50'66223135.7
2015-Jan-24 21:27N 23°04' E 113°29'3199807.6
2015-Jan-24 21:25N 24°53' E 118°57'74325218.4
2015-Jan-24 21:24N 36°53' E 122°26'97611226.5
2015-Jan-24 21:18N 22°27' E 113°48'4155.0
2015-Jan-24 20:33N 23°04' E 113°29'638191521.1
2015-Jan-24 20:33N 31°55' E 120°08'3195679.7
2015-Jan-24 20:30N 36°53' E 122°26'332298689.4
2015-Jan-24 20:30N 31°24' E 121°31'65818095.8
2015-Jan-24 20:27N 23°04' E 113°29'3199725.6
2015-Jan-24 20:25N 24°53' E 118°57'43711237.8
2015-Jan-24 20:23N 31°58' E 120°50'4694242.4
2015-Jan-24 20:16N 24°24' E 118°39'1142351.9
2015-Jan-24 20:14N 26°07' E 119°33'6 8.6
2015-Jan-24 19:33N 26°02' E 119°30'37935878.7
2015-Jan-24 19:33N 22°27' E 113°48'419248.3
2015-Jan-24 19:33N 23°04' E 113°29'66282159.5
2015-Jan-24 19:32N 31°58' E 120°50'351996.4
2015-Jan-24 19:31N 31°55' E 120°08'763160.7
2015-Jan-24 19:30N 31°24' E 121°31'33230634.8
2015-Jan-24 19:29N 36°53' E 122°26'97733175.7
2015-Jan-24 19:27N 22°24' E 113°54'371412.6
2015-Jan-24 18:33N 25°58' E 119°25'359215497.0
2015-Jan-24 18:33N 31°55' E 120°08'638143640.6
2015-Jan-24 18:33N 23°04' E 113°29'658107736.9
2015-Jan-24 18:33N 31°24' E 121°31'33216828.2
2015-Jan-24 18:31N 36°53' E 122°26'976152784.7
2015-Jan-24 18:31N 22°27' E 113°48'7148.2
2015-Jan-24 18:28N 22°21' E 113°43'454261.6
2015-Jan-24 18:27N 23°04' E 113°29'6627332.4
2015-Jan-24 18:22N 31°58' E 120°50'437534.2
2015-Jan-24 17:33N 24°53' E 118°55'428219887.2
2015-Jan-24 17:33N 31°55' E 120°08'67541915.8
2015-Jan-24 17:32N 22°16' E 113°39'69118167.6
2015-Jan-24 17:29N 31°24' E 121°31'65818964.1
2015-Jan-24 17:27N 23°04' E 113°29'66229061.2
2015-Jan-24 17:26N 31°58' E 120°50'52223509.2
2015-Jan-24 17:25N 23°44' E 117°39'1634653.8
2015-Jan-24 17:23N 25°56' E 119°23'2001325.9
2015-Jan-24 17:14N 22°38' E 119°50'3464787.8
2015-Jan-24 17:09N 22°56' E 113°36'314519.6
2015-Jan-24 16:33N 24°53' E 118°55'317571045.0
2015-Jan-24 16:33N 23°04' E 113°29'533506.6
2015-Jan-24 16:32N 22°12' E 113°34'30923165.0
2015-Jan-24 16:31N 24°23' E 118°39'45928499.8
2015-Jan-24 16:30N 31°55' E 120°08'76766.9
2015-Jan-24 16:24N 31°24' E 121°31'482405.0
2015-Jan-24 16:23N 31°58' E 120°50'661195.3
2015-Jan-24 16:20N 31°01' E 121°28'63940359.4
2015-Jan-24 16:19N 23°04' E 113°30'41422.3
2015-Jan-24 16:13N 22°27' E 113°48'654994.9
2015-Jan-24 15:34N 30°59' E 121°23'389701094.1
2015-Jan-24 15:33N 24°52' E 118°55'31733570.9
2015-Jan-24 15:33N 23°04' E 113°29'638328321.4
2015-Jan-24 15:33N 31°55' E 120°08'68161283.8
2015-Jan-24 15:32N 22°12' E 113°34'703230105.7
2015-Jan-24 15:32N 31°58' E 120°50'481822.7
2015-Jan-24 15:30N 31°25' E 121°31'6594577.2
2015-Jan-24 15:22N 23°04' E 113°30'658107709.4
2015-Jan-24 15:21N 31°24' E 121°31'6774829.1
2015-Jan-24 15:13N 22°27' E 113°48'11398.3
2015-Jan-24 15:11N 22°19' E 113°40'320507.8
2015-Jan-24 14:33N 24°43' E 118°52'31193420.6
2015-Jan-24 14:33N 23°04' E 113°29'370190281.8
2015-Jan-24 14:33N 22°38' E 120°09'557200610.2
2015-Jan-24 14:33N 31°55' E 120°08'66115875.0
2015-Jan-24 14:30N 22°27' E 113°48'15396.0
2015-Jan-24 14:28N 22°16' E 113°37'49312.5
2015-Jan-24 14:19N 23°04' E 113°30'376499.0
2015-Jan-24 13:33N 22°37' E 120°17'514168316.2
2015-Jan-24 13:33N 31°07' E 121°28'644386457.1
2015-Jan-24 13:33N 23°04' E 113°29'65819112.2
2015-Jan-24 13:31N 31°24' E 121°31'661272.2
2015-Jan-24 13:28N 32°04' E 120°30'211762.0
2015-Jan-24 13:27N 31°55' E 120°08'67845225.7
2015-Jan-24 13:26N 22°14' E 113°35'367.7
2015-Jan-24 13:24N 22°12' E 113°34'70319032.8
2015-Jan-24 13:22N 31°58' E 120°50'67011885.0
2015-Jan-24 13:18N 22°51' E 113°34'27192.3
2015-Jan-24 13:10N 22°27' E 113°48'4267.2
2015-Jan-24 12:33N 23°04' E 113°29'749454.0
2015-Jan-24 12:32N 21°52' E 113°16'723433696.2
2015-Jan-24 12:32N 31°24' E 121°31'7718485.9
2015-Jan-24 12:32N 31°55' E 120°08'3514198.3
2015-Jan-24 12:32N 31°58' E 120°50'66654507.6
2015-Jan-24 12:31N 22°57' E 113°33'42529.1
2015-Jan-24 12:26N 22°14' E 113°35'69510004.4
2015-Jan-24 12:22N 31°24' E 121°31'6979961.1
2015-Jan-24 12:18N 22°12' E 113°34'29317034.2
2015-Jan-24 12:17N 24°15' E 118°24'4847956.4
2015-Jan-24 12:13N 32°13' E 119°54'2132.1
2015-Jan-24 11:33N 31°55' E 120°08'46343826.9
2015-Jan-24 11:33N 24°20' E 118°36'291116552.8
2015-Jan-24 11:33N 23°04' E 113°29'502228.3
2015-Jan-24 11:31N 22°14' E 113°35'68828819.9
2015-Jan-24 11:30N 31°20' E 121°25'6912329.4
2015-Jan-24 11:12N 22°12' E 113°34'30511790.2
2015-Jan-24 11:10N 24°22' E 118°34'46941167.7
2015-Jan-24 11:10N 32°06' E 119°56'6411152955.2
2015-Jan-24 11:10N 23°04' E 113°30'1 1.0
2015-Jan-24 10:34N 23°04' E 113°29'638127681.7
2015-Jan-24 10:33N 31°55' E 120°08'46011822.3
2015-Jan-24 10:31N 24°22' E 118°40'31315652.8
2015-Jan-24 10:30N 22°03' E 113°35'6127520.9
2015-Jan-24 10:30N 23°04' E 113°29'16175.2
2015-Jan-24 10:24N 22°53' E 113°17'6537540.1
2015-Jan-24 10:19N 32°01' E 119°58'638120917.4
2015-Jan-24 10:19N 23°04' E 113°30'66221081.6
2015-Jan-24 10:17N 31°58' E 120°50'7014310.9
2015-Jan-24 10:07N 22°14' E 113°35'3126.2
2015-Jan-24 10:06N 22°12' E 113°34'5398.3
2015-Jan-24 09:34N 23°04' E 113°29'638176799.6
2015-Jan-24 09:33N 31°55' E 120°08'886433.4
2015-Jan-24 09:33N 31°01' E 121°29'666262.3
2015-Jan-24 09:32N 31°58' E 120°50'66234524.6
2015-Jan-24 09:31N 23°04' E 113°30'65842312.7
2015-Jan-24 09:30N 31°24' E 121°31'492325.3
2015-Jan-24 09:29N 31°59' E 120°49'431908.9
2015-Jan-24 09:27N 32°01' E 119°59'63867566.6
2015-Jan-24 09:27N 23°04' E 113°29'531688.2
2015-Jan-24 09:25N 22°12' E 113°41'32344738.1
2015-Jan-24 09:24N 24°38' E 118°55'32835835.4
2015-Jan-24 09:24N 22°12' E 113°34'68516113.8
2015-Jan-24 09:21N 31°57' E 120°15'1 6.3
2015-Jan-24 09:12N 31°57' E 120°13'81127.9
2015-Jan-24 08:33N 31°06' E 121°28'7856495.9
2015-Jan-24 08:33N 31°60' E 120°20'7821563.2
2015-Jan-24 08:33N 31°07' E 121°28'7894149.0
2015-Jan-24 08:33N 31°58' E 120°18'138063.2
2015-Jan-24 08:33N 31°58' E 120°03'63811041.3
2015-Jan-24 08:30N 23°04' E 113°29'531566.6
2015-Jan-24 08:28N 22°12' E 113°34'1211121.3
2015-Jan-24 08:27N 22°20' E 113°44'69123252.7
2015-Jan-24 08:26N 31°58' E 120°50'4527784.1
2015-Jan-24 08:22N 24°38' E 118°54'2988861.6
2015-Jan-24 08:20N 22°18' E 114°08'30297.1
2015-Jan-24 08:14N 22°14' E 113°35'17777.4
2015-Jan-24 08:13N 22°27' E 113°48'6775933.6
2015-Jan-24 08:06N 31°24' E 121°31'44815502.6
2015-Jan-24 08:04N 24°23' E 118°40'431835.1
2015-Jan-24 07:33N 31°07' E 121°28'8333273.2
2015-Jan-24 07:33N 31°55' E 120°08'146482.5
2015-Jan-24 07:33N 32°01' E 120°24'7310993.7
2015-Jan-24 07:33N 31°11' E 121°28'68387771.7
2015-Jan-24 07:32N 22°14' E 113°35'29123842.8
2015-Jan-24 07:31N 24°14' E 118°24'27526052.0
2015-Jan-24 07:31N 22°27' E 113°48'412255.0
2015-Jan-24 07:30N 23°04' E 113°29'531480.8
2015-Jan-24 07:27N 22°12' E 113°34'68228219.6
2015-Jan-24 07:26N 31°57' E 120°08'44210962.9
2015-Jan-24 07:24N 24°40' E 118°54'211233.9
2015-Jan-24 07:23N 24°23' E 118°41'447107366.8
2015-Jan-24 07:22N 31°24' E 121°31'481082.3
2015-Jan-24 07:20N 31°58' E 120°50'66242538.3
2015-Jan-24 07:19N 23°04' E 113°30'6622737.7
2015-Jan-24 07:04N 31°59' E 120°49'1833.8
2015-Jan-24 06:33N 32°02' E 120°29'7544881.7
2015-Jan-24 06:33N 31°07' E 121°28'837486.5
2015-Jan-24 06:32N 31°55' E 120°08'2439.7
2015-Jan-24 06:32N 31°56' E 120°11'7913466.8
2015-Jan-24 06:32N 31°15' E 121°29'68763385.2
2015-Jan-24 06:31N 22°14' E 113°35'5022462.8
2015-Jan-24 06:31N 23°04' E 113°30'6614161.0
2015-Jan-24 06:21N 32°00' E 120°46'6615996.7
2015-Jan-24 06:15N 23°04' E 113°29'65857781.6
2015-Jan-24 06:14N 31°24' E 121°30'76112.4
2015-Jan-24 05:33N 31°55' E 120°08'83299420.4
2015-Jan-24 05:33N 31°07' E 121°28'67241465.5
2015-Jan-24 05:33N 31°60' E 120°39'213095.5
2015-Jan-24 05:33N 31°57' E 120°15'163119.7
2015-Jan-24 05:32N 32°01' E 120°33'69589384.3
2015-Jan-24 05:32N 22°14' E 113°35'69110545.9
2015-Jan-24 05:28N 31°18' E 121°34'65526214.4
2015-Jan-24 05:27N 23°04' E 113°29'533645.8
2015-Jan-24 05:26N 22°12' E 113°34'53197.2
2015-Jan-24 05:10N 23°04' E 113°30'66279404.2
2015-Jan-24 05:09N 31°58' E 120°50'1 2.1
2015-Jan-24 04:33N 31°59' E 120°50'153612.5
2015-Jan-24 04:33N 32°01' E 120°32'54761.4
2015-Jan-24 04:33N 32°00' E 120°38'161047.1
2015-Jan-24 04:32N 31°58' E 120°19'7712114.3
2015-Jan-24 04:32N 31°07' E 121°28'151176.7
2015-Jan-24 04:31N 31°22' E 121°30'65628116.4
2015-Jan-24 04:30N 23°04' E 113°29'0 4.2
2015-Jan-24 04:27N 23°04' E 113°29'531841.3
2015-Jan-24 04:26N 22°12' E 113°34'52858.1
2015-Jan-24 04:22N 23°04' E 113°29'6119.8
2015-Jan-24 04:19N 23°02' E 113°22'43426.0
2015-Jan-24 04:13N 22°27' E 113°48'17217.1
2015-Jan-24 04:08N 22°14' E 113°35'504304.1
2015-Jan-24 04:07N 23°04' E 113°29'6601175.1
2015-Jan-24 03:33N 32°00' E 120°43'660169629.4
2015-Jan-24 03:33N 23°04' E 113°29'648388956.5
2015-Jan-24 03:33N 31°58' E 120°23'132466.3
2015-Jan-24 03:33N 31°55' E 120°08'834679.2
2015-Jan-24 03:32N 31°07' E 121°28'645773447.3
2015-Jan-24 03:32N 23°05' E 113°28'31411204.0
2015-Jan-24 03:30N 24°41' E 118°55'31346993.5
2015-Jan-24 03:30N 23°04' E 113°29'30821765.2
2015-Jan-24 03:29N 24°46' E 118°47'30811813.1
2015-Jan-24 03:27N 23°04' E 113°29'661198354.6
2015-Jan-24 03:27N 32°01' E 120°44'661742.3
2015-Jan-24 02:34N 23°04' E 113°29'646116191.3
2015-Jan-24 02:33N 31°58' E 120°19'434781496.6
2015-Jan-24 02:33N 24°50' E 118°55'430309866.7
2015-Jan-24 02:33N 31°55' E 120°08'132001.3
2015-Jan-24 02:33N 31°58' E 120°24'648259342.7
2015-Jan-24 02:33N 23°04' E 113°29'3147444.8
2015-Jan-24 02:30N 24°41' E 118°56'42673058.7
2015-Jan-24 02:30N 31°25' E 121°32'42419833.3
2015-Jan-24 02:28N 24°46' E 118°47'30810352.9
2015-Jan-24 02:27N 23°04' E 113°29'503748.2
2015-Jan-24 02:26N 22°14' E 113°35'70310816.0
2015-Jan-24 02:22N 32°02' E 120°50'646189.1
2015-Jan-24 02:21N 31°07' E 121°28'6829787.5
2015-Jan-24 02:17N 22°12' E 113°34'5372.2
2015-Jan-24 01:33N 23°04' E 113°29'31440390.4
2015-Jan-24 01:33N 24°50' E 118°53'43170513.1
2015-Jan-24 01:32N 31°55' E 120°10'42881024.9
2015-Jan-24 01:32N 24°53' E 118°57'42829642.9
2015-Jan-24 01:31N 31°56' E 120°12'64125070.1
2015-Jan-24 01:30N 23°04' E 113°29'50924.8
2015-Jan-24 01:26N 22°14' E 113°35'68019424.6
2015-Jan-24 01:24N 31°07' E 121°28'751242.0
2015-Jan-24 01:21N 31°58' E 120°24'64812480.9
2015-Jan-24 01:18N 23°04' E 113°29'41619.3
2015-Jan-24 01:14N 22°27' E 113°48'2767631.1
2015-Jan-24 01:11N 24°13' E 118°25'48720623.5
2015-Jan-24 01:10N 32°02' E 120°52'6661085.7
2015-Jan-24 00:33N 23°04' E 113°29'1383.2
2015-Jan-24 00:33N 23°04' E 113°29'648116704.3
2015-Jan-24 00:33N 31°58' E 120°24'43235371.3
2015-Jan-24 00:32N 24°53' E 118°57'428307894.7
2015-Jan-24 00:32N 31°55' E 120°10'67924943.9
2015-Jan-24 00:30N 22°14' E 113°35'504284.6
2015-Jan-24 00:30N 23°04' E 113°29'2801950.2
2015-Jan-24 00:21N 24°14' E 118°25'17805.7
2015-Jan-24 00:20N 24°23' E 118°41'23174.8
2015-Jan-24 00:12N 24°41' E 118°56'33124792.9
2015-Jan-24 00:11N 22°12' E 113°34'3314222.8
2015-Jan-24 00:06N 24°41' E 118°56'314572.9
2015-Jan-23 23:34N 23°04' E 113°29'642100546.0
2015-Jan-23 23:33N 31°57' E 120°14'642144501.1
2015-Jan-23 23:33N 23°04' E 113°30'31545292.1
2015-Jan-23 23:32N 24°41' E 118°57'44410183.8
2015-Jan-23 23:30N 31°58' E 120°24'47735749.8
2015-Jan-23 23:29N 24°13' E 118°25'2806755.6
2015-Jan-23 23:27N 23°04' E 113°29'531254.5
2015-Jan-23 23:24N 22°12' E 113°34'6829866.2
2015-Jan-23 23:20N 31°07' E 121°28'80351.2
2015-Jan-23 23:06N 31°57' E 120°15'682223264.0
2015-Jan-23 23:06N 22°14' E 113°36'511021.9
2015-Jan-23 23:03N 23°04' E 113°29'6491309.8
2015-Jan-23 22:33N 31°60' E 120°22'1671.2
2015-Jan-23 22:33N 31°59' E 120°21'2309.5
2015-Jan-23 22:33N 31°58' E 120°24'6482333740.6
2015-Jan-23 22:33N 23°04' E 113°29'1330.4
2015-Jan-23 22:33N 23°04' E 113°30'64433113.7
2015-Jan-23 22:32N 31°07' E 121°28'64419005.7
2015-Jan-23 22:30N 23°04' E 113°29'64718064.7
2015-Jan-23 22:27N 31°59' E 120°20'43319477.3
2015-Jan-23 22:26N 24°53' E 118°57'3341718.7
2015-Jan-23 22:14N 22°14' E 113°36'366.4
2015-Jan-23 22:12N 22°12' E 113°34'70421856.2
2015-Jan-23 22:10N 32°00' E 120°49'6631091.7
2015-Jan-23 21:34N 23°04' E 113°29'645165864.3
2015-Jan-23 21:33N 31°57' E 120°18'112678.5
2015-Jan-23 21:33N 32°02' E 120°30'74984.2
2015-Jan-23 21:33N 31°58' E 120°24'5648.2
2015-Jan-23 21:32N 32°02' E 120°27'693498843.3
2015-Jan-23 21:32N 22°14' E 113°36'501140.8
2015-Jan-23 21:30N 23°04' E 113°30'0 7.4
2015-Jan-23 21:27N 23°04' E 113°29'0 4.2
2015-Jan-23 21:24N 23°04' E 113°29'6448108.5
2015-Jan-23 21:19N 31°07' E 121°28'68215164.7
2015-Jan-23 21:17N 22°12' E 113°34'699970.3
2015-Jan-23 20:33N 31°60' E 120°38'657157721.4
2015-Jan-23 20:33N 23°04' E 113°29'642577707.0
2015-Jan-23 20:33N 31°56' E 120°15'83206.7
2015-Jan-23 20:33N 31°58' E 120°24'68359952.6
2015-Jan-23 20:32N 22°18' E 113°39'33069839.8
2015-Jan-23 20:32N 24°53' E 118°57'43752411.4
2015-Jan-23 20:32N 32°00' E 120°37'65719869.3
2015-Jan-23 20:30N 23°04' E 113°29'64417049.2
2015-Jan-23 20:27N 31°07' E 121°28'644289880.8
2015-Jan-23 20:27N 23°04' E 113°29'1 5.2
2015-Jan-23 20:21N 23°04' E 113°30'662836.1
2015-Jan-23 19:33N 32°00' E 120°47'662595652.8
2015-Jan-23 19:33N 23°04' E 113°29'648291721.9
2015-Jan-23 19:33N 31°58' E 120°24'132262.4
2015-Jan-23 19:33N 31°56' E 120°08'428513710.5
2015-Jan-23 19:33N 24°53' E 118°57'44012177.7
2015-Jan-23 19:30N 32°02' E 120°44'66210098.6
2015-Jan-23 19:27N 23°04' E 113°29'64466251.2
2015-Jan-23 19:26N 31°07' E 121°28'644178305.7
2015-Jan-23 19:26N 23°04' E 113°30'123.1
2015-Jan-23 19:24N 23°04' E 113°29'53627.9
2015-Jan-23 19:19N 22°12' E 113°34'33517713.4
2015-Jan-23 19:18N 24°46' E 118°58'318428.6
2015-Jan-23 18:34N 23°04' E 113°29'644463741.7
2015-Jan-23 18:33N 31°07' E 121°28'7512839.4
2015-Jan-23 18:33N 31°58' E 120°24'43253666.7
2015-Jan-23 18:33N 24°53' E 118°57'4388262.8
2015-Jan-23 18:29N 32°00' E 120°48'66210782.0
2015-Jan-23 18:26N 23°04' E 113°30'534973.9
2015-Jan-23 18:25N 22°12' E 113°34'6808805.3
2015-Jan-23 18:20N 31°58' E 120°01'66117356.9
2015-Jan-23 18:18N 22°27' E 113°48'41837.4
2015-Jan-23 18:15N 23°04' E 113°29'018.2
2015-Jan-23 18:15N 23°04' E 113°29'0 0.3
2015-Jan-23 17:33N 23°04' E 113°29'6622383387.6
2015-Jan-23 17:33N 32°00' E 120°48'43833580.1
2015-Jan-23 17:33N 24°53' E 118°57'397357723.7
2015-Jan-23 17:33N 31°07' E 121°28'68228565.2
2015-Jan-23 17:31N 22°12' E 113°34'207154.5
2015-Jan-23 17:31N 22°27' E 113°48'41648.0
2015-Jan-23 17:27N 23°04' E 113°29'017.1
2015-Jan-23 17:27N 23°04' E 113°29'6392517.8
2015-Jan-23 17:11N 32°03' E 119°56'43448779.6
2015-Jan-23 17:11N 24°53' E 118°55'317379822.0
2015-Jan-23 17:11N 23°04' E 113°30'6488515.7
2015-Jan-23 17:06N 31°58' E 120°24'6481188.3
2015-Jan-23 16:33N 23°04' E 113°29'644257634.2
2015-Jan-23 16:33N 31°07' E 121°28'7553895.4
2015-Jan-23 16:33N 31°58' E 120°24'202441.5
2015-Jan-23 16:33N 32°00' E 120°48'438315640.5
2015-Jan-23 16:33N 24°53' E 118°57'2284.3
2015-Jan-23 16:32N 24°53' E 118°55'428102684.8
2015-Jan-23 16:32N 31°46' E 120°59'69839878.2
2015-Jan-23 16:31N 22°12' E 113°34'234285.9
2015-Jan-23 16:31N 22°27' E 113°53'43628.9
2015-Jan-23 16:27N 23°04' E 113°29'033.8
2015-Jan-23 16:26N 23°04' E 113°30'411055.0
2015-Jan-23 16:23N 22°27' E 113°48'41301.0
2015-Jan-23 16:15N 23°04' E 113°29'662952.3
2015-Jan-23 15:33N 32°00' E 120°48'66258129.7
2015-Jan-23 15:33N 23°04' E 113°29'31736835.9
2015-Jan-23 15:32N 24°53' E 118°55'43313196.1
2015-Jan-23 15:30N 31°58' E 120°24'758420.7
2015-Jan-23 15:30N 31°07' E 121°28'644193228.5
2015-Jan-23 15:30N 23°04' E 113°29'6585953.1
2015-Jan-23 15:23N 31°51' E 120°53'65834342.5
2015-Jan-23 15:22N 23°04' E 113°29'40147.1
2015-Jan-23 15:05N 22°27' E 113°46'401049.4
2015-Jan-23 15:03N 23°04' E 113°29'6481305.5
2015-Jan-23 14:33N 31°58' E 120°24'438526045.3
2015-Jan-23 14:33N 24°47' E 118°53'445123101.0
2015-Jan-23 14:33N 32°00' E 120°48'662148959.5
2015-Jan-23 14:33N 23°04' E 113°29'5314761.1
2015-Jan-23 14:33N 22°11' E 113°35'690828547.6
2015-Jan-23 14:33N 32°15' E 119°52'64719904.5
2015-Jan-23 14:31N 23°04' E 113°29'0 1.9
2015-Jan-23 14:27N 23°04' E 113°29'64411257.6
2015-Jan-23 14:24N 31°07' E 121°28'64419991.3
2015-Jan-23 14:22N 23°04' E 113°29'6624787.7
2015-Jan-23 14:13N 31°58' E 120°51'662987.6
2015-Jan-23 13:33N 23°04' E 113°29'662264821.0
2015-Jan-23 13:33N 32°00' E 120°48'70390338.7
2015-Jan-23 13:33N 22°11' E 113°37'531709.8
2015-Jan-23 13:31N 23°04' E 113°29'644165641.5
2015-Jan-23 13:31N 31°07' E 121°28'6444350.6
2015-Jan-23 13:22N 23°04' E 113°29'412369.2
2015-Jan-23 13:21N 22°27' E 113°48'31145.2
2015-Jan-23 13:08N 22°57' E 113°36'6651167.2
2015-Jan-23 12:34N 32°00' E 120°48'663125576.9
2015-Jan-23 12:33N 23°05' E 113°27'21554.3
2015-Jan-23 12:33N 23°04' E 113°29'0 8.5
2015-Jan-23 12:31N 23°04' E 113°29'401094.5
2015-Jan-23 12:29N 22°27' E 113°48'19277.6
2015-Jan-23 12:24N 22°11' E 113°37'5362.6
2015-Jan-23 11:33N 23°04' E 113°29'4114931.2
2015-Jan-23 11:33N 22°27' E 113°48'67897636.0
2015-Jan-23 11:33N 31°60' E 120°36'65639359.3
2015-Jan-23 11:32N 23°04' E 113°29'64416330.8
2015-Jan-23 11:29N 31°07' E 121°28'6603273.4
2015-Jan-23 11:17N 22°31' E 113°46'22266.8
2015-Jan-23 11:12N 22°11' E 113°37'5382.9
2015-Jan-23 10:33N 23°04' E 113°29'66229769.3
2015-Jan-23 10:32N 31°60' E 120°47'764069.9
2015-Jan-23 10:31N 31°09' E 121°53'660158454.3
2015-Jan-23 10:31N 23°04' E 113°29'65563727.7
2015-Jan-23 10:30N 32°01' E 120°32'722810.4
2015-Jan-23 10:29N 31°07' E 121°28'6819222.6
2015-Jan-23 10:24N 22°11' E 113°37'6924409.0
2015-Jan-23 10:15N 31°59' E 120°27'768.6
2015-Jan-23 10:09N 31°57' E 120°19'84142.9
2015-Jan-23 09:34N 31°16' E 121°45'661793224.5
2015-Jan-23 09:33N 23°04' E 113°29'662183265.8
2015-Jan-23 09:33N 32°00' E 120°47'172398.7
2015-Jan-23 09:33N 31°59' E 120°27'4265.3
2015-Jan-23 09:32N 32°01' E 120°31'65435165.6
2015-Jan-23 09:31N 23°04' E 113°29'64449294.3
2015-Jan-23 09:30N 31°57' E 120°17'68522422.2
2015-Jan-23 09:28N 22°11' E 113°37'192837.9
2015-Jan-23 09:28N 22°27' E 113°48'5104.9
2015-Jan-23 09:25N 22°26' E 113°53'66115966.3
2015-Jan-23 09:23N 31°07' E 121°28'6445199.4
2015-Jan-23 09:15N 23°04' E 113°29'0 0.2
2015-Jan-23 08:33N 23°04' E 113°29'634456166.1
2015-Jan-23 08:33N 30°59' E 121°20'7620967.0
2015-Jan-23 08:33N 31°59' E 120°27'798332.8
2015-Jan-23 08:32N 31°21' E 121°48'5614406.4
2015-Jan-23 08:32N 31°53' E 120°54'354864.7
2015-Jan-23 08:32N 31°56' E 120°12'64144355.3
2015-Jan-23 08:31N 23°04' E 113°29'4114849.0
2015-Jan-23 08:31N 22°27' E 113°48'67723654.2
2015-Jan-23 08:29N 32°01' E 120°31'69630918.3
2015-Jan-23 08:28N 22°11' E 113°37'53948.3
2015-Jan-23 08:24N 23°04' E 113°29'647765.7
2015-Jan-23 07:33N 31°11' E 121°28'215349.5
2015-Jan-23 07:33N 31°27' E 121°44'668801372.5
2015-Jan-23 07:33N 23°04' E 113°29'651167309.9
2015-Jan-23 07:33N 31°59' E 120°27'69222437.9
2015-Jan-23 07:31N 22°11' E 113°37'192102.9
2015-Jan-23 07:31N 22°27' E 113°48'4114845.1
2015-Jan-23 07:30N 23°04' E 113°29'65431002.5
2015-Jan-23 07:29N 32°01' E 120°31'772286.1
2015-Jan-23 07:27N 31°01' E 121°27'6393249.9
2015-Jan-23 07:15N 23°04' E 113°29'66010422.1
2015-Jan-23 07:11N 31°45' E 121°05'6601043.0
2015-Jan-23 06:34N 23°04' E 113°29'65173202.6
2015-Jan-23 06:33N 31°59' E 120°27'421950.6
2015-Jan-23 06:32N 31°41' E 121°12'694104171.9
2015-Jan-23 06:31N 22°14' E 113°41'67533774.8
2015-Jan-23 06:30N 31°06' E 121°28'64314202.6
2015-Jan-23 06:27N 23°04' E 113°29'415493.9
2015-Jan-23 06:27N 22°27' E 113°48'65919278.1
2015-Jan-23 06:25N 31°01' E 121°29'3246048.3
2015-Jan-23 06:22N 25°56' E 119°23'3702095.4
2015-Jan-23 06:11N 32°01' E 120°31'5079.2
2015-Jan-23 05:33N 31°34' E 121°20'50178744.2
2015-Jan-23 05:33N 32°01' E 120°31'654471155.1
2015-Jan-23 05:33N 23°04' E 113°29'6481166098.4
2015-Jan-23 05:33N 31°12' E 121°29'7142654.4
2015-Jan-23 05:33N 31°59' E 120°27'68319049.6
2015-Jan-23 05:31N 22°18' E 113°44'664341279.1
2015-Jan-23 05:31N 30°59' E 121°24'63699561.4
2015-Jan-23 05:31N 23°04' E 113°29'36616256.1
2015-Jan-23 05:29N 25°57' E 119°23'3714033.6
2015-Jan-23 05:24N 22°27' E 113°48'32144.1
2015-Jan-23 05:10N 22°57' E 113°36'99024419.3
2015-Jan-23 05:08N 37°35' E 122°25'370642.4
2015-Jan-23 04:33N 31°28' E 121°28'662238320.2
2015-Jan-23 04:33N 23°04' E 113°25'452482.0
2015-Jan-23 04:32N 22°23' E 113°45'68024496.8
2015-Jan-23 04:31N 31°21' E 121°32'67548605.2
2015-Jan-23 04:30N 22°27' E 113°48'37135135.2
2015-Jan-23 04:29N 25°57' E 119°23'36812614.5
2015-Jan-23 04:27N 22°26' E 113°53'672219904.1
2015-Jan-23 04:27N 31°59' E 120°27'486.4
2015-Jan-23 04:24N 32°01' E 120°31'67232238.4
2015-Jan-23 04:23N 22°34' E 113°47'10106447.3
2015-Jan-23 04:14N 37°39' E 122°25'4063540.1
2015-Jan-23 04:07N 30°57' E 121°13'6431100.5
2015-Jan-23 03:32N 22°29' E 113°52'672302212.6
2015-Jan-23 03:32N 31°22' E 121°30'3438018.6
2015-Jan-23 03:29N 25°57' E 119°23'34537675.7
2015-Jan-23 03:28N 31°24' E 121°31'65815193.8
2015-Jan-23 03:26N 23°04' E 113°29'411977.5
2015-Jan-23 03:25N 22°27' E 113°48'67311650.6
2015-Jan-23 03:21N 31°59' E 120°27'49461295.4
2015-Jan-23 03:21N 23°60' E 118°13'2614296.1
2015-Jan-23 03:17N 22°28' E 113°47'101359786.6
2015-Jan-23 03:16N 37°33' E 122°32'3754183.9
2015-Jan-23 03:11N 31°21' E 121°32'6721083.1
2015-Jan-23 02:33N 22°27' E 113°53'671219452.5
2015-Jan-23 02:33N 31°59' E 120°27'656171.2
2015-Jan-23 02:33N 31°22' E 121°30'6711207126.5
2015-Jan-23 02:33N 22°28' E 113°55'7632.3
2015-Jan-23 02:32N 22°27' E 113°48'675243004.4
2015-Jan-23 02:32N 31°22' E 121°30'3437350.8
2015-Jan-23 02:29N 25°57' E 119°23'3696708.0
2015-Jan-23 02:26N 32°01' E 120°31'12375.8
2015-Jan-23 02:24N 31°58' E 120°17'4362020.0
2015-Jan-23 02:11N 24°49' E 118°49'306493.2
2015-Jan-23 01:33N 22°28' E 113°52'672345756.2
2015-Jan-23 01:33N 32°01' E 120°26'5677.9
2015-Jan-23 01:33N 31°59' E 120°20'7136354.3
2015-Jan-23 01:33N 31°22' E 121°30'414496416.3
2015-Jan-23 01:33N 24°52' E 118°54'31513189.5
2015-Jan-23 01:31N 22°27' E 113°48'67313539.0
2015-Jan-23 01:28N 31°59' E 120°27'6682296.2
2015-Jan-23 01:11N 22°29' E 113°56'67210617.5
2015-Jan-23 01:07N 31°33' E 121°20'6761209.0
2015-Jan-23 00:34N 22°28' E 113°52'671241578.9
2015-Jan-23 00:33N 32°01' E 120°25'6810677.5
2015-Jan-23 00:33N 31°22' E 121°30'67550628.4
2015-Jan-23 00:32N 22°27' E 113°48'317162874.5
2015-Jan-23 00:32N 24°53' E 118°55'30992819.0
2015-Jan-23 00:32N 22°29' E 113°56'66880131.8
2015-Jan-23 00:31N 31°59' E 120°27'22233.4
2015-Jan-23 00:26N 31°59' E 120°00'6416011.5
2015-Jan-23 00:19N 22°57' E 113°36'39242.7
2015-Jan-23 00:10N 22°19' E 113°47'321515.9
2015-Jan-22 23:32N 24°53' E 118°55'32226343.4
2015-Jan-22 23:32N 22°16' E 113°48'683223454.3
2015-Jan-22 23:31N 31°59' E 120°27'181224.4
2015-Jan-22 23:31N 31°58' E 120°06'217483.3
2015-Jan-22 23:30N 32°02' E 120°30'6753282.8
2015-Jan-22 23:18N 22°28' E 113°52'662883.8
2015-Jan-22 22:33N 31°57' E 120°13'665119650.3
2015-Jan-22 22:33N 22°27' E 113°48'31643822.6
2015-Jan-22 22:32N 24°53' E 118°55'43431257.6
2015-Jan-22 22:31N 31°59' E 120°27'6833181.1
2015-Jan-22 22:19N 22°12' E 113°55'17147.0
2015-Jan-22 22:11N 22°29' E 113°51'6681003.6
2015-Jan-22 21:32N 31°59' E 120°21'517598.0
2015-Jan-22 21:32N 31°59' E 120°27'67018998.2
2015-Jan-22 21:29N 22°29' E 113°51'313376192.6
2015-Jan-22 21:29N 24°53' E 118°55'4399400.8
2015-Jan-22 21:27N 32°01' E 120°44'68338394.4
2015-Jan-22 21:25N 22°27' E 113°48'666.9
2015-Jan-22 21:21N 22°24' E 113°54'314390.7
2015-Jan-22 20:32N 24°53' E 118°55'31435269.5
2015-Jan-22 20:32N 22°28' E 113°52'68217534.4
2015-Jan-22 20:29N 31°59' E 120°51'21892.0
2015-Jan-22 20:28N 31°59' E 120°27'434466.7
2015-Jan-22 19:32N 24°53' E 118°55'43211785.3
2015-Jan-22 19:30N 31°52' E 120°54'24750.4
2015-Jan-22 19:28N 31°59' E 120°27'6737172.6
2015-Jan-22 19:23N 22°12' E 114°16'28100.8
2015-Jan-22 19:06N 22°28' E 113°52'314557.3
2015-Jan-22 18:32N 24°53' E 118°55'31426871.5
2015-Jan-22 18:32N 22°28' E 113°52'671105000.2
2015-Jan-22 18:31N 31°59' E 120°27'6796463.2
2015-Jan-22 18:25N 22°23' E 113°45'574.6
2015-Jan-22 18:20N 22°27' E 113°48'417.1
2015-Jan-22 18:05N 22°24' E 113°44'813.4
2015-Jan-22 17:31N 22°28' E 113°52'143090.4
2015-Jan-22 17:31N 22°18' E 113°41'11375.0
2015-Jan-22 17:29N 22°27' E 113°48'67338470.2
2015-Jan-22 17:28N 31°59' E 120°27'3541513.8
2015-Jan-22 17:14N 26°08' E 119°34'83858.5
2015-Jan-22 17:08N 24°53' E 118°55'332566.8
2015-Jan-22 16:33N 22°13' E 113°37'32915360.6
2015-Jan-22 16:32N 24°48' E 118°53'32452996.6
2015-Jan-22 16:32N 22°18' E 113°40'68452427.0
2015-Jan-22 16:31N 31°59' E 120°27'16745.1
2015-Jan-22 16:30N 32°01' E 120°45'68335149.6
2015-Jan-22 16:28N 22°27' E 113°48'6754394.5
2015-Jan-22 16:19N 31°22' E 121°30'67239687.4
2015-Jan-22 16:18N 22°28' E 113°52'1926.2
2015-Jan-22 15:33N 22°14' E 113°36'69123049.6
2015-Jan-22 15:32N 31°21' E 121°31'665091.0
2015-Jan-22 15:31N 31°59' E 120°27'69211928.1
2015-Jan-22 15:27N 22°12' E 113°34'20132.0
2015-Jan-22 15:18N 22°27' E 113°48'66125592.4
2015-Jan-22 15:17N 31°59' E 120°01'85115.5
2015-Jan-22 14:33N 31°21' E 121°31'69257947.8
2015-Jan-22 14:32N 22°14' E 113°35'69034506.2
2015-Jan-22 14:31N 31°59' E 120°27'211811.8
2015-Jan-22 14:30N 31°57' E 120°52'70343627.8
2015-Jan-22 14:29N 22°12' E 113°34'20294.2
2015-Jan-22 14:25N 22°27' E 113°48'6417514.3
2015-Jan-22 14:20N 29°46' E 122°28'161196.4
2015-Jan-22 13:31N 32°00' E 120°45'1511027.5
2015-Jan-22 13:31N 31°59' E 120°27'6679742.3
2015-Jan-22 13:31N 31°21' E 121°31'773854.7
2015-Jan-22 13:30N 31°56' E 120°10'68345503.1
2015-Jan-22 13:29N 22°12' E 113°34'3266.2
2015-Jan-22 13:28N 22°14' E 113°35'65815900.8
2015-Jan-22 13:26N 29°52' E 122°22'6385206.5
2015-Jan-22 13:18N 22°28' E 113°52'426.7
2015-Jan-22 13:09N 22°28' E 113°56'6681048.6
2015-Jan-22 12:31N 31°59' E 120°27'69349879.2
2015-Jan-22 12:30N 22°12' E 113°35'385.1
2015-Jan-22 12:28N 22°14' E 113°35'20509.0
2015-Jan-22 12:26N 22°28' E 113°52'97421128.8
2015-Jan-22 12:23N 36°52' E 122°29'97631108.2
2015-Jan-22 12:21N 22°27' E 113°48'67813051.6
2015-Jan-22 12:18N 31°60' E 120°35'15167.4
2015-Jan-22 12:13N 31°58' E 120°18'66312054.8
2015-Jan-22 12:09N 22°28' E 113°56'0 0.0
2015-Jan-22 11:33N 22°28' E 113°56'672142303.2
2015-Jan-22 11:33N 32°02' E 120°31'69714664.7
2015-Jan-22 11:30N 22°12' E 113°35'99653512.9
2015-Jan-22 11:29N 36°54' E 122°25'3114779.5
2015-Jan-22 11:25N 31°59' E 120°27'67165264.5
2015-Jan-22 11:24N 22°28' E 113°52'3447.0
2015-Jan-22 11:24N 22°27' E 113°48'67511201.2
2015-Jan-22 11:20N 32°02' E 120°27'24205.2
2015-Jan-22 11:13N 32°01' E 119°58'660992.0
2015-Jan-22 10:33N 22°28' E 113°52'672172676.7
2015-Jan-22 10:33N 31°60' E 120°27'069.5
2015-Jan-22 10:33N 32°00' E 120°27'67048206.4
2015-Jan-22 10:32N 22°33' E 113°46'10751.8
2015-Jan-22 10:31N 22°27' E 113°55'66885914.6
2015-Jan-22 10:31N 31°60' E 120°23'67275598.6
2015-Jan-22 10:30N 22°27' E 113°48'67832995.9
2015-Jan-22 10:29N 32°04' E 120°28'22471.9
2015-Jan-22 10:26N 31°58' E 120°04'6783951.7
2015-Jan-22 10:16N 22°14' E 113°35'385.1
2015-Jan-22 10:14N 22°12' E 113°35'6834988.9
2015-Jan-22 10:06N 31°57' E 120°11'6611221.5
2015-Jan-22 09:33N 22°27' E 113°53'6751214999.7
2015-Jan-22 09:33N 32°02' E 120°32'5273.3
2015-Jan-22 09:32N 31°59' E 120°27'693146738.6
2015-Jan-22 09:32N 22°12' E 113°35'32113.8
2015-Jan-22 09:32N 22°14' E 113°35'172413.3
2015-Jan-22 09:31N 22°27' E 113°48'6642390312.4
2015-Jan-22 09:31N 31°57' E 120°11'5202.7
2015-Jan-22 09:30N 31°58' E 120°18'162194.5
2015-Jan-22 09:29N 32°01' E 120°36'62224.5
2015-Jan-22 09:13N 31°21' E 121°31'6721025.2
2015-Jan-22 08:33N 22°27' E 113°53'6742425046.0
2015-Jan-22 08:33N 32°03' E 120°26'676202819.5
2015-Jan-22 08:33N 22°27' E 113°48'670803693.8
2015-Jan-22 08:33N 31°59' E 120°20'199640.4
2015-Jan-22 08:33N 32°00' E 120°42'574580.7
2015-Jan-22 08:32N 31°21' E 121°31'6714090.3
2015-Jan-22 08:32N 31°59' E 120°27'69395945.9
2015-Jan-22 08:32N 22°12' E 113°35'68613578.0
2015-Jan-22 08:29N 31°57' E 120°17'62661.2
2015-Jan-22 08:23N 31°13' E 121°09'63270.3
2015-Jan-22 08:09N 31°59' E 120°20'2744.8
2015-Jan-22 07:33N 31°58' E 120°51'681408515.2
2015-Jan-22 07:33N 22°28' E 113°54'6712415982.3
2015-Jan-22 07:33N 32°01' E 120°25'674269716.2
2015-Jan-22 07:33N 22°27' E 113°48'676811729.3
2015-Jan-22 07:33N 32°02' E 120°28'3174.8
2015-Jan-22 07:32N 31°59' E 120°27'82137.1
2015-Jan-22 07:32N 32°01' E 120°36'67942877.7
2015-Jan-22 07:31N 22°27' E 113°48'675270175.0
2015-Jan-22 07:31N 31°21' E 121°32'69314252.0
2015-Jan-22 07:28N 22°14' E 113°35'68119763.7
2015-Jan-22 07:26N 31°56' E 120°13'335212.9
2015-Jan-22 07:25N 31°56' E 120°52'70312520.3
2015-Jan-22 07:22N 22°12' E 113°35'2429.6
2015-Jan-22 06:33N 22°28' E 113°54'51080.9
2015-Jan-22 06:33N 22°27' E 113°48'679610973.7
2015-Jan-22 06:33N 32°01' E 120°36'6112978.2
2015-Jan-22 06:33N 31°21' E 121°31'69230766.5
2015-Jan-22 06:31N 22°14' E 113°35'6966938.5
2015-Jan-22 06:25N 31°49' E 120°56'39525.8
2015-Jan-22 06:21N 31°23' E 121°30'511155.9
2015-Jan-22 06:18N 32°00' E 120°49'70416681.4
2015-Jan-22 06:16N 22°12' E 113°35'69710675.9
2015-Jan-22 06:12N 31°47' E 120°56'3656.4
2015-Jan-22 05:33N 31°21' E 121°27'5450.9
2015-Jan-22 05:33N 31°25' E 121°30'6731210859.9
2015-Jan-22 05:33N 22°29' E 113°54'67825431.5
2015-Jan-22 05:31N 31°56' E 120°53'68361442.3
2015-Jan-22 05:30N 22°27' E 113°48'68029159.4
2015-Jan-22 05:29N 31°46' E 121°04'7003601.0
2015-Jan-22 05:17N 22°12' E 113°35'323.1
2015-Jan-22 05:10N 22°14' E 113°35'70115569.3
2015-Jan-22 05:07N 32°01' E 120°46'6801214.2
2015-Jan-22 04:33N 22°28' E 113°54'68198081.4
2015-Jan-22 04:33N 32°01' E 120°47'484184.1
2015-Jan-22 04:32N 31°27' E 121°27'193131.8
2015-Jan-22 04:32N 31°41' E 121°11'69786543.8
2015-Jan-22 04:31N 22°14' E 113°35'350.6
2015-Jan-22 04:28N 22°12' E 113°35'207979.8
2015-Jan-22 04:28N 22°27' E 113°48'68410426.4
2015-Jan-22 04:24N 32°01' E 120°45'680810.5
2015-Jan-22 03:33N 22°28' E 113°54'67465584.2
2015-Jan-22 03:33N 31°29' E 121°24'692138484.1
2015-Jan-22 03:32N 22°16' E 113°37'69911335.2
2015-Jan-22 03:29N 32°01' E 120°47'6842463873.7
2015-Jan-22 03:29N 22°27' E 113°48'29020077.5
2015-Jan-22 03:28N 24°28' E 118°36'308100866.1
2015-Jan-22 03:28N 22°12' E 113°35'69917856.4
2015-Jan-22 03:25N 31°40' E 121°11'66519964.5
2015-Jan-22 03:23N 23°03' E 113°20'662792.4
2015-Jan-22 02:33N 31°46' E 120°57'251338.6
2015-Jan-22 02:32N 32°01' E 120°33'1242700.2
2015-Jan-22 02:32N 32°01' E 120°47'684117328.2
2015-Jan-22 02:32N 22°27' E 113°48'4317040.0
2015-Jan-22 02:32N 23°02' E 113°22'31180.5
2015-Jan-22 02:31N 23°03' E 113°25'66268110.4
2015-Jan-22 02:31N 31°40' E 121°11'6907480.4
2015-Jan-22 02:25N 22°19' E 113°40'32315092.6
2015-Jan-22 02:24N 24°51' E 118°51'30911705.6
2015-Jan-22 02:22N 22°29' E 113°52'243881.7
2015-Jan-22 02:22N 22°12' E 113°35'3321370.0
2015-Jan-22 02:08N 24°49' E 118°53'440775.9
2015-Jan-22 01:34N 32°02' E 120°26'4479293.3
2015-Jan-22 01:33N 31°40' E 121°11'2910528.0
2015-Jan-22 01:33N 32°01' E 120°47'684102660.6
2015-Jan-22 01:33N 22°27' E 113°48'31713734.4
2015-Jan-22 01:32N 24°53' E 118°55'33521552.6
2015-Jan-22 01:31N 22°12' E 113°35'69756994.0
2015-Jan-22 01:30N 31°46' E 120°57'65974116.5
2015-Jan-22 01:29N 23°03' E 113°25'6546942.2
2015-Jan-22 01:24N 31°59' E 120°27'6519635.6
2015-Jan-22 01:23N 31°24' E 121°31'6582369668.0
2015-Jan-22 01:23N 23°04' E 113°29'66226497.9
2015-Jan-22 01:22N 31°59' E 120°50'3 4.0
2015-Jan-22 00:33N 32°01' E 120°47'2952704.3
2015-Jan-22 00:33N 31°40' E 121°11'4784935.6
2015-Jan-22 00:33N 31°58' E 120°20'331662.8
2015-Jan-22 00:32N 31°46' E 120°57'67764117.6
2015-Jan-22 00:32N 22°27' E 113°48'4140.9
2015-Jan-22 00:30N 22°25' E 113°44'676221390.9
2015-Jan-22 00:30N 31°59' E 120°27'701630.3
2015-Jan-22 00:27N 31°19' E 121°34'65910224.8
2015-Jan-22 00:23N 23°04' E 113°25'5413772.1
2015-Jan-22 00:23N 22°11' E 113°37'33446204.3
2015-Jan-22 00:23N 24°53' E 118°55'403857.8
2015-Jan-22 00:22N 24°18' E 118°33'33744.8
2015-Jan-22 00:19N 24°46' E 118°53'3132127.7
2015-Jan-22 00:11N 23°04' E 113°29'651976.2
2015-Jan-21 23:31N 31°15' E 121°29'406104286.9
2015-Jan-21 23:30N 24°53' E 118°55'44065932.2
2015-Jan-21 23:30N 32°01' E 120°47'184852.5
2015-Jan-21 23:30N 31°59' E 120°27'67337874.7
2015-Jan-21 23:29N 22°27' E 113°48'28378496.0
2015-Jan-21 23:28N 24°18' E 118°32'1259337.7
2015-Jan-21 23:28N 23°05' E 116°43'568511245.0
2015-Jan-21 23:28N 31°40' E 121°11'141357.2
2015-Jan-21 23:27N 31°46' E 120°57'6568843.0
2015-Jan-21 23:22N 23°04' E 113°29'4108.0
2015-Jan-21 23:20N 23°04' E 113°25'6307268.0
2015-Jan-21 23:15N 30°57' E 121°11'63619406.6
2015-Jan-21 23:13N 22°45' E 113°39'34808.2
2015-Jan-21 23:11N 22°11' E 113°37'7032072.2
2015-Jan-21 22:50N 32°01' E 120°47'478101244.9
2015-Jan-21 22:50N 24°18' E 118°32'11926871.3
2015-Jan-21 22:50N 23°08' E 116°46'54489063.9
2015-Jan-21 22:49N 31°11' E 121°28'66682692.0
2015-Jan-21 22:49N 22°27' E 113°48'680203868.9
2015-Jan-21 22:49N 31°40' E 121°11'42584947.9
2015-Jan-21 22:48N 24°53' E 118°55'42721350.0
2015-Jan-21 22:47N 31°46' E 120°57'443756.2
2015-Jan-21 22:46N 31°11' E 121°28'608346.5
2015-Jan-21 22:46N 32°01' E 120°48'294744.6
2015-Jan-21 22:46N 31°40' E 121°11'66230167.6
2015-Jan-21 22:44N 23°04' E 113°25'18617615.9
2015-Jan-21 22:44N 23°09' E 116°47'1566947.3
2015-Jan-21 22:42N 24°53' E 118°55'43444670.7
2015-Jan-21 22:42N 31°59' E 120°27'651334749.3
2015-Jan-21 22:42N 23°04' E 113°29'4174058.8
2015-Jan-21 22:42N 22°27' E 113°48'28326130.7
2015-Jan-21 22:41N 24°18' E 118°32'46634245.0
2015-Jan-21 22:40N 31°46' E 120°57'66450897.8
2015-Jan-21 22:39N 22°49' E 113°36'6546725.4
2015-Jan-21 22:33N 31°10' E 121°28'6015550.7
2015-Jan-21 22:33N 32°00' E 120°49'192115.5
2015-Jan-21 22:33N 31°59' E 120°27'564507212.5
2015-Jan-21 22:33N 23°10' E 116°48'17277186.4
2015-Jan-21 22:32N 22°27' E 113°48'261349.1
2015-Jan-21 22:31N 22°50' E 113°35'31718421.7
2015-Jan-21 22:30N 24°53' E 118°55'31727165.8
2015-Jan-21 22:30N 23°04' E 113°29'532820.4
2015-Jan-21 22:28N 22°11' E 113°37'696100191.4
2015-Jan-21 22:28N 31°46' E 120°57'141859.5
2015-Jan-21 22:28N 31°40' E 121°11'42424.2
2015-Jan-21 22:22N 30°58' E 121°14'4252613.3
2015-Jan-21 22:12N 24°18' E 118°31'2904849.0
2015-Jan-21 22:08N 23°04' E 113°25'915.5
2015-Jan-21 21:33N 22°57' E 113°32'635142820.7
2015-Jan-21 21:33N 30°58' E 121°18'7567727.7
2015-Jan-21 21:33N 31°59' E 120°27'556500581.0
2015-Jan-21 21:33N 23°16' E 116°55'19446441.0
2015-Jan-21 21:32N 23°04' E 113°25'66423895.3
2015-Jan-21 21:31N 31°55' E 120°53'43565300.6
2015-Jan-21 21:30N 24°53' E 118°55'39683906.1
2015-Jan-21 21:30N 31°05' E 121°28'64385694.1
2015-Jan-21 21:30N 23°04' E 113°29'412389.3
2015-Jan-21 21:29N 22°27' E 113°48'28923087.0
2015-Jan-21 21:28N 24°25' E 118°35'457182617.3
2015-Jan-21 21:28N 31°40' E 121°11'46483507.9
2015-Jan-21 21:27N 24°18' E 118°30'46629944.7
2015-Jan-21 21:26N 31°46' E 120°57'67410025.9
2015-Jan-21 21:22N 22°28' E 113°53'670823.5
2015-Jan-21 20:34N 31°60' E 120°23'7855852.8
2015-Jan-21 20:33N 31°05' E 121°28'643771465.8
2015-Jan-21 20:33N 23°04' E 113°29'636326945.4
2015-Jan-21 20:33N 30°59' E 121°23'778637.0
2015-Jan-21 20:33N 31°59' E 120°27'65375869.9
2015-Jan-21 20:32N 23°04' E 113°25'661237813.9
2015-Jan-21 20:32N 31°50' E 120°55'4314.2
2015-Jan-21 20:31N 31°46' E 120°57'67787020.0
2015-Jan-21 20:31N 22°27' E 113°48'68012943.7
2015-Jan-21 20:28N 31°40' E 121°11'6782440284.7
2015-Jan-21 20:28N 22°26' E 113°53'442411.6
2015-Jan-21 20:27N 23°04' E 113°29'53303.4
2015-Jan-21 20:16N 22°11' E 113°37'3345313.8
2015-Jan-21 20:12N 24°53' E 118°55'323500.4
2015-Jan-21 19:33N 23°02' E 113°23'648212132.1
2015-Jan-21 19:33N 31°05' E 121°28'66076701.6
2015-Jan-21 19:33N 22°24' E 113°54'673346309.2
2015-Jan-21 19:33N 31°59' E 120°27'65394079.4
2015-Jan-21 19:32N 23°04' E 113°25'65840870.3
2015-Jan-21 19:31N 31°46' E 120°57'42724793.9
2015-Jan-21 19:30N 24°53' E 118°55'317162807.4
2015-Jan-21 19:30N 22°27' E 113°48'19504.8
2015-Jan-21 19:28N 22°11' E 113°37'305109768.9
2015-Jan-21 19:28N 24°25' E 118°35'29130858.0
2015-Jan-21 19:27N 23°04' E 113°29'65916483.6
2015-Jan-21 19:25N 31°40' E 121°11'40187.6
2015-Jan-21 19:12N 31°02' E 121°29'80124.4
2015-Jan-21 18:33N 32°00' E 120°23'7855866.2
2015-Jan-21 18:33N 31°05' E 121°28'651780932.1
2015-Jan-21 18:33N 23°03' E 113°16'32627925.1
2015-Jan-21 18:32N 24°50' E 118°53'31492.3
2015-Jan-21 18:32N 24°53' E 118°55'39725079.9
2015-Jan-21 18:31N 31°06' E 121°27'66250685.2
2015-Jan-21 18:31N 22°27' E 113°48'67347529.2
2015-Jan-21 18:30N 31°59' E 120°27'46514073.0
2015-Jan-21 18:28N 24°25' E 118°35'29128361.1
2015-Jan-21 18:27N 23°04' E 113°29'53812.4
2015-Jan-21 18:23N 22°11' E 113°37'69929585.6
2015-Jan-21 18:22N 31°40' E 121°11'1465.9
2015-Jan-21 18:09N 31°46' E 120°57'4473.6
2015-Jan-21 17:33N 31°11' E 121°28'444041.6
2015-Jan-21 17:33N 31°46' E 120°57'2914755.2
2015-Jan-21 17:33N 31°59' E 120°27'43471063.8
2015-Jan-21 17:32N 24°53' E 118°55'39659425.7
2015-Jan-21 17:32N 31°05' E 121°28'40761002.6
2015-Jan-21 17:31N 24°44' E 118°48'3073071.0
2015-Jan-21 17:25N 22°27' E 113°48'68062730.7
2015-Jan-21 17:25N 31°40' E 121°11'424285.6
2015-Jan-21 17:24N 32°02' E 120°30'65919448.0
2015-Jan-21 17:22N 23°02' E 113°24'52628.5
2015-Jan-21 17:17N 22°11' E 113°37'531509.8
2015-Jan-21 17:15N 23°04' E 113°29'6586595.3
2015-Jan-21 17:09N 31°30' E 121°22'0 0.0
2015-Jan-21 16:34N 31°30' E 121°22'42024386.8
2015-Jan-21 16:32N 24°50' E 118°55'31510608.7
2015-Jan-21 16:31N 22°27' E 113°48'67338478.2
2015-Jan-21 16:30N 31°59' E 120°27'692103835.3
2015-Jan-21 16:29N 22°11' E 113°37'69636836.4
2015-Jan-21 16:28N 32°01' E 120°32'65539942.8
2015-Jan-21 16:27N 23°04' E 113°29'95161135.5
2015-Jan-21 16:26N 36°54' E 122°25'32014577.0
2015-Jan-21 16:25N 31°40' E 121°11'384663.4
2015-Jan-21 16:24N 31°05' E 121°28'7587.1
2015-Jan-21 15:33N 31°59' E 120°27'4239.4
2015-Jan-21 15:32N 32°01' E 120°32'30722571.5
2015-Jan-21 15:31N 36°53' E 122°28'97746873.6
2015-Jan-21 15:30N 22°27' E 113°48'454802.0
2015-Jan-21 15:29N 21°58' E 113°11'70531738.2
2015-Jan-21 15:28N 31°05' E 121°28'64382639.8
2015-Jan-21 15:27N 23°04' E 113°29'53425.5
2015-Jan-21 15:20N 22°11' E 113°37'69811326.5
2015-Jan-21 15:16N 31°40' E 121°11'6646947.8
2015-Jan-21 15:10N 23°02' E 113°24'6618882.7
2015-Jan-21 15:06N 31°20' E 121°33'66122.1
2015-Jan-21 14:33N 32°01' E 120°32'720185085.1
2015-Jan-21 14:33N 21°58' E 113°11'720432131.3
2015-Jan-21 14:33N 31°46' E 120°57'69629465.1
2015-Jan-21 14:32N 22°11' E 113°37'69221298.0
2015-Jan-21 14:30N 31°59' E 120°27'664815.4
2015-Jan-21 14:29N 31°22' E 121°30'241665.6
2015-Jan-21 14:28N 31°40' E 121°11'68017349.2
2015-Jan-21 14:26N 22°27' E 113°48'427134.8
2015-Jan-21 14:25N 23°02' E 113°24'5276.4
2015-Jan-21 14:24N 23°04' E 113°29'6568942.7
2015-Jan-21 14:20N 31°22' E 121°29'719925.5
2015-Jan-21 13:33N 21°58' E 113°11'71685939.0
2015-Jan-21 13:33N 31°59' E 120°27'67323307.0
2015-Jan-21 13:31N 22°27' E 113°48'67717040.3
2015-Jan-21 13:29N 32°01' E 120°32'40368.2
2015-Jan-21 13:22N 31°40' E 121°11'6987023.7
2015-Jan-21 13:16N 22°11' E 113°37'536380.8
2015-Jan-21 13:16N 23°04' E 113°30'65621074.4
2015-Jan-21 13:14N 31°46' E 120°57'4972.7
2015-Jan-21 12:33N 31°05' E 121°28'705149363.3
2015-Jan-21 12:33N 21°58' E 113°11'72037017.0
2015-Jan-21 12:32N 32°01' E 120°32'4110.5
2015-Jan-21 12:30N 31°59' E 120°27'65118739.7
2015-Jan-21 12:28N 23°04' E 113°30'6597190.5
2015-Jan-21 12:22N 31°40' E 121°11'69811973.9
2015-Jan-21 12:19N 22°11' E 113°37'696925.6
2015-Jan-21 11:33N 32°01' E 120°32'720172744.9
2015-Jan-21 11:33N 21°58' E 113°11'71675825.9
2015-Jan-21 11:33N 31°59' E 120°27'751591.9
2015-Jan-21 11:30N 31°05' E 121°28'66137776.4
2015-Jan-21 11:29N 22°27' E 113°48'68062726.6
2015-Jan-21 11:28N 31°40' E 121°11'14583.7
2015-Jan-21 11:27N 31°46' E 120°57'69611231.2
2015-Jan-21 11:23N 22°11' E 113°37'680822.6
2015-Jan-21 10:33N 31°05' E 121°28'7051269588.4
2015-Jan-21 10:33N 21°58' E 113°11'71662879.1
2015-Jan-21 10:33N 31°59' E 120°27'69265575.2
2015-Jan-21 10:32N 22°11' E 113°37'69618554.3
2015-Jan-21 10:30N 32°01' E 120°32'67728009.2
2015-Jan-21 10:28N 22°27' E 113°48'680271820.7
2015-Jan-21 10:28N 31°40' E 121°11'232859.8
2015-Jan-21 10:28N 31°21' E 121°27'654147203.7
2015-Jan-21 10:27N 23°04' E 113°30'54192.2
2015-Jan-21 10:11N 22°10' E 113°32'6951098.4
2015-Jan-21 09:33N 31°59' E 120°27'642135.1
2015-Jan-21 09:31N 31°21' E 121°27'16485.3
2015-Jan-21 09:29N 31°05' E 121°28'684205079.3
2015-Jan-21 09:29N 22°10' E 113°32'702101073.4
2015-Jan-21 09:28N 31°40' E 121°11'680305798.7
2015-Jan-21 09:28N 22°27' E 113°48'413695.3
2015-Jan-21 09:27N 23°04' E 113°30'693426.4
2015-Jan-21 09:26N 21°58' E 113°11'72027582.7
2015-Jan-21 09:25N 31°46' E 120°57'45814218.0
2015-Jan-21 09:23N 24°25' E 118°38'4683909.8
2015-Jan-21 09:16N 31°58' E 120°50'7024006.9
2015-Jan-21 09:05N 22°11' E 113°37'6801282.5
2015-Jan-21 08:33N 31°05' E 121°28'429772265.5
2015-Jan-21 08:33N 24°24' E 118°35'41678845.4
2015-Jan-21 08:33N 30°58' E 121°06'7020877.2
2015-Jan-21 08:33N 31°59' E 120°27'71699154.9
2015-Jan-21 08:32N 21°58' E 113°11'452331.8
2015-Jan-21 08:31N 22°27' E 113°48'26323666.4
2015-Jan-21 08:30N 24°15' E 118°09'46130712.0
2015-Jan-21 08:29N 31°21' E 121°27'231129.1
2015-Jan-21 08:28N 31°40' E 121°11'65910316.5
2015-Jan-21 08:24N 23°04' E 113°30'65619506.8
2015-Jan-21 08:22N 31°46' E 120°57'45910519.4
2015-Jan-21 08:20N 24°24' E 118°37'2984356.4
2015-Jan-21 08:16N 23°02' E 113°24'66619174.8
2015-Jan-21 08:14N 31°58' E 120°50'662595473.5
2015-Jan-21 08:14N 23°04' E 113°30'531219.9
2015-Jan-21 08:11N 22°11' E 113°37'6931097.8
2015-Jan-21 07:33N 32°01' E 120°25'2239487.2
2015-Jan-21 07:33N 31°58' E 120°50'6325318.9
2015-Jan-21 07:33N 30°58' E 121°13'279670.1
2015-Jan-21 07:33N 31°21' E 121°27'6457651.7
2015-Jan-21 07:33N 31°59' E 120°27'65183702.7
2015-Jan-21 07:32N 23°05' E 113°28'65654928.0
2015-Jan-21 07:31N 31°46' E 120°57'67759422.6
2015-Jan-21 07:31N 22°27' E 113°48'19593.7
2015-Jan-21 07:29N 22°11' E 113°37'28132632.2
2015-Jan-21 07:28N 24°23' E 118°07'44039570.0
2015-Jan-21 07:28N 31°05' E 121°28'643136061.8
2015-Jan-21 07:27N 23°04' E 113°30'53746.8
2015-Jan-21 07:23N 22°11' E 113°25'7056202.5
2015-Jan-21 07:16N 31°40' E 121°11'6748820.3
2015-Jan-21 07:12N 22°14' E 114°22'6741058.1
2015-Jan-21 06:34N 32°02' E 120°30'7739445.9
2015-Jan-21 06:33N 30°59' E 121°21'434520203.0
2015-Jan-21 06:33N 24°24' E 117°58'45717867.4
2015-Jan-21 06:32N 31°21' E 121°27'232881.3
2015-Jan-21 06:31N 31°40' E 121°11'141834.9
2015-Jan-21 06:31N 31°46' E 120°57'69665908.3
2015-Jan-21 06:30N 22°11' E 113°37'69267343.7
2015-Jan-21 06:30N 31°59' E 120°27'71640921.1
2015-Jan-21 06:29N 21°58' E 113°11'4163398.2
2015-Jan-21 06:21N 25°57' E 119°23'10213628.6
2015-Jan-21 06:21N 24°24' E 118°37'2908615.2
2015-Jan-21 06:19N 22°27' E 113°48'68331537.1
2015-Jan-21 06:17N 31°58' E 120°50'6626386.6
2015-Jan-21 06:11N 23°04' E 113°29'6491030.9
2015-Jan-21 05:34N 31°58' E 120°25'46353725.5
2015-Jan-21 05:33N 24°26' E 118°32'29933629.9
2015-Jan-21 05:32N 22°14' E 113°40'38781875.5
2015-Jan-21 05:32N 25°58' E 119°25'3736677.4
2015-Jan-21 05:29N 22°27' E 113°48'457420.0
2015-Jan-21 05:28N 21°58' E 113°11'723867862.7
2015-Jan-21 05:28N 31°40' E 121°11'141651.1
2015-Jan-21 05:28N 31°46' E 120°57'363008.4
2015-Jan-21 05:27N 31°21' E 121°27'69637377.6
2015-Jan-21 05:26N 22°19' E 113°19'691165790.3
2015-Jan-21 05:26N 30°25' E 122°27'65230877.3
2015-Jan-21 05:25N 23°04' E 113°30'137.3
2015-Jan-21 05:23N 23°04' E 113°29'64318811.1
2015-Jan-21 05:21N 31°05' E 121°28'44213268.2
2015-Jan-21 05:19N 24°24' E 117°58'46917241.1
2015-Jan-21 05:18N 31°33' E 121°32'311802.6
2015-Jan-21 05:17N 31°03' E 121°29'64639.5
2015-Jan-21 05:11N 31°58' E 120°50'47913375.8
2015-Jan-21 05:09N 24°16' E 118°24'47411620.2
2015-Jan-21 05:06N 31°48' E 121°10'24867.6
2015-Jan-21 05:04N 32°01' E 120°46'53103.4
2015-Jan-21 04:34N 31°22' E 121°28'144418.5
2015-Jan-21 04:33N 31°08' E 121°27'775568.0
2015-Jan-21 04:33N 31°57' E 120°17'36159118.9
2015-Jan-21 04:32N 25°58' E 119°25'37320337.8
2015-Jan-21 04:31N 22°27' E 113°48'6859406.9
2015-Jan-21 04:27N 32°00' E 120°49'66399435.9
2015-Jan-21 04:26N 23°04' E 113°29'0 5.6
2015-Jan-21 04:25N 23°04' E 113°29'662264700.1
2015-Jan-21 04:25N 31°58' E 120°50'72721093.1
2015-Jan-21 04:22N 21°58' E 113°11'37805.6
2015-Jan-21 04:20N 22°18' E 113°44'26543301.4
2015-Jan-21 04:19N 24°24' E 117°58'4424398.2
2015-Jan-21 04:13N 31°05' E 121°28'38427.3
2015-Jan-21 04:08N 31°40' E 121°11'611056.4
2015-Jan-21 04:05N 31°58' E 120°02'6611263.4
2015-Jan-21 03:33N 22°27' E 113°48'375674865.7
2015-Jan-21 03:33N 25°59' E 119°27'38097823.5
2015-Jan-21 03:33N 22°22' E 113°45'691226308.2
2015-Jan-21 03:33N 31°24' E 121°47'174474.8
2015-Jan-21 03:32N 31°14' E 121°29'45124612.9
2015-Jan-21 03:31N 24°24' E 117°58'442199005.1
2015-Jan-21 03:31N 31°05' E 121°28'70532142.7
2015-Jan-21 03:30N 21°58' E 113°11'72751285.1
2015-Jan-21 03:29N 31°58' E 120°50'163.1
2015-Jan-21 03:28N 31°58' E 120°51'1346681.0
2015-Jan-21 03:28N 31°46' E 120°57'60219702.0
2015-Jan-21 03:26N 23°04' E 115°18'60411259.9
2015-Jan-21 03:23N 31°40' E 121°11'65927597.8
2015-Jan-21 03:22N 23°04' E 113°29'63930268.2
2015-Jan-21 03:20N 31°58' E 120°06'381514.1
2015-Jan-21 03:19N 31°51' E 120°50'1048.0
2015-Jan-21 03:06N 32°01' E 120°48'3259.3
2015-Jan-21 02:33N 31°57' E 120°10'663477590.7
2015-Jan-21 02:33N 22°27' E 113°48'681350354.0
2015-Jan-21 02:33N 31°19' E 121°46'333133152.2
2015-Jan-21 02:33N 26°07' E 119°33'34410873.0
2015-Jan-21 02:31N 31°40' E 121°11'72333379.3
2015-Jan-21 02:30N 21°58' E 113°11'724289462.8
2015-Jan-21 02:30N 31°56' E 120°48'393831.7
2015-Jan-21 02:29N 31°30' E 121°22'272722.9
2015-Jan-21 02:28N 31°46' E 120°57'131934.2
2015-Jan-21 02:28N 31°58' E 120°50'66211564.6
2015-Jan-21 02:25N 23°04' E 113°29'118.4
2015-Jan-21 02:22N 23°04' E 113°30'10226.5
2015-Jan-21 02:20N 23°03' E 113°19'996.1
2015-Jan-21 02:14N 23°04' E 113°29'6628820.7
2015-Jan-21 02:10N 31°46' E 121°07'4726515.3
2015-Jan-21 02:05N 24°16' E 118°24'45619086.0
2015-Jan-21 02:04N 31°21' E 121°32'57112.7
2015-Jan-21 01:33N 32°00' E 120°43'682245370.1
2015-Jan-21 01:33N 22°27' E 113°48'679610744.7
2015-Jan-21 01:33N 31°12' E 121°50'30107435.4
2015-Jan-21 01:33N 31°30' E 121°22'3912751.8
2015-Jan-21 01:33N 31°58' E 120°50'302146.8
2015-Jan-21 01:32N 31°57' E 120°15'313634.2
2015-Jan-21 01:32N 31°58' E 120°51'72716785.9
2015-Jan-21 01:29N 21°58' E 113°11'691444.5
2015-Jan-21 01:26N 23°04' E 113°29'0 1.7
2015-Jan-21 01:22N 23°04' E 113°29'65916368.0
2015-Jan-21 01:19N 31°40' E 121°11'45718483.4
2015-Jan-21 01:18N 24°25' E 118°35'2875518.6
2015-Jan-21 01:15N 22°31' E 113°48'3856.0
2015-Jan-21 00:33N 23°02' E 113°24'649779163.8
2015-Jan-21 00:33N 31°58' E 120°17'10021122.6
2015-Jan-21 00:33N 31°07' E 121°58'893143.8
2015-Jan-21 00:31N 32°00' E 120°34'721518855.4
2015-Jan-21 00:31N 21°58' E 113°11'723216965.7
2015-Jan-21 00:31N 31°40' E 121°11'67665820.9
2015-Jan-21 00:31N 22°30' E 113°48'681350259.2
2015-Jan-21 00:30N 31°58' E 120°51'66312894.0
2015-Jan-21 00:27N 23°04' E 113°29'122.6
2015-Jan-21 00:25N 23°04' E 113°30'141.3
2015-Jan-21 00:25N 23°04' E 113°29'2791112.7
2015-Jan-21 00:09N 24°16' E 118°24'284474.1
2015-Jan-20 23:33N 23°02' E 113°24'4112435.9
2015-Jan-20 23:33N 22°27' E 113°48'672151113.0
2015-Jan-20 23:33N 31°60' E 120°23'51057.5
2015-Jan-20 23:33N 32°02' E 120°28'4376692.8
2015-Jan-20 23:33N 31°40' E 121°11'72330275.6
2015-Jan-20 23:31N 21°58' E 113°11'68619458.0
2015-Jan-20 23:29N 29°52' E 122°22'714121.7
2015-Jan-20 23:28N 31°02' E 122°06'66450824.3
2015-Jan-20 23:27N 23°04' E 113°29'1 8.9
2015-Jan-20 23:22N 23°04' E 113°30'66245863.9
2015-Jan-20 23:22N 31°58' E 120°51'4804620.4
2015-Jan-20 23:15N 24°16' E 118°24'285408.4
2015-Jan-20 22:34N 23°02' E 113°24'660593937.2
2015-Jan-20 22:33N 31°46' E 120°56'299429.6
2015-Jan-20 22:33N 32°02' E 120°28'61644.1
2015-Jan-20 22:33N 31°59' E 120°22'4610938.8
2015-Jan-20 22:33N 31°40' E 121°11'92972.4
2015-Jan-20 22:33N 31°47' E 121°03'72433866.1
2015-Jan-20 22:31N 21°58' E 113°11'727523721.5
2015-Jan-20 22:31N 31°58' E 120°51'684123046.4
2015-Jan-20 22:31N 22°25' E 113°54'2725243.5
2015-Jan-20 22:28N 24°16' E 118°24'141.4
2015-Jan-20 22:26N 24°17' E 118°25'27790550.7
2015-Jan-20 22:26N 22°27' E 113°48'65416579.5
2015-Jan-20 22:23N 31°09' E 121°10'4272452.2
2015-Jan-20 22:13N 24°24' E 118°37'29343933.9
2015-Jan-20 22:12N 23°04' E 113°29'5 7.8
2015-Jan-20 21:34N 23°02' E 113°24'6611189057.4
2015-Jan-20 21:33N 32°01' E 120°35'373499.7
2015-Jan-20 21:33N 31°40' E 121°11'141038.1
2015-Jan-20 21:32N 31°46' E 120°56'131120.7
2015-Jan-20 21:31N 31°58' E 120°51'256545.8
2015-Jan-20 21:31N 31°59' E 120°21'71312836.7
2015-Jan-20 21:28N 21°58' E 113°11'72370353.4
2015-Jan-20 21:27N 31°52' E 120°53'65814815.5
2015-Jan-20 21:25N 23°04' E 113°29'3174922.1
2015-Jan-20 21:21N 24°53' E 118°55'438557.7
2015-Jan-20 20:34N 32°01' E 120°42'44455124.9
2015-Jan-20 20:33N 24°47' E 118°54'319104452.9
2015-Jan-20 20:33N 23°02' E 113°24'66780056.9
2015-Jan-20 20:32N 31°58' E 120°51'290.4
2015-Jan-20 20:31N 31°57' E 120°52'265131.3
2015-Jan-20 20:31N 31°59' E 120°21'462655.3
2015-Jan-20 20:30N 31°40' E 121°11'72354243.3
2015-Jan-20 20:29N 21°58' E 113°11'68616365.3
2015-Jan-20 20:27N 29°52' E 122°22'1366698.3
2015-Jan-20 20:25N 31°46' E 120°56'65539322.0
2015-Jan-20 20:24N 23°04' E 113°29'41237.4
2015-Jan-20 20:14N 22°27' E 113°48'2764384.3
2015-Jan-20 20:10N 24°17' E 118°25'47115422.4
2015-Jan-20 20:08N 31°47' E 121°03'6651147.0
2015-Jan-20 19:34N 23°02' E 113°24'6671201140.5
2015-Jan-20 19:33N 31°59' E 120°50'142117.3
2015-Jan-20 19:33N 31°46' E 120°56'6492.4
2015-Jan-20 19:32N 31°47' E 121°03'374475.9
2015-Jan-20 19:32N 31°59' E 120°21'251796.9
2015-Jan-20 19:31N 31°58' E 120°51'68126658.2
2015-Jan-20 19:29N 22°29' E 113°51'485439.4
2015-Jan-20 19:29N 21°58' E 113°11'692684.9
2015-Jan-20 19:27N 23°04' E 113°29'122.8
2015-Jan-20 19:25N 23°04' E 113°30'6595273.1
2015-Jan-20 19:18N 31°40' E 121°11'67913514.3
2015-Jan-20 19:15N 22°27' E 113°48'2774292.1
2015-Jan-20 19:11N 24°17' E 118°25'285455.8
2015-Jan-20 18:33N 23°02' E 113°24'6672400373.2
2015-Jan-20 18:33N 31°59' E 120°49'84838.1
2015-Jan-20 18:33N 31°52' E 120°54'2825421.7
2015-Jan-20 18:33N 31°59' E 120°21'673242308.7
2015-Jan-20 18:33N 22°26' E 113°45'67955563.8
2015-Jan-20 18:32N 31°46' E 120°56'72011995.7
2015-Jan-20 18:29N 21°58' E 113°11'692872.5
2015-Jan-20 18:27N 23°04' E 113°29'1 7.9
2015-Jan-20 18:22N 23°04' E 113°30'6593151.5
2015-Jan-20 18:09N 31°40' E 121°11'67711174.4
2015-Jan-20 18:05N 22°29' E 113°51'4177.9
2015-Jan-20 17:33N 23°02' E 113°24'663198845.9
2015-Jan-20 17:33N 31°47' E 120°60'2513103.8
2015-Jan-20 17:33N 31°30' E 121°22'145768.3
2015-Jan-20 17:33N 31°40' E 121°11'67952019.7
2015-Jan-20 17:32N 22°27' E 113°48'66830049.7
2015-Jan-20 17:31N 31°58' E 120°19'281246.3
2015-Jan-20 17:30N 31°58' E 120°51'156739.0
2015-Jan-20 17:29N 31°47' E 121°03'68172065.8
2015-Jan-20 17:29N 22°27' E 113°48'4523373.1
2015-Jan-20 17:29N 21°58' E 113°11'72011464.8
2015-Jan-20 17:25N 31°46' E 120°56'65562080.3
2015-Jan-20 17:24N 23°04' E 113°29'2891600.0
2015-Jan-20 17:14N 24°25' E 118°32'294441.3
2015-Jan-20 16:33N 23°02' E 113°24'4116579.1
2015-Jan-20 16:33N 22°27' E 113°48'679152866.2
2015-Jan-20 16:33N 31°40' E 121°11'262190.7
2015-Jan-20 16:32N 31°59' E 120°49'7278257.2
2015-Jan-20 16:27N 21°58' E 113°11'720107961.9
2015-Jan-20 16:27N 31°46' E 120°56'4384974.0
2015-Jan-20 16:21N 24°41' E 118°53'44910359.3
2015-Jan-20 16:19N 31°58' E 120°51'68843438.1
2015-Jan-20 16:18N 22°24' E 113°46'431041.1
2015-Jan-20 16:15N 23°04' E 113°29'5 7.2
2015-Jan-20 15:34N 23°02' E 113°24'324388628.0
2015-Jan-20 15:33N 24°47' E 118°59'443532007.9
2015-Jan-20 15:33N 32°00' E 120°46'726118873.3
2015-Jan-20 15:33N 21°58' E 113°11'72493044.1
2015-Jan-20 15:33N 31°38' E 121°15'191589.9
2015-Jan-20 15:32N 31°46' E 120°56'68546553.7
2015-Jan-20 15:31N 22°20' E 113°42'69389118.4
2015-Jan-20 15:31N 31°58' E 120°51'663265039.7
2015-Jan-20 15:30N 23°04' E 113°29'659158229.6
2015-Jan-20 15:30N 31°40' E 121°11'1247110.0
2015-Jan-20 15:29N 29°52' E 122°22'65514385.2
2015-Jan-20 15:26N 22°17' E 113°38'48208.0
2015-Jan-20 15:12N 23°04' E 113°29'41430.9
2015-Jan-20 15:07N 22°27' E 113°48'326590.2
2015-Jan-20 14:33N 24°54' E 119°06'34081712.2
2015-Jan-20 14:33N 22°14' E 113°38'5089723.1
2015-Jan-20 14:33N 23°02' E 113°24'4943734.9
2015-Jan-20 14:33N 22°14' E 113°35'2850458.7
2015-Jan-20 14:33N 21°58' E 113°11'7232601158.4
2015-Jan-20 14:33N 31°33' E 121°20'66459774.8
2015-Jan-20 14:32N 23°02' E 113°23'6642810.7
2015-Jan-20 14:18N 31°40' E 121°11'37250.0
2015-Jan-20 14:09N 32°00' E 120°34'6601102.5
2015-Jan-20 13:34N 23°02' E 113°24'659395394.2
2015-Jan-20 13:33N 32°02' E 120°30'696156632.0
2015-Jan-20 13:33N 22°13' E 113°34'2618638.9
2015-Jan-20 13:33N 21°58' E 113°11'72360534.3
2015-Jan-20 13:32N 31°30' E 121°25'363.6
2015-Jan-20 13:30N 31°30' E 121°22'14150.5
2015-Jan-20 13:24N 31°40' E 121°11'14215.5
2015-Jan-20 13:20N 31°46' E 120°56'13162.6
2015-Jan-20 13:16N 31°58' E 120°51'2433.7
2015-Jan-20 12:33N 31°60' E 120°24'31134978.7
2015-Jan-20 12:33N 36°54' E 122°26'336604590.3
2015-Jan-20 12:33N 31°21' E 121°31'661158604.6
2015-Jan-20 12:33N 23°02' E 113°24'655734.5
2015-Jan-20 12:32N 21°58' E 113°11'458178.5
2015-Jan-20 12:32N 22°27' E 113°48'679271425.4
2015-Jan-20 12:31N 31°28' E 121°28'6993059.2
2015-Jan-20 12:18N 22°12' E 113°34'53545.6
2015-Jan-20 12:12N 23°04' E 113°29'1767622.9
2015-Jan-20 12:11N 23°02' E 116°40'57227816.8
2015-Jan-20 12:09N 31°40' E 121°11'14160.1
2015-Jan-20 12:04N 31°46' E 120°56'5681113.7
2015-Jan-20 11:34N 23°04' E 116°43'566185081.8
2015-Jan-20 11:33N 31°57' E 120°17'649233549.8
2015-Jan-20 11:33N 23°02' E 113°24'662340622.1
2015-Jan-20 11:33N 31°30' E 121°22'8542.0
2015-Jan-20 11:32N 31°26' E 121°30'722173347.6
2015-Jan-20 11:32N 21°58' E 113°11'69911.6
2015-Jan-20 11:27N 23°04' E 113°29'64137800.6
2015-Jan-20 11:26N 32°05' E 119°56'3144138.3
2015-Jan-20 11:22N 36°54' E 122°25'31713108.2
2015-Jan-20 11:20N 31°46' E 120°56'69624096.3
2015-Jan-20 11:19N 22°12' E 113°34'69815050.4
2015-Jan-20 11:16N 31°49' E 120°54'678128513.6
2015-Jan-20 11:16N 22°27' E 113°48'68313512.5
2015-Jan-20 11:13N 31°58' E 120°50'1179.7
2015-Jan-20 11:12N 31°58' E 120°51'70112749.4
2015-Jan-20 11:09N 22°14' E 113°35'6941177.5
2015-Jan-20 10:34N 31°30' E 121°22'6621192185.3
2015-Jan-20 10:33N 23°02' E 113°24'643257150.1
2015-Jan-20 10:33N 32°03' E 119°55'914605.7
2015-Jan-20 10:32N 31°25' E 121°32'723200108.9
2015-Jan-20 10:32N 21°58' E 113°11'40446906.2
2015-Jan-20 10:31N 25°18' E 119°34'359107731.7
2015-Jan-20 10:31N 22°27' E 113°48'31834704.2
2015-Jan-20 10:31N 24°41' E 119°03'337121163.9
2015-Jan-20 10:31N 22°12' E 113°34'68322753.9
2015-Jan-20 10:29N 31°56' E 120°11'64018888.2
2015-Jan-20 10:27N 23°04' E 113°29'1852208.0
2015-Jan-20 10:22N 23°10' E 116°50'5696669.3
2015-Jan-20 10:17N 31°58' E 120°50'451.6
2015-Jan-20 10:12N 31°55' E 120°53'471.7
2015-Jan-20 10:09N 31°58' E 120°51'495088.1
2015-Jan-20 10:09N 31°11' E 121°09'372318.3
2015-Jan-20 10:08N 31°46' E 120°56'66316030.1
2015-Jan-20 10:05N 23°03' E 113°16'814.9
2015-Jan-20 09:34N 23°02' E 113°24'643462877.4
2015-Jan-20 09:33N 32°03' E 119°55'826528.8
2015-Jan-20 09:33N 31°30' E 121°22'66434164.3
2015-Jan-20 09:32N 23°03' E 113°19'531290.3
2015-Jan-20 09:29N 22°12' E 113°34'262454.4
2015-Jan-20 09:28N 21°58' E 113°11'723236481.7
2015-Jan-20 09:28N 31°25' E 121°32'67861055.7
2015-Jan-20 09:28N 22°27' E 113°48'662125469.9
2015-Jan-20 09:27N 31°56' E 120°10'54851951.0
2015-Jan-20 09:27N 23°15' E 116°55'1906825.0
2015-Jan-20 09:25N 23°04' E 113°30'6597461.7
2015-Jan-20 09:20N 31°40' E 121°11'14311.3
2015-Jan-20 09:17N 31°46' E 120°56'13319.9
2015-Jan-20 09:15N 31°58' E 120°50'113.2
2015-Jan-20 09:11N 31°59' E 120°50'130.4
2015-Jan-20 09:08N 31°58' E 120°51'6631139.0
2015-Jan-20 08:34N 23°05' E 113°28'4408.4
2015-Jan-20 08:33N 23°02' E 113°24'64342058.3
2015-Jan-20 08:32N 32°03' E 119°55'70511964.8
2015-Jan-20 08:28N 21°58' E 113°11'72779351.5
2015-Jan-20 08:28N 31°58' E 120°51'2352.3
2015-Jan-20 08:28N 31°59' E 120°49'26828.2
2015-Jan-20 08:26N 31°40' E 121°11'67976439.9
2015-Jan-20 08:25N 22°27' E 113°48'67810176.7
2015-Jan-20 08:21N 31°25' E 121°32'4623317.7
2015-Jan-20 08:13N 24°24' E 117°57'4555752.5
2015-Jan-20 08:08N 31°10' E 121°52'331837.6
2015-Jan-20 08:07N 31°13' E 121°13'64012652.1
2015-Jan-20 08:04N 23°04' E 113°30'5013811.7
2015-Jan-20 08:04N 22°14' E 113°35'6961382.3
2015-Jan-20 07:34N 31°14' E 121°47'661158748.7
2015-Jan-20 07:33N 23°06' E 113°25'6910406.1
2015-Jan-20 07:33N 21°58' E 113°11'451159.8
2015-Jan-20 07:31N 22°27' E 113°48'66237249.9
2015-Jan-20 07:29N 32°03' E 119°55'482928.7
2015-Jan-20 07:28N 31°59' E 120°51'66374560.9
2015-Jan-20 07:28N 23°04' E 113°30'502301.9
2015-Jan-20 07:27N 22°14' E 113°35'346.2
2015-Jan-20 07:23N 22°12' E 113°34'70345197.8
2015-Jan-20 07:22N 31°58' E 120°50'2 9.7
2015-Jan-20 07:13N 31°59' E 120°49'6621015.8
2015-Jan-20 06:33N 23°04' E 113°29'665341775.3
2015-Jan-20 06:33N 31°19' E 121°48'666599009.2
2015-Jan-20 06:33N 23°06' E 113°25'63933827.2
2015-Jan-20 06:32N 32°03' E 119°55'638255364.2
2015-Jan-20 06:32N 23°04' E 113°30'63822509.0
2015-Jan-20 06:30N 31°60' E 120°00'70412299.3
2015-Jan-20 06:27N 21°58' E 113°11'2811203.7
2015-Jan-20 06:27N 22°14' E 113°35'18493.8
2015-Jan-20 06:25N 22°27' E 113°48'65657622.0
2015-Jan-20 06:24N 31°09' E 121°14'4402345.0
2015-Jan-20 06:13N 24°16' E 118°24'78616260.1
2015-Jan-20 06:10N 36°52' E 122°34'329541.5
2015-Jan-20 05:33N 31°25' E 121°46'6692407469.9
2015-Jan-20 05:33N 23°06' E 113°25'4331.8
2015-Jan-20 05:32N 23°04' E 113°29'639255747.4
2015-Jan-20 05:32N 31°57' E 120°07'318163470.7
2015-Jan-20 05:32N 36°53' E 122°28'9771758423.1
2015-Jan-20 05:32N 22°27' E 113°48'25710628.9
2015-Jan-20 05:31N 24°24' E 117°57'2585493.5
2015-Jan-20 05:28N 23°04' E 113°30'697712.7
2015-Jan-20 05:27N 21°58' E 113°11'26351.3
2015-Jan-20 05:23N 22°12' E 113°34'69673701.4
2015-Jan-20 05:22N 31°46' E 120°56'14456.5
2015-Jan-20 05:21N 31°59' E 120°50'54690.1
2015-Jan-20 05:16N 31°08' E 121°11'635899.2
2015-Jan-20 04:33N 23°04' E 113°29'414580.7
2015-Jan-20 04:33N 23°06' E 113°25'636208218.5
2015-Jan-20 04:33N 31°10' E 121°09'682454.8
2015-Jan-20 04:32N 31°57' E 120°13'31731673.2
2015-Jan-20 04:31N 36°54' E 122°26'3052645.8
2015-Jan-20 04:24N 31°59' E 120°51'7045762.2
2015-Jan-20 04:17N 22°11' E 113°35'533660.0
2015-Jan-20 04:16N 23°04' E 113°30'643100567.7
2015-Jan-20 04:16N 31°05' E 121°28'70565109.3
2015-Jan-20 04:15N 21°58' E 113°11'28147.8
2015-Jan-20 04:04N 22°14' E 113°35'7011392.4
2015-Jan-20 03:33N 32°00' E 120°48'2646906.8
2015-Jan-20 03:33N 31°58' E 120°18'668480670.2
2015-Jan-20 03:33N 22°27' E 113°48'4149244.6
2015-Jan-20 03:33N 23°04' E 113°29'316284045.8
2015-Jan-20 03:33N 24°50' E 118°54'3181146402.6
2015-Jan-20 03:33N 23°06' E 113°25'693243.4
2015-Jan-20 03:32N 21°58' E 113°11'72835403.8
2015-Jan-20 03:31N 31°59' E 120°51'48597.9
2015-Jan-20 03:26N 31°14' E 121°09'1822008.6
2015-Jan-20 03:26N 31°05' E 121°28'64312923.6
2015-Jan-20 03:23N 23°04' E 113°29'50356.3
2015-Jan-20 03:14N 22°14' E 113°35'69312543.0
2015-Jan-20 03:11N 31°46' E 120°55'696119322.7
2015-Jan-20 03:11N 22°11' E 113°35'6961121.7
2015-Jan-20 02:33N 31°46' E 120°55'312552.6
2015-Jan-20 02:33N 31°60' E 120°22'594733.5
2015-Jan-20 02:32N 31°30' E 121°22'658473719.5
2015-Jan-20 02:32N 23°04' E 113°29'658394963.9
2015-Jan-20 02:32N 31°60' E 120°40'6596176.9
2015-Jan-20 02:25N 23°06' E 113°25'4417711.6
2015-Jan-20 02:25N 22°27' E 113°48'2747705.6
2015-Jan-20 02:25N 22°14' E 113°23'68411392.1
2015-Jan-20 02:22N 31°17' E 121°09'68061157.0
2015-Jan-20 02:21N 22°11' E 113°35'68112077.7
2015-Jan-20 02:18N 31°05' E 121°28'624987.7
2015-Jan-20 02:17N 31°59' E 120°51'7286787.2
2015-Jan-20 02:10N 21°58' E 113°11'69617.9
2015-Jan-20 02:04N 23°04' E 113°29'6551270.3
2015-Jan-20 01:33N 31°46' E 120°55'6962506038.0
2015-Jan-20 01:33N 22°11' E 113°35'5599219.1
2015-Jan-20 01:33N 23°06' E 113°25'6582367286.1
2015-Jan-20 01:33N 32°02' E 120°34'5448839.0
2015-Jan-20 01:33N 31°17' E 121°09'5852098.6
2015-Jan-20 01:33N 32°02' E 120°26'5751502.2
2015-Jan-20 01:32N 31°30' E 121°22'65831581.0
2015-Jan-20 01:31N 23°04' E 113°29'29212996.6
2015-Jan-20 01:30N 24°24' E 118°37'29314045.0
2015-Jan-20 01:29N 23°04' E 113°29'69641.8
2015-Jan-20 01:22N 21°58' E 113°11'28209.6
2015-Jan-20 01:14N 22°14' E 113°35'6976816.1
2015-Jan-20 01:08N 31°40' E 121°11'67940764.3
2015-Jan-20 01:07N 22°27' E 113°48'4479.3
2015-Jan-20 00:34N 23°06' E 113°25'65960817.6
2015-Jan-20 00:33N 31°30' E 121°22'6582368544.1
2015-Jan-20 00:33N 23°04' E 113°29'655786444.2
2015-Jan-20 00:33N 32°02' E 120°32'3955.1
2015-Jan-20 00:33N 32°04' E 120°28'698418676.8
2015-Jan-20 00:32N 22°11' E 113°35'69617164.4
2015-Jan-20 00:30N 31°46' E 120°55'437314701.0
2015-Jan-20 00:30N 24°42' E 118°56'35710997.0
2015-Jan-20 00:28N 21°58' E 113°11'6910741.9
2015-Jan-20 00:28N 23°04' E 113°29'50398.8
2015-Jan-20 00:20N 22°14' E 113°35'693891.5
2015-Jan-19 23:33N 31°46' E 120°55'433155941.8
2015-Jan-19 23:33N 24°47' E 118°52'315378052.7
2015-Jan-19 23:33N 23°06' E 113°25'658789126.4
2015-Jan-19 23:33N 32°01' E 120°37'124664.6
2015-Jan-19 23:33N 32°01' E 120°23'689496123.5
2015-Jan-19 23:33N 22°15' E 113°36'5044696.7
2015-Jan-19 23:33N 23°04' E 113°29'32120665.9
2015-Jan-19 23:32N 24°44' E 119°04'22102.0
2015-Jan-19 23:32N 24°45' E 119°02'1092238.7
2015-Jan-19 23:29N 23°39' E 117°28'25714255.9
2015-Jan-19 23:28N 21°58' E 113°11'232964.6
2015-Jan-19 23:27N 22°10' E 113°32'70045821.8
2015-Jan-19 23:26N 31°31' E 121°21'69644766.4
2015-Jan-19 23:26N 22°11' E 113°37'69532077.1
2015-Jan-19 23:24N 31°46' E 120°55'54186.3
2015-Jan-19 23:07N 32°03' E 119°55'63912226.6
2015-Jan-19 23:04N 23°04' E 113°29'0 0.9
2015-Jan-19 22:34N 23°04' E 113°29'645387224.2
2015-Jan-19 22:33N 31°58' E 120°19'3359782.3
2015-Jan-19 22:33N 31°46' E 120°55'0107.5
2015-Jan-19 22:33N 31°46' E 120°55'6561180716.7
2015-Jan-19 22:33N 23°06' E 113°25'661198214.3
2015-Jan-19 22:33N 32°01' E 120°43'444133233.6
2015-Jan-19 22:33N 24°46' E 119°01'0401.7
2015-Jan-19 22:33N 24°46' E 119°00'44022968.3
2015-Jan-19 22:32N 32°03' E 119°55'52237571.5
2015-Jan-19 22:31N 23°38' E 117°28'1103852.1
2015-Jan-19 22:29N 24°53' E 118°57'1697.7
2015-Jan-19 22:29N 24°52' E 118°57'11537.6
2015-Jan-19 22:28N 24°42' E 118°54'355212965.6
2015-Jan-19 22:28N 21°58' E 113°11'6930885.5
2015-Jan-19 22:28N 23°04' E 113°29'472774.4
2015-Jan-19 22:27N 22°18' E 113°40'11241.8
2015-Jan-19 22:24N 22°10' E 113°32'68341679.5
2015-Jan-19 22:23N 31°59' E 120°01'67946149.3
2015-Jan-19 22:22N 22°11' E 113°37'3321706.7
2015-Jan-19 22:10N 24°40' E 119°02'3163359.4
2015-Jan-19 22:05N 22°27' E 113°48'4484.6
2015-Jan-19 21:33N 23°06' E 113°25'4529.1
2015-Jan-19 21:33N 23°04' E 113°29'318381398.2
2015-Jan-19 21:33N 24°51' E 118°57'12853.0
2015-Jan-19 21:33N 24°50' E 118°57'41010.8
2015-Jan-19 21:33N 24°46' E 118°56'40276140.8
2015-Jan-19 21:32N 31°05' E 121°28'50179097.9
2015-Jan-19 21:32N 31°46' E 120°55'031.8
2015-Jan-19 21:32N 31°46' E 120°55'1323504.7
2015-Jan-19 21:32N 31°59' E 120°51'442159034.6
2015-Jan-19 21:32N 24°49' E 118°56'27116.9
2015-Jan-19 21:32N 24°51' E 118°57'362260320.7
2015-Jan-19 21:32N 21°57' E 113°11'70570526.8
2015-Jan-19 21:31N 31°57' E 120°06'121604.1
2015-Jan-19 21:31N 32°03' E 119°55'68449264.1
2015-Jan-19 21:30N 22°10' E 113°32'6861234675.8
2015-Jan-19 21:30N 31°56' E 120°13'515394.5
2015-Jan-19 21:29N 31°41' E 121°10'8877.5
2015-Jan-19 21:29N 31°45' E 121°03'69850252.1
2015-Jan-19 21:28N 22°11' E 113°37'53262.8
2015-Jan-19 21:16N 23°04' E 113°29'0 0.6
2015-Jan-19 20:34N 23°04' E 113°29'655589691.1
2015-Jan-19 20:33N 31°46' E 120°55'815012.0
2015-Jan-19 20:33N 31°45' E 121°05'6601188110.1
2015-Jan-19 20:33N 23°06' E 113°25'323290340.6
2015-Jan-19 20:33N 24°51' E 118°59'431310193.1
2015-Jan-19 20:33N 31°57' E 120°13'708149944.4
2015-Jan-19 20:33N 21°59' E 113°07'721162142.8
2015-Jan-19 20:33N 31°46' E 120°55'427307100.7
2015-Jan-19 20:33N 24°53' E 118°57'43526996.4
2015-Jan-19 20:32N 31°55' E 120°53'4513.4
2015-Jan-19 20:31N 31°59' E 120°51'6244889.5
2015-Jan-19 20:31N 31°05' E 121°28'39614996.9
2015-Jan-19 20:30N 24°52' E 118°57'43432548.6
2015-Jan-19 20:29N 32°03' E 119°55'68116669.7
2015-Jan-19 20:26N 22°11' E 113°37'1280.4
2015-Jan-19 20:17N 22°12' E 113°24'521873.8
2015-Jan-19 20:16N 23°04' E 113°29'64260788.6
2015-Jan-19 20:15N 32°07' E 119°55'68713094.5
2015-Jan-19 20:12N 22°10' E 113°32'23568.6
2015-Jan-19 20:09N 22°27' E 113°48'4473.8
2015-Jan-19 19:33N 23°06' E 113°25'6561180726.3
2015-Jan-19 19:33N 31°46' E 120°55'338402.7
2015-Jan-19 19:33N 31°59' E 120°20'6471164501.3
2015-Jan-19 19:33N 23°04' E 113°29'639176834.5
2015-Jan-19 19:33N 32°03' E 119°55'68149009.4
2015-Jan-19 19:32N 22°11' E 113°37'68076445.9
2015-Jan-19 19:32N 31°05' E 121°28'972587.0
2015-Jan-19 19:29N 32°03' E 119°57'6398125.6
2015-Jan-19 19:25N 23°04' E 113°29'544324.1
2015-Jan-19 19:24N 22°10' E 113°32'234303.0
2015-Jan-19 19:24N 22°27' E 113°48'641135774.2
2015-Jan-19 19:23N 29°52' E 122°22'1364458.3
2015-Jan-19 19:21N 31°46' E 120°55'13829.0
2015-Jan-19 19:20N 31°59' E 120°51'115040.0
2015-Jan-19 19:20N 31°48' E 120°56'7844.0
2015-Jan-19 19:20N 31°45' E 121°03'0858.8
2015-Jan-19 19:20N 31°45' E 121°03'659853.3
2015-Jan-19 18:34N 23°04' E 113°29'653130527.1
2015-Jan-19 18:33N 32°02' E 120°26'6532351374.2
2015-Jan-19 18:33N 23°06' E 113°25'63838277.4
2015-Jan-19 18:32N 31°59' E 120°01'679203788.5
2015-Jan-19 18:32N 22°11' E 113°38'67920906.7
2015-Jan-19 18:30N 31°05' E 121°28'4532744.7
2015-Jan-19 18:30N 31°45' E 121°03'13210778.4
2015-Jan-19 18:29N 29°52' E 122°22'62823306.3
2015-Jan-19 18:28N 23°04' E 113°29'41650.1
2015-Jan-19 18:24N 22°27' E 113°48'23796.1
2015-Jan-19 18:22N 22°10' E 113°32'26315.7
2015-Jan-19 18:17N 22°27' E 113°53'6604704.0
2015-Jan-19 18:09N 32°03' E 119°55'99168.0
2015-Jan-19 17:34N 31°05' E 121°28'5089901.1
2015-Jan-19 17:33N 31°46' E 120°55'656214663.7
2015-Jan-19 17:33N 23°06' E 113°25'656590755.6
2015-Jan-19 17:33N 32°01' E 120°34'656590248.5
2015-Jan-19 17:33N 23°04' E 113°29'6391149448.4
2015-Jan-19 17:33N 31°57' E 120°05'661198273.1
2015-Jan-19 17:33N 22°25' E 113°53'66245798.7
2015-Jan-19 17:32N 32°03' E 119°55'681408415.8
2015-Jan-19 17:32N 22°11' E 113°37'6134.1
2015-Jan-19 17:29N 22°10' E 113°32'702133081.9
2015-Jan-19 17:29N 31°42' E 121°10'70413774.7
2015-Jan-19 17:26N 22°21' E 113°12'70325065.2
2015-Jan-19 17:24N 31°45' E 121°03'6594491.1
2015-Jan-19 17:16N 23°04' E 113°29'66391787.1
2015-Jan-19 17:15N 31°59' E 120°51'13284.7
2015-Jan-19 17:12N 31°46' E 120°55'788.4
2015-Jan-19 17:08N 31°45' E 121°03'6999983.8
2015-Jan-19 17:04N 22°13' E 113°34'7001387.9
2015-Jan-19 16:34N 32°00' E 120°41'660237434.0
2015-Jan-19 16:33N 23°06' E 113°25'4471.9
2015-Jan-19 16:33N 23°04' E 113°29'65948404.4
2015-Jan-19 16:32N 31°45' E 121°03'711822.4
2015-Jan-19 16:32N 31°46' E 120°55'415607.9
2015-Jan-19 16:32N 31°56' E 120°09'3625880.7
2015-Jan-19 16:31N 31°59' E 120°51'6256158.5
2015-Jan-19 16:31N 31°05' E 121°28'50179466.6
2015-Jan-19 16:31N 31°46' E 120°55'76172.8
2015-Jan-19 16:31N 31°45' E 121°03'69841184.4
2015-Jan-19 16:30N 22°11' E 113°37'1124.8
2015-Jan-19 16:30N 22°11' E 113°38'6102.6
2015-Jan-19 16:26N 22°10' E 113°32'541818.9
2015-Jan-19 16:25N 23°04' E 113°29'66016838.9
2015-Jan-19 16:22N 31°35' E 121°18'76895.5
2015-Jan-19 16:17N 32°03' E 119°55'6815561.6
2015-Jan-19 16:10N 22°13' E 113°34'5285.4
2015-Jan-19 15:34N 23°04' E 113°29'42428.5
2015-Jan-19 15:33N 23°06' E 113°25'656787100.3
2015-Jan-19 15:33N 31°46' E 120°55'5019978.0
2015-Jan-19 15:33N 31°05' E 121°28'261406.9
2015-Jan-19 15:32N 31°31' E 121°24'694488.3
2015-Jan-19 15:31N 31°56' E 120°09'68112137.2
2015-Jan-19 15:28N 22°13' E 113°34'69514389.5
2015-Jan-19 15:25N 31°46' E 120°55'139467.1
2015-Jan-19 15:25N 31°59' E 120°51'1761487.4
2015-Jan-19 15:25N 31°45' E 121°03'2012002.2
2015-Jan-19 15:25N 31°59' E 120°46'4311161.6
2015-Jan-19 15:24N 32°03' E 119°55'602618.5
2015-Jan-19 15:23N 31°46' E 121°03'6595293.6
2015-Jan-19 15:16N 23°04' E 113°29'54449.7
2015-Jan-19 15:08N 22°10' E 113°32'6991195.3
2015-Jan-19 14:33N 31°46' E 120°55'656337352.4
2015-Jan-19 14:33N 23°06' E 113°25'154471.2
2015-Jan-19 14:33N 22°54' E 113°35'66545160.3
2015-Jan-19 14:32N 31°56' E 120°48'4817410.8
2015-Jan-19 14:32N 31°25' E 121°31'341257.3
2015-Jan-19 14:30N 31°47' E 120°60'441266.2
2015-Jan-19 14:28N 31°56' E 120°09'8450664.8
2015-Jan-19 14:28N 31°05' E 121°28'681136132.5
2015-Jan-19 14:28N 22°13' E 113°34'5213358.9
2015-Jan-19 14:28N 23°04' E 113°29'659395212.1
2015-Jan-19 14:28N 31°46' E 121°02'60509.5
2015-Jan-19 14:20N 32°03' E 119°55'68116783.8
2015-Jan-19 14:18N 22°11' E 113°37'69524760.4
2015-Jan-19 14:16N 31°46' E 120°55'132157.0
2015-Jan-19 14:16N 31°59' E 120°51'4968.5
2015-Jan-19 13:33N 31°22' E 121°28'656393542.0
2015-Jan-19 13:33N 23°06' E 113°25'6582367947.3
2015-Jan-19 13:33N 31°49' E 120°55'3865.6
2015-Jan-19 13:33N 31°46' E 120°55'655337017.6
2015-Jan-19 13:33N 23°04' E 113°29'64330447.7
2015-Jan-19 13:32N 31°05' E 121°28'8414475.0
2015-Jan-19 13:31N 31°56' E 120°09'68031001.1
2015-Jan-19 13:30N 22°11' E 113°37'69520497.4
2015-Jan-19 13:28N 31°46' E 120°55'6762317.9
2015-Jan-19 13:10N 22°27' E 113°48'6741093.0
2015-Jan-19 12:33N 31°22' E 121°28'3733467.7
2015-Jan-19 12:33N 31°46' E 120°55'656118012.6
2015-Jan-19 12:33N 23°05' E 113°27'64353861.0
2015-Jan-19 12:32N 31°05' E 121°28'643144625.7
2015-Jan-19 12:32N 23°04' E 113°29'63953493.9
2015-Jan-19 12:31N 31°56' E 120°09'3710181.7
2015-Jan-19 12:31N 31°56' E 120°52'66111720.0
2015-Jan-19 12:28N 23°04' E 113°29'63824983.8
2015-Jan-19 12:26N 32°03' E 119°55'1824071.9
2015-Jan-19 12:24N 29°52' E 122°22'14948680.1
2015-Jan-19 12:23N 31°59' E 120°51'663795.8
2015-Jan-19 11:33N 23°06' E 113°27'655102563.0
2015-Jan-19 11:33N 31°46' E 120°55'35350769.1
2015-Jan-19 11:33N 37°32' E 122°21'35318419.5
2015-Jan-19 11:31N 31°56' E 120°09'331484.7
2015-Jan-19 11:30N 32°00' E 120°48'65757.5
2015-Jan-19 11:25N 31°05' E 121°28'1398.0
2015-Jan-19 11:17N 31°17' E 121°34'6927059.0
2015-Jan-19 11:11N 22°11' E 113°37'6881105.0
2015-Jan-19 10:34N 31°15' E 121°30'6173118.1
2015-Jan-19 10:33N 32°00' E 120°42'6592372694.0
2015-Jan-19 10:33N 23°06' E 113°27'39732.2
2015-Jan-19 10:33N 23°04' E 113°29'655235889.2
2015-Jan-19 10:33N 31°46' E 120°55'35332618.4
2015-Jan-19 10:33N 37°34' E 122°11'35630514.3
2015-Jan-19 10:32N 31°42' E 121°09'537634.0
2015-Jan-19 10:32N 31°56' E 120°09'68015500.4
2015-Jan-19 10:29N 22°11' E 113°37'532529.7
2015-Jan-19 10:28N 23°04' E 113°29'6435549.0
2015-Jan-19 10:21N 31°05' E 121°28'5184898.3
2015-Jan-19 10:14N 23°27' E 116°56'54341567.9
2015-Jan-19 10:14N 31°46' E 120°55'1315825.0
2015-Jan-19 10:13N 31°59' E 120°51'489599.1
2015-Jan-19 10:13N 32°03' E 119°55'1635743.3
2015-Jan-19 10:11N 30°26' E 122°27'66722019.2
2015-Jan-19 10:10N 22°27' E 113°48'6641103.5
2015-Jan-19 09:34N 31°10' E 121°28'6462325714.7
2015-Jan-19 09:34N 23°06' E 113°27'656295383.9
2015-Jan-19 09:33N 32°00' E 120°36'678271093.4
2015-Jan-19 09:33N 22°30' E 113°45'3713457.1
2015-Jan-19 09:33N 23°04' E 113°29'976146368.4
2015-Jan-19 09:33N 37°34' E 122°01'893357129.9
2015-Jan-19 09:33N 23°22' E 116°51'55432695.6
2015-Jan-19 09:32N 31°55' E 120°48'1012526.9
2015-Jan-19 09:31N 31°46' E 120°55'41844.2
2015-Jan-19 09:29N 31°56' E 120°09'365887.2
2015-Jan-19 09:28N 31°59' E 120°51'66722667.5
2015-Jan-19 09:26N 23°02' E 113°24'647110995.9
2015-Jan-19 09:26N 31°05' E 121°28'68012740.9
2015-Jan-19 09:23N 22°11' E 113°37'19178.2
2015-Jan-19 09:17N 22°27' E 113°48'6764218.2
2015-Jan-19 09:07N 31°46' E 120°55'6551168.3
2015-Jan-19 08:33N 23°04' E 113°29'657473080.4
2015-Jan-19 08:33N 32°03' E 120°33'6571182515.8
2015-Jan-19 08:33N 23°06' E 113°27'18511275.3
2015-Jan-19 08:32N 23°17' E 116°48'55082541.4
2015-Jan-19 08:32N 32°01' E 119°58'102305.6
2015-Jan-19 08:32N 31°56' E 120°09'6626563.1
2015-Jan-19 08:26N 22°27' E 113°48'194767.4
2015-Jan-19 08:25N 22°11' E 113°37'70336673.5
2015-Jan-19 08:24N 31°59' E 120°51'134720.5
2015-Jan-19 08:24N 31°46' E 120°55'66055240.4
2015-Jan-19 08:23N 23°02' E 113°24'6478414.4
2015-Jan-19 08:19N 31°05' E 121°28'58916.8
2015-Jan-19 08:15N 31°54' E 120°53'814726.0
2015-Jan-19 08:15N 31°46' E 120°55'5072.0
2015-Jan-19 07:33N 31°05' E 121°28'6432313795.4
2015-Jan-19 07:33N 23°04' E 113°29'39621.6
2015-Jan-19 07:33N 23°06' E 113°27'179214235.3
2015-Jan-19 07:33N 23°21' E 116°40'548281799.0
2015-Jan-19 07:33N 31°57' E 120°07'661396500.2
2015-Jan-19 07:33N 22°18' E 114°09'67389778.1
2015-Jan-19 07:33N 31°46' E 120°55'543983.3
2015-Jan-19 07:32N 32°03' E 119°55'993013.5
2015-Jan-19 07:30N 31°05' E 121°28'636853.4
2015-Jan-19 07:29N 31°59' E 120°50'13880.2
2015-Jan-19 07:28N 31°46' E 120°55'41424.8
2015-Jan-19 07:23N 31°56' E 120°09'36723.6
2015-Jan-19 07:20N 31°59' E 120°51'684164244.9
2015-Jan-19 07:19N 22°27' E 113°48'41483.0
2015-Jan-19 07:14N 23°02' E 113°24'5 7.7
2015-Jan-19 06:33N 23°04' E 113°29'643771412.4
2015-Jan-19 06:33N 31°05' E 121°28'7918871.1
2015-Jan-19 06:33N 32°04' E 120°27'654588684.4
2015-Jan-19 06:33N 23°06' E 113°27'173621243.4
2015-Jan-19 06:33N 23°22' E 116°34'14859210.2
2015-Jan-19 06:33N 22°18' E 114°09'66545168.5
2015-Jan-19 06:32N 31°57' E 120°17'342434.3
2015-Jan-19 06:31N 31°46' E 120°55'6955401.4
2015-Jan-19 06:23N 22°11' E 113°37'68058316.8
2015-Jan-19 06:23N 31°56' E 120°09'841912.9
2015-Jan-19 06:20N 31°05' E 121°28'62111120.8
2015-Jan-19 06:20N 31°58' E 120°51'68349190.8
2015-Jan-19 06:19N 22°27' E 113°48'2572809.9
2015-Jan-19 06:14N 24°24' E 117°57'4687650.1
2015-Jan-19 06:10N 31°58' E 120°02'42794.6
2015-Jan-19 06:07N 31°59' E 120°51'6631189.7
2015-Jan-19 05:33N 23°06' E 113°27'643105196.6
2015-Jan-19 05:33N 31°05' E 121°28'643771233.4
2015-Jan-19 05:33N 23°04' E 113°29'6511172598.2
2015-Jan-19 05:33N 32°02' E 120°24'672172812.0
2015-Jan-19 05:33N 22°18' E 114°09'67393226.7
2015-Jan-19 05:32N 31°46' E 120°55'55349735.5
2015-Jan-19 05:32N 23°26' E 116°29'56240496.1
2015-Jan-19 05:31N 31°59' E 120°51'36427.5
2015-Jan-19 05:26N 31°56' E 120°09'68016220.6
2015-Jan-19 05:23N 22°11' E 113°37'19982.1
2015-Jan-19 05:22N 22°27' E 113°48'66161023.9
2015-Jan-19 05:22N 31°05' E 121°28'6483821.7
2015-Jan-19 05:11N 23°02' E 113°24'6521032.6
2015-Jan-19 04:33N 31°59' E 120°21'7970913.0
2015-Jan-19 04:33N 31°05' E 121°28'43847.2
2015-Jan-19 04:33N 31°09' E 121°28'4623706.2
2015-Jan-19 04:33N 31°46' E 120°55'655124150.9
2015-Jan-19 04:33N 23°06' E 113°27'5539664.6
2015-Jan-19 04:33N 22°12' E 113°38'69143672.4
2015-Jan-19 04:32N 31°22' E 121°28'67415155.6
2015-Jan-19 04:29N 22°27' E 113°48'421788.0
2015-Jan-19 04:28N 23°02' E 113°23'64419978.2
2015-Jan-19 04:26N 31°56' E 120°09'466209842.9
2015-Jan-19 04:26N 24°24' E 117°57'9923827.6
2015-Jan-19 04:25N 23°29' E 116°27'1451810.7
2015-Jan-19 04:21N 22°18' E 114°09'67123449.3
2015-Jan-19 04:19N 31°26' E 121°23'2128.3
2015-Jan-19 03:34N 31°05' E 121°28'643771612.3
2015-Jan-19 03:33N 23°04' E 113°29'643330483.4
2015-Jan-19 03:33N 31°56' E 120°15'643771243.4
2015-Jan-19 03:33N 23°05' E 113°27'3180.7
2015-Jan-19 03:32N 23°04' E 113°29'5921101.4
2015-Jan-19 03:32N 22°18' E 114°09'24978.6
2015-Jan-19 03:31N 22°15' E 113°43'68143010.5
2015-Jan-19 03:30N 31°13' E 121°30'664104006.5
2015-Jan-19 03:29N 22°19' E 114°08'66040978.4
2015-Jan-19 03:28N 31°56' E 120°09'31814314.6
2015-Jan-19 03:27N 36°53' E 122°25'78433998.6
2015-Jan-19 03:26N 24°24' E 117°57'25730814.0
2015-Jan-19 03:25N 22°27' E 113°48'67489810.4
2015-Jan-19 03:25N 31°22' E 121°28'37927.3
2015-Jan-19 03:22N 31°46' E 120°55'31545.3
2015-Jan-19 03:19N 31°26' E 121°23'6608802.0
2015-Jan-19 03:14N 23°02' E 113°24'6677462.0
2015-Jan-19 03:09N 31°59' E 120°51'66815134.8
2015-Jan-19 03:06N 23°02' E 113°22'130.0
2015-Jan-19 03:05N 23°02' E 113°21'814.3
2015-Jan-19 02:33N 23°04' E 113°29'28813.2
2015-Jan-19 02:33N 23°06' E 113°27'6552358182.5
2015-Jan-19 02:33N 31°46' E 120°55'177482.5
2015-Jan-19 02:33N 32°03' E 120°58'172863.7
2015-Jan-19 02:33N 31°46' E 120°55'658215336.2
2015-Jan-19 02:33N 23°03' E 113°25'1188.3
2015-Jan-19 02:32N 23°04' E 113°26'486840.3
2015-Jan-19 02:32N 22°20' E 113°44'26355797.1
2015-Jan-19 02:32N 24°24' E 117°57'466167876.4
2015-Jan-19 02:31N 31°56' E 120°09'3611774.2
2015-Jan-19 02:31N 31°59' E 120°51'3766596.0
2015-Jan-19 02:31N 31°56' E 120°08'6402305608.1
2015-Jan-19 02:31N 23°04' E 113°26'5265.1
2015-Jan-19 02:30N 23°02' E 113°30'273.3
2015-Jan-19 02:28N 23°04' E 113°29'3827616.7
2015-Jan-19 02:28N 22°30' E 113°47'67231405.4
2015-Jan-19 02:27N 31°22' E 121°28'481675.7
2015-Jan-19 02:25N 31°58' E 120°51'4221669.8
2015-Jan-19 02:25N 31°26' E 121°23'6718782.7
2015-Jan-19 02:20N 22°18' E 114°09'21308.7
2015-Jan-19 02:16N 22°27' E 113°48'6745613.3
2015-Jan-19 02:09N 31°17' E 121°34'6551104.4
2015-Jan-19 01:33N 23°06' E 113°27'6431157431.1
2015-Jan-19 01:33N 31°05' E 121°28'6431157158.0
2015-Jan-19 01:33N 23°04' E 113°29'66858622.4
2015-Jan-19 01:33N 31°25' E 121°46'668104493.9
2015-Jan-19 01:32N 23°04' E 113°29'637327628.3
2015-Jan-19 01:32N 31°58' E 120°01'8313560.5
2015-Jan-19 01:32N 31°22' E 121°28'7516945.3
2015-Jan-19 01:32N 31°56' E 120°09'14353.1
2015-Jan-19 01:29N 32°03' E 119°55'66211743.3
2015-Jan-19 01:26N 22°27' E 113°48'6768393.9
2015-Jan-19 01:21N 31°46' E 120°55'67952029.0
2015-Jan-19 01:20N 22°25' E 113°45'244726.0
2015-Jan-19 01:20N 22°18' E 114°09'58859.3
2015-Jan-19 01:16N 23°04' E 113°29'65646327.6
2015-Jan-19 01:15N 31°21' E 121°31'65623390.4
2015-Jan-19 01:13N 23°04' E 113°29'2 3.4
2015-Jan-19 00:34N 23°06' E 113°27'643330701.7
2015-Jan-19 00:33N 31°05' E 121°28'191905.9
2015-Jan-19 00:33N 31°23' E 121°30'3867699.1
2015-Jan-19 00:33N 31°46' E 120°55'546949.1
2015-Jan-19 00:32N 32°03' E 119°55'639143691.7
2015-Jan-19 00:32N 23°04' E 113°29'5910037.5
2015-Jan-19 00:32N 22°18' E 114°09'660475350.9
2015-Jan-19 00:32N 31°56' E 120°09'63910849.8
2015-Jan-19 00:28N 23°04' E 113°29'195.2
2015-Jan-19 00:28N 23°04' E 113°29'663795677.2
2015-Jan-19 00:28N 31°59' E 120°51'32217.2
2015-Jan-19 00:28N 32°02' E 120°49'68621099.1
2015-Jan-19 00:26N 22°27' E 113°48'255183338.8
2015-Jan-19 00:26N 24°24' E 117°55'250899735.6
2015-Jan-19 00:26N 22°31' E 113°52'63573770.6
2015-Jan-19 00:25N 31°01' E 120°56'45352.6
2015-Jan-19 00:17N 31°46' E 120°55'67519907.6
2015-Jan-19 00:15N 22°30' E 113°46'6629571.0
2015-Jan-19 00:11N 32°05' E 119°55'64013017.0
2015-Jan-19 00:08N 23°04' E 113°29'0 0.6
2015-Jan-18 23:33N 23°04' E 113°29'31113.0
2015-Jan-18 23:33N 23°05' E 113°27'64342104.7
2015-Jan-18 23:32N 31°05' E 121°28'5011217.7
2015-Jan-18 23:32N 31°46' E 120°55'416349.0
2015-Jan-18 23:32N 31°56' E 120°09'704922.4
2015-Jan-18 23:31N 31°01' E 121°00'6244968.2
2015-Jan-18 23:23N 23°04' E 113°29'41678.3
2015-Jan-18 23:20N 22°27' E 113°48'20567.1
2015-Jan-18 23:18N 22°18' E 114°07'582371.0
2015-Jan-18 23:16N 23°04' E 113°29'628452152.5
2015-Jan-18 23:16N 29°52' E 122°22'628161483.7
2015-Jan-18 23:16N 23°04' E 113°29'6449344.2
2015-Jan-18 23:12N 32°10' E 119°53'45805.1
2015-Jan-18 23:08N 32°00' E 120°45'171462.9
2015-Jan-18 23:08N 31°46' E 120°55'13199.9
2015-Jan-18 23:04N 31°59' E 120°51'1325.8
2015-Jan-18 22:33N 31°46' E 120°55'5016316.7
2015-Jan-18 22:33N 31°05' E 121°28'10716721.2
2015-Jan-18 22:33N 32°15' E 119°53'6471164796.2
2015-Jan-18 22:33N 23°05' E 113°27'2396.4
2015-Jan-18 22:32N 23°04' E 113°29'038.7
2015-Jan-18 22:32N 23°04' E 113°29'0 8.2
2015-Jan-18 22:31N 23°04' E 113°29'63952258.9
2015-Jan-18 22:30N 32°03' E 119°55'14513.8
2015-Jan-18 22:28N 31°56' E 120°09'639230007.7
2015-Jan-18 22:28N 23°04' E 113°29'411581.0
2015-Jan-18 22:27N 22°27' E 113°48'20131.4
2015-Jan-18 22:18N 22°18' E 114°07'67010096.5
2015-Jan-18 22:14N 32°14' E 119°52'40269.5
2015-Jan-18 22:05N 31°60' E 120°36'218387.0
2015-Jan-18 22:04N 31°46' E 120°55'5096.4
2015-Jan-18 21:33N 31°05' E 121°28'643463147.9
2015-Jan-18 21:33N 23°05' E 113°27'3501.4
2015-Jan-18 21:33N 23°04' E 113°29'65565525.3
2015-Jan-18 21:32N 31°46' E 120°55'655262074.5
2015-Jan-18 21:32N 23°04' E 113°29'65531439.1
2015-Jan-18 21:31N 32°01' E 120°33'323519.4
2015-Jan-18 21:30N 32°03' E 119°55'14149.9
2015-Jan-18 21:25N 31°56' E 120°09'6396724.0
2015-Jan-18 21:19N 23°04' E 113°30'40246.5
2015-Jan-18 21:09N 22°29' E 113°50'6731126.5
2015-Jan-18 20:34N 31°46' E 120°55'656786623.1
2015-Jan-18 20:33N 23°05' E 113°27'643210521.8
2015-Jan-18 20:33N 31°05' E 121°28'643128570.6
2015-Jan-18 20:33N 23°04' E 113°29'639109478.2
2015-Jan-18 20:33N 32°03' E 119°55'14479.4
2015-Jan-18 20:31N 31°56' E 120°09'63913855.9
2015-Jan-18 20:28N 23°04' E 113°29'64021731.3
2015-Jan-18 20:26N 32°04' E 119°56'64012656.0
2015-Jan-18 20:23N 23°04' E 113°29'130.5
2015-Jan-18 20:22N 23°04' E 113°30'121095.7
2015-Jan-18 20:21N 22°52' E 113°34'46643.1
2015-Jan-18 20:17N 22°18' E 114°07'19145.3
2015-Jan-18 20:09N 22°29' E 113°50'4371.3
2015-Jan-18 19:34N 23°05' E 113°27'643330819.9
2015-Jan-18 19:33N 31°05' E 121°28'643462854.3
2015-Jan-18 19:33N 23°04' E 113°29'6292264179.6
2015-Jan-18 19:33N 30°58' E 121°14'51183225.4
2015-Jan-18 19:33N 31°46' E 120°55'658102990.9
2015-Jan-18 19:33N 22°59' E 113°32'652167594.4
2015-Jan-18 19:33N 31°59' E 120°23'242092.9
2015-Jan-18 19:32N 32°03' E 119°55'14791.1
2015-Jan-18 19:31N 31°56' E 120°09'65910497.9
2015-Jan-18 19:27N 22°29' E 113°50'401173.4
2015-Jan-18 19:25N 23°04' E 113°29'0 1.8
2015-Jan-18 19:23N 23°04' E 113°29'6434676.0
2015-Jan-18 19:15N 31°57' E 120°15'644928.6
2015-Jan-18 18:33N 23°05' E 113°27'6331140067.5
2015-Jan-18 18:33N 30°58' E 121°19'633227761.1
2015-Jan-18 18:33N 23°05' E 113°27'438208.3
2015-Jan-18 18:33N 22°27' E 113°48'419831.5
2015-Jan-18 18:33N 23°04' E 113°29'643128570.6
2015-Jan-18 18:32N 31°05' E 121°28'502492.8
2015-Jan-18 18:31N 31°46' E 120°55'4710466.6
2015-Jan-18 18:31N 31°58' E 120°02'161228.5
2015-Jan-18 18:30N 31°60' E 120°21'6705368.9
2015-Jan-18 18:23N 22°18' E 114°07'576263.7
2015-Jan-18 18:22N 23°04' E 113°30'119.8
2015-Jan-18 18:20N 23°04' E 113°29'63921295.4
2015-Jan-18 18:18N 31°56' E 120°09'14122.3
2015-Jan-18 18:12N 32°03' E 119°55'2844.2
2015-Jan-18 17:33N 32°02' E 120°28'7746141.0
2015-Jan-18 17:33N 31°05' E 121°28'643463151.2
2015-Jan-18 17:33N 23°05' E 113°27'3455.3
2015-Jan-18 17:33N 23°04' E 113°29'0149.9
2015-Jan-18 17:33N 23°04' E 113°30'9856.4
2015-Jan-18 17:32N 23°03' E 113°20'64517209.8
2015-Jan-18 17:30N 31°57' E 120°08'64026478.9
2015-Jan-18 17:28N 23°04' E 113°29'11210.0
2015-Jan-18 17:25N 22°55' E 113°36'65920636.3
2015-Jan-18 17:23N 31°46' E 120°55'65530234.4
2015-Jan-18 17:22N 23°04' E 113°30'57295.7
2015-Jan-18 17:10N 22°18' E 114°07'6097.4
2015-Jan-18 16:33N 23°05' E 113°27'32003.3
2015-Jan-18 16:33N 23°04' E 113°29'6472329961.4
2015-Jan-18 16:33N 31°59' E 120°21'137997.4
2015-Jan-18 16:33N 32°01' E 120°36'657107455.6
2015-Jan-18 16:33N 23°04' E 113°30'640384294.6
2015-Jan-18 16:33N 31°02' E 121°29'538325.0
2015-Jan-18 16:32N 31°46' E 120°55'37577.3
2015-Jan-18 16:28N 31°57' E 120°13'6426032.1
2015-Jan-18 16:22N 23°04' E 113°30'578612.6
2015-Jan-18 16:22N 22°18' E 114°07'63512360.3
2015-Jan-18 16:19N 29°52' E 122°22'165218.9
2015-Jan-18 15:34N 31°57' E 120°17'644580016.9
2015-Jan-18 15:33N 23°05' E 113°27'656138816.0
2015-Jan-18 15:33N 31°46' E 120°55'5089890.4
2015-Jan-18 15:33N 31°05' E 121°28'643210396.9
2015-Jan-18 15:33N 23°04' E 113°29'0174.2
2015-Jan-18 15:33N 23°04' E 113°30'643330888.6
2015-Jan-18 15:33N 31°07' E 121°28'64333569.6
2015-Jan-18 15:32N 23°04' E 113°30'6404958.0
2015-Jan-18 15:24N 31°56' E 120°12'66223607.8
2015-Jan-18 15:22N 22°18' E 114°07'66195168.0
2015-Jan-18 15:22N 31°56' E 120°09'91504.3
2015-Jan-18 15:11N 31°20' E 121°48'1930.0
2015-Jan-18 14:34N 31°11' E 121°28'6482331599.4
2015-Jan-18 14:33N 23°05' E 113°27'648777316.1
2015-Jan-18 14:33N 31°59' E 120°20'7940863.2
2015-Jan-18 14:33N 31°05' E 121°28'1969217.5
2015-Jan-18 14:33N 31°18' E 121°45'66276889.6
2015-Jan-18 14:33N 23°04' E 113°29'65538671.7
2015-Jan-18 14:32N 31°46' E 120°55'0280.8
2015-Jan-18 14:32N 31°46' E 120°55'13574.1
2015-Jan-18 14:30N 31°59' E 120°51'68412075.4
2015-Jan-18 14:27N 22°27' E 113°48'41766.7
2015-Jan-18 14:24N 23°04' E 113°30'0 1.3
2015-Jan-18 14:22N 23°04' E 113°30'12246.2
2015-Jan-18 14:19N 23°03' E 113°17'64670443.9
2015-Jan-18 14:19N 31°56' E 120°09'1681639.2
2015-Jan-18 14:13N 29°53' E 122°22'63513452.7
2015-Jan-18 14:10N 22°18' E 114°07'6661098.7
2015-Jan-18 13:33N 31°15' E 121°30'199612.9
2015-Jan-18 13:33N 31°11' E 121°51'6612378579.2
2015-Jan-18 13:33N 23°04' E 113°29'650292544.9
2015-Jan-18 13:33N 32°00' E 120°24'65066890.5
2015-Jan-18 13:33N 23°05' E 113°27'601868.2
2015-Jan-18 13:31N 22°18' E 114°07'67417585.8
2015-Jan-18 13:28N 31°46' E 120°55'13435.9
2015-Jan-18 13:27N 31°59' E 120°51'6927804.1
2015-Jan-18 13:21N 22°21' E 113°44'458943.2
2015-Jan-18 13:21N 23°04' E 113°30'0 7.5
2015-Jan-18 13:20N 23°04' E 113°30'6557103.5
2015-Jan-18 13:14N 31°46' E 120°55'655958.1
2015-Jan-18 12:33N 23°04' E 113°29'14360.9
2015-Jan-18 12:33N 23°05' E 113°29'4935630.0
2015-Jan-18 12:33N 22°17' E 113°40'692830509.0
2015-Jan-18 12:33N 31°06' E 121°59'9686839.5
2015-Jan-18 12:33N 32°02' E 120°27'77139087.9
2015-Jan-18 12:33N 31°05' E 121°28'643154226.0
2015-Jan-18 12:33N 23°04' E 113°30'655262036.5
2015-Jan-18 12:33N 31°46' E 120°55'441788.1
2015-Jan-18 12:31N 31°16' E 121°33'812747.2
2015-Jan-18 12:30N 31°56' E 120°11'6624978.5
2015-Jan-18 12:22N 22°18' E 114°07'581632.7
2015-Jan-18 12:19N 23°04' E 113°29'6632801.2
2015-Jan-18 12:05N 31°59' E 120°51'1347371.0
2015-Jan-18 12:05N 31°46' E 120°55'6551231.2
2015-Jan-18 11:33N 23°04' E 113°29'1257.7
2015-Jan-18 11:33N 23°05' E 113°29'654196239.2
2015-Jan-18 11:33N 32°02' E 120°30'175147.3
2015-Jan-18 11:33N 31°56' E 120°11'3917556.2
2015-Jan-18 11:32N 31°46' E 120°55'508546.8
2015-Jan-18 11:32N 31°05' E 121°28'64389015.4
2015-Jan-18 11:32N 23°04' E 113°29'531509.0
2015-Jan-18 11:30N 22°11' E 113°35'69026707.9
2015-Jan-18 11:28N 31°15' E 121°30'954376.7
2015-Jan-18 11:27N 29°51' E 122°22'701578.6
2015-Jan-18 11:24N 31°00' E 122°09'35414.3
2015-Jan-18 11:19N 31°18' E 121°33'95463.1
2015-Jan-18 11:07N 29°53' E 122°22'6271131.2
2015-Jan-18 10:33N 23°05' E 113°29'1884.3
2015-Jan-18 10:33N 23°04' E 113°29'5212533.4
2015-Jan-18 10:33N 22°12' E 113°34'698251116.5
2015-Jan-18 10:33N 32°01' E 120°33'244306.6
2015-Jan-18 10:33N 31°46' E 120°55'65536295.7
2015-Jan-18 10:31N 23°04' E 113°29'0 4.1
2015-Jan-18 10:31N 23°04' E 113°29'6419771.4
2015-Jan-18 10:27N 31°56' E 120°11'6417464.3
2015-Jan-18 10:22N 23°04' E 113°29'64310020.0
2015-Jan-18 10:18N 31°05' E 121°28'15445.1
2015-Jan-18 10:16N 31°20' E 121°33'711795.2
2015-Jan-18 10:13N 32°02' E 120°26'652981.0
2015-Jan-18 09:33N 23°05' E 113°29'1116.9
2015-Jan-18 09:33N 23°04' E 113°29'641209651.9
2015-Jan-18 09:33N 31°56' E 120°11'349339.8
2015-Jan-18 09:33N 31°58' E 120°51'1243954.7
2015-Jan-18 09:33N 31°46' E 120°55'134737.1
2015-Jan-18 09:32N 31°59' E 120°51'5327306.5
2015-Jan-18 09:32N 31°20' E 121°33'156082.7
2015-Jan-18 09:32N 31°05' E 121°28'7814830.1
2015-Jan-18 09:32N 31°59' E 120°22'69112556.2
2015-Jan-18 09:28N 22°12' E 113°34'689225400.2
2015-Jan-18 09:28N 31°58' E 120°21'6476650.5
2015-Jan-18 09:22N 23°04' E 113°29'1 5.3
2015-Jan-18 09:16N 23°04' E 113°30'1 3.8
2015-Jan-18 09:07N 23°04' E 113°29'2 3.9
2015-Jan-18 08:33N 23°03' E 113°31'2193.3
2015-Jan-18 08:33N 23°04' E 113°29'641288273.6
2015-Jan-18 08:33N 31°56' E 120°11'399364.1
2015-Jan-18 08:33N 31°46' E 120°55'426281.1
2015-Jan-18 08:32N 31°20' E 121°33'65654961.0
2015-Jan-18 08:31N 23°04' E 113°29'6475733.2
2015-Jan-18 08:25N 31°58' E 120°21'68917967.4
2015-Jan-18 08:22N 22°12' E 113°34'34415.1
2015-Jan-18 08:18N 22°19' E 114°10'582084.6
2015-Jan-18 08:16N 23°04' E 113°30'9519924.9
2015-Jan-18 08:10N 36°53' E 122°28'35163235.0
2015-Jan-18 08:10N 31°05' E 121°28'6431057.7
2015-Jan-18 07:33N 23°04' E 113°29'21275.8
2015-Jan-18 07:33N 23°03' E 113°31'554720.9
2015-Jan-18 07:33N 22°19' E 114°07'66716567.6
2015-Jan-18 07:30N 31°58' E 120°21'313858.2
2015-Jan-18 07:30N 31°46' E 120°55'126258.8
2015-Jan-18 07:29N 31°58' E 120°51'70334203.7
2015-Jan-18 07:28N 22°12' E 113°34'527530.5
2015-Jan-18 07:28N 23°04' E 113°30'64040446.3
2015-Jan-18 07:27N 31°56' E 120°11'6418636.5
2015-Jan-18 07:22N 23°04' E 113°29'65660598.0
2015-Jan-18 07:22N 31°20' E 121°33'656214847.4
2015-Jan-18 07:22N 23°04' E 113°29'594933.4
2015-Jan-18 07:21N 22°18' E 114°09'6827220.0
2015-Jan-18 07:15N 31°59' E 120°51'663948.8
2015-Jan-18 06:33N 23°03' E 113°31'5110148.0
2015-Jan-18 06:33N 22°12' E 113°34'5294084.9
2015-Jan-18 06:33N 23°04' E 113°29'647105810.8
2015-Jan-18 06:33N 31°58' E 120°21'64845747.1
2015-Jan-18 06:32N 23°04' E 113°26'65874050.6
2015-Jan-18 06:31N 31°20' E 121°33'67224683.5
2015-Jan-18 06:30N 22°19' E 114°06'67486676.3
2015-Jan-18 06:29N 31°46' E 120°55'503519.3
2015-Jan-18 06:28N 31°05' E 121°28'643105158.4
2015-Jan-18 06:28N 23°04' E 113°30'1 7.0
2015-Jan-18 06:22N 23°04' E 113°29'645145161.4
2015-Jan-18 06:22N 31°58' E 120°18'646793.3
2015-Jan-18 05:33N 23°03' E 113°31'65776261.3
2015-Jan-18 05:33N 31°20' E 121°33'151891.3
2015-Jan-18 05:32N 31°05' E 121°28'64343667.7
2015-Jan-18 05:31N 23°04' E 113°29'0131.6
2015-Jan-18 05:31N 23°04' E 113°29'521775.2
2015-Jan-18 05:30N 22°12' E 113°34'68970842.4
2015-Jan-18 05:29N 31°58' E 120°21'364.6
2015-Jan-18 05:26N 31°60' E 120°23'302276.5
2015-Jan-18 05:25N 31°46' E 120°55'131569.3
2015-Jan-18 05:25N 31°59' E 120°51'681102166.1
2015-Jan-18 05:24N 22°28' E 113°54'6803204.1
2015-Jan-18 05:12N 31°58' E 120°51'34801.7
2015-Jan-18 05:09N 31°56' E 120°11'6411074.2
2015-Jan-18 04:33N 23°04' E 113°29'21445.5
2015-Jan-18 04:33N 23°03' E 113°31'641230799.0
2015-Jan-18 04:33N 31°56' E 120°11'16904.9
2015-Jan-18 04:32N 32°02' E 120°29'69617052.3
2015-Jan-18 04:30N 22°12' E 113°34'68934438.8
2015-Jan-18 04:28N 31°58' E 120°21'4311552821.7
2015-Jan-18 04:28N 24°53' E 118°57'3193153.5
2015-Jan-18 04:22N 23°04' E 113°29'65512035.9
2015-Jan-18 04:19N 31°46' E 120°55'4211610.0
2015-Jan-18 04:19N 31°20' E 121°33'15859.4
2015-Jan-18 04:18N 31°05' E 121°28'643872.2
2015-Jan-18 03:33N 23°03' E 113°31'2798.3
2015-Jan-18 03:33N 23°04' E 113°29'655262100.6
2015-Jan-18 03:33N 31°46' E 120°55'65578647.2
2015-Jan-18 03:33N 23°04' E 113°28'64215717.5
2015-Jan-18 03:30N 31°03' E 121°29'8550977.2
2015-Jan-18 03:30N 31°56' E 120°11'42914290.9
2015-Jan-18 03:28N 24°53' E 118°57'411211275.3
2015-Jan-18 03:28N 31°20' E 121°33'656107385.8
2015-Jan-18 03:28N 23°04' E 113°30'64324351.5
2015-Jan-18 03:26N 31°05' E 121°28'783123.1
2015-Jan-18 03:25N 31°58' E 120°21'69035466.6
2015-Jan-18 03:24N 22°12' E 113°34'7042327.8
2015-Jan-18 03:05N 31°59' E 120°51'1324.2
2015-Jan-18 02:33N 31°46' E 120°55'656262218.7
2015-Jan-18 02:33N 23°03' E 113°31'6635866.6
2015-Jan-18 02:26N 31°59' E 120°51'43846354.7
2015-Jan-18 02:26N 24°53' E 118°57'32747052.5
2015-Jan-18 02:25N 23°03' E 113°21'102598.6
2015-Jan-18 02:25N 22°59' E 113°31'66031697.2
2015-Jan-18 02:24N 31°59' E 120°40'16395.2
2015-Jan-18 02:21N 31°58' E 120°21'94537.4
2015-Jan-18 02:21N 31°57' E 120°11'802301.3
2015-Jan-18 02:19N 31°10' E 121°28'635542.9
2015-Jan-18 02:18N 32°00' E 120°43'252028.3
2015-Jan-18 02:18N 31°56' E 120°13'772322.3
2015-Jan-18 02:16N 31°20' E 121°33'25604.8
2015-Jan-18 02:13N 31°39' E 121°14'660118824.3
2015-Jan-18 02:13N 23°04' E 113°30'2 2.5
2015-Jan-18 01:33N 23°03' E 113°31'656112381.0
2015-Jan-18 01:33N 31°46' E 120°55'186011.5
2015-Jan-18 01:33N 31°59' E 120°40'51313.7
2015-Jan-18 01:32N 32°01' E 120°46'670268155.9
2015-Jan-18 01:32N 22°54' E 113°30'67149322.3
2015-Jan-18 01:31N 31°59' E 120°51'342502.7
2015-Jan-18 01:31N 31°35' E 121°19'699209727.9
2015-Jan-18 01:30N 22°12' E 113°34'683204999.4
2015-Jan-18 01:30N 31°57' E 120°11'91095.4
2015-Jan-18 01:30N 31°58' E 120°21'43223941.7
2015-Jan-18 01:29N 24°53' E 118°57'3195656.9
2015-Jan-18 01:25N 23°04' E 113°29'3195215.8
2015-Jan-18 01:22N 24°53' E 118°57'0 1.1
2015-Jan-18 01:19N 24°53' E 118°57'3151407.2
2015-Jan-18 01:05N 22°57' E 113°37'658112743.1
2015-Jan-18 01:05N 31°20' E 121°33'67234052.2
2015-Jan-18 01:04N 22°19' E 114°07'203711.9
2015-Jan-18 01:03N 22°27' E 113°48'3978.1
2015-Jan-18 00:33N 23°03' E 113°31'6481166120.2
2015-Jan-18 00:33N 31°59' E 120°21'2545350.9
2015-Jan-18 00:33N 31°59' E 120°51'33577.1
2015-Jan-18 00:33N 32°01' E 120°48'2219574.5
2015-Jan-18 00:33N 31°58' E 120°23'430387406.0
2015-Jan-18 00:33N 24°54' E 119°01'425191089.6
2015-Jan-18 00:33N 31°46' E 120°55'424127100.6
2015-Jan-18 00:33N 24°54' E 119°02'39217660.7
2015-Jan-18 00:31N 31°05' E 121°28'7501.8
2015-Jan-18 00:31N 30°60' E 121°23'8427440.4
2015-Jan-18 00:30N 31°57' E 120°11'242188.7
2015-Jan-18 00:30N 31°59' E 120°40'601810.4
2015-Jan-18 00:28N 31°20' E 121°33'65616643.4
2015-Jan-18 00:25N 23°04' E 113°29'58526.2
2015-Jan-18 00:19N 22°19' E 114°07'67511629.9
2015-Jan-18 00:15N 31°27' E 121°28'2840.7
2015-Jan-17 23:33N 30°60' E 121°23'6849020.7
2015-Jan-17 23:33N 32°01' E 120°48'6529346.2
2015-Jan-17 23:33N 31°05' E 121°28'64564517.4
2015-Jan-17 23:33N 22°59' E 113°31'66032981.9
2015-Jan-17 23:31N 31°23' E 121°30'7125667.3
2015-Jan-17 23:31N 31°57' E 120°16'685154122.2
2015-Jan-17 23:31N 22°11' E 113°37'68361441.1
2015-Jan-17 23:30N 31°57' E 120°11'342345.3
2015-Jan-17 23:30N 31°59' E 120°51'155412.5
2015-Jan-17 23:29N 32°00' E 120°33'6218718.3
2015-Jan-17 23:29N 31°21' E 121°31'65647240.8
2015-Jan-17 23:28N 23°04' E 113°29'65725143.2
2015-Jan-17 23:27N 31°20' E 121°33'69522957.3
2015-Jan-17 23:25N 22°12' E 113°34'27144427.2
2015-Jan-17 23:25N 24°25' E 117°52'47731832.6
2015-Jan-17 23:24N 31°59' E 120°40'4256435.5
2015-Jan-17 23:20N 25°01' E 119°11'3221479.7
2015-Jan-17 23:07N 22°19' E 114°07'6741222.2
2015-Jan-17 22:34N 31°46' E 120°55'5294472.0
2015-Jan-17 22:34N 30°60' E 121°23'68122551.7
2015-Jan-17 22:33N 32°01' E 120°48'3257305.9
2015-Jan-17 22:33N 31°57' E 120°11'8360057.3
2015-Jan-17 22:33N 31°05' E 121°28'6220412.8
2015-Jan-17 22:33N 31°59' E 120°51'669301010.7
2015-Jan-17 22:33N 22°54' E 113°34'663103834.1
2015-Jan-17 22:33N 31°59' E 120°40'634027.1
2015-Jan-17 22:32N 31°17' E 121°34'45616252.1
2015-Jan-17 22:30N 24°25' E 117°52'2549420.6
2015-Jan-17 22:28N 23°04' E 113°29'33418480.0
2015-Jan-17 22:27N 25°01' E 119°11'39913949.0
2015-Jan-17 22:26N 31°20' E 121°33'769.2
2015-Jan-17 22:20N 31°26' E 121°29'6986170.4
2015-Jan-17 22:13N 22°12' E 113°34'317520.7
2015-Jan-17 22:13N 22°19' E 114°07'6821047.5
2015-Jan-17 21:34N 31°59' E 120°51'34121951.4
2015-Jan-17 21:33N 31°57' E 120°11'39139694.2
2015-Jan-17 21:33N 31°46' E 120°55'5035893.2
2015-Jan-17 21:33N 31°05' E 121°28'6533535.9
2015-Jan-17 21:33N 32°01' E 120°48'8755.8
2015-Jan-17 21:33N 31°59' E 120°40'7025285.1
2015-Jan-17 21:33N 30°60' E 121°23'13224.6
2015-Jan-17 21:29N 31°11' E 121°28'64745696.6
2015-Jan-17 21:28N 23°04' E 113°29'65654960.9
2015-Jan-17 21:28N 31°20' E 121°33'6952472.7
2015-Jan-17 21:11N 22°12' E 113°34'36702.4
2015-Jan-17 21:08N 22°48' E 113°37'6511139.7
2015-Jan-17 20:33N 31°05' E 121°28'506902.5
2015-Jan-17 20:33N 31°46' E 120°55'42150943.9
2015-Jan-17 20:33N 31°20' E 121°33'223149.9
2015-Jan-17 20:32N 30°60' E 121°23'9971246.8
2015-Jan-17 20:32N 32°03' E 119°55'97116829.0
2015-Jan-17 20:32N 31°07' E 121°28'68334606.6
2015-Jan-17 20:31N 22°12' E 113°34'68366489.7
2015-Jan-17 20:31N 31°57' E 120°11'241654.9
2015-Jan-17 20:30N 31°59' E 120°40'6571554.6
2015-Jan-17 20:04N 23°04' E 113°29'66333620.2
2015-Jan-17 20:03N 32°01' E 120°48'63127.1
2015-Jan-17 19:33N 31°07' E 121°28'2829.6
2015-Jan-17 19:33N 31°05' E 121°28'5044866.4
2015-Jan-17 19:33N 31°46' E 120°55'526298.1
2015-Jan-17 19:33N 30°60' E 121°23'842673.8
2015-Jan-17 19:31N 31°57' E 120°11'793473.8
2015-Jan-17 19:29N 31°20' E 121°33'65643765.1
2015-Jan-17 19:28N 23°04' E 113°29'63821457.1
2015-Jan-17 19:27N 31°58' E 120°02'68124505.0
2015-Jan-17 19:25N 22°12' E 113°34'2711269.3
2015-Jan-17 19:12N 24°25' E 117°52'443689.8
2015-Jan-17 18:34N 31°05' E 121°28'5019946.6
2015-Jan-17 18:33N 31°46' E 120°55'135219.6
2015-Jan-17 18:33N 31°59' E 120°51'31489.0
2015-Jan-17 18:33N 31°59' E 120°48'70245969.4
2015-Jan-17 18:32N 22°11' E 113°37'68270116.8
2015-Jan-17 18:32N 31°07' E 121°28'96178.5
2015-Jan-17 18:32N 30°60' E 121°23'846042.3
2015-Jan-17 18:31N 31°57' E 120°11'64116243.7
2015-Jan-17 18:28N 23°04' E 113°29'65641461.7
2015-Jan-17 18:27N 31°20' E 121°33'695834115.8
2015-Jan-17 18:27N 22°12' E 113°34'68312296.1
2015-Jan-17 18:24N 31°57' E 120°10'66213027.5
2015-Jan-17 18:21N 22°19' E 114°07'6774401.7
2015-Jan-17 18:12N 31°59' E 120°40'67311373.1
2015-Jan-17 18:08N 22°38' E 113°41'6701159.4
2015-Jan-17 17:33N 31°46' E 120°55'4843279.3
2015-Jan-17 17:33N 31°07' E 121°28'6274906.1
2015-Jan-17 17:33N 31°59' E 120°48'6457863.1
2015-Jan-17 17:33N 31°05' E 121°28'627742.8
2015-Jan-17 17:33N 31°59' E 120°51'6516802.6
2015-Jan-17 17:33N 30°60' E 121°23'6365250.6
2015-Jan-17 17:25N 23°04' E 113°29'65632374.4
2015-Jan-17 17:24N 31°20' E 121°33'601075.1
2015-Jan-17 17:21N 31°59' E 120°40'38909.4
2015-Jan-17 17:18N 32°03' E 119°55'681116765.3
2015-Jan-17 17:18N 22°11' E 113°37'29105627.9
2015-Jan-17 17:18N 22°19' E 114°07'315371.4
2015-Jan-17 17:17N 22°12' E 113°34'68324116.7
2015-Jan-17 17:16N 31°57' E 120°11'65767579.9
2015-Jan-17 17:15N 22°38' E 113°41'667952.6
2015-Jan-17 16:33N 32°01' E 120°24'7831130.5
2015-Jan-17 16:33N 31°05' E 121°28'657169053.0
2015-Jan-17 16:33N 22°19' E 114°07'677406427.2
2015-Jan-17 16:33N 31°59' E 120°40'7021070.9
2015-Jan-17 16:33N 30°60' E 121°23'5363056.6
2015-Jan-17 16:32N 31°46' E 120°55'4811541.1
2015-Jan-17 16:32N 31°07' E 121°28'64861402.2
2015-Jan-17 16:32N 23°03' E 113°24'64449361.1
2015-Jan-17 16:31N 31°57' E 120°11'79284681.7
2015-Jan-17 16:31N 31°20' E 121°33'67063468.2
2015-Jan-17 16:30N 22°38' E 113°41'67721193.0
2015-Jan-17 16:28N 31°59' E 120°48'7009994.9
2015-Jan-17 16:24N 22°13' E 113°40'531.6
2015-Jan-17 16:15N 22°12' E 113°34'2740.0
2015-Jan-17 15:34N 22°38' E 113°41'670150735.8
2015-Jan-17 15:33N 31°20' E 121°33'6949496.0
2015-Jan-17 15:33N 32°02' E 120°30'7690872.1
2015-Jan-17 15:33N 31°05' E 121°28'657107579.2
2015-Jan-17 15:33N 22°19' E 114°07'3122560.0
2015-Jan-17 15:33N 22°12' E 113°34'683307129.4
2015-Jan-17 15:33N 31°07' E 121°28'7615247.8
2015-Jan-17 15:32N 32°00' E 120°24'796628.4
2015-Jan-17 15:32N 30°60' E 121°23'536102.3
2015-Jan-17 15:31N 31°46' E 120°55'68922753.3
2015-Jan-17 15:29N 22°15' E 113°43'67730442.7
2015-Jan-17 15:28N 31°57' E 120°11'241268.8
2015-Jan-17 15:27N 31°59' E 120°40'1034.1
2015-Jan-17 15:10N 31°59' E 120°51'68411354.6
2015-Jan-17 15:06N 22°29' E 113°46'68321959.6
2015-Jan-17 15:04N 31°59' E 120°48'67130.7
2015-Jan-17 14:34N 30°60' E 121°23'7893335.1
2015-Jan-17 14:33N 32°02' E 120°30'7654753.0
2015-Jan-17 14:33N 31°05' E 121°28'23733.1
2015-Jan-17 14:33N 31°07' E 121°28'657338103.9
2015-Jan-17 14:33N 22°38' E 113°41'670219343.2
2015-Jan-17 14:33N 31°46' E 120°55'223716.4
2015-Jan-17 14:33N 32°01' E 120°36'6772437202.0
2015-Jan-17 14:33N 22°19' E 114°07'3128200.0
2015-Jan-17 14:33N 22°12' E 113°34'6997108.0
2015-Jan-17 14:27N 31°59' E 120°40'60879.3
2015-Jan-17 14:23N 31°20' E 121°33'794064.1
2015-Jan-17 14:21N 31°57' E 120°11'33216.3
2015-Jan-17 14:12N 31°58' E 120°51'1218.6
2015-Jan-17 13:33N 31°46' E 120°55'5089881.4
2015-Jan-17 13:33N 31°05' E 121°28'2256.7
2015-Jan-17 13:33N 31°07' E 121°28'68384724.7
2015-Jan-17 13:32N 22°12' E 113°34'67445790.0
2015-Jan-17 13:32N 30°60' E 121°23'7411534.8
2015-Jan-17 13:31N 32°01' E 120°35'455.3
2015-Jan-17 13:27N 31°59' E 120°40'60410.6
2015-Jan-17 13:18N 31°20' E 121°33'6726296.2
2015-Jan-17 13:11N 22°19' E 114°07'68120094.6
2015-Jan-17 13:09N 32°01' E 120°44'67112.4
2015-Jan-17 12:34N 31°05' E 121°28'2266.7
2015-Jan-17 12:33N 31°07' E 121°28'48172780.1
2015-Jan-17 12:33N 31°46' E 120°55'183324.0
2015-Jan-17 12:33N 31°59' E 120°40'703892.1
2015-Jan-17 12:32N 30°59' E 121°23'67414360.8
2015-Jan-17 12:29N 22°12' E 113°34'68332800.5
2015-Jan-17 12:28N 31°57' E 120°11'796321.8
2015-Jan-17 12:27N 31°20' E 121°33'1517.1
2015-Jan-17 11:33N 31°05' E 121°28'504271.3
2015-Jan-17 11:33N 31°46' E 120°55'5215749.1
2015-Jan-17 11:33N 30°59' E 121°23'67421864.5
2015-Jan-17 11:31N 22°12' E 113°34'683819992.9
2015-Jan-17 11:31N 31°57' E 120°11'8236867.1
2015-Jan-17 11:30N 31°07' E 121°28'13322.5
2015-Jan-17 11:28N 31°20' E 121°33'349.0
2015-Jan-17 11:24N 31°17' E 121°34'55185.5
2015-Jan-17 11:07N 31°58' E 120°51'56148075.4
2015-Jan-17 11:06N 23°29' E 116°25'530959.2
2015-Jan-17 10:33N 31°05' E 121°28'5019932.7
2015-Jan-17 10:33N 31°46' E 120°55'482335.1
2015-Jan-17 10:31N 31°07' E 121°28'662459.4
2015-Jan-17 10:30N 31°59' E 120°40'703666.4
2015-Jan-17 10:29N 30°59' E 121°23'14296.6
2015-Jan-17 10:26N 31°13' E 121°30'80694.7
2015-Jan-17 10:19N 31°56' E 120°11'5454830.4
2015-Jan-17 10:12N 23°29' E 116°29'5438322.1
2015-Jan-17 10:08N 31°20' E 121°33'70025470.1
2015-Jan-17 10:06N 22°20' E 113°13'223271.0
2015-Jan-17 10:06N 22°12' E 113°34'6811256.1
2015-Jan-17 09:33N 31°05' E 121°28'28861.2
2015-Jan-17 09:33N 31°08' E 121°28'4828606.1
2015-Jan-17 09:33N 31°46' E 120°55'553663092.6
2015-Jan-17 09:33N 23°26' E 116°29'53246682.7
2015-Jan-17 09:33N 31°07' E 121°28'97697.1
2015-Jan-17 09:33N 30°59' E 121°23'22983.9
2015-Jan-17 09:31N 31°19' E 121°34'69532917.2
2015-Jan-17 09:30N 22°12' E 113°34'6835009.8
2015-Jan-17 09:22N 31°56' E 120°11'6628082.9
2015-Jan-17 09:17N 22°19' E 114°07'68110709.1
2015-Jan-17 09:13N 31°58' E 120°51'1136.7
2015-Jan-17 09:12N 31°59' E 120°51'3600.8
2015-Jan-17 09:12N 31°59' E 120°48'3578.9
2015-Jan-17 09:12N 32°00' E 120°44'41045.9
2015-Jan-17 09:12N 31°59' E 120°40'68107.0
2015-Jan-17 08:33N 31°05' E 121°28'7446.4
2015-Jan-17 08:33N 30°59' E 121°23'1720082.7
2015-Jan-17 08:33N 31°15' E 121°31'448740.8
2015-Jan-17 08:32N 31°46' E 120°55'4810799.9
2015-Jan-17 08:32N 31°07' E 121°28'5331919490.6
2015-Jan-17 08:32N 23°22' E 116°34'1803514.4
2015-Jan-17 08:29N 22°11' E 113°35'70350621.6
2015-Jan-17 08:28N 31°58' E 120°51'349296.4
2015-Jan-17 08:28N 31°56' E 120°11'251279.7
2015-Jan-17 08:27N 31°59' E 120°40'715578.2
2015-Jan-17 08:26N 31°01' E 121°28'6542581.2
2015-Jan-17 08:11N 22°19' E 114°07'67714168.2
2015-Jan-17 08:08N 31°60' E 120°38'3077513.0
2015-Jan-17 08:05N 36°53' E 122°26'357673.0
2015-Jan-17 07:34N 30°59' E 121°23'75021.5
2015-Jan-17 07:33N 31°05' E 121°28'530636446.1
2015-Jan-17 07:33N 23°21' E 116°40'554142410.4
2015-Jan-17 07:33N 31°46' E 120°55'427768334.8
2015-Jan-17 07:33N 24°53' E 118°55'437393287.4
2015-Jan-17 07:33N 31°58' E 120°51'91392.2
2015-Jan-17 07:33N 31°59' E 120°40'63114045.8
2015-Jan-17 07:33N 31°12' E 121°29'675459.1
2015-Jan-17 07:32N 31°60' E 120°35'6931255.5
2015-Jan-17 07:32N 31°07' E 121°28'623033.4
2015-Jan-17 07:31N 31°59' E 120°48'70324333.2
2015-Jan-17 07:29N 22°11' E 113°35'317962.7
2015-Jan-17 07:29N 22°19' E 114°07'66210838.9
2015-Jan-17 07:25N 31°57' E 120°11'31712261.9
2015-Jan-17 07:23N 36°53' E 122°26'30511187.9
2015-Jan-17 07:22N 31°59' E 120°51'64113.7
2015-Jan-17 07:22N 32°01' E 120°45'7086.9
2015-Jan-17 06:34N 30°59' E 121°23'64196.5
2015-Jan-17 06:33N 30°57' E 121°17'1527373.7
2015-Jan-17 06:33N 31°09' E 121°28'345310830.3
2015-Jan-17 06:33N 36°51' E 122°29'865183161.6
2015-Jan-17 06:33N 23°19' E 116°46'531212494.0
2015-Jan-17 06:33N 31°07' E 121°28'39825588.8
2015-Jan-17 06:32N 24°53' E 118°55'43787388.8
2015-Jan-17 06:32N 32°01' E 120°31'756109.6
2015-Jan-17 06:31N 31°05' E 121°28'689069.2
2015-Jan-17 06:30N 31°59' E 120°40'186640.0
2015-Jan-17 06:30N 31°46' E 120°55'69624093.1
2015-Jan-17 06:29N 22°11' E 113°35'7039271.6
2015-Jan-17 06:24N 31°58' E 120°51'6815056.6
2015-Jan-17 06:16N 22°19' E 114°07'6623316.5
2015-Jan-17 06:04N 31°57' E 120°11'82161.1
2015-Jan-17 05:34N 31°08' E 121°28'28904.1
2015-Jan-17 05:33N 31°05' E 121°28'504723.1
2015-Jan-17 05:33N 31°46' E 120°55'484803.0
2015-Jan-17 05:32N 31°07' E 121°28'64451553.8
2015-Jan-17 05:32N 23°04' E 113°29'63639492.1
2015-Jan-17 05:31N 30°59' E 121°24'39228231.5
2015-Jan-17 05:30N 24°49' E 118°60'33716610.5
2015-Jan-17 05:28N 22°11' E 113°35'68384828.8
2015-Jan-17 05:28N 31°57' E 120°11'7114122.8
2015-Jan-17 05:28N 31°20' E 121°22'5313689.7
2015-Jan-17 05:27N 31°59' E 120°40'7353.0
2015-Jan-17 05:26N 31°59' E 120°48'793.0
2015-Jan-17 05:22N 32°03' E 120°55'5258.9
2015-Jan-17 05:21N 31°59' E 120°51'5592798.4
2015-Jan-17 05:09N 23°22' E 116°51'54915801.0
2015-Jan-17 05:07N 32°06' E 119°56'3868.9
2015-Jan-17 04:33N 31°59' E 120°40'366790.9
2015-Jan-17 04:33N 32°01' E 119°58'641121525.0
2015-Jan-17 04:33N 23°03' E 113°25'646332425.1
2015-Jan-17 04:33N 31°05' E 121°28'625165.1
2015-Jan-17 04:32N 31°58' E 120°51'121908.4
2015-Jan-17 04:32N 31°46' E 120°55'535332.9
2015-Jan-17 04:31N 31°01' E 121°28'39617826.4
2015-Jan-17 04:30N 24°45' E 119°06'402103356.7
2015-Jan-17 04:29N 31°07' E 121°28'68220821.9
2015-Jan-17 04:27N 22°11' E 113°35'19489.1
2015-Jan-17 04:25N 22°27' E 113°48'1833764.3
2015-Jan-17 04:22N 23°27' E 116°56'538276889.0
2015-Jan-17 04:22N 31°57' E 120°11'311726.6
2015-Jan-17 04:21N 31°59' E 120°48'3267.0
2015-Jan-17 04:20N 31°59' E 120°51'25175.8
2015-Jan-17 04:12N 31°58' E 120°21'1624.7
2015-Jan-17 03:33N 31°59' E 120°40'134159.7
2015-Jan-17 03:33N 32°01' E 120°25'303942.1
2015-Jan-17 03:33N 31°46' E 120°55'4317105.3
2015-Jan-17 03:33N 31°57' E 120°07'682163675.4
2015-Jan-17 03:32N 22°11' E 113°35'68179094.4
2015-Jan-17 03:32N 31°05' E 121°28'140.7
2015-Jan-17 03:31N 31°06' E 121°28'1917.4
2015-Jan-17 03:30N 31°07' E 121°28'4028659.5
2015-Jan-17 03:28N 24°45' E 119°07'4353069.9
2015-Jan-17 03:19N 31°56' E 120°11'6648632.3
2015-Jan-17 03:15N 22°27' E 113°48'2545850.1
2015-Jan-17 03:12N 24°25' E 117°52'254396.9
2015-Jan-17 02:34N 23°05' E 113°28'657788275.0
2015-Jan-17 02:33N 31°59' E 120°40'66119215.4
2015-Jan-17 02:33N 31°07' E 121°28'21230.1
2015-Jan-17 02:33N 31°05' E 121°28'5059867.5
2015-Jan-17 02:33N 31°46' E 120°55'1526127.1
2015-Jan-17 02:33N 31°59' E 120°48'35203.9
2015-Jan-17 02:33N 31°59' E 120°51'703230195.3
2015-Jan-17 02:33N 22°11' E 113°37'70284267.0
2015-Jan-17 02:33N 31°58' E 120°51'33462.0
2015-Jan-17 02:28N 31°56' E 120°11'4686526.8
2015-Jan-17 02:24N 24°25' E 117°52'2631279.0
2015-Jan-17 02:12N 23°03' E 113°19'631702.2
2015-Jan-17 02:09N 22°19' E 114°08'31210995.3
2015-Jan-17 02:08N 24°46' E 119°07'431757.2
2015-Jan-17 01:33N 31°46' E 120°55'5059843.8
2015-Jan-17 01:33N 31°05' E 121°28'6834924.8
2015-Jan-17 01:33N 32°01' E 120°42'696357993.4
2015-Jan-17 01:33N 22°14' E 113°41'5394586.4
2015-Jan-17 01:33N 23°05' E 113°28'650234128.4
2015-Jan-17 01:33N 31°15' E 121°30'5740961.7
2015-Jan-17 01:33N 31°59' E 120°48'35104.7
2015-Jan-17 01:33N 31°59' E 120°51'602221.8
2015-Jan-17 01:31N 31°07' E 121°28'664967.7
2015-Jan-17 01:30N 31°59' E 120°40'24666.2
2015-Jan-17 01:28N 31°56' E 120°11'7210427.5
2015-Jan-17 01:28N 31°20' E 121°25'4133998.4
2015-Jan-17 01:22N 24°45' E 119°08'31244908.8
2015-Jan-17 01:21N 22°19' E 114°08'59331.4
2015-Jan-17 01:11N 23°02' E 113°24'4776.5
2015-Jan-17 00:33N 22°18' E 113°44'6861234149.8
2015-Jan-17 00:33N 31°46' E 120°55'5025634.6
2015-Jan-17 00:33N 31°05' E 121°28'13662.9
2015-Jan-17 00:32N 31°17' E 121°34'1119766.0
2015-Jan-17 00:32N 31°07' E 121°28'142853.6
2015-Jan-17 00:32N 31°21' E 121°27'552512.3
2015-Jan-17 00:30N 31°59' E 120°40'24181.0
2015-Jan-17 00:22N 31°56' E 120°11'6622061.0
2015-Jan-17 00:03N 22°19' E 114°08'6771372.4
2015-Jan-16 23:33N 31°59' E 120°40'185533.4
2015-Jan-16 23:33N 31°46' E 120°55'6812452606.4
2015-Jan-16 23:33N 22°23' E 113°45'668300462.1
2015-Jan-16 23:33N 31°07' E 121°28'22467.3
2015-Jan-16 23:33N 31°05' E 121°28'6411559.5
2015-Jan-16 23:33N 31°59' E 120°48'518782.6
2015-Jan-16 23:32N 31°23' E 121°30'495687.0
2015-Jan-16 23:32N 31°59' E 120°51'667133484.5
2015-Jan-16 23:32N 23°02' E 113°24'59717.7
2015-Jan-16 23:27N 22°19' E 114°08'6622453.2
2015-Jan-16 23:10N 31°56' E 120°11'3150.7
2015-Jan-16 22:34N 31°59' E 120°48'6457797.5
2015-Jan-16 22:33N 31°05' E 121°28'6881600.2
2015-Jan-16 22:33N 31°59' E 120°40'6623839.7
2015-Jan-16 22:33N 31°07' E 121°28'66235934.3
2015-Jan-16 22:33N 32°02' E 120°45'1815894.0
2015-Jan-16 22:33N 31°46' E 120°55'515370710.2
2015-Jan-16 22:33N 23°42' E 117°36'52538605.1
2015-Jan-16 22:32N 31°59' E 120°51'34530.3
2015-Jan-16 22:28N 31°56' E 120°11'6644930.5
2015-Jan-16 22:20N 22°27' E 113°48'393.8
2015-Jan-16 22:18N 22°29' E 113°47'22137.1
2015-Jan-16 22:09N 22°19' E 114°08'6811158.9
2015-Jan-16 21:34N 32°00' E 120°46'21349.3
2015-Jan-16 21:33N 31°59' E 120°48'6428898.7
2015-Jan-16 21:33N 31°05' E 121°28'5022410.9
2015-Jan-16 21:33N 31°46' E 120°55'4810796.6
2015-Jan-16 21:33N 31°07' E 121°28'48528143.4
2015-Jan-16 21:32N 23°47' E 117°39'52011854.0
2015-Jan-16 21:29N 31°59' E 120°51'342836.5
2015-Jan-16 21:29N 31°56' E 120°11'3942.3
2015-Jan-16 20:33N 31°46' E 120°55'1866354.7
2015-Jan-16 20:33N 31°59' E 120°40'5121844088.0
2015-Jan-16 20:33N 23°51' E 117°43'478286570.4
2015-Jan-16 20:33N 31°05' E 121°28'6419265.8
2015-Jan-16 20:33N 31°59' E 120°48'3443.9
2015-Jan-16 20:33N 31°59' E 120°51'601601.0
2015-Jan-16 20:30N 31°07' E 121°28'682182.4
2015-Jan-16 20:29N 31°60' E 120°37'2240243.4
2015-Jan-16 20:29N 31°56' E 120°11'6454293.1
2015-Jan-16 20:20N 23°02' E 113°24'666867.2
2015-Jan-16 19:33N 31°59' E 120°48'712092.8
2015-Jan-16 19:33N 31°59' E 120°40'6848960.1
2015-Jan-16 19:33N 31°05' E 121°28'74267016.3
2015-Jan-16 19:33N 32°01' E 120°31'7213043.4
2015-Jan-16 19:33N 31°07' E 121°28'4828787.9
2015-Jan-16 19:33N 31°46' E 120°55'50028102.1
2015-Jan-16 19:32N 23°55' E 117°48'51021611.6
2015-Jan-16 19:30N 31°59' E 120°51'34731.5
2015-Jan-16 19:28N 31°56' E 120°11'6454788.5
2015-Jan-16 19:20N 23°02' E 113°24'6432768.1
2015-Jan-16 19:06N 32°03' E 119°55'2648.5
2015-Jan-16 18:34N 32°01' E 120°25'136459.0
2015-Jan-16 18:33N 31°59' E 120°40'6848967.0
2015-Jan-16 18:33N 31°05' E 121°28'27423.4
2015-Jan-16 18:33N 31°07' E 121°28'821878.9
2015-Jan-16 18:31N 31°56' E 120°11'162244.7
2015-Jan-16 18:30N 32°03' E 119°55'6434987.5
2015-Jan-16 18:23N 23°02' E 113°24'42312.4
2015-Jan-16 18:15N 22°26' E 113°48'6226.8
2015-Jan-16 18:13N 22°24' E 113°54'6764455.4
2015-Jan-16 18:04N 31°46' E 120°55'151541.0
2015-Jan-16 18:03N 31°59' E 120°48'713.5
2015-Jan-16 17:33N 31°59' E 120°40'6818830.8
2015-Jan-16 17:33N 31°05' E 121°28'7994396.5
2015-Jan-16 17:33N 31°58' E 120°21'777709.4
2015-Jan-16 17:33N 31°07' E 121°28'822154.7
2015-Jan-16 17:30N 31°56' E 120°11'66826133.4
2015-Jan-16 17:29N 22°24' E 113°45'68019754.8
2015-Jan-16 17:27N 31°46' E 120°55'6609654.9
2015-Jan-16 17:23N 23°02' E 113°24'648792.7
2015-Jan-16 16:34N 31°05' E 121°28'454136146.7
2015-Jan-16 16:33N 24°10' E 118°02'45674548.2
2015-Jan-16 16:33N 31°07' E 121°28'489637.2
2015-Jan-16 16:33N 31°46' E 120°55'3531685.3
2015-Jan-16 16:33N 31°56' E 120°15'21569.1
2015-Jan-16 16:30N 31°59' E 120°40'24410.8
2015-Jan-16 16:27N 31°57' E 120°11'319335.7
2015-Jan-16 16:27N 31°59' E 120°48'3200.2
2015-Jan-16 16:26N 31°59' E 120°51'6943258.7
2015-Jan-16 16:13N 22°19' E 113°42'6721010.2
2015-Jan-16 15:33N 31°07' E 121°28'8224553.0
2015-Jan-16 15:33N 31°57' E 120°11'315188893.0
2015-Jan-16 15:33N 36°50' E 122°30'313225679.1
2015-Jan-16 15:33N 31°46' E 120°55'68940034.1
2015-Jan-16 15:32N 22°16' E 113°40'69332803.1
2015-Jan-16 15:30N 31°59' E 120°40'662709.4
2015-Jan-16 15:29N 31°07' E 121°28'44913129.8
2015-Jan-16 15:27N 24°14' E 118°09'2602568.2
2015-Jan-16 15:21N 22°29' E 113°51'6803796.4
2015-Jan-16 15:10N 31°59' E 120°48'5996.6
2015-Jan-16 14:33N 31°11' E 121°28'447160762.5
2015-Jan-16 14:33N 24°18' E 118°16'470564159.4
2015-Jan-16 14:33N 31°56' E 120°11'681408881.5
2015-Jan-16 14:33N 22°12' E 113°37'694108637.6
2015-Jan-16 14:32N 31°46' E 120°55'66043986.8
2015-Jan-16 14:32N 23°02' E 113°24'66234037.7
2015-Jan-16 14:30N 31°59' E 120°40'7636.5
2015-Jan-16 14:30N 31°59' E 120°48'310209.4
2015-Jan-16 14:30N 31°59' E 120°51'30750275.8
2015-Jan-16 14:29N 36°55' E 122°29'35270364.7
2015-Jan-16 14:29N 31°07' E 121°28'39813267.1
2015-Jan-16 14:27N 24°53' E 118°55'3057183.2
2015-Jan-16 14:25N 22°19' E 114°08'25180.6
2015-Jan-16 14:16N 22°34' E 113°46'658912.1
2015-Jan-16 13:33N 31°56' E 120°11'8242112.9
2015-Jan-16 13:33N 31°07' E 121°28'71281.8
2015-Jan-16 13:33N 31°14' E 121°30'404132334.4
2015-Jan-16 13:32N 24°52' E 118°57'427219430.4
2015-Jan-16 13:32N 31°46' E 120°55'42773131.7
2015-Jan-16 13:32N 24°53' E 118°57'30778845.5
2015-Jan-16 13:32N 22°19' E 114°08'30824141.1
2015-Jan-16 13:31N 24°52' E 118°60'43649063.6
2015-Jan-16 13:30N 31°59' E 120°40'712092.9
2015-Jan-16 13:30N 31°59' E 120°48'30816773.8
2015-Jan-16 13:29N 36°55' E 122°29'745670735.9
2015-Jan-16 13:29N 24°53' E 118°57'3361725.5
2015-Jan-16 13:17N 22°13' E 113°34'699950.0
2015-Jan-16 12:33N 31°59' E 120°40'66238430.8
2015-Jan-16 12:33N 31°07' E 121°28'8217346.9
2015-Jan-16 12:33N 31°56' E 120°11'42936766.6
2015-Jan-16 12:32N 24°53' E 118°57'43878786.2
2015-Jan-16 12:32N 31°59' E 120°48'146509.9
2015-Jan-16 12:32N 31°46' E 120°55'42513087.1
2015-Jan-16 12:30N 24°53' E 119°03'9354.5
2015-Jan-16 12:28N 24°48' E 118°55'3036304.9
2015-Jan-16 12:26N 22°19' E 114°08'9796978.7
2015-Jan-16 12:17N 36°55' E 122°29'9997814.4
2015-Jan-16 12:10N 22°12' E 113°34'33722451.7
2015-Jan-16 12:09N 24°53' E 118°57'40958862.4
2015-Jan-16 12:08N 31°17' E 121°34'1119.5
2015-Jan-16 11:34N 31°07' E 121°28'3521266564.2
2015-Jan-16 11:33N 36°55' E 122°29'309123777.0
2015-Jan-16 11:33N 31°59' E 120°40'246764.4
2015-Jan-16 11:33N 31°56' E 120°11'431776045.9
2015-Jan-16 11:33N 24°51' E 118°55'3182.7
2015-Jan-16 11:32N 24°53' E 118°57'3376309.7
2015-Jan-16 11:29N 22°11' E 113°35'69586314.6
2015-Jan-16 11:29N 31°20' E 121°33'427516.3
2015-Jan-16 11:28N 31°46' E 120°55'10322.0
2015-Jan-16 11:26N 31°56' E 120°52'6673605.3
2015-Jan-16 11:15N 22°53' E 113°34'461452.0
2015-Jan-16 11:13N 22°19' E 114°08'9791469.6
2015-Jan-16 10:33N 36°55' E 122°29'32071906.9
2015-Jan-16 10:33N 31°56' E 120°11'561252470.0
2015-Jan-16 10:33N 22°35' E 120°17'552283806.9
2015-Jan-16 10:33N 31°46' E 120°55'15210.6
2015-Jan-16 10:29N 32°00' E 120°48'35974.1
2015-Jan-16 10:29N 31°59' E 120°51'14215.9
2015-Jan-16 10:28N 31°58' E 120°51'496739.3
2015-Jan-16 10:28N 31°22' E 121°30'5110897.1
2015-Jan-16 10:28N 31°59' E 120°48'43654171.0
2015-Jan-16 10:27N 24°52' E 119°04'3302549.5
2015-Jan-16 10:20N 23°02' E 113°24'51706.3
2015-Jan-16 10:15N 22°11' E 113°35'6993544.7
2015-Jan-16 10:03N 31°59' E 120°40'309622.7
2015-Jan-16 09:34N 36°55' E 122°29'9733504567.0
2015-Jan-16 09:33N 22°32' E 113°51'658169231.6
2015-Jan-16 09:33N 31°56' E 120°11'55787192.6
2015-Jan-16 09:33N 22°39' E 120°11'166119534.6
2015-Jan-16 09:33N 24°25' E 117°52'27114995.7
2015-Jan-16 09:32N 22°11' E 113°36'6822455735.5
2015-Jan-16 09:32N 31°07' E 121°28'18668.0
2015-Jan-16 09:30N 31°25' E 121°30'3610025.1
2015-Jan-16 09:30N 31°46' E 120°55'66592057.7
2015-Jan-16 09:29N 22°55' E 113°26'67153693.2
2015-Jan-16 09:29N 31°59' E 120°48'6626354.4
2015-Jan-16 09:22N 23°03' E 113°30'6589586.6
2015-Jan-16 09:18N 31°59' E 120°40'10157.3
2015-Jan-16 09:15N 31°59' E 120°51'1110008.6
2015-Jan-16 09:15N 31°60' E 120°38'6576192.1
2015-Jan-16 09:08N 23°03' E 113°30'5103.2
2015-Jan-16 09:05N 23°03' E 113°25'6591232.1
2015-Jan-16 08:33N 31°46' E 120°55'4371571771.6
2015-Jan-16 08:33N 24°43' E 118°53'439526469.2
2015-Jan-16 08:33N 31°56' E 120°11'6421155163.2
2015-Jan-16 08:33N 23°05' E 113°26'2387.3
2015-Jan-16 08:33N 23°04' E 113°28'64425215.4
2015-Jan-16 08:31N 31°07' E 121°28'644231931.3
2015-Jan-16 08:31N 23°04' E 113°29'537693.5
2015-Jan-16 08:31N 22°11' E 113°33'271632.8
2015-Jan-16 08:30N 22°32' E 113°51'97424855.7
2015-Jan-16 08:28N 36°55' E 122°29'3073676.7
2015-Jan-16 08:23N 32°03' E 120°33'6916621.4
2015-Jan-16 08:22N 31°15' E 121°32'583868.2
2015-Jan-16 08:21N 31°59' E 120°48'73455.3
2015-Jan-16 08:21N 31°59' E 120°40'46154.0
2015-Jan-16 08:04N 31°31' E 121°22'46437139.8
2015-Jan-16 08:03N 24°25' E 117°52'478971.8
2015-Jan-16 07:33N 31°59' E 120°40'440198061.7
2015-Jan-16 07:33N 24°48' E 118°58'3127540.5
2015-Jan-16 07:31N 22°32' E 113°51'393394.9
2015-Jan-16 07:30N 23°04' E 113°29'65829262.6
2015-Jan-16 07:29N 31°33' E 121°19'231478.6
2015-Jan-16 07:28N 31°11' E 121°28'348208765.5
2015-Jan-16 07:28N 36°55' E 122°29'3529668.4
2015-Jan-16 07:25N 31°07' E 121°28'821228.7
2015-Jan-16 07:21N 31°56' E 120°11'39551.0
2015-Jan-16 07:17N 31°46' E 120°55'142168.3
2015-Jan-16 07:17N 31°59' E 120°48'48014045.2
2015-Jan-16 07:15N 24°25' E 117°52'2638223.6
2015-Jan-16 07:13N 23°03' E 113°19'9218.6
2015-Jan-16 07:10N 23°04' E 113°29'6411042.9
2015-Jan-16 06:33N 31°56' E 120°11'39139408.5
2015-Jan-16 06:33N 31°46' E 120°55'509537.2
2015-Jan-16 06:33N 31°04' E 121°28'393282872.9
2015-Jan-16 06:33N 24°53' E 119°03'39594870.2
2015-Jan-16 06:33N 31°07' E 121°28'64413803.2
2015-Jan-16 06:30N 23°04' E 113°29'65183644.6
2015-Jan-16 06:30N 32°01' E 120°23'31218704.6
2015-Jan-16 06:29N 36°55' E 122°29'7873417.9
2015-Jan-16 06:15N 24°25' E 117°52'27410274.6
2015-Jan-16 06:13N 22°11' E 113°32'271044.0
2015-Jan-16 06:12N 22°31' E 113°51'67417973.6
2015-Jan-16 06:09N 31°59' E 120°40'65720056.7
2015-Jan-16 06:07N 23°04' E 113°29'6411137.6
2015-Jan-16 05:34N 31°57' E 120°11'31745611.7
2015-Jan-16 05:33N 36°52' E 122°29'34996585.8
2015-Jan-16 05:33N 31°07' E 121°28'658473821.2
2015-Jan-16 05:33N 22°33' E 113°48'65550193.8
2015-Jan-16 05:32N 31°03' E 121°28'524224.6
2015-Jan-16 05:31N 31°46' E 120°55'65530243.4
2015-Jan-16 05:30N 23°04' E 113°29'54683.5
2015-Jan-16 05:25N 22°11' E 113°35'70043438.7
2015-Jan-16 05:24N 31°59' E 120°40'83536.7
2015-Jan-16 05:24N 32°00' E 120°49'310.8
2015-Jan-16 05:08N 31°58' E 120°51'31001.1
2015-Jan-16 05:08N 31°59' E 120°48'62107.8
2015-Jan-16 04:33N 31°07' E 121°28'68258442.8
2015-Jan-16 04:32N 22°11' E 113°36'353181789.3
2015-Jan-16 04:32N 25°03' E 119°13'3368645.3
2015-Jan-16 04:30N 23°04' E 113°29'6397193.4
2015-Jan-16 04:25N 31°56' E 120°09'862378.5
2015-Jan-16 04:22N 31°03' E 121°28'851315.4
2015-Jan-16 04:19N 31°56' E 120°11'3969627.2
2015-Jan-16 04:19N 31°46' E 120°55'144333.5
2015-Jan-16 04:18N 31°59' E 120°48'74000.4
2015-Jan-16 04:18N 31°59' E 120°40'10789.7
2015-Jan-16 04:18N 31°58' E 120°51'31462.8
2015-Jan-16 04:14N 31°56' E 120°15'4682573.0
2015-Jan-16 04:03N 24°25' E 117°52'471937.2
2015-Jan-16 03:32N 32°03' E 119°55'5410796.2
2015-Jan-16 03:32N 31°46' E 120°55'5213299.4
2015-Jan-16 03:32N 31°03' E 121°28'6325384.5
2015-Jan-16 03:32N 31°58' E 120°51'66388352.5
2015-Jan-16 03:31N 23°04' E 113°29'64157672.5
2015-Jan-16 03:31N 31°57' E 120°11'8222688.4
2015-Jan-16 03:30N 31°07' E 121°28'64485884.5
2015-Jan-16 03:30N 23°04' E 113°29'5347910.4
2015-Jan-16 03:30N 22°11' E 113°35'31112250.1
2015-Jan-16 03:30N 22°19' E 114°08'67715241.8
2015-Jan-16 03:27N 31°59' E 120°40'4784319.5
2015-Jan-16 03:21N 24°25' E 117°52'48030847.2
2015-Jan-16 03:20N 31°59' E 120°48'32373.0
2015-Jan-16 03:15N 31°56' E 120°10'4368168.7
2015-Jan-16 03:11N 24°43' E 119°08'3904700.4
2015-Jan-16 03:06N 30°58' E 121°14'392713.5
2015-Jan-16 02:33N 24°42' E 119°06'44635662.0
2015-Jan-16 02:33N 31°58' E 120°51'31746.0
2015-Jan-16 02:32N 31°59' E 120°48'141855.8
2015-Jan-16 02:32N 31°46' E 120°55'5215522.9
2015-Jan-16 02:32N 31°03' E 121°28'64276995.7
2015-Jan-16 02:31N 23°04' E 113°29'64164082.5
2015-Jan-16 02:31N 31°57' E 120°11'64152425.3
2015-Jan-16 02:30N 23°04' E 113°29'6576819.6
2015-Jan-16 02:24N 31°59' E 120°40'66848.4
2015-Jan-16 02:20N 31°07' E 121°28'643760.4
2015-Jan-16 02:18N 32°01' E 120°48'6703851.3
2015-Jan-16 02:08N 23°03' E 113°18'362108715.8
2015-Jan-16 02:08N 25°16' E 119°27'398691.8
2015-Jan-16 01:33N 31°46' E 120°55'481204.5
2015-Jan-16 01:31N 31°07' E 121°28'8226814.8
2015-Jan-16 01:31N 31°57' E 120°11'43954439.9
2015-Jan-16 01:30N 24°42' E 119°06'432800.0
2015-Jan-16 01:29N 25°18' E 119°32'40791494.2
2015-Jan-16 01:29N 31°58' E 120°51'312229.2
2015-Jan-16 01:29N 31°59' E 120°48'66421.5
2015-Jan-16 01:20N 31°03' E 121°28'70925.3
2015-Jan-16 01:15N 31°59' E 120°40'678221924.2
2015-Jan-16 01:15N 22°26' E 113°53'45297.2
2015-Jan-16 01:06N 23°04' E 113°29'6551209.1
2015-Jan-16 00:33N 31°46' E 120°55'124414.5
2015-Jan-16 00:33N 31°58' E 120°51'33954.0
2015-Jan-16 00:33N 31°59' E 120°48'76046.8
2015-Jan-16 00:33N 31°59' E 120°40'477245439.8
2015-Jan-16 00:33N 24°26' E 117°51'44524641.2
2015-Jan-16 00:32N 31°07' E 121°28'4375.7
2015-Jan-16 00:31N 31°03' E 121°28'6421154873.2
2015-Jan-16 00:31N 23°04' E 113°29'323581648.4
2015-Jan-16 00:31N 24°41' E 119°06'32314914.7
2015-Jan-16 00:30N 23°04' E 113°29'64118163.5
2015-Jan-16 00:28N 31°57' E 120°11'16112.7
2015-Jan-16 00:20N 32°04' E 119°55'4558.3
2015-Jan-15 23:33N 31°59' E 120°48'141680.5
2015-Jan-15 23:33N 31°46' E 120°55'121777.7
2015-Jan-15 23:33N 31°58' E 120°51'66332239.3
2015-Jan-15 23:31N 23°04' E 113°29'641100309.4
2015-Jan-15 23:31N 31°57' E 120°11'241911.5
2015-Jan-15 23:30N 31°59' E 120°40'6659603.4
2015-Jan-15 23:30N 31°07' E 121°28'644331293.8
2015-Jan-15 23:30N 23°04' E 113°29'64221788.8
2015-Jan-15 23:28N 31°03' E 121°28'40426902.6
2015-Jan-15 23:27N 24°40' E 119°06'6824545.2
2015-Jan-15 23:27N 24°24' E 117°53'4712755.0
2015-Jan-15 23:17N 31°45' E 121°03'468640.7
2015-Jan-15 22:33N 24°25' E 118°01'442795099.4
2015-Jan-15 22:33N 31°07' E 121°28'4828858.4
2015-Jan-15 22:33N 31°46' E 120°55'1222171.8
2015-Jan-15 22:33N 31°58' E 120°51'3791.3
2015-Jan-15 22:33N 31°59' E 120°48'663715.9
2015-Jan-15 22:32N 31°03' E 121°28'642177669.3
2015-Jan-15 22:31N 23°04' E 113°29'641115349.5
2015-Jan-15 22:31N 31°57' E 120°11'241758.5
2015-Jan-15 22:30N 31°59' E 120°40'67737518.3
2015-Jan-15 22:29N 22°19' E 114°08'581668.2
2015-Jan-15 22:27N 23°04' E 113°29'43665.7
2015-Jan-15 22:23N 22°27' E 113°53'68222516.5
2015-Jan-15 22:21N 31°58' E 120°52'4491926.8
2015-Jan-15 22:07N 24°39' E 119°07'438776.2
2015-Jan-15 21:33N 31°46' E 120°55'122463.5
2015-Jan-15 21:33N 31°58' E 120°51'6053816.2
2015-Jan-15 21:33N 31°07' E 121°28'6224959.5
2015-Jan-15 21:33N 31°59' E 120°48'1311369.2
2015-Jan-15 21:33N 31°48' E 120°55'65713511.5
2015-Jan-15 21:30N 23°04' E 113°29'64220996.6
2015-Jan-15 21:28N 31°03' E 121°28'6426675.6
2015-Jan-15 21:22N 23°04' E 113°29'641121423.4
2015-Jan-15 21:22N 31°57' E 120°11'241570.1
2015-Jan-15 21:21N 31°59' E 120°40'3796012.6
2015-Jan-15 21:17N 25°44' E 119°39'36647015.1
2015-Jan-15 21:17N 22°19' E 114°08'2522816.1
2015-Jan-15 21:11N 24°24' E 118°06'56469.4
2015-Jan-15 21:04N 24°38' E 119°06'439855.0
2015-Jan-15 20:33N 31°46' E 120°55'148673.4
2015-Jan-15 20:33N 31°59' E 120°48'71863.4
2015-Jan-15 20:33N 31°53' E 120°53'5244.1
2015-Jan-15 20:32N 31°58' E 120°51'647621.5
2015-Jan-15 20:31N 31°03' E 121°28'6422309734.5
2015-Jan-15 20:31N 23°04' E 113°29'641115352.2
2015-Jan-15 20:31N 31°57' E 120°11'64133924.4
2015-Jan-15 20:30N 23°04' E 113°29'6442319042.0
2015-Jan-15 20:30N 31°07' E 121°28'44156731.6
2015-Jan-15 20:29N 24°24' E 118°06'1481694.6
2015-Jan-15 20:24N 22°44' E 120°05'1268279.4
2015-Jan-15 20:23N 24°39' E 119°06'44812042.0
2015-Jan-15 20:21N 31°59' E 120°40'560699.6
2015-Jan-15 19:33N 22°40' E 120°11'54754747.4
2015-Jan-15 19:32N 31°46' E 120°55'391743.0
2015-Jan-15 19:31N 31°57' E 120°11'8561065.7
2015-Jan-15 19:31N 31°03' E 121°28'704115.2
2015-Jan-15 19:30N 31°59' E 120°40'65712722.5
2015-Jan-15 19:27N 23°04' E 113°29'64437402.1
2015-Jan-15 19:26N 31°07' E 121°28'40714947.4
2015-Jan-15 19:24N 24°40' E 119°08'594212.2
2015-Jan-15 19:23N 24°24' E 118°06'162193.7
2015-Jan-15 18:33N 22°36' E 120°17'342102589.3
2015-Jan-15 18:33N 22°19' E 114°08'528943.4
2015-Jan-15 18:33N 22°58' E 113°30'64626424.4
2015-Jan-15 18:31N 31°03' E 121°28'8533925.4
2015-Jan-15 18:31N 31°57' E 120°11'64130756.7
2015-Jan-15 18:30N 23°04' E 113°29'65526807.4
2015-Jan-15 18:28N 31°46' E 120°55'4675568.3
2015-Jan-15 18:23N 24°24' E 118°06'47511717.6
2015-Jan-15 18:21N 31°59' E 120°40'65724149.7
2015-Jan-15 18:19N 23°04' E 113°29'3 3.6
2015-Jan-15 17:33N 23°05' E 113°26'269484737.5
2015-Jan-15 17:33N 24°23' E 118°08'442105963.4
2015-Jan-15 17:33N 31°07' E 121°28'64474809.9
2015-Jan-15 17:33N 23°04' E 113°29'65747309.9
2015-Jan-15 17:32N 31°60' E 120°39'718487.3
2015-Jan-15 17:31N 31°03' E 121°28'8576332.1
2015-Jan-15 17:31N 31°57' E 120°11'39733.8
2015-Jan-15 17:28N 31°46' E 120°55'659719.2
2015-Jan-15 16:33N 23°03' E 113°25'648466336.0
2015-Jan-15 16:33N 31°07' E 121°28'71127740.4
2015-Jan-15 16:33N 32°01' E 120°33'676135122.1
2015-Jan-15 16:33N 22°19' E 114°08'25318570.5
2015-Jan-15 16:32N 24°18' E 118°10'26825373.7
2015-Jan-15 16:31N 23°04' E 113°29'6422309734.5
2015-Jan-15 16:31N 31°03' E 121°28'529799.0
2015-Jan-15 16:31N 31°46' E 120°55'3919917.0
2015-Jan-15 16:31N 31°57' E 120°11'6468310.3
2015-Jan-15 16:26N 23°03' E 113°21'6637675.5
2015-Jan-15 16:21N 31°59' E 120°40'763.7
2015-Jan-15 16:15N 31°59' E 120°48'1419.9
2015-Jan-15 15:33N 32°01' E 120°32'48551313.8
2015-Jan-15 15:33N 24°13' E 118°07'269161265.8
2015-Jan-15 15:33N 23°02' E 113°24'64625017.2
2015-Jan-15 15:31N 31°03' E 121°28'521959.6
2015-Jan-15 15:30N 31°46' E 120°55'391315.4
2015-Jan-15 15:28N 31°57' E 120°11'241542.4
2015-Jan-15 15:27N 31°59' E 120°40'741.6
2015-Jan-15 15:17N 31°59' E 120°48'622005.5
2015-Jan-15 15:15N 31°07' E 121°28'66623980.9
2015-Jan-15 15:14N 22°24' E 113°46'4363.5
2015-Jan-15 14:33N 23°02' E 113°24'659197742.6
2015-Jan-15 14:33N 32°01' E 120°32'7210366.6
2015-Jan-15 14:33N 31°07' E 121°28'455409608.1
2015-Jan-15 14:32N 24°10' E 118°02'25912955.8
2015-Jan-15 14:31N 23°04' E 113°